<?xml version="1.0" encoding="UTF-8" ?>
<gpx version="1.1" 
creator="Memory-Map 6.4.3.1278 https://memory-map.com"
 xmlns:xsi="http://www.w3.org/2001/XMLSchema-instance"
 xmlns="http://www.topografix.com/GPX/1/1"
 xmlns:xstyle="http://www.topografix.com/GPX/gpx_style/0/2"
 xmlns:xgarmin="http://www.garmin.com/xmlschemas/GpxExtensions/v3"
 xsi:schemaLocation="http://www.topografix.com/GPX/1/1 http://www.topografix.com/GPX/1/1/gpx.xsd http://www.topografix.com/GPX/gpx_style/0/2 http://www.topografix.com/GPX/gpx_style/0/2/gpx_style.xsd http://www.garmin.com/xmlschemas/GpxExtensions/v3 https://www8.garmin.com/xmlschemas/GpxExtensionsv3.xsd">
<trk>
<name>1457 Gazteluzahar</name>
<src>mmid:5BFAC55359BC8A6E</src>
<type>Track</type>
<extensions> <xstyle:line>
<xstyle:color>ff8000</xstyle:color>
<xstyle:opacity>1.0</xstyle:opacity>
<xstyle:width>2.0</xstyle:width>
<xstyle:pattern>Solid</xstyle:pattern>
</xstyle:line></extensions>
<trkseg>
<trkpt lat="43.2564520000" lon="-1.0719650000"><ele>168</ele><time>2026-04-24T05:41:22Z</time></trkpt>
<trkpt lat="43.2564620000" lon="-1.0719420000"><ele>167</ele><time>2026-04-24T05:41:28Z</time></trkpt>
<trkpt lat="43.2564500000" lon="-1.0719120000"><ele>167</ele><time>2026-04-24T05:41:32Z</time></trkpt>
<trkpt lat="43.2564370000" lon="-1.0718820000"><ele>167</ele><time>2026-04-24T05:41:34Z</time></trkpt>
<trkpt lat="43.2564270000" lon="-1.0718570000"><ele>167</ele><time>2026-04-24T05:41:36Z</time></trkpt>
<trkpt lat="43.2564100000" lon="-1.0718220000"><ele>167</ele><time>2026-04-24T05:41:39Z</time></trkpt>
<trkpt lat="43.2563920000" lon="-1.0718300000"><ele>167</ele><time>2026-04-24T05:41:45Z</time></trkpt>
<trkpt lat="43.2563820000" lon="-1.0717920000"><ele>167</ele><time>2026-04-24T05:41:48Z</time></trkpt>
<trkpt lat="43.2563800000" lon="-1.0717670000"><ele>166</ele><time>2026-04-24T05:41:50Z</time></trkpt>
<trkpt lat="43.2563770000" lon="-1.0717320000"><ele>166</ele><time>2026-04-24T05:41:52Z</time></trkpt>
<trkpt lat="43.2563720000" lon="-1.0716970000"><ele>166</ele><time>2026-04-24T05:41:54Z</time></trkpt>
<trkpt lat="43.2563720000" lon="-1.0716700000"><ele>166</ele><time>2026-04-24T05:41:56Z</time></trkpt>
<trkpt lat="43.2563820000" lon="-1.0716330000"><ele>166</ele><time>2026-04-24T05:41:59Z</time></trkpt>
<trkpt lat="43.2564020000" lon="-1.0716200000"><ele>166</ele><time>2026-04-24T05:42:02Z</time></trkpt>
<trkpt lat="43.2563820000" lon="-1.0715870000"><ele>165</ele><time>2026-04-24T05:42:20Z</time></trkpt>
<trkpt lat="43.2563670000" lon="-1.0715570000"><ele>165</ele><time>2026-04-24T05:42:22Z</time></trkpt>
<trkpt lat="43.2563620000" lon="-1.0715270000"><ele>165</ele><time>2026-04-24T05:42:26Z</time></trkpt>
<trkpt lat="43.2563450000" lon="-1.0715070000"><ele>165</ele><time>2026-04-24T05:42:28Z</time></trkpt>
<trkpt lat="43.2563270000" lon="-1.0714850000"><ele>165</ele><time>2026-04-24T05:42:31Z</time></trkpt>
<trkpt lat="43.2563120000" lon="-1.0714670000"><ele>165</ele><time>2026-04-24T05:42:33Z</time></trkpt>
<trkpt lat="43.2562950000" lon="-1.0714520000"><ele>165</ele><time>2026-04-24T05:42:35Z</time></trkpt>
<trkpt lat="43.2562770000" lon="-1.0714320000"><ele>165</ele><time>2026-04-24T05:42:37Z</time></trkpt>
<trkpt lat="43.2562620000" lon="-1.0714070000"><ele>165</ele><time>2026-04-24T05:42:39Z</time></trkpt>
<trkpt lat="43.2562470000" lon="-1.0713870000"><ele>165</ele><time>2026-04-24T05:42:41Z</time></trkpt>
<trkpt lat="43.2562370000" lon="-1.0713600000"><ele>164</ele><time>2026-04-24T05:42:43Z</time></trkpt>
<trkpt lat="43.2562220000" lon="-1.0713330000"><ele>164</ele><time>2026-04-24T05:42:45Z</time></trkpt>
<trkpt lat="43.2561970000" lon="-1.0713100000"><ele>164</ele><time>2026-04-24T05:42:47Z</time></trkpt>
<trkpt lat="43.2561800000" lon="-1.0712970000"><ele>164</ele><time>2026-04-24T05:42:49Z</time></trkpt>
<trkpt lat="43.2561620000" lon="-1.0712870000"><ele>164</ele><time>2026-04-24T05:42:51Z</time></trkpt>
<trkpt lat="43.2561370000" lon="-1.0712770000"><ele>164</ele><time>2026-04-24T05:42:53Z</time></trkpt>
<trkpt lat="43.2561120000" lon="-1.0712720000"><ele>163</ele><time>2026-04-24T05:42:55Z</time></trkpt>
<trkpt lat="43.2560970000" lon="-1.0712820000"><ele>163</ele><time>2026-04-24T05:42:57Z</time></trkpt>
<trkpt lat="43.2560770000" lon="-1.0713020000"><ele>164</ele><time>2026-04-24T05:43:00Z</time></trkpt>
<trkpt lat="43.2560670000" lon="-1.0713320000"><ele>164</ele><time>2026-04-24T05:43:03Z</time></trkpt>
<trkpt lat="43.2560570000" lon="-1.0713620000"><ele>164</ele><time>2026-04-24T05:43:09Z</time></trkpt>
<trkpt lat="43.2560500000" lon="-1.0713870000"><ele>164</ele><time>2026-04-24T05:43:11Z</time></trkpt>
<trkpt lat="43.2560520000" lon="-1.0714170000"><ele>164</ele><time>2026-04-24T05:43:15Z</time></trkpt>
<trkpt lat="43.2560470000" lon="-1.0713870000"><ele>164</ele><time>2026-04-24T05:43:43Z</time></trkpt>
<trkpt lat="43.2560220000" lon="-1.0713570000"><ele>164</ele><time>2026-04-24T05:43:45Z</time></trkpt>
<trkpt lat="43.2560070000" lon="-1.0713180000"><ele>164</ele><time>2026-04-24T05:43:47Z</time></trkpt>
<trkpt lat="43.2560020000" lon="-1.0712820000"><ele>164</ele><time>2026-04-24T05:43:49Z</time></trkpt>
<trkpt lat="43.2559970000" lon="-1.0712500000"><ele>163</ele><time>2026-04-24T05:43:51Z</time></trkpt>
<trkpt lat="43.2559920000" lon="-1.0712200000"><ele>163</ele><time>2026-04-24T05:43:53Z</time></trkpt>
<trkpt lat="43.2559820000" lon="-1.0711900000"><ele>163</ele><time>2026-04-24T05:43:55Z</time></trkpt>
<trkpt lat="43.2559670000" lon="-1.0711720000"><ele>163</ele><time>2026-04-24T05:43:57Z</time></trkpt>
<trkpt lat="43.2559550000" lon="-1.0711520000"><ele>163</ele><time>2026-04-24T05:43:59Z</time></trkpt>
<trkpt lat="43.2559400000" lon="-1.0711370000"><ele>163</ele><time>2026-04-24T05:44:01Z</time></trkpt>
<trkpt lat="43.2559170000" lon="-1.0711020000"><ele>163</ele><time>2026-04-24T05:44:03Z</time></trkpt>
<trkpt lat="43.2559020000" lon="-1.0710700000"><ele>162</ele><time>2026-04-24T05:44:05Z</time></trkpt>
<trkpt lat="43.2558870000" lon="-1.0710420000"><ele>162</ele><time>2026-04-24T05:44:07Z</time></trkpt>
<trkpt lat="43.2558700000" lon="-1.0710170000"><ele>162</ele><time>2026-04-24T05:44:09Z</time></trkpt>
<trkpt lat="43.2558620000" lon="-1.0709920000"><ele>162</ele><time>2026-04-24T05:44:11Z</time></trkpt>
<trkpt lat="43.2558620000" lon="-1.0709620000"><ele>162</ele><time>2026-04-24T05:44:13Z</time></trkpt>
<trkpt lat="43.2558720000" lon="-1.0709400000"><ele>161</ele><time>2026-04-24T05:44:15Z</time></trkpt>
<trkpt lat="43.2558920000" lon="-1.0709120000"><ele>161</ele><time>2026-04-24T05:44:19Z</time></trkpt>
<trkpt lat="43.2559020000" lon="-1.0708920000"><ele>161</ele><time>2026-04-24T05:44:21Z</time></trkpt>
<trkpt lat="43.2559170000" lon="-1.0708720000"><ele>160</ele><time>2026-04-24T05:44:23Z</time></trkpt>
<trkpt lat="43.2559320000" lon="-1.0708550000"><ele>160</ele><time>2026-04-24T05:44:31Z</time></trkpt>
<trkpt lat="43.2559500000" lon="-1.0708280000"><ele>160</ele><time>2026-04-24T05:44:34Z</time></trkpt>
<trkpt lat="43.2559620000" lon="-1.0708050000"><ele>160</ele><time>2026-04-24T05:44:45Z</time></trkpt>
<trkpt lat="43.2559800000" lon="-1.0707720000"><ele>159</ele><time>2026-04-24T05:44:47Z</time></trkpt>
<trkpt lat="43.2559970000" lon="-1.0707380000"><ele>159</ele><time>2026-04-24T05:44:49Z</time></trkpt>
<trkpt lat="43.2560170000" lon="-1.0707170000"><ele>159</ele><time>2026-04-24T05:44:51Z</time></trkpt>
<trkpt lat="43.2560350000" lon="-1.0706980000"><ele>159</ele><time>2026-04-24T05:44:53Z</time></trkpt>
<trkpt lat="43.2560500000" lon="-1.0706850000"><ele>159</ele><time>2026-04-24T05:44:55Z</time></trkpt>
<trkpt lat="43.2560670000" lon="-1.0706700000"><ele>159</ele><time>2026-04-24T05:44:57Z</time></trkpt>
<trkpt lat="43.2560870000" lon="-1.0706580000"><ele>159</ele><time>2026-04-24T05:44:59Z</time></trkpt>
<trkpt lat="43.2561070000" lon="-1.0706400000"><ele>158</ele><time>2026-04-24T05:45:02Z</time></trkpt>
<trkpt lat="43.2561320000" lon="-1.0706320000"><ele>158</ele><time>2026-04-24T05:45:05Z</time></trkpt>
<trkpt lat="43.2561500000" lon="-1.0706300000"><ele>158</ele><time>2026-04-24T05:45:08Z</time></trkpt>
<trkpt lat="43.2561770000" lon="-1.0706180000"><ele>157</ele><time>2026-04-24T05:45:11Z</time></trkpt>
<trkpt lat="43.2561950000" lon="-1.0706120000"><ele>157</ele><time>2026-04-24T05:45:13Z</time></trkpt>
<trkpt lat="43.2562200000" lon="-1.0705970000"><ele>157</ele><time>2026-04-24T05:45:15Z</time></trkpt>
<trkpt lat="43.2562320000" lon="-1.0705720000"><ele>157</ele><time>2026-04-24T05:45:17Z</time></trkpt>
<trkpt lat="43.2562320000" lon="-1.0705370000"><ele>156</ele><time>2026-04-24T05:45:21Z</time></trkpt>
<trkpt lat="43.2562470000" lon="-1.0705150000"><ele>156</ele><time>2026-04-24T05:45:25Z</time></trkpt>
<trkpt lat="43.2562720000" lon="-1.0705150000"><ele>156</ele><time>2026-04-24T05:45:27Z</time></trkpt>
<trkpt lat="43.2562950000" lon="-1.0705120000"><ele>156</ele><time>2026-04-24T05:45:29Z</time></trkpt>
<trkpt lat="43.2563120000" lon="-1.0705120000"><ele>156</ele><time>2026-04-24T05:45:31Z</time></trkpt>
<trkpt lat="43.2563320000" lon="-1.0705170000"><ele>156</ele><time>2026-04-24T05:45:34Z</time></trkpt>
<trkpt lat="43.2563520000" lon="-1.0705220000"><ele>155</ele><time>2026-04-24T05:45:37Z</time></trkpt>
<trkpt lat="43.2563700000" lon="-1.0705100000"><ele>155</ele><time>2026-04-24T05:45:43Z</time></trkpt>
<trkpt lat="43.2563920000" lon="-1.0705000000"><ele>155</ele><time>2026-04-24T05:45:45Z</time></trkpt>
<trkpt lat="43.2564150000" lon="-1.0704900000"><ele>155</ele><time>2026-04-24T05:45:47Z</time></trkpt>
<trkpt lat="43.2564370000" lon="-1.0704820000"><ele>154</ele><time>2026-04-24T05:45:49Z</time></trkpt>
<trkpt lat="43.2564570000" lon="-1.0704750000"><ele>154</ele><time>2026-04-24T05:45:51Z</time></trkpt>
<trkpt lat="43.2564770000" lon="-1.0704650000"><ele>154</ele><time>2026-04-24T05:45:53Z</time></trkpt>
<trkpt lat="43.2565020000" lon="-1.0704550000"><ele>154</ele><time>2026-04-24T05:46:00Z</time></trkpt>
<trkpt lat="43.2565220000" lon="-1.0704470000"><ele>154</ele><time>2026-04-24T05:46:02Z</time></trkpt>
<trkpt lat="43.2565420000" lon="-1.0704270000"><ele>153</ele><time>2026-04-24T05:46:05Z</time></trkpt>
<trkpt lat="43.2565570000" lon="-1.0704020000"><ele>153</ele><time>2026-04-24T05:46:08Z</time></trkpt>
<trkpt lat="43.2565770000" lon="-1.0703830000"><ele>153</ele><time>2026-04-24T05:46:28Z</time></trkpt>
<trkpt lat="43.2566070000" lon="-1.0703720000"><ele>153</ele><time>2026-04-24T05:46:30Z</time></trkpt>
<trkpt lat="43.2566370000" lon="-1.0703600000"><ele>153</ele><time>2026-04-24T05:46:32Z</time></trkpt>
<trkpt lat="43.2566620000" lon="-1.0703450000"><ele>153</ele><time>2026-04-24T05:46:34Z</time></trkpt>
<trkpt lat="43.2566820000" lon="-1.0703250000"><ele>152</ele><time>2026-04-24T05:46:37Z</time></trkpt>
<trkpt lat="43.2567020000" lon="-1.0703170000"><ele>152</ele><time>2026-04-24T05:46:39Z</time></trkpt>
<trkpt lat="43.2567220000" lon="-1.0703070000"><ele>152</ele><time>2026-04-24T05:46:41Z</time></trkpt>
<trkpt lat="43.2567520000" lon="-1.0703020000"><ele>152</ele><time>2026-04-24T05:46:43Z</time></trkpt>
<trkpt lat="43.2567820000" lon="-1.0702930000"><ele>152</ele><time>2026-04-24T05:46:45Z</time></trkpt>
<trkpt lat="43.2568100000" lon="-1.0702870000"><ele>152</ele><time>2026-04-24T05:46:47Z</time></trkpt>
<trkpt lat="43.2568320000" lon="-1.0702750000"><ele>151</ele><time>2026-04-24T05:46:49Z</time></trkpt>
<trkpt lat="43.2568520000" lon="-1.0702620000"><ele>151</ele><time>2026-04-24T05:46:51Z</time></trkpt>
<trkpt lat="43.2568720000" lon="-1.0702470000"><ele>151</ele><time>2026-04-24T05:46:53Z</time></trkpt>
<trkpt lat="43.2568950000" lon="-1.0702370000"><ele>151</ele><time>2026-04-24T05:46:55Z</time></trkpt>
<trkpt lat="43.2569120000" lon="-1.0702270000"><ele>151</ele><time>2026-04-24T05:46:57Z</time></trkpt>
<trkpt lat="43.2569320000" lon="-1.0702130000"><ele>150</ele><time>2026-04-24T05:46:59Z</time></trkpt>
<trkpt lat="43.2569470000" lon="-1.0702020000"><ele>150</ele><time>2026-04-24T05:47:01Z</time></trkpt>
<trkpt lat="43.2569670000" lon="-1.0701920000"><ele>150</ele><time>2026-04-24T05:47:03Z</time></trkpt>
<trkpt lat="43.2569870000" lon="-1.0701850000"><ele>150</ele><time>2026-04-24T05:47:05Z</time></trkpt>
<trkpt lat="43.2570100000" lon="-1.0701770000"><ele>149</ele><time>2026-04-24T05:47:07Z</time></trkpt>
<trkpt lat="43.2570300000" lon="-1.0701670000"><ele>149</ele><time>2026-04-24T05:47:09Z</time></trkpt>
<trkpt lat="43.2570470000" lon="-1.0701620000"><ele>149</ele><time>2026-04-24T05:47:11Z</time></trkpt>
<trkpt lat="43.2570670000" lon="-1.0701520000"><ele>149</ele><time>2026-04-24T05:47:13Z</time></trkpt>
<trkpt lat="43.2570870000" lon="-1.0701420000"><ele>149</ele><time>2026-04-24T05:47:15Z</time></trkpt>
<trkpt lat="43.2571120000" lon="-1.0701300000"><ele>149</ele><time>2026-04-24T05:47:17Z</time></trkpt>
<trkpt lat="43.2571350000" lon="-1.0701220000"><ele>148</ele><time>2026-04-24T05:47:19Z</time></trkpt>
<trkpt lat="43.2571570000" lon="-1.0701130000"><ele>148</ele><time>2026-04-24T05:47:21Z</time></trkpt>
<trkpt lat="43.2571770000" lon="-1.0701070000"><ele>148</ele><time>2026-04-24T05:47:23Z</time></trkpt>
<trkpt lat="43.2572000000" lon="-1.0701020000"><ele>148</ele><time>2026-04-24T05:47:25Z</time></trkpt>
<trkpt lat="43.2572220000" lon="-1.0701000000"><ele>148</ele><time>2026-04-24T05:47:27Z</time></trkpt>
<trkpt lat="43.2572400000" lon="-1.0700970000"><ele>148</ele><time>2026-04-24T05:47:29Z</time></trkpt>
<trkpt lat="43.2572670000" lon="-1.0700950000"><ele>148</ele><time>2026-04-24T05:47:44Z</time></trkpt>
<trkpt lat="43.2573020000" lon="-1.0700870000"><ele>147</ele><time>2026-04-24T05:47:46Z</time></trkpt>
<trkpt lat="43.2573320000" lon="-1.0700850000"><ele>147</ele><time>2026-04-24T05:47:48Z</time></trkpt>
<trkpt lat="43.2573570000" lon="-1.0700870000"><ele>147</ele><time>2026-04-24T05:47:50Z</time></trkpt>
<trkpt lat="43.2573770000" lon="-1.0700870000"><ele>147</ele><time>2026-04-24T05:47:52Z</time></trkpt>
<trkpt lat="43.2574000000" lon="-1.0700870000"><ele>147</ele><time>2026-04-24T05:47:54Z</time></trkpt>
<trkpt lat="43.2574220000" lon="-1.0700900000"><ele>147</ele><time>2026-04-24T05:47:56Z</time></trkpt>
<trkpt lat="43.2574520000" lon="-1.0701000000"><ele>147</ele><time>2026-04-24T05:47:58Z</time></trkpt>
<trkpt lat="43.2574820000" lon="-1.0701070000"><ele>147</ele><time>2026-04-24T05:48:00Z</time></trkpt>
<trkpt lat="43.2575070000" lon="-1.0701080000"><ele>147</ele><time>2026-04-24T05:48:02Z</time></trkpt>
<trkpt lat="43.2575270000" lon="-1.0701120000"><ele>146</ele><time>2026-04-24T05:48:04Z</time></trkpt>
<trkpt lat="43.2575470000" lon="-1.0701170000"><ele>146</ele><time>2026-04-24T05:48:06Z</time></trkpt>
<trkpt lat="43.2575700000" lon="-1.0701170000"><ele>146</ele><time>2026-04-24T05:48:08Z</time></trkpt>
<trkpt lat="43.2575950000" lon="-1.0701180000"><ele>146</ele><time>2026-04-24T05:48:10Z</time></trkpt>
<trkpt lat="43.2576170000" lon="-1.0701170000"><ele>146</ele><time>2026-04-24T05:48:12Z</time></trkpt>
<trkpt lat="43.2576420000" lon="-1.0701170000"><ele>146</ele><time>2026-04-24T05:48:14Z</time></trkpt>
<trkpt lat="43.2576620000" lon="-1.0701170000"><ele>146</ele><time>2026-04-24T05:48:16Z</time></trkpt>
<trkpt lat="43.2576850000" lon="-1.0701180000"><ele>146</ele><time>2026-04-24T05:48:18Z</time></trkpt>
<trkpt lat="43.2577050000" lon="-1.0701180000"><ele>146</ele><time>2026-04-24T05:48:20Z</time></trkpt>
<trkpt lat="43.2577270000" lon="-1.0701170000"><ele>146</ele><time>2026-04-24T05:48:22Z</time></trkpt>
<trkpt lat="43.2577520000" lon="-1.0701130000"><ele>145</ele><time>2026-04-24T05:48:24Z</time></trkpt>
<trkpt lat="43.2577750000" lon="-1.0701130000"><ele>145</ele><time>2026-04-24T05:48:26Z</time></trkpt>
<trkpt lat="43.2578000000" lon="-1.0701120000"><ele>145</ele><time>2026-04-24T05:48:28Z</time></trkpt>
<trkpt lat="43.2578170000" lon="-1.0701170000"><ele>145</ele><time>2026-04-24T05:48:30Z</time></trkpt>
<trkpt lat="43.2578070000" lon="-1.0701370000"><ele>145</ele><time>2026-04-24T05:48:45Z</time></trkpt>
<trkpt lat="43.2578280000" lon="-1.0701320000"><ele>145</ele><time>2026-04-24T05:48:49Z</time></trkpt>
<trkpt lat="43.2578550000" lon="-1.0701300000"><ele>145</ele><time>2026-04-24T05:48:51Z</time></trkpt>
<trkpt lat="43.2578820000" lon="-1.0701250000"><ele>145</ele><time>2026-04-24T05:48:53Z</time></trkpt>
<trkpt lat="43.2579070000" lon="-1.0701180000"><ele>145</ele><time>2026-04-24T05:48:55Z</time></trkpt>
<trkpt lat="43.2579270000" lon="-1.0701120000"><ele>144</ele><time>2026-04-24T05:48:57Z</time></trkpt>
<trkpt lat="43.2579470000" lon="-1.0701020000"><ele>144</ele><time>2026-04-24T05:48:59Z</time></trkpt>
<trkpt lat="43.2579720000" lon="-1.0700900000"><ele>144</ele><time>2026-04-24T05:49:02Z</time></trkpt>
<trkpt lat="43.2579970000" lon="-1.0700780000"><ele>144</ele><time>2026-04-24T05:49:05Z</time></trkpt>
<trkpt lat="43.2580220000" lon="-1.0700670000"><ele>143</ele><time>2026-04-24T05:49:08Z</time></trkpt>
<trkpt lat="43.2580470000" lon="-1.0700620000"><ele>143</ele><time>2026-04-24T05:49:10Z</time></trkpt>
<trkpt lat="43.2580800000" lon="-1.0700570000"><ele>143</ele><time>2026-04-24T05:49:12Z</time></trkpt>
<trkpt lat="43.2581120000" lon="-1.0700420000"><ele>143</ele><time>2026-04-24T05:49:14Z</time></trkpt>
<trkpt lat="43.2581450000" lon="-1.0700320000"><ele>143</ele><time>2026-04-24T05:49:16Z</time></trkpt>
<trkpt lat="43.2581700000" lon="-1.0700270000"><ele>143</ele><time>2026-04-24T05:49:18Z</time></trkpt>
<trkpt lat="43.2581920000" lon="-1.0700170000"><ele>142</ele><time>2026-04-24T05:49:20Z</time></trkpt>
<trkpt lat="43.2582150000" lon="-1.0700070000"><ele>142</ele><time>2026-04-24T05:49:22Z</time></trkpt>
<trkpt lat="43.2582370000" lon="-1.0699970000"><ele>142</ele><time>2026-04-24T05:49:24Z</time></trkpt>
<trkpt lat="43.2582570000" lon="-1.0699870000"><ele>142</ele><time>2026-04-24T05:49:26Z</time></trkpt>
<trkpt lat="43.2582820000" lon="-1.0699780000"><ele>142</ele><time>2026-04-24T05:49:28Z</time></trkpt>
<trkpt lat="43.2583050000" lon="-1.0699720000"><ele>141</ele><time>2026-04-24T05:49:30Z</time></trkpt>
<trkpt lat="43.2583270000" lon="-1.0699670000"><ele>141</ele><time>2026-04-24T05:49:32Z</time></trkpt>
<trkpt lat="43.2583470000" lon="-1.0699570000"><ele>141</ele><time>2026-04-24T05:49:34Z</time></trkpt>
<trkpt lat="43.2583720000" lon="-1.0699500000"><ele>141</ele><time>2026-04-24T05:49:36Z</time></trkpt>
<trkpt lat="43.2583970000" lon="-1.0699470000"><ele>141</ele><time>2026-04-24T05:49:38Z</time></trkpt>
<trkpt lat="43.2584200000" lon="-1.0699420000"><ele>141</ele><time>2026-04-24T05:49:40Z</time></trkpt>
<trkpt lat="43.2584400000" lon="-1.0699320000"><ele>140</ele><time>2026-04-24T05:49:42Z</time></trkpt>
<trkpt lat="43.2584570000" lon="-1.0699220000"><ele>140</ele><time>2026-04-24T05:49:44Z</time></trkpt>
<trkpt lat="43.2584770000" lon="-1.0699170000"><ele>140</ele><time>2026-04-24T05:49:46Z</time></trkpt>
<trkpt lat="43.2584970000" lon="-1.0699070000"><ele>140</ele><time>2026-04-24T05:49:48Z</time></trkpt>
<trkpt lat="43.2585150000" lon="-1.0699020000"><ele>140</ele><time>2026-04-24T05:49:50Z</time></trkpt>
<trkpt lat="43.2585370000" lon="-1.0698920000"><ele>139</ele><time>2026-04-24T05:50:09Z</time></trkpt>
<trkpt lat="43.2585670000" lon="-1.0698770000"><ele>139</ele><time>2026-04-24T05:50:11Z</time></trkpt>
<trkpt lat="43.2585920000" lon="-1.0698570000"><ele>139</ele><time>2026-04-24T05:50:13Z</time></trkpt>
<trkpt lat="43.2586100000" lon="-1.0698320000"><ele>139</ele><time>2026-04-24T05:50:15Z</time></trkpt>
<trkpt lat="43.2586270000" lon="-1.0698150000"><ele>139</ele><time>2026-04-24T05:50:17Z</time></trkpt>
<trkpt lat="43.2586470000" lon="-1.0697970000"><ele>139</ele><time>2026-04-24T05:50:19Z</time></trkpt>
<trkpt lat="43.2586650000" lon="-1.0697770000"><ele>139</ele><time>2026-04-24T05:50:21Z</time></trkpt>
<trkpt lat="43.2586820000" lon="-1.0697620000"><ele>139</ele><time>2026-04-24T05:50:23Z</time></trkpt>
<trkpt lat="43.2587120000" lon="-1.0697420000"><ele>138</ele><time>2026-04-24T05:50:25Z</time></trkpt>
<trkpt lat="43.2587270000" lon="-1.0697300000"><ele>138</ele><time>2026-04-24T05:50:26Z</time></trkpt>
<trkpt lat="43.2587570000" lon="-1.0697050000"><ele>138</ele><time>2026-04-24T05:50:28Z</time></trkpt>
<trkpt lat="43.2587770000" lon="-1.0696800000"><ele>138</ele><time>2026-04-24T05:50:30Z</time></trkpt>
<trkpt lat="43.2587920000" lon="-1.0696570000"><ele>138</ele><time>2026-04-24T05:50:32Z</time></trkpt>
<trkpt lat="43.2588100000" lon="-1.0696320000"><ele>138</ele><time>2026-04-24T05:50:34Z</time></trkpt>
<trkpt lat="43.2588250000" lon="-1.0696070000"><ele>138</ele><time>2026-04-24T05:50:36Z</time></trkpt>
<trkpt lat="43.2588370000" lon="-1.0695820000"><ele>138</ele><time>2026-04-24T05:50:38Z</time></trkpt>
<trkpt lat="43.2588520000" lon="-1.0695570000"><ele>138</ele><time>2026-04-24T05:50:40Z</time></trkpt>
<trkpt lat="43.2588670000" lon="-1.0695320000"><ele>138</ele><time>2026-04-24T05:50:42Z</time></trkpt>
<trkpt lat="43.2588800000" lon="-1.0695020000"><ele>138</ele><time>2026-04-24T05:50:44Z</time></trkpt>
<trkpt lat="43.2588920000" lon="-1.0694770000"><ele>138</ele><time>2026-04-24T05:50:46Z</time></trkpt>
<trkpt lat="43.2589020000" lon="-1.0694470000"><ele>138</ele><time>2026-04-24T05:50:48Z</time></trkpt>
<trkpt lat="43.2589120000" lon="-1.0694200000"><ele>139</ele><time>2026-04-24T05:50:50Z</time></trkpt>
<trkpt lat="43.2589220000" lon="-1.0693900000"><ele>139</ele><time>2026-04-24T05:50:52Z</time></trkpt>
<trkpt lat="43.2589350000" lon="-1.0693620000"><ele>139</ele><time>2026-04-24T05:50:54Z</time></trkpt>
<trkpt lat="43.2589470000" lon="-1.0693320000"><ele>139</ele><time>2026-04-24T05:50:56Z</time></trkpt>
<trkpt lat="43.2589570000" lon="-1.0693020000"><ele>139</ele><time>2026-04-24T05:50:58Z</time></trkpt>
<trkpt lat="43.2589670000" lon="-1.0692720000"><ele>139</ele><time>2026-04-24T05:51:00Z</time></trkpt>
<trkpt lat="43.2589750000" lon="-1.0692420000"><ele>139</ele><time>2026-04-24T05:51:02Z</time></trkpt>
<trkpt lat="43.2589850000" lon="-1.0692120000"><ele>139</ele><time>2026-04-24T05:51:04Z</time></trkpt>
<trkpt lat="43.2589970000" lon="-1.0691820000"><ele>139</ele><time>2026-04-24T05:51:06Z</time></trkpt>
<trkpt lat="43.2590020000" lon="-1.0691520000"><ele>140</ele><time>2026-04-24T05:51:08Z</time></trkpt>
<trkpt lat="43.2590150000" lon="-1.0691120000"><ele>140</ele><time>2026-04-24T05:51:11Z</time></trkpt>
<trkpt lat="43.2590250000" lon="-1.0690820000"><ele>140</ele><time>2026-04-24T05:51:13Z</time></trkpt>
<trkpt lat="43.2590370000" lon="-1.0690520000"><ele>140</ele><time>2026-04-24T05:51:15Z</time></trkpt>
<trkpt lat="43.2590470000" lon="-1.0690220000"><ele>140</ele><time>2026-04-24T05:51:17Z</time></trkpt>
<trkpt lat="43.2590570000" lon="-1.0689870000"><ele>140</ele><time>2026-04-24T05:51:19Z</time></trkpt>
<trkpt lat="43.2590670000" lon="-1.0689570000"><ele>140</ele><time>2026-04-24T05:51:21Z</time></trkpt>
<trkpt lat="43.2590720000" lon="-1.0689270000"><ele>140</ele><time>2026-04-24T05:51:23Z</time></trkpt>
<trkpt lat="43.2590820000" lon="-1.0688950000"><ele>141</ele><time>2026-04-24T05:51:25Z</time></trkpt>
<trkpt lat="43.2590870000" lon="-1.0688670000"><ele>141</ele><time>2026-04-24T05:51:27Z</time></trkpt>
<trkpt lat="43.2590920000" lon="-1.0688370000"><ele>141</ele><time>2026-04-24T05:51:29Z</time></trkpt>
<trkpt lat="43.2590970000" lon="-1.0688070000"><ele>141</ele><time>2026-04-24T05:51:31Z</time></trkpt>
<trkpt lat="43.2591050000" lon="-1.0687800000"><ele>141</ele><time>2026-04-24T05:51:33Z</time></trkpt>
<trkpt lat="43.2591170000" lon="-1.0687520000"><ele>141</ele><time>2026-04-24T05:51:35Z</time></trkpt>
<trkpt lat="43.2591320000" lon="-1.0687220000"><ele>141</ele><time>2026-04-24T05:51:37Z</time></trkpt>
<trkpt lat="43.2591500000" lon="-1.0686880000"><ele>142</ele><time>2026-04-24T05:51:39Z</time></trkpt>
<trkpt lat="43.2591620000" lon="-1.0686570000"><ele>142</ele><time>2026-04-24T05:51:41Z</time></trkpt>
<trkpt lat="43.2591700000" lon="-1.0686280000"><ele>142</ele><time>2026-04-24T05:51:43Z</time></trkpt>
<trkpt lat="43.2591800000" lon="-1.0685970000"><ele>142</ele><time>2026-04-24T05:51:45Z</time></trkpt>
<trkpt lat="43.2591870000" lon="-1.0685700000"><ele>142</ele><time>2026-04-24T05:51:47Z</time></trkpt>
<trkpt lat="43.2592020000" lon="-1.0685370000"><ele>142</ele><time>2026-04-24T05:51:49Z</time></trkpt>
<trkpt lat="43.2592120000" lon="-1.0684970000"><ele>142</ele><time>2026-04-24T05:51:51Z</time></trkpt>
<trkpt lat="43.2592200000" lon="-1.0684650000"><ele>143</ele><time>2026-04-24T05:51:53Z</time></trkpt>
<trkpt lat="43.2592220000" lon="-1.0684400000"><ele>143</ele><time>2026-04-24T05:51:55Z</time></trkpt>
<trkpt lat="43.2592270000" lon="-1.0684120000"><ele>143</ele><time>2026-04-24T05:51:57Z</time></trkpt>
<trkpt lat="43.2592370000" lon="-1.0683820000"><ele>143</ele><time>2026-04-24T05:51:59Z</time></trkpt>
<trkpt lat="43.2592400000" lon="-1.0683520000"><ele>143</ele><time>2026-04-24T05:52:01Z</time></trkpt>
<trkpt lat="43.2592520000" lon="-1.0683220000"><ele>143</ele><time>2026-04-24T05:52:03Z</time></trkpt>
<trkpt lat="43.2592570000" lon="-1.0682920000"><ele>143</ele><time>2026-04-24T05:52:05Z</time></trkpt>
<trkpt lat="43.2592650000" lon="-1.0682620000"><ele>143</ele><time>2026-04-24T05:52:07Z</time></trkpt>
<trkpt lat="43.2592750000" lon="-1.0682280000"><ele>143</ele><time>2026-04-24T05:52:09Z</time></trkpt>
<trkpt lat="43.2592820000" lon="-1.0682020000"><ele>144</ele><time>2026-04-24T05:52:11Z</time></trkpt>
<trkpt lat="43.2592920000" lon="-1.0681770000"><ele>144</ele><time>2026-04-24T05:52:13Z</time></trkpt>
<trkpt lat="43.2593000000" lon="-1.0681520000"><ele>144</ele><time>2026-04-24T05:52:15Z</time></trkpt>
<trkpt lat="43.2593070000" lon="-1.0681220000"><ele>144</ele><time>2026-04-24T05:52:17Z</time></trkpt>
<trkpt lat="43.2593150000" lon="-1.0680930000"><ele>144</ele><time>2026-04-24T05:52:19Z</time></trkpt>
<trkpt lat="43.2593220000" lon="-1.0680670000"><ele>144</ele><time>2026-04-24T05:52:21Z</time></trkpt>
<trkpt lat="43.2593320000" lon="-1.0680350000"><ele>144</ele><time>2026-04-24T05:52:23Z</time></trkpt>
<trkpt lat="43.2593370000" lon="-1.0680070000"><ele>144</ele><time>2026-04-24T05:52:25Z</time></trkpt>
<trkpt lat="43.2593420000" lon="-1.0679720000"><ele>145</ele><time>2026-04-24T05:52:28Z</time></trkpt>
<trkpt lat="43.2593470000" lon="-1.0679420000"><ele>145</ele><time>2026-04-24T05:52:30Z</time></trkpt>
<trkpt lat="43.2593550000" lon="-1.0679130000"><ele>145</ele><time>2026-04-24T05:52:32Z</time></trkpt>
<trkpt lat="43.2593670000" lon="-1.0678820000"><ele>145</ele><time>2026-04-24T05:52:35Z</time></trkpt>
<trkpt lat="43.2593770000" lon="-1.0678520000"><ele>145</ele><time>2026-04-24T05:52:37Z</time></trkpt>
<trkpt lat="43.2593850000" lon="-1.0678230000"><ele>146</ele><time>2026-04-24T05:52:39Z</time></trkpt>
<trkpt lat="43.2593920000" lon="-1.0677970000"><ele>146</ele><time>2026-04-24T05:52:41Z</time></trkpt>
<trkpt lat="43.2594000000" lon="-1.0677720000"><ele>146</ele><time>2026-04-24T05:52:43Z</time></trkpt>
<trkpt lat="43.2594120000" lon="-1.0677470000"><ele>146</ele><time>2026-04-24T05:52:45Z</time></trkpt>
<trkpt lat="43.2594170000" lon="-1.0677220000"><ele>146</ele><time>2026-04-24T05:52:47Z</time></trkpt>
<trkpt lat="43.2594200000" lon="-1.0676970000"><ele>147</ele><time>2026-04-24T05:52:49Z</time></trkpt>
<trkpt lat="43.2594220000" lon="-1.0676700000"><ele>147</ele><time>2026-04-24T05:52:51Z</time></trkpt>
<trkpt lat="43.2594370000" lon="-1.0676420000"><ele>147</ele><time>2026-04-24T05:52:53Z</time></trkpt>
<trkpt lat="43.2594520000" lon="-1.0676250000"><ele>147</ele><time>2026-04-24T05:52:56Z</time></trkpt>
<trkpt lat="43.2594650000" lon="-1.0675920000"><ele>147</ele><time>2026-04-24T05:52:59Z</time></trkpt>
<trkpt lat="43.2594770000" lon="-1.0675670000"><ele>148</ele><time>2026-04-24T05:53:01Z</time></trkpt>
<trkpt lat="43.2594820000" lon="-1.0675350000"><ele>148</ele><time>2026-04-24T05:53:03Z</time></trkpt>
<trkpt lat="43.2594970000" lon="-1.0674950000"><ele>148</ele><time>2026-04-24T05:53:05Z</time></trkpt>
<trkpt lat="43.2595120000" lon="-1.0674650000"><ele>148</ele><time>2026-04-24T05:53:07Z</time></trkpt>
<trkpt lat="43.2595100000" lon="-1.0674320000"><ele>149</ele><time>2026-04-24T05:53:09Z</time></trkpt>
<trkpt lat="43.2595120000" lon="-1.0673970000"><ele>149</ele><time>2026-04-24T05:53:12Z</time></trkpt>
<trkpt lat="43.2595220000" lon="-1.0673720000"><ele>149</ele><time>2026-04-24T05:53:14Z</time></trkpt>
<trkpt lat="43.2595350000" lon="-1.0673520000"><ele>150</ele><time>2026-04-24T05:53:16Z</time></trkpt>
<trkpt lat="43.2595450000" lon="-1.0673200000"><ele>150</ele><time>2026-04-24T05:53:19Z</time></trkpt>
<trkpt lat="43.2595570000" lon="-1.0672950000"><ele>150</ele><time>2026-04-24T05:53:21Z</time></trkpt>
<trkpt lat="43.2595620000" lon="-1.0672720000"><ele>151</ele><time>2026-04-24T05:53:23Z</time></trkpt>
<trkpt lat="43.2595720000" lon="-1.0672500000"><ele>151</ele><time>2026-04-24T05:53:25Z</time></trkpt>
<trkpt lat="43.2595720000" lon="-1.0672220000"><ele>151</ele><time>2026-04-24T05:53:38Z</time></trkpt>
<trkpt lat="43.2595670000" lon="-1.0671920000"><ele>152</ele><time>2026-04-24T05:53:40Z</time></trkpt>
<trkpt lat="43.2595700000" lon="-1.0671600000"><ele>152</ele><time>2026-04-24T05:53:42Z</time></trkpt>
<trkpt lat="43.2595770000" lon="-1.0671300000"><ele>152</ele><time>2026-04-24T05:53:44Z</time></trkpt>
<trkpt lat="43.2595770000" lon="-1.0671020000"><ele>152</ele><time>2026-04-24T05:53:46Z</time></trkpt>
<trkpt lat="43.2595820000" lon="-1.0670630000"><ele>152</ele><time>2026-04-24T05:53:49Z</time></trkpt>
<trkpt lat="43.2595820000" lon="-1.0670320000"><ele>153</ele><time>2026-04-24T05:53:52Z</time></trkpt>
<trkpt lat="43.2595870000" lon="-1.0670070000"><ele>153</ele><time>2026-04-24T05:53:54Z</time></trkpt>
<trkpt lat="43.2595870000" lon="-1.0669770000"><ele>153</ele><time>2026-04-24T05:53:56Z</time></trkpt>
<trkpt lat="43.2595920000" lon="-1.0669470000"><ele>154</ele><time>2026-04-24T05:53:58Z</time></trkpt>
<trkpt lat="43.2595970000" lon="-1.0669170000"><ele>154</ele><time>2026-04-24T05:54:00Z</time></trkpt>
<trkpt lat="43.2595970000" lon="-1.0668880000"><ele>154</ele><time>2026-04-24T05:54:02Z</time></trkpt>
<trkpt lat="43.2595970000" lon="-1.0668570000"><ele>154</ele><time>2026-04-24T05:54:04Z</time></trkpt>
<trkpt lat="43.2595920000" lon="-1.0668250000"><ele>155</ele><time>2026-04-24T05:54:07Z</time></trkpt>
<trkpt lat="43.2595920000" lon="-1.0667930000"><ele>155</ele><time>2026-04-24T05:54:10Z</time></trkpt>
<trkpt lat="43.2595970000" lon="-1.0667570000"><ele>155</ele><time>2026-04-24T05:54:13Z</time></trkpt>
<trkpt lat="43.2596070000" lon="-1.0667150000"><ele>156</ele><time>2026-04-24T05:54:15Z</time></trkpt>
<trkpt lat="43.2596150000" lon="-1.0666770000"><ele>156</ele><time>2026-04-24T05:54:17Z</time></trkpt>
<trkpt lat="43.2596200000" lon="-1.0666400000"><ele>156</ele><time>2026-04-24T05:54:19Z</time></trkpt>
<trkpt lat="43.2596150000" lon="-1.0666020000"><ele>156</ele><time>2026-04-24T05:54:21Z</time></trkpt>
<trkpt lat="43.2596100000" lon="-1.0665720000"><ele>157</ele><time>2026-04-24T05:54:23Z</time></trkpt>
<trkpt lat="43.2595970000" lon="-1.0665470000"><ele>157</ele><time>2026-04-24T05:54:25Z</time></trkpt>
<trkpt lat="43.2595770000" lon="-1.0665420000"><ele>157</ele><time>2026-04-24T05:54:27Z</time></trkpt>
<trkpt lat="43.2595600000" lon="-1.0665520000"><ele>157</ele><time>2026-04-24T05:54:31Z</time></trkpt>
<trkpt lat="43.2595450000" lon="-1.0665680000"><ele>157</ele><time>2026-04-24T05:55:20Z</time></trkpt>
<trkpt lat="43.2595300000" lon="-1.0665920000"><ele>157</ele><time>2026-04-24T05:55:22Z</time></trkpt>
<trkpt lat="43.2595170000" lon="-1.0666170000"><ele>157</ele><time>2026-04-24T05:55:24Z</time></trkpt>
<trkpt lat="43.2595070000" lon="-1.0666420000"><ele>157</ele><time>2026-04-24T05:55:26Z</time></trkpt>
<trkpt lat="43.2594920000" lon="-1.0666170000"><ele>157</ele><time>2026-04-24T05:55:30Z</time></trkpt>
<trkpt lat="43.2594870000" lon="-1.0665900000"><ele>157</ele><time>2026-04-24T05:55:32Z</time></trkpt>
<trkpt lat="43.2594920000" lon="-1.0665550000"><ele>157</ele><time>2026-04-24T05:55:34Z</time></trkpt>
<trkpt lat="43.2594900000" lon="-1.0665270000"><ele>157</ele><time>2026-04-24T05:55:36Z</time></trkpt>
<trkpt lat="43.2594800000" lon="-1.0665050000"><ele>157</ele><time>2026-04-24T05:55:40Z</time></trkpt>
<trkpt lat="43.2594920000" lon="-1.0664820000"><ele>158</ele><time>2026-04-24T05:55:44Z</time></trkpt>
<trkpt lat="43.2595120000" lon="-1.0664770000"><ele>158</ele><time>2026-04-24T05:55:47Z</time></trkpt>
<trkpt lat="43.2595220000" lon="-1.0664470000"><ele>158</ele><time>2026-04-24T05:55:50Z</time></trkpt>
<trkpt lat="43.2595120000" lon="-1.0664170000"><ele>158</ele><time>2026-04-24T05:55:52Z</time></trkpt>
<trkpt lat="43.2595020000" lon="-1.0663870000"><ele>158</ele><time>2026-04-24T05:55:54Z</time></trkpt>
<trkpt lat="43.2594820000" lon="-1.0663670000"><ele>158</ele><time>2026-04-24T05:55:56Z</time></trkpt>
<trkpt lat="43.2594670000" lon="-1.0663480000"><ele>158</ele><time>2026-04-24T05:55:58Z</time></trkpt>
<trkpt lat="43.2594520000" lon="-1.0663270000"><ele>159</ele><time>2026-04-24T05:56:16Z</time></trkpt>
<trkpt lat="43.2594420000" lon="-1.0662920000"><ele>159</ele><time>2026-04-24T05:56:18Z</time></trkpt>
<trkpt lat="43.2594320000" lon="-1.0662620000"><ele>159</ele><time>2026-04-24T05:56:20Z</time></trkpt>
<trkpt lat="43.2594320000" lon="-1.0662320000"><ele>159</ele><time>2026-04-24T05:56:22Z</time></trkpt>
<trkpt lat="43.2594500000" lon="-1.0662370000"><ele>160</ele><time>2026-04-24T05:56:34Z</time></trkpt>
<trkpt lat="43.2594220000" lon="-1.0662320000"><ele>160</ele><time>2026-04-24T05:56:37Z</time></trkpt>
<trkpt lat="43.2594470000" lon="-1.0662470000"><ele>160</ele><time>2026-04-24T05:56:56Z</time></trkpt>
<trkpt lat="43.2594670000" lon="-1.0662470000"><ele>159</ele><time>2026-04-24T05:56:59Z</time></trkpt>
<trkpt lat="43.2594820000" lon="-1.0662320000"><ele>160</ele><time>2026-04-24T05:57:18Z</time></trkpt>
<trkpt lat="43.2595020000" lon="-1.0662270000"><ele>160</ele><time>2026-04-24T05:57:20Z</time></trkpt>
<trkpt lat="43.2595320000" lon="-1.0662220000"><ele>160</ele><time>2026-04-24T05:57:22Z</time></trkpt>
<trkpt lat="43.2595520000" lon="-1.0662170000"><ele>162</ele><time>2026-04-24T05:57:50Z</time></trkpt>
<trkpt lat="43.2595700000" lon="-1.0661970000"><ele>162</ele><time>2026-04-24T05:57:52Z</time></trkpt>
<trkpt lat="43.2595820000" lon="-1.0661780000"><ele>162</ele><time>2026-04-24T05:57:53Z</time></trkpt>
<trkpt lat="43.2596020000" lon="-1.0661520000"><ele>162</ele><time>2026-04-24T05:57:55Z</time></trkpt>
<trkpt lat="43.2596270000" lon="-1.0661220000"><ele>162</ele><time>2026-04-24T05:57:58Z</time></trkpt>
<trkpt lat="43.2596420000" lon="-1.0661070000"><ele>162</ele><time>2026-04-24T05:58:00Z</time></trkpt>
<trkpt lat="43.2596320000" lon="-1.0660750000"><ele>163</ele><time>2026-04-24T05:58:04Z</time></trkpt>
<trkpt lat="43.2596220000" lon="-1.0660500000"><ele>163</ele><time>2026-04-24T05:58:06Z</time></trkpt>
<trkpt lat="43.2596220000" lon="-1.0660220000"><ele>163</ele><time>2026-04-24T05:58:08Z</time></trkpt>
<trkpt lat="43.2596170000" lon="-1.0659820000"><ele>163</ele><time>2026-04-24T05:58:10Z</time></trkpt>
<trkpt lat="43.2596220000" lon="-1.0659550000"><ele>163</ele><time>2026-04-24T05:58:12Z</time></trkpt>
<trkpt lat="43.2596200000" lon="-1.0659220000"><ele>164</ele><time>2026-04-24T05:58:14Z</time></trkpt>
<trkpt lat="43.2596170000" lon="-1.0658870000"><ele>164</ele><time>2026-04-24T05:58:17Z</time></trkpt>
<trkpt lat="43.2596270000" lon="-1.0658530000"><ele>165</ele><time>2026-04-24T05:58:20Z</time></trkpt>
<trkpt lat="43.2596370000" lon="-1.0658270000"><ele>165</ele><time>2026-04-24T05:58:23Z</time></trkpt>
<trkpt lat="43.2596370000" lon="-1.0658000000"><ele>165</ele><time>2026-04-24T05:58:26Z</time></trkpt>
<trkpt lat="43.2596420000" lon="-1.0657730000"><ele>166</ele><time>2026-04-24T05:58:29Z</time></trkpt>
<trkpt lat="43.2596470000" lon="-1.0657450000"><ele>167</ele><time>2026-04-24T05:58:33Z</time></trkpt>
<trkpt lat="43.2596650000" lon="-1.0657220000"><ele>167</ele><time>2026-04-24T05:58:36Z</time></trkpt>
<trkpt lat="43.2596820000" lon="-1.0656920000"><ele>167</ele><time>2026-04-24T05:58:39Z</time></trkpt>
<trkpt lat="43.2596920000" lon="-1.0656720000"><ele>167</ele><time>2026-04-24T05:58:41Z</time></trkpt>
<trkpt lat="43.2597020000" lon="-1.0656370000"><ele>168</ele><time>2026-04-24T05:58:44Z</time></trkpt>
<trkpt lat="43.2597020000" lon="-1.0656070000"><ele>168</ele><time>2026-04-24T05:58:47Z</time></trkpt>
<trkpt lat="43.2597020000" lon="-1.0655780000"><ele>168</ele><time>2026-04-24T05:58:50Z</time></trkpt>
<trkpt lat="43.2597120000" lon="-1.0655570000"><ele>169</ele><time>2026-04-24T05:58:52Z</time></trkpt>
<trkpt lat="43.2597200000" lon="-1.0655300000"><ele>169</ele><time>2026-04-24T05:58:54Z</time></trkpt>
<trkpt lat="43.2597320000" lon="-1.0655120000"><ele>169</ele><time>2026-04-24T05:58:56Z</time></trkpt>
<trkpt lat="43.2597520000" lon="-1.0654870000"><ele>169</ele><time>2026-04-24T05:58:59Z</time></trkpt>
<trkpt lat="43.2597600000" lon="-1.0654620000"><ele>170</ele><time>2026-04-24T05:59:01Z</time></trkpt>
<trkpt lat="43.2597700000" lon="-1.0654320000"><ele>170</ele><time>2026-04-24T05:59:04Z</time></trkpt>
<trkpt lat="43.2597820000" lon="-1.0654070000"><ele>170</ele><time>2026-04-24T05:59:06Z</time></trkpt>
<trkpt lat="43.2597950000" lon="-1.0653820000"><ele>170</ele><time>2026-04-24T05:59:09Z</time></trkpt>
<trkpt lat="43.2598120000" lon="-1.0653570000"><ele>171</ele><time>2026-04-24T05:59:12Z</time></trkpt>
<trkpt lat="43.2598270000" lon="-1.0653370000"><ele>171</ele><time>2026-04-24T05:59:15Z</time></trkpt>
<trkpt lat="43.2598100000" lon="-1.0653270000"><ele>172</ele><time>2026-04-24T05:59:21Z</time></trkpt>
<trkpt lat="43.2597870000" lon="-1.0653370000"><ele>171</ele><time>2026-04-24T05:59:44Z</time></trkpt>
<trkpt lat="43.2598020000" lon="-1.0653170000"><ele>171</ele><time>2026-04-24T05:59:50Z</time></trkpt>
<trkpt lat="43.2598250000" lon="-1.0653370000"><ele>171</ele><time>2026-04-24T06:00:34Z</time></trkpt>
<trkpt lat="43.2598400000" lon="-1.0653600000"><ele>171</ele><time>2026-04-24T06:00:35Z</time></trkpt>
<trkpt lat="43.2598570000" lon="-1.0653870000"><ele>171</ele><time>2026-04-24T06:00:36Z</time></trkpt>
<trkpt lat="43.2598700000" lon="-1.0654080000"><ele>171</ele><time>2026-04-24T06:00:37Z</time></trkpt>
<trkpt lat="43.2598800000" lon="-1.0654320000"><ele>171</ele><time>2026-04-24T06:00:38Z</time></trkpt>
<trkpt lat="43.2598870000" lon="-1.0654600000"><ele>171</ele><time>2026-04-24T06:00:40Z</time></trkpt>
<trkpt lat="43.2599000000" lon="-1.0654870000"><ele>171</ele><time>2026-04-24T06:00:42Z</time></trkpt>
<trkpt lat="43.2599150000" lon="-1.0655030000"><ele>171</ele><time>2026-04-24T06:00:44Z</time></trkpt>
<trkpt lat="43.2599350000" lon="-1.0655170000"><ele>171</ele><time>2026-04-24T06:00:46Z</time></trkpt>
<trkpt lat="43.2599570000" lon="-1.0655270000"><ele>171</ele><time>2026-04-24T06:00:48Z</time></trkpt>
<trkpt lat="43.2599750000" lon="-1.0655370000"><ele>172</ele><time>2026-04-24T06:00:50Z</time></trkpt>
<trkpt lat="43.2599970000" lon="-1.0655520000"><ele>172</ele><time>2026-04-24T06:00:52Z</time></trkpt>
<trkpt lat="43.2600220000" lon="-1.0655620000"><ele>172</ele><time>2026-04-24T06:00:54Z</time></trkpt>
<trkpt lat="43.2600420000" lon="-1.0655770000"><ele>172</ele><time>2026-04-24T06:00:56Z</time></trkpt>
<trkpt lat="43.2600650000" lon="-1.0655900000"><ele>172</ele><time>2026-04-24T06:00:58Z</time></trkpt>
<trkpt lat="43.2600850000" lon="-1.0656050000"><ele>172</ele><time>2026-04-24T06:01:00Z</time></trkpt>
<trkpt lat="43.2601070000" lon="-1.0656100000"><ele>172</ele><time>2026-04-24T06:01:02Z</time></trkpt>
<trkpt lat="43.2601320000" lon="-1.0656170000"><ele>173</ele><time>2026-04-24T06:01:04Z</time></trkpt>
<trkpt lat="43.2601520000" lon="-1.0656300000"><ele>173</ele><time>2026-04-24T06:01:06Z</time></trkpt>
<trkpt lat="43.2601770000" lon="-1.0656420000"><ele>173</ele><time>2026-04-24T06:01:08Z</time></trkpt>
<trkpt lat="43.2602000000" lon="-1.0656500000"><ele>173</ele><time>2026-04-24T06:01:10Z</time></trkpt>
<trkpt lat="43.2602250000" lon="-1.0656570000"><ele>173</ele><time>2026-04-24T06:01:12Z</time></trkpt>
<trkpt lat="43.2602470000" lon="-1.0656670000"><ele>173</ele><time>2026-04-24T06:01:14Z</time></trkpt>
<trkpt lat="43.2602700000" lon="-1.0656820000"><ele>173</ele><time>2026-04-24T06:01:16Z</time></trkpt>
<trkpt lat="43.2602920000" lon="-1.0656900000"><ele>173</ele><time>2026-04-24T06:01:18Z</time></trkpt>
<trkpt lat="43.2603120000" lon="-1.0657020000"><ele>173</ele><time>2026-04-24T06:01:20Z</time></trkpt>
<trkpt lat="43.2603370000" lon="-1.0657170000"><ele>173</ele><time>2026-04-24T06:01:22Z</time></trkpt>
<trkpt lat="43.2603570000" lon="-1.0657300000"><ele>173</ele><time>2026-04-24T06:01:24Z</time></trkpt>
<trkpt lat="43.2603820000" lon="-1.0657370000"><ele>173</ele><time>2026-04-24T06:01:26Z</time></trkpt>
<trkpt lat="43.2604020000" lon="-1.0657450000"><ele>173</ele><time>2026-04-24T06:01:28Z</time></trkpt>
<trkpt lat="43.2604270000" lon="-1.0657520000"><ele>173</ele><time>2026-04-24T06:01:30Z</time></trkpt>
<trkpt lat="43.2604550000" lon="-1.0657570000"><ele>173</ele><time>2026-04-24T06:01:32Z</time></trkpt>
<trkpt lat="43.2604800000" lon="-1.0657570000"><ele>173</ele><time>2026-04-24T06:01:34Z</time></trkpt>
<trkpt lat="43.2605020000" lon="-1.0657670000"><ele>173</ele><time>2026-04-24T06:01:36Z</time></trkpt>
<trkpt lat="43.2605220000" lon="-1.0657720000"><ele>174</ele><time>2026-04-24T06:01:39Z</time></trkpt>
<trkpt lat="43.2605500000" lon="-1.0657730000"><ele>174</ele><time>2026-04-24T06:01:42Z</time></trkpt>
<trkpt lat="43.2605720000" lon="-1.0657720000"><ele>174</ele><time>2026-04-24T06:01:44Z</time></trkpt>
<trkpt lat="43.2605970000" lon="-1.0657870000"><ele>174</ele><time>2026-04-24T06:01:46Z</time></trkpt>
<trkpt lat="43.2606120000" lon="-1.0658020000"><ele>174</ele><time>2026-04-24T06:01:52Z</time></trkpt>
<trkpt lat="43.2606320000" lon="-1.0658130000"><ele>174</ele><time>2026-04-24T06:01:54Z</time></trkpt>
<trkpt lat="43.2606620000" lon="-1.0658270000"><ele>174</ele><time>2026-04-24T06:01:56Z</time></trkpt>
<trkpt lat="43.2606800000" lon="-1.0658420000"><ele>174</ele><time>2026-04-24T06:01:57Z</time></trkpt>
<trkpt lat="43.2606950000" lon="-1.0658770000"><ele>174</ele><time>2026-04-24T06:01:59Z</time></trkpt>
<trkpt lat="43.2606870000" lon="-1.0659020000"><ele>174</ele><time>2026-04-24T06:02:04Z</time></trkpt>
<trkpt lat="43.2607130000" lon="-1.0659170000"><ele>174</ele><time>2026-04-24T06:02:08Z</time></trkpt>
<trkpt lat="43.2607420000" lon="-1.0659300000"><ele>174</ele><time>2026-04-24T06:02:11Z</time></trkpt>
<trkpt lat="43.2607670000" lon="-1.0659300000"><ele>174</ele><time>2026-04-24T06:02:13Z</time></trkpt>
<trkpt lat="43.2607820000" lon="-1.0659420000"><ele>175</ele><time>2026-04-24T06:02:33Z</time></trkpt>
<trkpt lat="43.2608020000" lon="-1.0659480000"><ele>175</ele><time>2026-04-24T06:02:35Z</time></trkpt>
<trkpt lat="43.2608270000" lon="-1.0659650000"><ele>175</ele><time>2026-04-24T06:02:37Z</time></trkpt>
<trkpt lat="43.2608550000" lon="-1.0659800000"><ele>175</ele><time>2026-04-24T06:02:39Z</time></trkpt>
<trkpt lat="43.2608750000" lon="-1.0659880000"><ele>175</ele><time>2026-04-24T06:02:41Z</time></trkpt>
<trkpt lat="43.2608950000" lon="-1.0660050000"><ele>175</ele><time>2026-04-24T06:02:43Z</time></trkpt>
<trkpt lat="43.2609170000" lon="-1.0660170000"><ele>175</ele><time>2026-04-24T06:02:45Z</time></trkpt>
<trkpt lat="43.2609370000" lon="-1.0660320000"><ele>175</ele><time>2026-04-24T06:02:47Z</time></trkpt>
<trkpt lat="43.2609600000" lon="-1.0660420000"><ele>175</ele><time>2026-04-24T06:02:49Z</time></trkpt>
<trkpt lat="43.2609820000" lon="-1.0660520000"><ele>176</ele><time>2026-04-24T06:02:51Z</time></trkpt>
<trkpt lat="43.2610050000" lon="-1.0660620000"><ele>176</ele><time>2026-04-24T06:02:53Z</time></trkpt>
<trkpt lat="43.2610300000" lon="-1.0660700000"><ele>176</ele><time>2026-04-24T06:02:55Z</time></trkpt>
<trkpt lat="43.2610550000" lon="-1.0660770000"><ele>176</ele><time>2026-04-24T06:02:57Z</time></trkpt>
<trkpt lat="43.2610770000" lon="-1.0660820000"><ele>176</ele><time>2026-04-24T06:02:59Z</time></trkpt>
<trkpt lat="43.2611020000" lon="-1.0660870000"><ele>176</ele><time>2026-04-24T06:03:01Z</time></trkpt>
<trkpt lat="43.2611220000" lon="-1.0660870000"><ele>176</ele><time>2026-04-24T06:03:03Z</time></trkpt>
<trkpt lat="43.2611420000" lon="-1.0660950000"><ele>176</ele><time>2026-04-24T06:03:05Z</time></trkpt>
<trkpt lat="43.2611620000" lon="-1.0661000000"><ele>176</ele><time>2026-04-24T06:03:07Z</time></trkpt>
<trkpt lat="43.2611820000" lon="-1.0661120000"><ele>177</ele><time>2026-04-24T06:03:09Z</time></trkpt>
<trkpt lat="43.2612070000" lon="-1.0661300000"><ele>177</ele><time>2026-04-24T06:03:11Z</time></trkpt>
<trkpt lat="43.2612250000" lon="-1.0661420000"><ele>177</ele><time>2026-04-24T06:03:12Z</time></trkpt>
<trkpt lat="43.2612520000" lon="-1.0661670000"><ele>177</ele><time>2026-04-24T06:03:14Z</time></trkpt>
<trkpt lat="43.2612770000" lon="-1.0661850000"><ele>177</ele><time>2026-04-24T06:03:16Z</time></trkpt>
<trkpt lat="43.2613000000" lon="-1.0662050000"><ele>177</ele><time>2026-04-24T06:03:19Z</time></trkpt>
<trkpt lat="43.2613220000" lon="-1.0662170000"><ele>177</ele><time>2026-04-24T06:03:21Z</time></trkpt>
<trkpt lat="43.2613370000" lon="-1.0662350000"><ele>178</ele><time>2026-04-24T06:03:23Z</time></trkpt>
<trkpt lat="43.2613570000" lon="-1.0662470000"><ele>178</ele><time>2026-04-24T06:03:25Z</time></trkpt>
<trkpt lat="43.2613770000" lon="-1.0662570000"><ele>178</ele><time>2026-04-24T06:03:27Z</time></trkpt>
<trkpt lat="43.2613970000" lon="-1.0662720000"><ele>178</ele><time>2026-04-24T06:03:29Z</time></trkpt>
<trkpt lat="43.2614150000" lon="-1.0662850000"><ele>178</ele><time>2026-04-24T06:03:31Z</time></trkpt>
<trkpt lat="43.2614370000" lon="-1.0662970000"><ele>179</ele><time>2026-04-24T06:03:33Z</time></trkpt>
<trkpt lat="43.2614600000" lon="-1.0663120000"><ele>179</ele><time>2026-04-24T06:03:37Z</time></trkpt>
<trkpt lat="43.2614770000" lon="-1.0663270000"><ele>179</ele><time>2026-04-24T06:03:39Z</time></trkpt>
<trkpt lat="43.2615000000" lon="-1.0663470000"><ele>180</ele><time>2026-04-24T06:03:51Z</time></trkpt>
<trkpt lat="43.2615250000" lon="-1.0663650000"><ele>180</ele><time>2026-04-24T06:03:53Z</time></trkpt>
<trkpt lat="43.2615520000" lon="-1.0663820000"><ele>180</ele><time>2026-04-24T06:03:55Z</time></trkpt>
<trkpt lat="43.2615770000" lon="-1.0663970000"><ele>180</ele><time>2026-04-24T06:03:57Z</time></trkpt>
<trkpt lat="43.2616000000" lon="-1.0664070000"><ele>180</ele><time>2026-04-24T06:03:59Z</time></trkpt>
<trkpt lat="43.2616170000" lon="-1.0664170000"><ele>181</ele><time>2026-04-24T06:04:01Z</time></trkpt>
<trkpt lat="43.2616370000" lon="-1.0664270000"><ele>181</ele><time>2026-04-24T06:04:03Z</time></trkpt>
<trkpt lat="43.2616570000" lon="-1.0664400000"><ele>181</ele><time>2026-04-24T06:04:05Z</time></trkpt>
<trkpt lat="43.2616800000" lon="-1.0664520000"><ele>181</ele><time>2026-04-24T06:04:07Z</time></trkpt>
<trkpt lat="43.2616980000" lon="-1.0664670000"><ele>181</ele><time>2026-04-24T06:04:09Z</time></trkpt>
<trkpt lat="43.2617200000" lon="-1.0664750000"><ele>181</ele><time>2026-04-24T06:04:11Z</time></trkpt>
<trkpt lat="43.2617470000" lon="-1.0664820000"><ele>182</ele><time>2026-04-24T06:04:14Z</time></trkpt>
<trkpt lat="43.2617670000" lon="-1.0664870000"><ele>182</ele><time>2026-04-24T06:04:16Z</time></trkpt>
<trkpt lat="43.2617850000" lon="-1.0665000000"><ele>182</ele><time>2026-04-24T06:04:18Z</time></trkpt>
<trkpt lat="43.2618050000" lon="-1.0665100000"><ele>182</ele><time>2026-04-24T06:04:20Z</time></trkpt>
<trkpt lat="43.2618250000" lon="-1.0665270000"><ele>183</ele><time>2026-04-24T06:04:22Z</time></trkpt>
<trkpt lat="43.2618420000" lon="-1.0665500000"><ele>183</ele><time>2026-04-24T06:04:24Z</time></trkpt>
<trkpt lat="43.2618400000" lon="-1.0665770000"><ele>183</ele><time>2026-04-24T06:04:27Z</time></trkpt>
<trkpt lat="43.2618670000" lon="-1.0665770000"><ele>183</ele><time>2026-04-24T06:04:51Z</time></trkpt>
<trkpt lat="43.2618870000" lon="-1.0665870000"><ele>183</ele><time>2026-04-24T06:04:52Z</time></trkpt>
<trkpt lat="43.2619050000" lon="-1.0665950000"><ele>183</ele><time>2026-04-24T06:04:53Z</time></trkpt>
<trkpt lat="43.2619350000" lon="-1.0666120000"><ele>183</ele><time>2026-04-24T06:04:55Z</time></trkpt>
<trkpt lat="43.2619620000" lon="-1.0666230000"><ele>183</ele><time>2026-04-24T06:04:57Z</time></trkpt>
<trkpt lat="43.2619820000" lon="-1.0666400000"><ele>183</ele><time>2026-04-24T06:04:59Z</time></trkpt>
<trkpt lat="43.2620020000" lon="-1.0666470000"><ele>184</ele><time>2026-04-24T06:05:01Z</time></trkpt>
<trkpt lat="43.2620200000" lon="-1.0666570000"><ele>184</ele><time>2026-04-24T06:05:03Z</time></trkpt>
<trkpt lat="43.2620420000" lon="-1.0666720000"><ele>183</ele><time>2026-04-24T06:05:12Z</time></trkpt>
<trkpt lat="43.2620670000" lon="-1.0666870000"><ele>184</ele><time>2026-04-24T06:05:14Z</time></trkpt>
<trkpt lat="43.2620920000" lon="-1.0667070000"><ele>184</ele><time>2026-04-24T06:05:16Z</time></trkpt>
<trkpt lat="43.2621170000" lon="-1.0667250000"><ele>184</ele><time>2026-04-24T06:05:18Z</time></trkpt>
<trkpt lat="43.2621370000" lon="-1.0667450000"><ele>184</ele><time>2026-04-24T06:05:20Z</time></trkpt>
<trkpt lat="43.2621570000" lon="-1.0667650000"><ele>184</ele><time>2026-04-24T06:05:22Z</time></trkpt>
<trkpt lat="43.2621770000" lon="-1.0667820000"><ele>184</ele><time>2026-04-24T06:05:24Z</time></trkpt>
<trkpt lat="43.2622000000" lon="-1.0667970000"><ele>184</ele><time>2026-04-24T06:05:26Z</time></trkpt>
<trkpt lat="43.2622170000" lon="-1.0668100000"><ele>184</ele><time>2026-04-24T06:05:28Z</time></trkpt>
<trkpt lat="43.2622370000" lon="-1.0668200000"><ele>184</ele><time>2026-04-24T06:05:30Z</time></trkpt>
<trkpt lat="43.2622550000" lon="-1.0668320000"><ele>184</ele><time>2026-04-24T06:05:32Z</time></trkpt>
<trkpt lat="43.2622720000" lon="-1.0668470000"><ele>184</ele><time>2026-04-24T06:05:34Z</time></trkpt>
<trkpt lat="43.2622920000" lon="-1.0668670000"><ele>184</ele><time>2026-04-24T06:05:36Z</time></trkpt>
<trkpt lat="43.2623120000" lon="-1.0668930000"><ele>184</ele><time>2026-04-24T06:05:38Z</time></trkpt>
<trkpt lat="43.2623300000" lon="-1.0669230000"><ele>185</ele><time>2026-04-24T06:05:40Z</time></trkpt>
<trkpt lat="43.2623450000" lon="-1.0669470000"><ele>185</ele><time>2026-04-24T06:05:42Z</time></trkpt>
<trkpt lat="43.2623600000" lon="-1.0669670000"><ele>185</ele><time>2026-04-24T06:05:44Z</time></trkpt>
<trkpt lat="43.2623750000" lon="-1.0669870000"><ele>185</ele><time>2026-04-24T06:05:46Z</time></trkpt>
<trkpt lat="43.2623920000" lon="-1.0670100000"><ele>185</ele><time>2026-04-24T06:05:48Z</time></trkpt>
<trkpt lat="43.2624070000" lon="-1.0670270000"><ele>186</ele><time>2026-04-24T06:05:50Z</time></trkpt>
<trkpt lat="43.2624270000" lon="-1.0670420000"><ele>186</ele><time>2026-04-24T06:05:52Z</time></trkpt>
<trkpt lat="43.2624420000" lon="-1.0670570000"><ele>186</ele><time>2026-04-24T06:05:54Z</time></trkpt>
<trkpt lat="43.2624570000" lon="-1.0670720000"><ele>186</ele><time>2026-04-24T06:05:56Z</time></trkpt>
<trkpt lat="43.2624800000" lon="-1.0670900000"><ele>187</ele><time>2026-04-24T06:05:59Z</time></trkpt>
<trkpt lat="43.2624970000" lon="-1.0671070000"><ele>187</ele><time>2026-04-24T06:06:01Z</time></trkpt>
<trkpt lat="43.2625120000" lon="-1.0671250000"><ele>187</ele><time>2026-04-24T06:06:03Z</time></trkpt>
<trkpt lat="43.2625280000" lon="-1.0671420000"><ele>187</ele><time>2026-04-24T06:06:05Z</time></trkpt>
<trkpt lat="43.2625470000" lon="-1.0671600000"><ele>187</ele><time>2026-04-24T06:06:07Z</time></trkpt>
<trkpt lat="43.2625620000" lon="-1.0671770000"><ele>188</ele><time>2026-04-24T06:06:09Z</time></trkpt>
<trkpt lat="43.2625800000" lon="-1.0671870000"><ele>188</ele><time>2026-04-24T06:06:11Z</time></trkpt>
<trkpt lat="43.2626020000" lon="-1.0672070000"><ele>188</ele><time>2026-04-24T06:06:14Z</time></trkpt>
<trkpt lat="43.2626220000" lon="-1.0672220000"><ele>189</ele><time>2026-04-24T06:06:17Z</time></trkpt>
<trkpt lat="43.2626400000" lon="-1.0672350000"><ele>189</ele><time>2026-04-24T06:06:19Z</time></trkpt>
<trkpt lat="43.2626600000" lon="-1.0672420000"><ele>190</ele><time>2026-04-24T06:06:21Z</time></trkpt>
<trkpt lat="43.2626770000" lon="-1.0672520000"><ele>190</ele><time>2026-04-24T06:06:23Z</time></trkpt>
<trkpt lat="43.2626950000" lon="-1.0672670000"><ele>190</ele><time>2026-04-24T06:06:25Z</time></trkpt>
<trkpt lat="43.2627170000" lon="-1.0672830000"><ele>190</ele><time>2026-04-24T06:06:28Z</time></trkpt>
<trkpt lat="43.2627350000" lon="-1.0672970000"><ele>190</ele><time>2026-04-24T06:06:30Z</time></trkpt>
<trkpt lat="43.2627530000" lon="-1.0673070000"><ele>191</ele><time>2026-04-24T06:06:32Z</time></trkpt>
<trkpt lat="43.2627750000" lon="-1.0673120000"><ele>191</ele><time>2026-04-24T06:06:34Z</time></trkpt>
<trkpt lat="43.2628000000" lon="-1.0673250000"><ele>191</ele><time>2026-04-24T06:06:37Z</time></trkpt>
<trkpt lat="43.2628170000" lon="-1.0673270000"><ele>192</ele><time>2026-04-24T06:06:40Z</time></trkpt>
<trkpt lat="43.2628380000" lon="-1.0673500000"><ele>193</ele><time>2026-04-24T06:07:01Z</time></trkpt>
<trkpt lat="43.2628620000" lon="-1.0673820000"><ele>193</ele><time>2026-04-24T06:07:03Z</time></trkpt>
<trkpt lat="43.2628750000" lon="-1.0674020000"><ele>193</ele><time>2026-04-24T06:07:04Z</time></trkpt>
<trkpt lat="43.2628920000" lon="-1.0674320000"><ele>193</ele><time>2026-04-24T06:07:06Z</time></trkpt>
<trkpt lat="43.2628970000" lon="-1.0674570000"><ele>193</ele><time>2026-04-24T06:07:09Z</time></trkpt>
<trkpt lat="43.2629170000" lon="-1.0674370000"><ele>194</ele><time>2026-04-24T06:07:41Z</time></trkpt>
<trkpt lat="43.2629420000" lon="-1.0674320000"><ele>194</ele><time>2026-04-24T06:07:43Z</time></trkpt>
<trkpt lat="43.2629750000" lon="-1.0674150000"><ele>194</ele><time>2026-04-24T06:07:45Z</time></trkpt>
<trkpt lat="43.2630050000" lon="-1.0674000000"><ele>195</ele><time>2026-04-24T06:07:47Z</time></trkpt>
<trkpt lat="43.2630270000" lon="-1.0673900000"><ele>195</ele><time>2026-04-24T06:07:49Z</time></trkpt>
<trkpt lat="43.2630520000" lon="-1.0673770000"><ele>195</ele><time>2026-04-24T06:07:52Z</time></trkpt>
<trkpt lat="43.2630720000" lon="-1.0673720000"><ele>195</ele><time>2026-04-24T06:07:54Z</time></trkpt>
<trkpt lat="43.2630920000" lon="-1.0673570000"><ele>195</ele><time>2026-04-24T06:08:06Z</time></trkpt>
<trkpt lat="43.2631120000" lon="-1.0673520000"><ele>195</ele><time>2026-04-24T06:08:08Z</time></trkpt>
<trkpt lat="43.2631400000" lon="-1.0673470000"><ele>195</ele><time>2026-04-24T06:08:10Z</time></trkpt>
<trkpt lat="43.2631650000" lon="-1.0673470000"><ele>195</ele><time>2026-04-24T06:08:12Z</time></trkpt>
<trkpt lat="43.2631900000" lon="-1.0673520000"><ele>195</ele><time>2026-04-24T06:08:14Z</time></trkpt>
<trkpt lat="43.2632150000" lon="-1.0673570000"><ele>195</ele><time>2026-04-24T06:08:16Z</time></trkpt>
<trkpt lat="43.2632350000" lon="-1.0673650000"><ele>195</ele><time>2026-04-24T06:08:18Z</time></trkpt>
<trkpt lat="43.2632420000" lon="-1.0673870000"><ele>195</ele><time>2026-04-24T06:08:21Z</time></trkpt>
<trkpt lat="43.2632220000" lon="-1.0673900000"><ele>196</ele><time>2026-04-24T06:08:25Z</time></trkpt>
<trkpt lat="43.2632520000" lon="-1.0673870000"><ele>196</ele><time>2026-04-24T06:08:48Z</time></trkpt>
<trkpt lat="43.2632820000" lon="-1.0673820000"><ele>196</ele><time>2026-04-24T06:08:50Z</time></trkpt>
<trkpt lat="43.2633070000" lon="-1.0673620000"><ele>196</ele><time>2026-04-24T06:08:53Z</time></trkpt>
<trkpt lat="43.2633320000" lon="-1.0673620000"><ele>197</ele><time>2026-04-24T06:08:56Z</time></trkpt>
<trkpt lat="43.2633550000" lon="-1.0673570000"><ele>197</ele><time>2026-04-24T06:08:59Z</time></trkpt>
<trkpt lat="43.2633770000" lon="-1.0673470000"><ele>198</ele><time>2026-04-24T06:09:02Z</time></trkpt>
<trkpt lat="43.2634020000" lon="-1.0673320000"><ele>198</ele><time>2026-04-24T06:09:05Z</time></trkpt>
<trkpt lat="43.2634220000" lon="-1.0673200000"><ele>198</ele><time>2026-04-24T06:09:07Z</time></trkpt>
<trkpt lat="43.2634470000" lon="-1.0673100000"><ele>198</ele><time>2026-04-24T06:09:09Z</time></trkpt>
<trkpt lat="43.2634670000" lon="-1.0673020000"><ele>198</ele><time>2026-04-24T06:09:11Z</time></trkpt>
<trkpt lat="43.2634900000" lon="-1.0673020000"><ele>198</ele><time>2026-04-24T06:09:13Z</time></trkpt>
<trkpt lat="43.2635120000" lon="-1.0673020000"><ele>198</ele><time>2026-04-24T06:09:15Z</time></trkpt>
<trkpt lat="43.2635370000" lon="-1.0672970000"><ele>198</ele><time>2026-04-24T06:09:18Z</time></trkpt>
<trkpt lat="43.2635620000" lon="-1.0672900000"><ele>198</ele><time>2026-04-24T06:09:21Z</time></trkpt>
<trkpt lat="43.2635850000" lon="-1.0672920000"><ele>199</ele><time>2026-04-24T06:09:24Z</time></trkpt>
<trkpt lat="43.2635900000" lon="-1.0673170000"><ele>199</ele><time>2026-04-24T06:09:29Z</time></trkpt>
<trkpt lat="43.2636100000" lon="-1.0673270000"><ele>199</ele><time>2026-04-24T06:11:41Z</time></trkpt>
<trkpt lat="43.2636420000" lon="-1.0673220000"><ele>199</ele><time>2026-04-24T06:11:43Z</time></trkpt>
<trkpt lat="43.2636680000" lon="-1.0673220000"><ele>199</ele><time>2026-04-24T06:11:45Z</time></trkpt>
<trkpt lat="43.2636970000" lon="-1.0673170000"><ele>200</ele><time>2026-04-24T06:11:47Z</time></trkpt>
<trkpt lat="43.2637150000" lon="-1.0673120000"><ele>200</ele><time>2026-04-24T06:11:49Z</time></trkpt>
<trkpt lat="43.2637320000" lon="-1.0673120000"><ele>200</ele><time>2026-04-24T06:11:51Z</time></trkpt>
<trkpt lat="43.2637600000" lon="-1.0673100000"><ele>201</ele><time>2026-04-24T06:11:54Z</time></trkpt>
<trkpt lat="43.2637820000" lon="-1.0672950000"><ele>201</ele><time>2026-04-24T06:11:57Z</time></trkpt>
<trkpt lat="43.2638020000" lon="-1.0672920000"><ele>201</ele><time>2026-04-24T06:11:59Z</time></trkpt>
<trkpt lat="43.2638200000" lon="-1.0672820000"><ele>202</ele><time>2026-04-24T06:12:04Z</time></trkpt>
<trkpt lat="43.2638450000" lon="-1.0672830000"><ele>203</ele><time>2026-04-24T06:12:34Z</time></trkpt>
<trkpt lat="43.2638670000" lon="-1.0672720000"><ele>203</ele><time>2026-04-24T06:12:36Z</time></trkpt>
<trkpt lat="43.2638930000" lon="-1.0672520000"><ele>203</ele><time>2026-04-24T06:12:38Z</time></trkpt>
<trkpt lat="43.2639170000" lon="-1.0672370000"><ele>203</ele><time>2026-04-24T06:12:40Z</time></trkpt>
<trkpt lat="43.2639370000" lon="-1.0672170000"><ele>203</ele><time>2026-04-24T06:12:42Z</time></trkpt>
<trkpt lat="43.2639600000" lon="-1.0671970000"><ele>204</ele><time>2026-04-24T06:12:45Z</time></trkpt>
<trkpt lat="43.2639770000" lon="-1.0671870000"><ele>204</ele><time>2026-04-24T06:12:47Z</time></trkpt>
<trkpt lat="43.2639970000" lon="-1.0671770000"><ele>204</ele><time>2026-04-24T06:12:49Z</time></trkpt>
<trkpt lat="43.2640150000" lon="-1.0671670000"><ele>204</ele><time>2026-04-24T06:12:51Z</time></trkpt>
<trkpt lat="43.2640320000" lon="-1.0671550000"><ele>204</ele><time>2026-04-24T06:12:53Z</time></trkpt>
<trkpt lat="43.2640520000" lon="-1.0671470000"><ele>204</ele><time>2026-04-24T06:12:55Z</time></trkpt>
<trkpt lat="43.2640770000" lon="-1.0671400000"><ele>205</ele><time>2026-04-24T06:12:58Z</time></trkpt>
<trkpt lat="43.2641020000" lon="-1.0671270000"><ele>205</ele><time>2026-04-24T06:13:00Z</time></trkpt>
<trkpt lat="43.2641180000" lon="-1.0671150000"><ele>205</ele><time>2026-04-24T06:13:02Z</time></trkpt>
<trkpt lat="43.2641420000" lon="-1.0671070000"><ele>205</ele><time>2026-04-24T06:13:04Z</time></trkpt>
<trkpt lat="43.2641650000" lon="-1.0671000000"><ele>205</ele><time>2026-04-24T06:13:06Z</time></trkpt>
<trkpt lat="43.2641870000" lon="-1.0670870000"><ele>206</ele><time>2026-04-24T06:13:08Z</time></trkpt>
<trkpt lat="43.2642070000" lon="-1.0670770000"><ele>206</ele><time>2026-04-24T06:13:10Z</time></trkpt>
<trkpt lat="43.2642270000" lon="-1.0670770000"><ele>206</ele><time>2026-04-24T06:13:12Z</time></trkpt>
<trkpt lat="43.2642470000" lon="-1.0670850000"><ele>207</ele><time>2026-04-24T06:13:20Z</time></trkpt>
<trkpt lat="43.2642670000" lon="-1.0670770000"><ele>207</ele><time>2026-04-24T06:13:22Z</time></trkpt>
<trkpt lat="43.2642900000" lon="-1.0670670000"><ele>207</ele><time>2026-04-24T06:13:24Z</time></trkpt>
<trkpt lat="43.2643070000" lon="-1.0670580000"><ele>207</ele><time>2026-04-24T06:13:26Z</time></trkpt>
<trkpt lat="43.2643270000" lon="-1.0670550000"><ele>207</ele><time>2026-04-24T06:13:28Z</time></trkpt>
<trkpt lat="43.2643470000" lon="-1.0670470000"><ele>207</ele><time>2026-04-24T06:13:30Z</time></trkpt>
<trkpt lat="43.2643670000" lon="-1.0670420000"><ele>207</ele><time>2026-04-24T06:13:32Z</time></trkpt>
<trkpt lat="43.2643920000" lon="-1.0670370000"><ele>208</ele><time>2026-04-24T06:13:34Z</time></trkpt>
<trkpt lat="43.2644120000" lon="-1.0670280000"><ele>208</ele><time>2026-04-24T06:13:36Z</time></trkpt>
<trkpt lat="43.2644370000" lon="-1.0670270000"><ele>208</ele><time>2026-04-24T06:13:38Z</time></trkpt>
<trkpt lat="43.2644570000" lon="-1.0670200000"><ele>208</ele><time>2026-04-24T06:13:40Z</time></trkpt>
<trkpt lat="43.2644770000" lon="-1.0670170000"><ele>208</ele><time>2026-04-24T06:13:42Z</time></trkpt>
<trkpt lat="43.2645020000" lon="-1.0670070000"><ele>208</ele><time>2026-04-24T06:13:44Z</time></trkpt>
<trkpt lat="43.2645270000" lon="-1.0670020000"><ele>208</ele><time>2026-04-24T06:13:46Z</time></trkpt>
<trkpt lat="43.2645520000" lon="-1.0669970000"><ele>209</ele><time>2026-04-24T06:13:48Z</time></trkpt>
<trkpt lat="43.2645750000" lon="-1.0669920000"><ele>209</ele><time>2026-04-24T06:13:50Z</time></trkpt>
<trkpt lat="43.2645970000" lon="-1.0669820000"><ele>209</ele><time>2026-04-24T06:13:52Z</time></trkpt>
<trkpt lat="43.2646170000" lon="-1.0669720000"><ele>209</ele><time>2026-04-24T06:13:54Z</time></trkpt>
<trkpt lat="43.2646320000" lon="-1.0669620000"><ele>209</ele><time>2026-04-24T06:13:56Z</time></trkpt>
<trkpt lat="43.2646530000" lon="-1.0669650000"><ele>209</ele><time>2026-04-24T06:13:59Z</time></trkpt>
<trkpt lat="43.2646750000" lon="-1.0669620000"><ele>209</ele><time>2026-04-24T06:14:01Z</time></trkpt>
<trkpt lat="43.2646970000" lon="-1.0669570000"><ele>209</ele><time>2026-04-24T06:14:03Z</time></trkpt>
<trkpt lat="43.2647170000" lon="-1.0669520000"><ele>209</ele><time>2026-04-24T06:14:05Z</time></trkpt>
<trkpt lat="43.2647420000" lon="-1.0669470000"><ele>209</ele><time>2026-04-24T06:14:07Z</time></trkpt>
<trkpt lat="43.2647600000" lon="-1.0669370000"><ele>209</ele><time>2026-04-24T06:14:09Z</time></trkpt>
<trkpt lat="43.2647800000" lon="-1.0669370000"><ele>209</ele><time>2026-04-24T06:14:11Z</time></trkpt>
<trkpt lat="43.2648020000" lon="-1.0669370000"><ele>210</ele><time>2026-04-24T06:14:13Z</time></trkpt>
<trkpt lat="43.2648250000" lon="-1.0669330000"><ele>210</ele><time>2026-04-24T06:14:15Z</time></trkpt>
<trkpt lat="43.2648470000" lon="-1.0669320000"><ele>210</ele><time>2026-04-24T06:14:17Z</time></trkpt>
<trkpt lat="43.2648650000" lon="-1.0669320000"><ele>210</ele><time>2026-04-24T06:14:19Z</time></trkpt>
<trkpt lat="43.2648850000" lon="-1.0669280000"><ele>210</ele><time>2026-04-24T06:14:21Z</time></trkpt>
<trkpt lat="43.2649070000" lon="-1.0669230000"><ele>210</ele><time>2026-04-24T06:14:24Z</time></trkpt>
<trkpt lat="43.2649270000" lon="-1.0669220000"><ele>210</ele><time>2026-04-24T06:14:26Z</time></trkpt>
<trkpt lat="43.2649450000" lon="-1.0669220000"><ele>211</ele><time>2026-04-24T06:14:28Z</time></trkpt>
<trkpt lat="43.2649630000" lon="-1.0669320000"><ele>210</ele><time>2026-04-24T06:14:30Z</time></trkpt>
<trkpt lat="43.2649870000" lon="-1.0669470000"><ele>211</ele><time>2026-04-24T06:14:32Z</time></trkpt>
<trkpt lat="43.2650050000" lon="-1.0669650000"><ele>211</ele><time>2026-04-24T06:14:34Z</time></trkpt>
<trkpt lat="43.2650220000" lon="-1.0669770000"><ele>211</ele><time>2026-04-24T06:14:36Z</time></trkpt>
<trkpt lat="43.2650420000" lon="-1.0669970000"><ele>211</ele><time>2026-04-24T06:14:39Z</time></trkpt>
<trkpt lat="43.2650550000" lon="-1.0670120000"><ele>211</ele><time>2026-04-24T06:14:43Z</time></trkpt>
<trkpt lat="43.2650770000" lon="-1.0670270000"><ele>211</ele><time>2026-04-24T06:14:46Z</time></trkpt>
<trkpt lat="43.2650920000" lon="-1.0670420000"><ele>212</ele><time>2026-04-24T06:14:49Z</time></trkpt>
<trkpt lat="43.2651120000" lon="-1.0670580000"><ele>212</ele><time>2026-04-24T06:14:54Z</time></trkpt>
<trkpt lat="43.2651300000" lon="-1.0670770000"><ele>212</ele><time>2026-04-24T06:14:57Z</time></trkpt>
<trkpt lat="43.2651520000" lon="-1.0670900000"><ele>212</ele><time>2026-04-24T06:15:00Z</time></trkpt>
<trkpt lat="43.2651770000" lon="-1.0671020000"><ele>213</ele><time>2026-04-24T06:15:03Z</time></trkpt>
<trkpt lat="43.2651920000" lon="-1.0671220000"><ele>213</ele><time>2026-04-24T06:15:06Z</time></trkpt>
<trkpt lat="43.2652070000" lon="-1.0671420000"><ele>213</ele><time>2026-04-24T06:15:09Z</time></trkpt>
<trkpt lat="43.2652220000" lon="-1.0671620000"><ele>214</ele><time>2026-04-24T06:15:12Z</time></trkpt>
<trkpt lat="43.2652350000" lon="-1.0671820000"><ele>214</ele><time>2026-04-24T06:15:15Z</time></trkpt>
<trkpt lat="43.2652470000" lon="-1.0672070000"><ele>214</ele><time>2026-04-24T06:15:18Z</time></trkpt>
<trkpt lat="43.2652550000" lon="-1.0672320000"><ele>215</ele><time>2026-04-24T06:15:22Z</time></trkpt>
<trkpt lat="43.2652580000" lon="-1.0672570000"><ele>216</ele><time>2026-04-24T06:15:26Z</time></trkpt>
<trkpt lat="43.2652620000" lon="-1.0672820000"><ele>216</ele><time>2026-04-24T06:15:30Z</time></trkpt>
<trkpt lat="43.2652720000" lon="-1.0673100000"><ele>217</ele><time>2026-04-24T06:15:34Z</time></trkpt>
<trkpt lat="43.2652870000" lon="-1.0673270000"><ele>217</ele><time>2026-04-24T06:15:37Z</time></trkpt>
<trkpt lat="43.2653050000" lon="-1.0673420000"><ele>218</ele><time>2026-04-24T06:15:40Z</time></trkpt>
<trkpt lat="43.2653220000" lon="-1.0673620000"><ele>218</ele><time>2026-04-24T06:15:43Z</time></trkpt>
<trkpt lat="43.2653320000" lon="-1.0673870000"><ele>219</ele><time>2026-04-24T06:15:58Z</time></trkpt>
<trkpt lat="43.2653450000" lon="-1.0674120000"><ele>219</ele><time>2026-04-24T06:16:00Z</time></trkpt>
<trkpt lat="43.2653570000" lon="-1.0674370000"><ele>219</ele><time>2026-04-24T06:16:02Z</time></trkpt>
<trkpt lat="43.2653720000" lon="-1.0674550000"><ele>219</ele><time>2026-04-24T06:16:04Z</time></trkpt>
<trkpt lat="43.2653870000" lon="-1.0674770000"><ele>220</ele><time>2026-04-24T06:16:07Z</time></trkpt>
<trkpt lat="43.2654020000" lon="-1.0674970000"><ele>220</ele><time>2026-04-24T06:16:10Z</time></trkpt>
<trkpt lat="43.2654120000" lon="-1.0675170000"><ele>220</ele><time>2026-04-24T06:16:13Z</time></trkpt>
<trkpt lat="43.2654220000" lon="-1.0675370000"><ele>220</ele><time>2026-04-24T06:16:16Z</time></trkpt>
<trkpt lat="43.2654370000" lon="-1.0675620000"><ele>221</ele><time>2026-04-24T06:16:20Z</time></trkpt>
<trkpt lat="43.2654520000" lon="-1.0675850000"><ele>222</ele><time>2026-04-24T06:16:24Z</time></trkpt>
<trkpt lat="43.2654650000" lon="-1.0676080000"><ele>222</ele><time>2026-04-24T06:16:28Z</time></trkpt>
<trkpt lat="43.2654800000" lon="-1.0676320000"><ele>223</ele><time>2026-04-24T06:16:31Z</time></trkpt>
<trkpt lat="43.2655020000" lon="-1.0676520000"><ele>223</ele><time>2026-04-24T06:16:35Z</time></trkpt>
<trkpt lat="43.2655170000" lon="-1.0676620000"><ele>223</ele><time>2026-04-24T06:16:37Z</time></trkpt>
<trkpt lat="43.2655370000" lon="-1.0676770000"><ele>224</ele><time>2026-04-24T06:16:40Z</time></trkpt>
<trkpt lat="43.2655600000" lon="-1.0676870000"><ele>224</ele><time>2026-04-24T06:16:44Z</time></trkpt>
<trkpt lat="43.2655770000" lon="-1.0676880000"><ele>224</ele><time>2026-04-24T06:16:48Z</time></trkpt>
<trkpt lat="43.2656000000" lon="-1.0676870000"><ele>225</ele><time>2026-04-24T06:16:51Z</time></trkpt>
<trkpt lat="43.2656170000" lon="-1.0676880000"><ele>225</ele><time>2026-04-24T06:16:54Z</time></trkpt>
<trkpt lat="43.2656350000" lon="-1.0677020000"><ele>225</ele><time>2026-04-24T06:16:57Z</time></trkpt>
<trkpt lat="43.2656520000" lon="-1.0677150000"><ele>225</ele><time>2026-04-24T06:17:00Z</time></trkpt>
<trkpt lat="43.2656720000" lon="-1.0677270000"><ele>225</ele><time>2026-04-24T06:17:03Z</time></trkpt>
<trkpt lat="43.2656870000" lon="-1.0677430000"><ele>225</ele><time>2026-04-24T06:17:06Z</time></trkpt>
<trkpt lat="43.2656920000" lon="-1.0677750000"><ele>225</ele><time>2026-04-24T06:17:09Z</time></trkpt>
<trkpt lat="43.2657070000" lon="-1.0678020000"><ele>224</ele><time>2026-04-24T06:17:55Z</time></trkpt>
<trkpt lat="43.2657250000" lon="-1.0678200000"><ele>224</ele><time>2026-04-24T06:17:57Z</time></trkpt>
<trkpt lat="43.2657470000" lon="-1.0678370000"><ele>224</ele><time>2026-04-24T06:17:59Z</time></trkpt>
<trkpt lat="43.2657670000" lon="-1.0678500000"><ele>224</ele><time>2026-04-24T06:18:01Z</time></trkpt>
<trkpt lat="43.2657820000" lon="-1.0678650000"><ele>224</ele><time>2026-04-24T06:18:03Z</time></trkpt>
<trkpt lat="43.2658070000" lon="-1.0678780000"><ele>223</ele><time>2026-04-24T06:18:06Z</time></trkpt>
<trkpt lat="43.2658320000" lon="-1.0678920000"><ele>223</ele><time>2026-04-24T06:18:09Z</time></trkpt>
<trkpt lat="43.2658500000" lon="-1.0679050000"><ele>223</ele><time>2026-04-24T06:18:11Z</time></trkpt>
<trkpt lat="43.2658700000" lon="-1.0679120000"><ele>222</ele><time>2026-04-24T06:18:13Z</time></trkpt>
<trkpt lat="43.2658920000" lon="-1.0679170000"><ele>222</ele><time>2026-04-24T06:18:15Z</time></trkpt>
<trkpt lat="43.2659170000" lon="-1.0679250000"><ele>222</ele><time>2026-04-24T06:18:17Z</time></trkpt>
<trkpt lat="43.2659450000" lon="-1.0679320000"><ele>221</ele><time>2026-04-24T06:18:20Z</time></trkpt>
<trkpt lat="43.2659670000" lon="-1.0679420000"><ele>221</ele><time>2026-04-24T06:18:22Z</time></trkpt>
<trkpt lat="43.2659850000" lon="-1.0679520000"><ele>220</ele><time>2026-04-24T06:18:24Z</time></trkpt>
<trkpt lat="43.2660020000" lon="-1.0679620000"><ele>219</ele><time>2026-04-24T06:18:39Z</time></trkpt>
<trkpt lat="43.2660270000" lon="-1.0679580000"><ele>219</ele><time>2026-04-24T06:18:41Z</time></trkpt>
<trkpt lat="43.2660520000" lon="-1.0679470000"><ele>219</ele><time>2026-04-24T06:18:43Z</time></trkpt>
<trkpt lat="43.2660750000" lon="-1.0679320000"><ele>219</ele><time>2026-04-24T06:18:45Z</time></trkpt>
<trkpt lat="43.2660920000" lon="-1.0679220000"><ele>219</ele><time>2026-04-24T06:18:47Z</time></trkpt>
<trkpt lat="43.2661220000" lon="-1.0679170000"><ele>219</ele><time>2026-04-24T06:18:51Z</time></trkpt>
<trkpt lat="43.2661400000" lon="-1.0679170000"><ele>219</ele><time>2026-04-24T06:18:54Z</time></trkpt>
<trkpt lat="43.2661520000" lon="-1.0679470000"><ele>219</ele><time>2026-04-24T06:19:21Z</time></trkpt>
<trkpt lat="43.2661850000" lon="-1.0679620000"><ele>219</ele><time>2026-04-24T06:19:23Z</time></trkpt>
<trkpt lat="43.2662020000" lon="-1.0679650000"><ele>219</ele><time>2026-04-24T06:19:24Z</time></trkpt>
<trkpt lat="43.2662220000" lon="-1.0679620000"><ele>219</ele><time>2026-04-24T06:19:25Z</time></trkpt>
<trkpt lat="43.2662550000" lon="-1.0679450000"><ele>219</ele><time>2026-04-24T06:19:27Z</time></trkpt>
<trkpt lat="43.2662770000" lon="-1.0679320000"><ele>219</ele><time>2026-04-24T06:19:29Z</time></trkpt>
<trkpt lat="43.2663020000" lon="-1.0679220000"><ele>219</ele><time>2026-04-24T06:19:31Z</time></trkpt>
<trkpt lat="43.2663270000" lon="-1.0679130000"><ele>219</ele><time>2026-04-24T06:19:34Z</time></trkpt>
<trkpt lat="43.2663470000" lon="-1.0679100000"><ele>219</ele><time>2026-04-24T06:19:36Z</time></trkpt>
<trkpt lat="43.2663650000" lon="-1.0678970000"><ele>219</ele><time>2026-04-24T06:19:38Z</time></trkpt>
<trkpt lat="43.2663870000" lon="-1.0678820000"><ele>219</ele><time>2026-04-24T06:19:40Z</time></trkpt>
<trkpt lat="43.2664070000" lon="-1.0678770000"><ele>219</ele><time>2026-04-24T06:19:43Z</time></trkpt>
<trkpt lat="43.2664050000" lon="-1.0678520000"><ele>218</ele><time>2026-04-24T06:20:10Z</time></trkpt>
<trkpt lat="43.2664170000" lon="-1.0678230000"><ele>218</ele><time>2026-04-24T06:20:41Z</time></trkpt>
<trkpt lat="43.2664420000" lon="-1.0677920000"><ele>218</ele><time>2026-04-24T06:20:43Z</time></trkpt>
<trkpt lat="43.2664550000" lon="-1.0677750000"><ele>218</ele><time>2026-04-24T06:20:44Z</time></trkpt>
<trkpt lat="43.2664720000" lon="-1.0677620000"><ele>218</ele><time>2026-04-24T06:20:46Z</time></trkpt>
<trkpt lat="43.2664950000" lon="-1.0677500000"><ele>219</ele><time>2026-04-24T06:20:48Z</time></trkpt>
<trkpt lat="43.2665170000" lon="-1.0677500000"><ele>219</ele><time>2026-04-24T06:20:50Z</time></trkpt>
<trkpt lat="43.2665320000" lon="-1.0677650000"><ele>219</ele><time>2026-04-24T06:20:55Z</time></trkpt>
<trkpt lat="43.2665520000" lon="-1.0677780000"><ele>219</ele><time>2026-04-24T06:20:59Z</time></trkpt>
<trkpt lat="43.2665820000" lon="-1.0677770000"><ele>219</ele><time>2026-04-24T06:21:01Z</time></trkpt>
<trkpt lat="43.2666100000" lon="-1.0677720000"><ele>219</ele><time>2026-04-24T06:21:03Z</time></trkpt>
<trkpt lat="43.2666300000" lon="-1.0677600000"><ele>219</ele><time>2026-04-24T06:21:05Z</time></trkpt>
<trkpt lat="43.2666370000" lon="-1.0677370000"><ele>219</ele><time>2026-04-24T06:21:08Z</time></trkpt>
<trkpt lat="43.2666420000" lon="-1.0677120000"><ele>219</ele><time>2026-04-24T06:21:11Z</time></trkpt>
<trkpt lat="43.2666500000" lon="-1.0676770000"><ele>219</ele><time>2026-04-24T06:21:14Z</time></trkpt>
<trkpt lat="43.2666720000" lon="-1.0676470000"><ele>220</ele><time>2026-04-24T06:21:24Z</time></trkpt>
<trkpt lat="43.2667000000" lon="-1.0676220000"><ele>220</ele><time>2026-04-24T06:21:26Z</time></trkpt>
<trkpt lat="43.2667170000" lon="-1.0675970000"><ele>220</ele><time>2026-04-24T06:21:28Z</time></trkpt>
<trkpt lat="43.2667270000" lon="-1.0675720000"><ele>221</ele><time>2026-04-24T06:21:31Z</time></trkpt>
<trkpt lat="43.2667420000" lon="-1.0675470000"><ele>221</ele><time>2026-04-24T06:21:33Z</time></trkpt>
<trkpt lat="43.2667570000" lon="-1.0675200000"><ele>221</ele><time>2026-04-24T06:21:35Z</time></trkpt>
<trkpt lat="43.2667720000" lon="-1.0674920000"><ele>221</ele><time>2026-04-24T06:21:37Z</time></trkpt>
<trkpt lat="43.2667900000" lon="-1.0674650000"><ele>221</ele><time>2026-04-24T06:21:39Z</time></trkpt>
<trkpt lat="43.2668050000" lon="-1.0674470000"><ele>221</ele><time>2026-04-24T06:21:41Z</time></trkpt>
<trkpt lat="43.2668200000" lon="-1.0674270000"><ele>221</ele><time>2026-04-24T06:21:43Z</time></trkpt>
<trkpt lat="43.2668320000" lon="-1.0674050000"><ele>221</ele><time>2026-04-24T06:21:45Z</time></trkpt>
<trkpt lat="43.2668480000" lon="-1.0673820000"><ele>222</ele><time>2026-04-24T06:21:47Z</time></trkpt>
<trkpt lat="43.2668620000" lon="-1.0673670000"><ele>222</ele><time>2026-04-24T06:21:49Z</time></trkpt>
<trkpt lat="43.2668770000" lon="-1.0673470000"><ele>222</ele><time>2026-04-24T06:21:51Z</time></trkpt>
<trkpt lat="43.2668800000" lon="-1.0673220000"><ele>223</ele><time>2026-04-24T06:21:54Z</time></trkpt>
<trkpt lat="43.2668870000" lon="-1.0672920000"><ele>223</ele><time>2026-04-24T06:21:57Z</time></trkpt>
<trkpt lat="43.2669070000" lon="-1.0672670000"><ele>224</ele><time>2026-04-24T06:22:00Z</time></trkpt>
<trkpt lat="43.2669250000" lon="-1.0672600000"><ele>224</ele><time>2026-04-24T06:22:03Z</time></trkpt>
<trkpt lat="43.2669470000" lon="-1.0672420000"><ele>225</ele><time>2026-04-24T06:22:13Z</time></trkpt>
<trkpt lat="43.2669770000" lon="-1.0672170000"><ele>225</ele><time>2026-04-24T06:22:15Z</time></trkpt>
<trkpt lat="43.2669920000" lon="-1.0671920000"><ele>225</ele><time>2026-04-24T06:22:17Z</time></trkpt>
<trkpt lat="43.2670120000" lon="-1.0671700000"><ele>226</ele><time>2026-04-24T06:22:29Z</time></trkpt>
<trkpt lat="43.2670350000" lon="-1.0671550000"><ele>226</ele><time>2026-04-24T06:22:31Z</time></trkpt>
<trkpt lat="43.2670620000" lon="-1.0671420000"><ele>226</ele><time>2026-04-24T06:22:33Z</time></trkpt>
<trkpt lat="43.2670770000" lon="-1.0671270000"><ele>226</ele><time>2026-04-24T06:22:35Z</time></trkpt>
<trkpt lat="43.2671020000" lon="-1.0671080000"><ele>226</ele><time>2026-04-24T06:22:38Z</time></trkpt>
<trkpt lat="43.2671170000" lon="-1.0671000000"><ele>227</ele><time>2026-04-24T06:22:40Z</time></trkpt>
<trkpt lat="43.2671370000" lon="-1.0670920000"><ele>227</ele><time>2026-04-24T06:22:42Z</time></trkpt>
<trkpt lat="43.2671570000" lon="-1.0670820000"><ele>227</ele><time>2026-04-24T06:22:44Z</time></trkpt>
<trkpt lat="43.2671750000" lon="-1.0670750000"><ele>227</ele><time>2026-04-24T06:22:46Z</time></trkpt>
<trkpt lat="43.2672020000" lon="-1.0670630000"><ele>228</ele><time>2026-04-24T06:22:49Z</time></trkpt>
<trkpt lat="43.2672220000" lon="-1.0670620000"><ele>228</ele><time>2026-04-24T06:22:51Z</time></trkpt>
<trkpt lat="43.2672420000" lon="-1.0670620000"><ele>228</ele><time>2026-04-24T06:22:53Z</time></trkpt>
<trkpt lat="43.2672620000" lon="-1.0670570000"><ele>228</ele><time>2026-04-24T06:22:55Z</time></trkpt>
<trkpt lat="43.2672820000" lon="-1.0670570000"><ele>229</ele><time>2026-04-24T06:22:57Z</time></trkpt>
<trkpt lat="43.2673070000" lon="-1.0670520000"><ele>229</ele><time>2026-04-24T06:23:00Z</time></trkpt>
<trkpt lat="43.2673270000" lon="-1.0670520000"><ele>229</ele><time>2026-04-24T06:23:02Z</time></trkpt>
<trkpt lat="43.2673470000" lon="-1.0670470000"><ele>229</ele><time>2026-04-24T06:23:04Z</time></trkpt>
<trkpt lat="43.2673670000" lon="-1.0670470000"><ele>230</ele><time>2026-04-24T06:23:06Z</time></trkpt>
<trkpt lat="43.2673870000" lon="-1.0670470000"><ele>230</ele><time>2026-04-24T06:23:08Z</time></trkpt>
<trkpt lat="43.2674120000" lon="-1.0670470000"><ele>230</ele><time>2026-04-24T06:23:11Z</time></trkpt>
<trkpt lat="43.2674370000" lon="-1.0670520000"><ele>231</ele><time>2026-04-24T06:23:14Z</time></trkpt>
<trkpt lat="43.2674620000" lon="-1.0670500000"><ele>231</ele><time>2026-04-24T06:23:17Z</time></trkpt>
<trkpt lat="43.2674870000" lon="-1.0670400000"><ele>231</ele><time>2026-04-24T06:23:20Z</time></trkpt>
<trkpt lat="43.2675120000" lon="-1.0670320000"><ele>232</ele><time>2026-04-24T06:23:23Z</time></trkpt>
<trkpt lat="43.2675370000" lon="-1.0670420000"><ele>232</ele><time>2026-04-24T06:23:26Z</time></trkpt>
<trkpt lat="43.2675500000" lon="-1.0670630000"><ele>232</ele><time>2026-04-24T06:23:28Z</time></trkpt>
<trkpt lat="43.2675500000" lon="-1.0670950000"><ele>233</ele><time>2026-04-24T06:23:35Z</time></trkpt>
<trkpt lat="43.2675770000" lon="-1.0671070000"><ele>233</ele><time>2026-04-24T06:24:14Z</time></trkpt>
<trkpt lat="43.2676070000" lon="-1.0671080000"><ele>233</ele><time>2026-04-24T06:24:16Z</time></trkpt>
<trkpt lat="43.2676370000" lon="-1.0671080000"><ele>233</ele><time>2026-04-24T06:24:18Z</time></trkpt>
<trkpt lat="43.2676650000" lon="-1.0671080000"><ele>234</ele><time>2026-04-24T06:24:20Z</time></trkpt>
<trkpt lat="43.2676870000" lon="-1.0671150000"><ele>234</ele><time>2026-04-24T06:24:22Z</time></trkpt>
<trkpt lat="43.2677100000" lon="-1.0671270000"><ele>234</ele><time>2026-04-24T06:24:24Z</time></trkpt>
<trkpt lat="43.2677270000" lon="-1.0671370000"><ele>234</ele><time>2026-04-24T06:24:26Z</time></trkpt>
<trkpt lat="43.2677550000" lon="-1.0671520000"><ele>234</ele><time>2026-04-24T06:24:29Z</time></trkpt>
<trkpt lat="43.2677750000" lon="-1.0671620000"><ele>234</ele><time>2026-04-24T06:24:31Z</time></trkpt>
<trkpt lat="43.2677950000" lon="-1.0671720000"><ele>235</ele><time>2026-04-24T06:24:33Z</time></trkpt>
<trkpt lat="43.2678120000" lon="-1.0671820000"><ele>235</ele><time>2026-04-24T06:24:35Z</time></trkpt>
<trkpt lat="43.2678300000" lon="-1.0671970000"><ele>235</ele><time>2026-04-24T06:24:37Z</time></trkpt>
<trkpt lat="43.2678470000" lon="-1.0672200000"><ele>235</ele><time>2026-04-24T06:24:39Z</time></trkpt>
<trkpt lat="43.2678670000" lon="-1.0672500000"><ele>235</ele><time>2026-04-24T06:24:41Z</time></trkpt>
<trkpt lat="43.2678820000" lon="-1.0672770000"><ele>235</ele><time>2026-04-24T06:24:43Z</time></trkpt>
<trkpt lat="43.2678970000" lon="-1.0672970000"><ele>235</ele><time>2026-04-24T06:24:45Z</time></trkpt>
<trkpt lat="43.2679120000" lon="-1.0673120000"><ele>235</ele><time>2026-04-24T06:24:47Z</time></trkpt>
<trkpt lat="43.2679270000" lon="-1.0673320000"><ele>236</ele><time>2026-04-24T06:24:49Z</time></trkpt>
<trkpt lat="43.2679420000" lon="-1.0673550000"><ele>236</ele><time>2026-04-24T06:24:51Z</time></trkpt>
<trkpt lat="43.2679550000" lon="-1.0673730000"><ele>236</ele><time>2026-04-24T06:24:53Z</time></trkpt>
<trkpt lat="43.2679670000" lon="-1.0673970000"><ele>236</ele><time>2026-04-24T06:24:55Z</time></trkpt>
<trkpt lat="43.2679820000" lon="-1.0674170000"><ele>236</ele><time>2026-04-24T06:24:57Z</time></trkpt>
<trkpt lat="43.2679950000" lon="-1.0674400000"><ele>236</ele><time>2026-04-24T06:24:59Z</time></trkpt>
<trkpt lat="43.2680100000" lon="-1.0674650000"><ele>237</ele><time>2026-04-24T06:25:01Z</time></trkpt>
<trkpt lat="43.2680220000" lon="-1.0674920000"><ele>237</ele><time>2026-04-24T06:25:03Z</time></trkpt>
<trkpt lat="43.2680350000" lon="-1.0675170000"><ele>237</ele><time>2026-04-24T06:25:05Z</time></trkpt>
<trkpt lat="43.2680520000" lon="-1.0675470000"><ele>237</ele><time>2026-04-24T06:25:08Z</time></trkpt>
<trkpt lat="43.2680620000" lon="-1.0675680000"><ele>237</ele><time>2026-04-24T06:25:10Z</time></trkpt>
<trkpt lat="43.2680750000" lon="-1.0675970000"><ele>237</ele><time>2026-04-24T06:25:12Z</time></trkpt>
<trkpt lat="43.2680870000" lon="-1.0676170000"><ele>238</ele><time>2026-04-24T06:25:14Z</time></trkpt>
<trkpt lat="43.2680970000" lon="-1.0676370000"><ele>238</ele><time>2026-04-24T06:25:22Z</time></trkpt>
<trkpt lat="43.2681100000" lon="-1.0676620000"><ele>238</ele><time>2026-04-24T06:25:38Z</time></trkpt>
<trkpt lat="43.2681220000" lon="-1.0676820000"><ele>238</ele><time>2026-04-24T06:25:40Z</time></trkpt>
<trkpt lat="43.2681400000" lon="-1.0676970000"><ele>239</ele><time>2026-04-24T06:25:44Z</time></trkpt>
<trkpt lat="43.2681550000" lon="-1.0677200000"><ele>239</ele><time>2026-04-24T06:25:46Z</time></trkpt>
<trkpt lat="43.2681720000" lon="-1.0677500000"><ele>239</ele><time>2026-04-24T06:25:49Z</time></trkpt>
<trkpt lat="43.2681850000" lon="-1.0677720000"><ele>239</ele><time>2026-04-24T06:25:51Z</time></trkpt>
<trkpt lat="43.2681970000" lon="-1.0678070000"><ele>239</ele><time>2026-04-24T06:25:53Z</time></trkpt>
<trkpt lat="43.2682100000" lon="-1.0678370000"><ele>239</ele><time>2026-04-24T06:25:55Z</time></trkpt>
<trkpt lat="43.2682220000" lon="-1.0678620000"><ele>239</ele><time>2026-04-24T06:25:57Z</time></trkpt>
<trkpt lat="43.2682350000" lon="-1.0678820000"><ele>240</ele><time>2026-04-24T06:25:59Z</time></trkpt>
<trkpt lat="43.2682370000" lon="-1.0679120000"><ele>240</ele><time>2026-04-24T06:27:03Z</time></trkpt>
<trkpt lat="43.2682520000" lon="-1.0679270000"><ele>240</ele><time>2026-04-24T06:27:06Z</time></trkpt>
<trkpt lat="43.2682670000" lon="-1.0679570000"><ele>240</ele><time>2026-04-24T06:27:12Z</time></trkpt>
<trkpt lat="43.2682800000" lon="-1.0679770000"><ele>240</ele><time>2026-04-24T06:27:14Z</time></trkpt>
<trkpt lat="43.2682970000" lon="-1.0680050000"><ele>240</ele><time>2026-04-24T06:27:16Z</time></trkpt>
<trkpt lat="43.2683070000" lon="-1.0680370000"><ele>240</ele><time>2026-04-24T06:27:18Z</time></trkpt>
<trkpt lat="43.2683220000" lon="-1.0680650000"><ele>240</ele><time>2026-04-24T06:27:20Z</time></trkpt>
<trkpt lat="43.2683320000" lon="-1.0680930000"><ele>241</ele><time>2026-04-24T06:27:22Z</time></trkpt>
<trkpt lat="43.2683520000" lon="-1.0681150000"><ele>241</ele><time>2026-04-24T06:27:24Z</time></trkpt>
<trkpt lat="43.2683620000" lon="-1.0681370000"><ele>241</ele><time>2026-04-24T06:27:26Z</time></trkpt>
<trkpt lat="43.2683870000" lon="-1.0681520000"><ele>242</ele><time>2026-04-24T06:27:28Z</time></trkpt>
<trkpt lat="43.2684020000" lon="-1.0681700000"><ele>242</ele><time>2026-04-24T06:27:30Z</time></trkpt>
<trkpt lat="43.2684220000" lon="-1.0681880000"><ele>242</ele><time>2026-04-24T06:27:32Z</time></trkpt>
<trkpt lat="43.2684380000" lon="-1.0682070000"><ele>242</ele><time>2026-04-24T06:27:34Z</time></trkpt>
<trkpt lat="43.2684520000" lon="-1.0682320000"><ele>242</ele><time>2026-04-24T06:27:36Z</time></trkpt>
<trkpt lat="43.2684670000" lon="-1.0682520000"><ele>243</ele><time>2026-04-24T06:27:38Z</time></trkpt>
<trkpt lat="43.2684850000" lon="-1.0682670000"><ele>243</ele><time>2026-04-24T06:27:40Z</time></trkpt>
<trkpt lat="43.2685020000" lon="-1.0682820000"><ele>243</ele><time>2026-04-24T06:27:42Z</time></trkpt>
<trkpt lat="43.2685230000" lon="-1.0682970000"><ele>244</ele><time>2026-04-24T06:27:44Z</time></trkpt>
<trkpt lat="43.2685470000" lon="-1.0683120000"><ele>244</ele><time>2026-04-24T06:27:46Z</time></trkpt>
<trkpt lat="43.2685670000" lon="-1.0683270000"><ele>244</ele><time>2026-04-24T06:27:48Z</time></trkpt>
<trkpt lat="43.2685900000" lon="-1.0683370000"><ele>244</ele><time>2026-04-24T06:27:50Z</time></trkpt>
<trkpt lat="43.2686120000" lon="-1.0683580000"><ele>244</ele><time>2026-04-24T06:27:53Z</time></trkpt>
<trkpt lat="43.2686370000" lon="-1.0683620000"><ele>244</ele><time>2026-04-24T06:27:55Z</time></trkpt>
<trkpt lat="43.2686620000" lon="-1.0683620000"><ele>244</ele><time>2026-04-24T06:27:57Z</time></trkpt>
<trkpt lat="43.2686920000" lon="-1.0683620000"><ele>244</ele><time>2026-04-24T06:27:59Z</time></trkpt>
<trkpt lat="43.2687150000" lon="-1.0683630000"><ele>244</ele><time>2026-04-24T06:28:01Z</time></trkpt>
<trkpt lat="43.2687420000" lon="-1.0683620000"><ele>244</ele><time>2026-04-24T06:28:03Z</time></trkpt>
<trkpt lat="43.2687600000" lon="-1.0683620000"><ele>244</ele><time>2026-04-24T06:28:05Z</time></trkpt>
<trkpt lat="43.2687850000" lon="-1.0683570000"><ele>244</ele><time>2026-04-24T06:28:07Z</time></trkpt>
<trkpt lat="43.2688120000" lon="-1.0683550000"><ele>244</ele><time>2026-04-24T06:28:09Z</time></trkpt>
<trkpt lat="43.2688370000" lon="-1.0683570000"><ele>243</ele><time>2026-04-24T06:28:11Z</time></trkpt>
<trkpt lat="43.2688570000" lon="-1.0683550000"><ele>243</ele><time>2026-04-24T06:28:13Z</time></trkpt>
<trkpt lat="43.2688750000" lon="-1.0683620000"><ele>243</ele><time>2026-04-24T06:28:15Z</time></trkpt>
<trkpt lat="43.2688970000" lon="-1.0683670000"><ele>242</ele><time>2026-04-24T06:28:17Z</time></trkpt>
<trkpt lat="43.2689220000" lon="-1.0683720000"><ele>242</ele><time>2026-04-24T06:28:19Z</time></trkpt>
<trkpt lat="43.2689420000" lon="-1.0683820000"><ele>242</ele><time>2026-04-24T06:28:21Z</time></trkpt>
<trkpt lat="43.2689670000" lon="-1.0683850000"><ele>242</ele><time>2026-04-24T06:28:23Z</time></trkpt>
<trkpt lat="43.2689900000" lon="-1.0683870000"><ele>242</ele><time>2026-04-24T06:28:25Z</time></trkpt>
<trkpt lat="43.2690070000" lon="-1.0684000000"><ele>242</ele><time>2026-04-24T06:28:27Z</time></trkpt>
<trkpt lat="43.2690270000" lon="-1.0684120000"><ele>242</ele><time>2026-04-24T06:28:29Z</time></trkpt>
<trkpt lat="43.2690570000" lon="-1.0684350000"><ele>242</ele><time>2026-04-24T06:28:31Z</time></trkpt>
<trkpt lat="43.2690750000" lon="-1.0684570000"><ele>241</ele><time>2026-04-24T06:28:33Z</time></trkpt>
<trkpt lat="43.2690950000" lon="-1.0684700000"><ele>241</ele><time>2026-04-24T06:28:35Z</time></trkpt>
<trkpt lat="43.2691120000" lon="-1.0684900000"><ele>241</ele><time>2026-04-24T06:28:37Z</time></trkpt>
<trkpt lat="43.2691270000" lon="-1.0685170000"><ele>241</ele><time>2026-04-24T06:28:39Z</time></trkpt>
<trkpt lat="43.2691420000" lon="-1.0685350000"><ele>241</ele><time>2026-04-24T06:28:41Z</time></trkpt>
<trkpt lat="43.2691570000" lon="-1.0685600000"><ele>241</ele><time>2026-04-24T06:28:43Z</time></trkpt>
<trkpt lat="43.2691750000" lon="-1.0685820000"><ele>241</ele><time>2026-04-24T06:28:45Z</time></trkpt>
<trkpt lat="43.2691920000" lon="-1.0686020000"><ele>241</ele><time>2026-04-24T06:28:47Z</time></trkpt>
<trkpt lat="43.2692070000" lon="-1.0686320000"><ele>240</ele><time>2026-04-24T06:28:49Z</time></trkpt>
<trkpt lat="43.2692270000" lon="-1.0686570000"><ele>240</ele><time>2026-04-24T06:28:51Z</time></trkpt>
<trkpt lat="43.2692470000" lon="-1.0686770000"><ele>240</ele><time>2026-04-24T06:28:53Z</time></trkpt>
<trkpt lat="43.2692700000" lon="-1.0686970000"><ele>240</ele><time>2026-04-24T06:28:55Z</time></trkpt>
<trkpt lat="43.2692920000" lon="-1.0687150000"><ele>240</ele><time>2026-04-24T06:28:57Z</time></trkpt>
<trkpt lat="43.2693100000" lon="-1.0687420000"><ele>240</ele><time>2026-04-24T06:28:59Z</time></trkpt>
<trkpt lat="43.2693300000" lon="-1.0687600000"><ele>240</ele><time>2026-04-24T06:29:01Z</time></trkpt>
<trkpt lat="43.2693500000" lon="-1.0687750000"><ele>240</ele><time>2026-04-24T06:29:03Z</time></trkpt>
<trkpt lat="43.2693720000" lon="-1.0687870000"><ele>240</ele><time>2026-04-24T06:29:05Z</time></trkpt>
<trkpt lat="43.2693920000" lon="-1.0687970000"><ele>240</ele><time>2026-04-24T06:29:07Z</time></trkpt>
<trkpt lat="43.2694170000" lon="-1.0688120000"><ele>240</ele><time>2026-04-24T06:29:09Z</time></trkpt>
<trkpt lat="43.2694400000" lon="-1.0688220000"><ele>240</ele><time>2026-04-24T06:29:11Z</time></trkpt>
<trkpt lat="43.2694670000" lon="-1.0688230000"><ele>240</ele><time>2026-04-24T06:29:13Z</time></trkpt>
<trkpt lat="43.2694920000" lon="-1.0688370000"><ele>240</ele><time>2026-04-24T06:29:15Z</time></trkpt>
<trkpt lat="43.2695120000" lon="-1.0688470000"><ele>239</ele><time>2026-04-24T06:29:17Z</time></trkpt>
<trkpt lat="43.2695320000" lon="-1.0688620000"><ele>239</ele><time>2026-04-24T06:29:19Z</time></trkpt>
<trkpt lat="43.2695500000" lon="-1.0688820000"><ele>239</ele><time>2026-04-24T06:29:21Z</time></trkpt>
<trkpt lat="43.2695670000" lon="-1.0688970000"><ele>239</ele><time>2026-04-24T06:29:23Z</time></trkpt>
<trkpt lat="43.2695920000" lon="-1.0689200000"><ele>239</ele><time>2026-04-24T06:29:26Z</time></trkpt>
<trkpt lat="43.2696070000" lon="-1.0689370000"><ele>239</ele><time>2026-04-24T06:29:28Z</time></trkpt>
<trkpt lat="43.2696270000" lon="-1.0689520000"><ele>239</ele><time>2026-04-24T06:29:30Z</time></trkpt>
<trkpt lat="43.2696420000" lon="-1.0689770000"><ele>239</ele><time>2026-04-24T06:29:32Z</time></trkpt>
<trkpt lat="43.2696550000" lon="-1.0689970000"><ele>239</ele><time>2026-04-24T06:29:34Z</time></trkpt>
<trkpt lat="43.2696770000" lon="-1.0690170000"><ele>239</ele><time>2026-04-24T06:29:36Z</time></trkpt>
<trkpt lat="43.2696950000" lon="-1.0690270000"><ele>239</ele><time>2026-04-24T06:29:38Z</time></trkpt>
<trkpt lat="43.2697120000" lon="-1.0690420000"><ele>238</ele><time>2026-04-24T06:29:40Z</time></trkpt>
<trkpt lat="43.2697320000" lon="-1.0690670000"><ele>238</ele><time>2026-04-24T06:29:42Z</time></trkpt>
<trkpt lat="43.2697550000" lon="-1.0690870000"><ele>238</ele><time>2026-04-24T06:29:44Z</time></trkpt>
<trkpt lat="43.2697770000" lon="-1.0691100000"><ele>238</ele><time>2026-04-24T06:29:46Z</time></trkpt>
<trkpt lat="43.2698070000" lon="-1.0691200000"><ele>238</ele><time>2026-04-24T06:29:48Z</time></trkpt>
<trkpt lat="43.2698320000" lon="-1.0691270000"><ele>238</ele><time>2026-04-24T06:29:50Z</time></trkpt>
<trkpt lat="43.2698500000" lon="-1.0691400000"><ele>238</ele><time>2026-04-24T06:29:52Z</time></trkpt>
<trkpt lat="43.2698720000" lon="-1.0691520000"><ele>238</ele><time>2026-04-24T06:29:54Z</time></trkpt>
<trkpt lat="43.2698970000" lon="-1.0691620000"><ele>238</ele><time>2026-04-24T06:29:56Z</time></trkpt>
<trkpt lat="43.2699220000" lon="-1.0691520000"><ele>238</ele><time>2026-04-24T06:29:58Z</time></trkpt>
<trkpt lat="43.2699500000" lon="-1.0691420000"><ele>239</ele><time>2026-04-24T06:30:01Z</time></trkpt>
<trkpt lat="43.2699370000" lon="-1.0691680000"><ele>239</ele><time>2026-04-24T06:30:37Z</time></trkpt>
<trkpt lat="43.2699320000" lon="-1.0692020000"><ele>239</ele><time>2026-04-24T06:30:39Z</time></trkpt>
<trkpt lat="43.2699320000" lon="-1.0692270000"><ele>240</ele><time>2026-04-24T06:30:42Z</time></trkpt>
<trkpt lat="43.2699320000" lon="-1.0692570000"><ele>241</ele><time>2026-04-24T06:30:49Z</time></trkpt>
<trkpt lat="43.2699370000" lon="-1.0692820000"><ele>241</ele><time>2026-04-24T06:30:52Z</time></trkpt>
<trkpt lat="43.2699420000" lon="-1.0693080000"><ele>242</ele><time>2026-04-24T06:30:56Z</time></trkpt>
<trkpt lat="43.2699270000" lon="-1.0693270000"><ele>243</ele><time>2026-04-24T06:31:01Z</time></trkpt>
<trkpt lat="43.2699170000" lon="-1.0693480000"><ele>245</ele><time>2026-04-24T06:31:15Z</time></trkpt>
<trkpt lat="43.2699170000" lon="-1.0693750000"><ele>246</ele><time>2026-04-24T06:31:17Z</time></trkpt>
<trkpt lat="43.2699250000" lon="-1.0694070000"><ele>249</ele><time>2026-04-24T06:32:22Z</time></trkpt>
<trkpt lat="43.2699320000" lon="-1.0694570000"><ele>249</ele><time>2026-04-24T06:32:24Z</time></trkpt>
<trkpt lat="43.2699370000" lon="-1.0694870000"><ele>249</ele><time>2026-04-24T06:32:25Z</time></trkpt>
<trkpt lat="43.2699420000" lon="-1.0695120000"><ele>249</ele><time>2026-04-24T06:32:26Z</time></trkpt>
<trkpt lat="43.2699470000" lon="-1.0695470000"><ele>250</ele><time>2026-04-24T06:32:28Z</time></trkpt>
<trkpt lat="43.2699650000" lon="-1.0695770000"><ele>258</ele><time>2026-04-24T06:34:23Z</time></trkpt>
<trkpt lat="43.2699670000" lon="-1.0696170000"><ele>258</ele><time>2026-04-24T06:34:24Z</time></trkpt>
<trkpt lat="43.2699720000" lon="-1.0696680000"><ele>259</ele><time>2026-04-24T06:34:25Z</time></trkpt>
<trkpt lat="43.2699770000" lon="-1.0697200000"><ele>259</ele><time>2026-04-24T06:34:26Z</time></trkpt>
<trkpt lat="43.2699800000" lon="-1.0697600000"><ele>259</ele><time>2026-04-24T06:34:27Z</time></trkpt>
<trkpt lat="43.2699850000" lon="-1.0697870000"><ele>259</ele><time>2026-04-24T06:34:28Z</time></trkpt>
<trkpt lat="43.2699970000" lon="-1.0698070000"><ele>259</ele><time>2026-04-24T06:34:31Z</time></trkpt>
<trkpt lat="43.2700000000" lon="-1.0698430000"><ele>261</ele><time>2026-04-24T06:34:50Z</time></trkpt>
<trkpt lat="43.2699970000" lon="-1.0698870000"><ele>261</ele><time>2026-04-24T06:34:52Z</time></trkpt>
<trkpt lat="43.2699870000" lon="-1.0699200000"><ele>262</ele><time>2026-04-24T06:34:55Z</time></trkpt>
<trkpt lat="43.2700000000" lon="-1.0699380000"><ele>262</ele><time>2026-04-24T06:34:58Z</time></trkpt>
<trkpt lat="43.2700070000" lon="-1.0699720000"><ele>270</ele><time>2026-04-24T06:36:05Z</time></trkpt>
<trkpt lat="43.2700120000" lon="-1.0700100000"><ele>270</ele><time>2026-04-24T06:36:06Z</time></trkpt>
<trkpt lat="43.2700170000" lon="-1.0700570000"><ele>270</ele><time>2026-04-24T06:36:07Z</time></trkpt>
<trkpt lat="43.2700200000" lon="-1.0701020000"><ele>271</ele><time>2026-04-24T06:36:08Z</time></trkpt>
<trkpt lat="43.2700250000" lon="-1.0701420000"><ele>271</ele><time>2026-04-24T06:36:09Z</time></trkpt>
<trkpt lat="43.2700270000" lon="-1.0701720000"><ele>271</ele><time>2026-04-24T06:36:10Z</time></trkpt>
<trkpt lat="43.2700370000" lon="-1.0701970000"><ele>271</ele><time>2026-04-24T06:36:12Z</time></trkpt>
<trkpt lat="43.2700500000" lon="-1.0702400000"><ele>276</ele><time>2026-04-24T06:37:15Z</time></trkpt>
<trkpt lat="43.2700570000" lon="-1.0702670000"><ele>276</ele><time>2026-04-24T06:37:16Z</time></trkpt>
<trkpt lat="43.2700650000" lon="-1.0702920000"><ele>276</ele><time>2026-04-24T06:37:17Z</time></trkpt>
<trkpt lat="43.2700700000" lon="-1.0703170000"><ele>276</ele><time>2026-04-24T06:37:18Z</time></trkpt>
<trkpt lat="43.2700720000" lon="-1.0703420000"><ele>276</ele><time>2026-04-24T06:37:20Z</time></trkpt>
<trkpt lat="43.2700670000" lon="-1.0703720000"><ele>277</ele><time>2026-04-24T06:37:24Z</time></trkpt>
<trkpt lat="43.2700620000" lon="-1.0704020000"><ele>277</ele><time>2026-04-24T06:37:28Z</time></trkpt>
<trkpt lat="43.2700770000" lon="-1.0704220000"><ele>278</ele><time>2026-04-24T06:37:38Z</time></trkpt>
<trkpt lat="43.2700970000" lon="-1.0704370000"><ele>281</ele><time>2026-04-24T06:38:22Z</time></trkpt>
<trkpt lat="43.2701270000" lon="-1.0704550000"><ele>281</ele><time>2026-04-24T06:38:24Z</time></trkpt>
<trkpt lat="43.2701470000" lon="-1.0704680000"><ele>281</ele><time>2026-04-24T06:38:26Z</time></trkpt>
<trkpt lat="43.2701350000" lon="-1.0704520000"><ele>281</ele><time>2026-04-24T06:38:49Z</time></trkpt>
<trkpt lat="43.2701220000" lon="-1.0704220000"><ele>281</ele><time>2026-04-24T06:38:53Z</time></trkpt>
<trkpt lat="43.2701100000" lon="-1.0703970000"><ele>281</ele><time>2026-04-24T06:38:55Z</time></trkpt>
<trkpt lat="43.2701120000" lon="-1.0703670000"><ele>281</ele><time>2026-04-24T06:38:58Z</time></trkpt>
<trkpt lat="43.2701170000" lon="-1.0703920000"><ele>280</ele><time>2026-04-24T06:40:30Z</time></trkpt>
<trkpt lat="43.2701220000" lon="-1.0704170000"><ele>280</ele><time>2026-04-24T06:40:32Z</time></trkpt>
<trkpt lat="43.2701250000" lon="-1.0704420000"><ele>281</ele><time>2026-04-24T06:40:37Z</time></trkpt>
<trkpt lat="43.2701320000" lon="-1.0704720000"><ele>282</ele><time>2026-04-24T06:40:55Z</time></trkpt>
<trkpt lat="43.2701400000" lon="-1.0704970000"><ele>282</ele><time>2026-04-24T06:40:57Z</time></trkpt>
<trkpt lat="43.2701050000" lon="-1.0704800000"><ele>282</ele><time>2026-04-24T06:41:44Z</time></trkpt>
<trkpt lat="43.2700750000" lon="-1.0704670000"><ele>282</ele><time>2026-04-24T06:41:45Z</time></trkpt>
<trkpt lat="43.2700470000" lon="-1.0704550000"><ele>282</ele><time>2026-04-24T06:41:46Z</time></trkpt>
<trkpt lat="43.2700270000" lon="-1.0704470000"><ele>283</ele><time>2026-04-24T06:41:47Z</time></trkpt>
<trkpt lat="43.2700050000" lon="-1.0704270000"><ele>283</ele><time>2026-04-24T06:41:49Z</time></trkpt>
<trkpt lat="43.2699820000" lon="-1.0704220000"><ele>283</ele><time>2026-04-24T06:42:25Z</time></trkpt>
<trkpt lat="43.2699570000" lon="-1.0703830000"><ele>283</ele><time>2026-04-24T06:42:27Z</time></trkpt>
<trkpt lat="43.2699420000" lon="-1.0703620000"><ele>283</ele><time>2026-04-24T06:42:28Z</time></trkpt>
<trkpt lat="43.2699320000" lon="-1.0703420000"><ele>283</ele><time>2026-04-24T06:42:29Z</time></trkpt>
<trkpt lat="43.2699200000" lon="-1.0703120000"><ele>283</ele><time>2026-04-24T06:42:31Z</time></trkpt>
<trkpt lat="43.2699320000" lon="-1.0702970000"><ele>283</ele><time>2026-04-24T06:42:37Z</time></trkpt>
<trkpt lat="43.2699120000" lon="-1.0703120000"><ele>283</ele><time>2026-04-24T06:42:48Z</time></trkpt>
<trkpt lat="43.2698870000" lon="-1.0703170000"><ele>284</ele><time>2026-04-24T06:42:50Z</time></trkpt>
<trkpt lat="43.2698670000" lon="-1.0703150000"><ele>284</ele><time>2026-04-24T06:42:52Z</time></trkpt>
<trkpt lat="43.2698420000" lon="-1.0703120000"><ele>284</ele><time>2026-04-24T06:42:55Z</time></trkpt>
<trkpt lat="43.2698250000" lon="-1.0703070000"><ele>285</ele><time>2026-04-24T06:43:02Z</time></trkpt>
<trkpt lat="43.2698120000" lon="-1.0703270000"><ele>286</ele><time>2026-04-24T06:43:21Z</time></trkpt>
<trkpt lat="43.2697870000" lon="-1.0703170000"><ele>287</ele><time>2026-04-24T06:43:23Z</time></trkpt>
<trkpt lat="43.2697620000" lon="-1.0703070000"><ele>287</ele><time>2026-04-24T06:43:25Z</time></trkpt>
<trkpt lat="43.2697420000" lon="-1.0703020000"><ele>287</ele><time>2026-04-24T06:43:27Z</time></trkpt>
<trkpt lat="43.2697200000" lon="-1.0703070000"><ele>288</ele><time>2026-04-24T06:43:38Z</time></trkpt>
<trkpt lat="43.2697020000" lon="-1.0703020000"><ele>289</ele><time>2026-04-24T06:43:41Z</time></trkpt>
<trkpt lat="43.2696820000" lon="-1.0702920000"><ele>289</ele><time>2026-04-24T06:43:43Z</time></trkpt>
<trkpt lat="43.2696720000" lon="-1.0702700000"><ele>290</ele><time>2026-04-24T06:43:46Z</time></trkpt>
<trkpt lat="43.2696550000" lon="-1.0702720000"><ele>290</ele><time>2026-04-24T06:43:54Z</time></trkpt>
<trkpt lat="43.2696220000" lon="-1.0702970000"><ele>297</ele><time>2026-04-24T06:46:17Z</time></trkpt>
<trkpt lat="43.2695950000" lon="-1.0703170000"><ele>297</ele><time>2026-04-24T06:46:18Z</time></trkpt>
<trkpt lat="43.2695620000" lon="-1.0703400000"><ele>297</ele><time>2026-04-24T06:46:19Z</time></trkpt>
<trkpt lat="43.2695300000" lon="-1.0703600000"><ele>297</ele><time>2026-04-24T06:46:20Z</time></trkpt>
<trkpt lat="43.2695020000" lon="-1.0703750000"><ele>297</ele><time>2026-04-24T06:46:21Z</time></trkpt>
<trkpt lat="43.2694850000" lon="-1.0703870000"><ele>297</ele><time>2026-04-24T06:46:22Z</time></trkpt>
<trkpt lat="43.2694770000" lon="-1.0704100000"><ele>297</ele><time>2026-04-24T06:46:24Z</time></trkpt>
<trkpt lat="43.2694870000" lon="-1.0704320000"><ele>298</ele><time>2026-04-24T06:46:27Z</time></trkpt>
<trkpt lat="43.2695070000" lon="-1.0704950000"><ele>306</ele><time>2026-04-24T06:49:51Z</time></trkpt>
<trkpt lat="43.2695170000" lon="-1.0705420000"><ele>306</ele><time>2026-04-24T06:49:52Z</time></trkpt>
<trkpt lat="43.2695270000" lon="-1.0706020000"><ele>306</ele><time>2026-04-24T06:49:53Z</time></trkpt>
<trkpt lat="43.2695400000" lon="-1.0706580000"><ele>306</ele><time>2026-04-24T06:49:54Z</time></trkpt>
<trkpt lat="43.2695500000" lon="-1.0707070000"><ele>307</ele><time>2026-04-24T06:49:55Z</time></trkpt>
<trkpt lat="43.2695570000" lon="-1.0707370000"><ele>307</ele><time>2026-04-24T06:49:56Z</time></trkpt>
<trkpt lat="43.2695650000" lon="-1.0707770000"><ele>307</ele><time>2026-04-24T06:49:58Z</time></trkpt>
<trkpt lat="43.2695550000" lon="-1.0708000000"><ele>308</ele><time>2026-04-24T06:50:03Z</time></trkpt>
<trkpt lat="43.2695470000" lon="-1.0708250000"><ele>308</ele><time>2026-04-24T06:50:08Z</time></trkpt>
<trkpt lat="43.2695670000" lon="-1.0708420000"><ele>311</ele><time>2026-04-24T06:50:58Z</time></trkpt>
<trkpt lat="43.2695820000" lon="-1.0708620000"><ele>311</ele><time>2026-04-24T06:50:59Z</time></trkpt>
<trkpt lat="43.2695970000" lon="-1.0708820000"><ele>312</ele><time>2026-04-24T06:51:00Z</time></trkpt>
<trkpt lat="43.2696120000" lon="-1.0709000000"><ele>312</ele><time>2026-04-24T06:51:01Z</time></trkpt>
<trkpt lat="43.2696350000" lon="-1.0709200000"><ele>312</ele><time>2026-04-24T06:51:03Z</time></trkpt>
<trkpt lat="43.2696520000" lon="-1.0709420000"><ele>312</ele><time>2026-04-24T06:51:06Z</time></trkpt>
<trkpt lat="43.2696620000" lon="-1.0709620000"><ele>313</ele><time>2026-04-24T06:51:09Z</time></trkpt>
<trkpt lat="43.2696720000" lon="-1.0709850000"><ele>313</ele><time>2026-04-24T06:51:12Z</time></trkpt>
<trkpt lat="43.2696800000" lon="-1.0710070000"><ele>314</ele><time>2026-04-24T06:51:16Z</time></trkpt>
<trkpt lat="43.2697000000" lon="-1.0710270000"><ele>314</ele><time>2026-04-24T06:51:20Z</time></trkpt>
<trkpt lat="43.2697170000" lon="-1.0710370000"><ele>315</ele><time>2026-04-24T06:51:22Z</time></trkpt>
<trkpt lat="43.2697320000" lon="-1.0710550000"><ele>315</ele><time>2026-04-24T06:51:25Z</time></trkpt>
<trkpt lat="43.2697470000" lon="-1.0710720000"><ele>315</ele><time>2026-04-24T06:51:29Z</time></trkpt>
<trkpt lat="43.2697670000" lon="-1.0710800000"><ele>316</ele><time>2026-04-24T06:51:34Z</time></trkpt>
<trkpt lat="43.2697770000" lon="-1.0711030000"><ele>316</ele><time>2026-04-24T06:51:39Z</time></trkpt>
<trkpt lat="43.2697920000" lon="-1.0711270000"><ele>316</ele><time>2026-04-24T06:51:43Z</time></trkpt>
<trkpt lat="43.2698100000" lon="-1.0711320000"><ele>317</ele><time>2026-04-24T06:51:46Z</time></trkpt>
<trkpt lat="43.2698320000" lon="-1.0711370000"><ele>317</ele><time>2026-04-24T06:51:49Z</time></trkpt>
<trkpt lat="43.2698500000" lon="-1.0711470000"><ele>317</ele><time>2026-04-24T06:51:52Z</time></trkpt>
<trkpt lat="43.2698700000" lon="-1.0711620000"><ele>318</ele><time>2026-04-24T06:51:56Z</time></trkpt>
<trkpt lat="43.2698870000" lon="-1.0711770000"><ele>318</ele><time>2026-04-24T06:51:59Z</time></trkpt>
<trkpt lat="43.2698970000" lon="-1.0711970000"><ele>318</ele><time>2026-04-24T06:52:03Z</time></trkpt>
<trkpt lat="43.2699050000" lon="-1.0712220000"><ele>319</ele><time>2026-04-24T06:52:06Z</time></trkpt>
<trkpt lat="43.2699200000" lon="-1.0712380000"><ele>319</ele><time>2026-04-24T06:52:09Z</time></trkpt>
<trkpt lat="43.2699420000" lon="-1.0712520000"><ele>320</ele><time>2026-04-24T06:52:13Z</time></trkpt>
<trkpt lat="43.2699570000" lon="-1.0712620000"><ele>320</ele><time>2026-04-24T06:52:18Z</time></trkpt>
<trkpt lat="43.2699770000" lon="-1.0712820000"><ele>321</ele><time>2026-04-24T06:52:21Z</time></trkpt>
<trkpt lat="43.2700020000" lon="-1.0712920000"><ele>321</ele><time>2026-04-24T06:52:24Z</time></trkpt>
<trkpt lat="43.2700200000" lon="-1.0712870000"><ele>322</ele><time>2026-04-24T06:52:27Z</time></trkpt>
<trkpt lat="43.2700420000" lon="-1.0712870000"><ele>322</ele><time>2026-04-24T06:52:30Z</time></trkpt>
<trkpt lat="43.2700620000" lon="-1.0712820000"><ele>322</ele><time>2026-04-24T06:52:33Z</time></trkpt>
<trkpt lat="43.2700820000" lon="-1.0713070000"><ele>322</ele><time>2026-04-24T06:52:36Z</time></trkpt>
<trkpt lat="43.2701050000" lon="-1.0713220000"><ele>322</ele><time>2026-04-24T06:52:39Z</time></trkpt>
<trkpt lat="43.2701300000" lon="-1.0713320000"><ele>322</ele><time>2026-04-24T06:52:42Z</time></trkpt>
<trkpt lat="43.2701520000" lon="-1.0713400000"><ele>322</ele><time>2026-04-24T06:52:45Z</time></trkpt>
<trkpt lat="43.2701750000" lon="-1.0713470000"><ele>322</ele><time>2026-04-24T06:52:48Z</time></trkpt>
<trkpt lat="43.2701920000" lon="-1.0713470000"><ele>322</ele><time>2026-04-24T06:53:00Z</time></trkpt>
<trkpt lat="43.2702170000" lon="-1.0713520000"><ele>322</ele><time>2026-04-24T06:53:02Z</time></trkpt>
<trkpt lat="43.2702420000" lon="-1.0713570000"><ele>322</ele><time>2026-04-24T06:53:04Z</time></trkpt>
<trkpt lat="43.2702670000" lon="-1.0713570000"><ele>322</ele><time>2026-04-24T06:53:06Z</time></trkpt>
<trkpt lat="43.2702900000" lon="-1.0713620000"><ele>322</ele><time>2026-04-24T06:53:08Z</time></trkpt>
<trkpt lat="43.2703120000" lon="-1.0713770000"><ele>322</ele><time>2026-04-24T06:53:11Z</time></trkpt>
<trkpt lat="43.2703370000" lon="-1.0713870000"><ele>322</ele><time>2026-04-24T06:53:14Z</time></trkpt>
<trkpt lat="43.2703550000" lon="-1.0713870000"><ele>322</ele><time>2026-04-24T06:53:17Z</time></trkpt>
<trkpt lat="43.2703820000" lon="-1.0713870000"><ele>321</ele><time>2026-04-24T06:54:57Z</time></trkpt>
<trkpt lat="43.2704150000" lon="-1.0713870000"><ele>321</ele><time>2026-04-24T06:54:59Z</time></trkpt>
<trkpt lat="43.2703970000" lon="-1.0713720000"><ele>321</ele><time>2026-04-24T06:55:44Z</time></trkpt>
<trkpt lat="43.2704220000" lon="-1.0713720000"><ele>322</ele><time>2026-04-24T06:56:07Z</time></trkpt>
<trkpt lat="43.2704520000" lon="-1.0713820000"><ele>322</ele><time>2026-04-24T06:56:09Z</time></trkpt>
<trkpt lat="43.2704720000" lon="-1.0714000000"><ele>322</ele><time>2026-04-24T06:56:11Z</time></trkpt>
<trkpt lat="43.2704970000" lon="-1.0714120000"><ele>322</ele><time>2026-04-24T06:56:14Z</time></trkpt>
<trkpt lat="43.2705170000" lon="-1.0714220000"><ele>322</ele><time>2026-04-24T06:56:16Z</time></trkpt>
<trkpt lat="43.2705370000" lon="-1.0714300000"><ele>322</ele><time>2026-04-24T06:56:18Z</time></trkpt>
<trkpt lat="43.2705570000" lon="-1.0714320000"><ele>321</ele><time>2026-04-24T06:56:20Z</time></trkpt>
<trkpt lat="43.2705770000" lon="-1.0714400000"><ele>321</ele><time>2026-04-24T06:56:22Z</time></trkpt>
<trkpt lat="43.2706020000" lon="-1.0714470000"><ele>321</ele><time>2026-04-24T06:56:25Z</time></trkpt>
<trkpt lat="43.2706220000" lon="-1.0714470000"><ele>321</ele><time>2026-04-24T06:56:27Z</time></trkpt>
<trkpt lat="43.2706470000" lon="-1.0714470000"><ele>320</ele><time>2026-04-24T06:56:29Z</time></trkpt>
<trkpt lat="43.2706650000" lon="-1.0714500000"><ele>320</ele><time>2026-04-24T06:56:31Z</time></trkpt>
<trkpt lat="43.2706920000" lon="-1.0714520000"><ele>320</ele><time>2026-04-24T06:56:34Z</time></trkpt>
<trkpt lat="43.2707170000" lon="-1.0714620000"><ele>319</ele><time>2026-04-24T06:56:37Z</time></trkpt>
<trkpt lat="43.2707370000" lon="-1.0714670000"><ele>319</ele><time>2026-04-24T06:56:39Z</time></trkpt>
<trkpt lat="43.2707570000" lon="-1.0714630000"><ele>319</ele><time>2026-04-24T06:56:41Z</time></trkpt>
<trkpt lat="43.2707750000" lon="-1.0714670000"><ele>319</ele><time>2026-04-24T06:56:46Z</time></trkpt>
<trkpt lat="43.2707920000" lon="-1.0714850000"><ele>319</ele><time>2026-04-24T06:57:25Z</time></trkpt>
<trkpt lat="43.2708120000" lon="-1.0715020000"><ele>319</ele><time>2026-04-24T06:57:31Z</time></trkpt>
<trkpt lat="43.2708170000" lon="-1.0715270000"><ele>319</ele><time>2026-04-24T06:57:39Z</time></trkpt>
<trkpt lat="43.2708320000" lon="-1.0715620000"><ele>320</ele><time>2026-04-24T06:57:57Z</time></trkpt>
<trkpt lat="43.2708550000" lon="-1.0716020000"><ele>320</ele><time>2026-04-24T06:57:59Z</time></trkpt>
<trkpt lat="43.2708720000" lon="-1.0716320000"><ele>320</ele><time>2026-04-24T06:58:01Z</time></trkpt>
<trkpt lat="43.2708820000" lon="-1.0716670000"><ele>320</ele><time>2026-04-24T06:58:04Z</time></trkpt>
<trkpt lat="43.2708820000" lon="-1.0717020000"><ele>321</ele><time>2026-04-24T06:58:07Z</time></trkpt>
<trkpt lat="43.2708950000" lon="-1.0717300000"><ele>321</ele><time>2026-04-24T06:58:10Z</time></trkpt>
<trkpt lat="43.2709070000" lon="-1.0717500000"><ele>322</ele><time>2026-04-24T06:58:28Z</time></trkpt>
<trkpt lat="43.2709100000" lon="-1.0717780000"><ele>322</ele><time>2026-04-24T06:58:30Z</time></trkpt>
<trkpt lat="43.2709150000" lon="-1.0718220000"><ele>322</ele><time>2026-04-24T06:58:32Z</time></trkpt>
<trkpt lat="43.2709200000" lon="-1.0718520000"><ele>322</ele><time>2026-04-24T06:58:34Z</time></trkpt>
<trkpt lat="43.2709220000" lon="-1.0718850000"><ele>322</ele><time>2026-04-24T06:58:36Z</time></trkpt>
<trkpt lat="43.2709250000" lon="-1.0719220000"><ele>322</ele><time>2026-04-24T06:58:38Z</time></trkpt>
<trkpt lat="43.2709270000" lon="-1.0719520000"><ele>322</ele><time>2026-04-24T06:58:40Z</time></trkpt>
<trkpt lat="43.2709320000" lon="-1.0719800000"><ele>323</ele><time>2026-04-24T06:58:42Z</time></trkpt>
<trkpt lat="43.2709370000" lon="-1.0720080000"><ele>323</ele><time>2026-04-24T06:58:44Z</time></trkpt>
<trkpt lat="43.2709370000" lon="-1.0720370000"><ele>323</ele><time>2026-04-24T06:58:46Z</time></trkpt>
<trkpt lat="43.2709400000" lon="-1.0720650000"><ele>323</ele><time>2026-04-24T06:58:48Z</time></trkpt>
<trkpt lat="43.2709430000" lon="-1.0721000000"><ele>323</ele><time>2026-04-24T06:58:51Z</time></trkpt>
<trkpt lat="43.2709500000" lon="-1.0721280000"><ele>323</ele><time>2026-04-24T06:58:53Z</time></trkpt>
<trkpt lat="43.2709570000" lon="-1.0721570000"><ele>323</ele><time>2026-04-24T06:58:55Z</time></trkpt>
<trkpt lat="43.2709670000" lon="-1.0721820000"><ele>322</ele><time>2026-04-24T06:58:57Z</time></trkpt>
<trkpt lat="43.2709770000" lon="-1.0722170000"><ele>322</ele><time>2026-04-24T06:59:00Z</time></trkpt>
<trkpt lat="43.2709850000" lon="-1.0722470000"><ele>322</ele><time>2026-04-24T06:59:03Z</time></trkpt>
<trkpt lat="43.2709870000" lon="-1.0722720000"><ele>321</ele><time>2026-04-24T06:59:05Z</time></trkpt>
<trkpt lat="43.2709870000" lon="-1.0722970000"><ele>321</ele><time>2026-04-24T06:59:32Z</time></trkpt>
<trkpt lat="43.2709950000" lon="-1.0723300000"><ele>321</ele><time>2026-04-24T06:59:34Z</time></trkpt>
<trkpt lat="43.2710020000" lon="-1.0723620000"><ele>321</ele><time>2026-04-24T06:59:36Z</time></trkpt>
<trkpt lat="43.2710020000" lon="-1.0723870000"><ele>320</ele><time>2026-04-24T06:59:38Z</time></trkpt>
<trkpt lat="43.2710070000" lon="-1.0724120000"><ele>320</ele><time>2026-04-24T06:59:40Z</time></trkpt>
<trkpt lat="43.2710120000" lon="-1.0724370000"><ele>320</ele><time>2026-04-24T06:59:42Z</time></trkpt>
<trkpt lat="43.2710200000" lon="-1.0724720000"><ele>319</ele><time>2026-04-24T06:59:45Z</time></trkpt>
<trkpt lat="43.2710250000" lon="-1.0725070000"><ele>319</ele><time>2026-04-24T06:59:48Z</time></trkpt>
<trkpt lat="43.2710270000" lon="-1.0725370000"><ele>319</ele><time>2026-04-24T06:59:50Z</time></trkpt>
<trkpt lat="43.2710320000" lon="-1.0725670000"><ele>319</ele><time>2026-04-24T06:59:52Z</time></trkpt>
<trkpt lat="43.2710320000" lon="-1.0725950000"><ele>318</ele><time>2026-04-24T06:59:54Z</time></trkpt>
<trkpt lat="43.2710370000" lon="-1.0726220000"><ele>318</ele><time>2026-04-24T06:59:57Z</time></trkpt>
<trkpt lat="43.2710420000" lon="-1.0726470000"><ele>317</ele><time>2026-04-24T06:59:59Z</time></trkpt>
<trkpt lat="43.2710420000" lon="-1.0726770000"><ele>317</ele><time>2026-04-24T07:00:01Z</time></trkpt>
<trkpt lat="43.2710420000" lon="-1.0727020000"><ele>316</ele><time>2026-04-24T07:00:03Z</time></trkpt>
<trkpt lat="43.2710400000" lon="-1.0727270000"><ele>316</ele><time>2026-04-24T07:00:05Z</time></trkpt>
<trkpt lat="43.2710420000" lon="-1.0727550000"><ele>316</ele><time>2026-04-24T07:00:07Z</time></trkpt>
<trkpt lat="43.2710400000" lon="-1.0727820000"><ele>315</ele><time>2026-04-24T07:00:09Z</time></trkpt>
<trkpt lat="43.2710320000" lon="-1.0728170000"><ele>315</ele><time>2026-04-24T07:00:12Z</time></trkpt>
<trkpt lat="43.2710250000" lon="-1.0728470000"><ele>314</ele><time>2026-04-24T07:00:15Z</time></trkpt>
<trkpt lat="43.2710220000" lon="-1.0728770000"><ele>314</ele><time>2026-04-24T07:00:18Z</time></trkpt>
<trkpt lat="43.2710200000" lon="-1.0729100000"><ele>313</ele><time>2026-04-24T07:00:21Z</time></trkpt>
<trkpt lat="43.2710120000" lon="-1.0729450000"><ele>313</ele><time>2026-04-24T07:00:24Z</time></trkpt>
<trkpt lat="43.2710020000" lon="-1.0729720000"><ele>313</ele><time>2026-04-24T07:00:26Z</time></trkpt>
<trkpt lat="43.2709950000" lon="-1.0729970000"><ele>312</ele><time>2026-04-24T07:00:28Z</time></trkpt>
<trkpt lat="43.2709850000" lon="-1.0730170000"><ele>312</ele><time>2026-04-24T07:00:30Z</time></trkpt>
<trkpt lat="43.2709770000" lon="-1.0730550000"><ele>311</ele><time>2026-04-24T07:00:33Z</time></trkpt>
<trkpt lat="43.2709750000" lon="-1.0730870000"><ele>311</ele><time>2026-04-24T07:00:36Z</time></trkpt>
<trkpt lat="43.2709650000" lon="-1.0731200000"><ele>310</ele><time>2026-04-24T07:00:39Z</time></trkpt>
<trkpt lat="43.2709570000" lon="-1.0731550000"><ele>310</ele><time>2026-04-24T07:00:42Z</time></trkpt>
<trkpt lat="43.2709520000" lon="-1.0731770000"><ele>309</ele><time>2026-04-24T07:00:44Z</time></trkpt>
<trkpt lat="43.2709320000" lon="-1.0732020000"><ele>309</ele><time>2026-04-24T07:00:47Z</time></trkpt>
<trkpt lat="43.2709170000" lon="-1.0732170000"><ele>309</ele><time>2026-04-24T07:00:49Z</time></trkpt>
<trkpt lat="43.2709070000" lon="-1.0732370000"><ele>308</ele><time>2026-04-24T07:00:51Z</time></trkpt>
<trkpt lat="43.2708950000" lon="-1.0732570000"><ele>308</ele><time>2026-04-24T07:00:53Z</time></trkpt>
<trkpt lat="43.2708850000" lon="-1.0732820000"><ele>307</ele><time>2026-04-24T07:00:56Z</time></trkpt>
<trkpt lat="43.2708700000" lon="-1.0733030000"><ele>307</ele><time>2026-04-24T07:00:59Z</time></trkpt>
<trkpt lat="43.2708620000" lon="-1.0733270000"><ele>307</ele><time>2026-04-24T07:01:01Z</time></trkpt>
<trkpt lat="43.2708520000" lon="-1.0733570000"><ele>306</ele><time>2026-04-24T07:01:05Z</time></trkpt>
<trkpt lat="43.2708470000" lon="-1.0733820000"><ele>306</ele><time>2026-04-24T07:01:09Z</time></trkpt>
<trkpt lat="43.2708400000" lon="-1.0734150000"><ele>306</ele><time>2026-04-24T07:01:12Z</time></trkpt>
<trkpt lat="43.2708270000" lon="-1.0734370000"><ele>306</ele><time>2026-04-24T07:01:14Z</time></trkpt>
<trkpt lat="43.2708100000" lon="-1.0734470000"><ele>305</ele><time>2026-04-24T07:01:20Z</time></trkpt>
<trkpt lat="43.2708070000" lon="-1.0734770000"><ele>304</ele><time>2026-04-24T07:01:24Z</time></trkpt>
<trkpt lat="43.2708050000" lon="-1.0735050000"><ele>302</ele><time>2026-04-24T07:01:42Z</time></trkpt>
<trkpt lat="43.2708070000" lon="-1.0735420000"><ele>302</ele><time>2026-04-24T07:01:44Z</time></trkpt>
<trkpt lat="43.2708070000" lon="-1.0735680000"><ele>302</ele><time>2026-04-24T07:01:45Z</time></trkpt>
<trkpt lat="43.2708070000" lon="-1.0735970000"><ele>301</ele><time>2026-04-24T07:01:46Z</time></trkpt>
<trkpt lat="43.2708020000" lon="-1.0736300000"><ele>301</ele><time>2026-04-24T07:01:48Z</time></trkpt>
<trkpt lat="43.2707920000" lon="-1.0736570000"><ele>300</ele><time>2026-04-24T07:01:54Z</time></trkpt>
<trkpt lat="43.2707870000" lon="-1.0736820000"><ele>299</ele><time>2026-04-24T07:01:56Z</time></trkpt>
<trkpt lat="43.2707820000" lon="-1.0737170000"><ele>299</ele><time>2026-04-24T07:01:59Z</time></trkpt>
<trkpt lat="43.2707670000" lon="-1.0737420000"><ele>298</ele><time>2026-04-24T07:02:02Z</time></trkpt>
<trkpt lat="43.2707470000" lon="-1.0737620000"><ele>298</ele><time>2026-04-24T07:02:07Z</time></trkpt>
<trkpt lat="43.2707470000" lon="-1.0737870000"><ele>297</ele><time>2026-04-24T07:02:09Z</time></trkpt>
<trkpt lat="43.2707570000" lon="-1.0738220000"><ele>297</ele><time>2026-04-24T07:02:30Z</time></trkpt>
<trkpt lat="43.2707620000" lon="-1.0738520000"><ele>297</ele><time>2026-04-24T07:02:32Z</time></trkpt>
<trkpt lat="43.2707670000" lon="-1.0738780000"><ele>297</ele><time>2026-04-24T07:02:34Z</time></trkpt>
<trkpt lat="43.2707620000" lon="-1.0739070000"><ele>297</ele><time>2026-04-24T07:02:38Z</time></trkpt>
<trkpt lat="43.2707420000" lon="-1.0739070000"><ele>297</ele><time>2026-04-24T07:02:45Z</time></trkpt>
<trkpt lat="43.2707420000" lon="-1.0738770000"><ele>298</ele><time>2026-04-24T07:05:07Z</time></trkpt>
<trkpt lat="43.2707420000" lon="-1.0738420000"><ele>298</ele><time>2026-04-24T07:05:09Z</time></trkpt>
<trkpt lat="43.2707400000" lon="-1.0738170000"><ele>298</ele><time>2026-04-24T07:05:19Z</time></trkpt>
<trkpt lat="43.2707370000" lon="-1.0737920000"><ele>298</ele><time>2026-04-24T07:06:15Z</time></trkpt>
<trkpt lat="43.2707300000" lon="-1.0737570000"><ele>298</ele><time>2026-04-24T07:06:17Z</time></trkpt>
<trkpt lat="43.2707420000" lon="-1.0737800000"><ele>298</ele><time>2026-04-24T07:08:33Z</time></trkpt>
<trkpt lat="43.2707520000" lon="-1.0738220000"><ele>298</ele><time>2026-04-24T07:08:35Z</time></trkpt>
<trkpt lat="43.2707500000" lon="-1.0738620000"><ele>298</ele><time>2026-04-24T07:08:37Z</time></trkpt>
<trkpt lat="43.2707370000" lon="-1.0738950000"><ele>297</ele><time>2026-04-24T07:08:39Z</time></trkpt>
<trkpt lat="43.2707220000" lon="-1.0739230000"><ele>297</ele><time>2026-04-24T07:08:41Z</time></trkpt>
<trkpt lat="43.2707120000" lon="-1.0739470000"><ele>297</ele><time>2026-04-24T07:08:43Z</time></trkpt>
<trkpt lat="43.2706920000" lon="-1.0739470000"><ele>297</ele><time>2026-04-24T07:08:50Z</time></trkpt>
<trkpt lat="43.2706720000" lon="-1.0739850000"><ele>297</ele><time>2026-04-24T07:08:53Z</time></trkpt>
<trkpt lat="43.2706600000" lon="-1.0740130000"><ele>297</ele><time>2026-04-24T07:08:55Z</time></trkpt>
<trkpt lat="43.2706520000" lon="-1.0740400000"><ele>297</ele><time>2026-04-24T07:08:57Z</time></trkpt>
<trkpt lat="43.2706320000" lon="-1.0740620000"><ele>297</ele><time>2026-04-24T07:09:00Z</time></trkpt>
<trkpt lat="43.2706220000" lon="-1.0740870000"><ele>297</ele><time>2026-04-24T07:09:02Z</time></trkpt>
<trkpt lat="43.2706150000" lon="-1.0741120000"><ele>297</ele><time>2026-04-24T07:09:04Z</time></trkpt>
<trkpt lat="43.2706070000" lon="-1.0741370000"><ele>297</ele><time>2026-04-24T07:09:06Z</time></trkpt>
<trkpt lat="43.2706020000" lon="-1.0741670000"><ele>297</ele><time>2026-04-24T07:09:08Z</time></trkpt>
<trkpt lat="43.2705950000" lon="-1.0741930000"><ele>296</ele><time>2026-04-24T07:09:10Z</time></trkpt>
<trkpt lat="43.2705820000" lon="-1.0742220000"><ele>296</ele><time>2026-04-24T07:09:12Z</time></trkpt>
<trkpt lat="43.2705670000" lon="-1.0742480000"><ele>296</ele><time>2026-04-24T07:09:14Z</time></trkpt>
<trkpt lat="43.2705570000" lon="-1.0742780000"><ele>296</ele><time>2026-04-24T07:09:16Z</time></trkpt>
<trkpt lat="43.2705420000" lon="-1.0743070000"><ele>295</ele><time>2026-04-24T07:09:18Z</time></trkpt>
<trkpt lat="43.2705270000" lon="-1.0743320000"><ele>295</ele><time>2026-04-24T07:09:20Z</time></trkpt>
<trkpt lat="43.2705120000" lon="-1.0743620000"><ele>295</ele><time>2026-04-24T07:09:22Z</time></trkpt>
<trkpt lat="43.2705000000" lon="-1.0743920000"><ele>295</ele><time>2026-04-24T07:09:24Z</time></trkpt>
<trkpt lat="43.2704870000" lon="-1.0744180000"><ele>295</ele><time>2026-04-24T07:09:26Z</time></trkpt>
<trkpt lat="43.2704750000" lon="-1.0744470000"><ele>295</ele><time>2026-04-24T07:09:28Z</time></trkpt>
<trkpt lat="43.2704620000" lon="-1.0744700000"><ele>295</ele><time>2026-04-24T07:09:30Z</time></trkpt>
<trkpt lat="43.2704500000" lon="-1.0744920000"><ele>295</ele><time>2026-04-24T07:09:32Z</time></trkpt>
<trkpt lat="43.2704370000" lon="-1.0745180000"><ele>295</ele><time>2026-04-24T07:09:34Z</time></trkpt>
<trkpt lat="43.2704200000" lon="-1.0745470000"><ele>295</ele><time>2026-04-24T07:09:36Z</time></trkpt>
<trkpt lat="43.2704000000" lon="-1.0745650000"><ele>295</ele><time>2026-04-24T07:09:38Z</time></trkpt>
<trkpt lat="43.2703820000" lon="-1.0745820000"><ele>294</ele><time>2026-04-24T07:09:40Z</time></trkpt>
<trkpt lat="43.2703670000" lon="-1.0746070000"><ele>294</ele><time>2026-04-24T07:09:42Z</time></trkpt>
<trkpt lat="43.2703570000" lon="-1.0746320000"><ele>294</ele><time>2026-04-24T07:09:44Z</time></trkpt>
<trkpt lat="43.2703470000" lon="-1.0746570000"><ele>294</ele><time>2026-04-24T07:09:46Z</time></trkpt>
<trkpt lat="43.2703270000" lon="-1.0746750000"><ele>294</ele><time>2026-04-24T07:09:48Z</time></trkpt>
<trkpt lat="43.2703070000" lon="-1.0746930000"><ele>294</ele><time>2026-04-24T07:09:50Z</time></trkpt>
<trkpt lat="43.2702870000" lon="-1.0747070000"><ele>293</ele><time>2026-04-24T07:09:52Z</time></trkpt>
<trkpt lat="43.2702720000" lon="-1.0747200000"><ele>293</ele><time>2026-04-24T07:09:54Z</time></trkpt>
<trkpt lat="43.2702470000" lon="-1.0747320000"><ele>293</ele><time>2026-04-24T07:09:56Z</time></trkpt>
<trkpt lat="43.2702270000" lon="-1.0747370000"><ele>293</ele><time>2026-04-24T07:09:58Z</time></trkpt>
<trkpt lat="43.2702070000" lon="-1.0747450000"><ele>293</ele><time>2026-04-24T07:10:00Z</time></trkpt>
<trkpt lat="43.2701900000" lon="-1.0747570000"><ele>293</ele><time>2026-04-24T07:10:02Z</time></trkpt>
<trkpt lat="43.2701750000" lon="-1.0747800000"><ele>292</ele><time>2026-04-24T07:10:04Z</time></trkpt>
<trkpt lat="43.2701620000" lon="-1.0748020000"><ele>292</ele><time>2026-04-24T07:10:06Z</time></trkpt>
<trkpt lat="43.2701570000" lon="-1.0748280000"><ele>292</ele><time>2026-04-24T07:10:08Z</time></trkpt>
<trkpt lat="43.2701500000" lon="-1.0748600000"><ele>292</ele><time>2026-04-24T07:10:11Z</time></trkpt>
<trkpt lat="43.2701400000" lon="-1.0748870000"><ele>291</ele><time>2026-04-24T07:10:15Z</time></trkpt>
<trkpt lat="43.2701300000" lon="-1.0749200000"><ele>291</ele><time>2026-04-24T07:10:18Z</time></trkpt>
<trkpt lat="43.2701170000" lon="-1.0749450000"><ele>291</ele><time>2026-04-24T07:10:20Z</time></trkpt>
<trkpt lat="43.2701100000" lon="-1.0749750000"><ele>291</ele><time>2026-04-24T07:10:23Z</time></trkpt>
<trkpt lat="43.2701020000" lon="-1.0750070000"><ele>290</ele><time>2026-04-24T07:10:26Z</time></trkpt>
<trkpt lat="43.2700920000" lon="-1.0750370000"><ele>290</ele><time>2026-04-24T07:10:29Z</time></trkpt>
<trkpt lat="43.2700770000" lon="-1.0750720000"><ele>290</ele><time>2026-04-24T07:10:32Z</time></trkpt>
<trkpt lat="43.2700670000" lon="-1.0750980000"><ele>290</ele><time>2026-04-24T07:10:34Z</time></trkpt>
<trkpt lat="43.2700570000" lon="-1.0751220000"><ele>290</ele><time>2026-04-24T07:10:36Z</time></trkpt>
<trkpt lat="43.2700450000" lon="-1.0751420000"><ele>290</ele><time>2026-04-24T07:10:38Z</time></trkpt>
<trkpt lat="43.2700320000" lon="-1.0751670000"><ele>290</ele><time>2026-04-24T07:10:40Z</time></trkpt>
<trkpt lat="43.2700200000" lon="-1.0751920000"><ele>289</ele><time>2026-04-24T07:10:43Z</time></trkpt>
<trkpt lat="43.2700050000" lon="-1.0752070000"><ele>289</ele><time>2026-04-24T07:10:45Z</time></trkpt>
<trkpt lat="43.2699870000" lon="-1.0752250000"><ele>290</ele><time>2026-04-24T07:10:47Z</time></trkpt>
<trkpt lat="43.2699720000" lon="-1.0752420000"><ele>290</ele><time>2026-04-24T07:10:49Z</time></trkpt>
<trkpt lat="43.2699620000" lon="-1.0752680000"><ele>290</ele><time>2026-04-24T07:10:51Z</time></trkpt>
<trkpt lat="43.2699500000" lon="-1.0752920000"><ele>290</ele><time>2026-04-24T07:10:53Z</time></trkpt>
<trkpt lat="43.2699400000" lon="-1.0753200000"><ele>290</ele><time>2026-04-24T07:10:55Z</time></trkpt>
<trkpt lat="43.2699270000" lon="-1.0753420000"><ele>290</ele><time>2026-04-24T07:10:57Z</time></trkpt>
<trkpt lat="43.2699120000" lon="-1.0753630000"><ele>290</ele><time>2026-04-24T07:10:59Z</time></trkpt>
<trkpt lat="43.2698920000" lon="-1.0753820000"><ele>290</ele><time>2026-04-24T07:11:01Z</time></trkpt>
<trkpt lat="43.2698770000" lon="-1.0754000000"><ele>289</ele><time>2026-04-24T07:11:03Z</time></trkpt>
<trkpt lat="43.2698620000" lon="-1.0754200000"><ele>290</ele><time>2026-04-24T07:11:05Z</time></trkpt>
<trkpt lat="43.2698520000" lon="-1.0754400000"><ele>289</ele><time>2026-04-24T07:11:07Z</time></trkpt>
<trkpt lat="43.2698400000" lon="-1.0754620000"><ele>289</ele><time>2026-04-24T07:11:09Z</time></trkpt>
<trkpt lat="43.2698270000" lon="-1.0754850000"><ele>289</ele><time>2026-04-24T07:11:11Z</time></trkpt>
<trkpt lat="43.2698100000" lon="-1.0755070000"><ele>289</ele><time>2026-04-24T07:11:13Z</time></trkpt>
<trkpt lat="43.2697950000" lon="-1.0755270000"><ele>289</ele><time>2026-04-24T07:11:15Z</time></trkpt>
<trkpt lat="43.2697770000" lon="-1.0755430000"><ele>289</ele><time>2026-04-24T07:11:17Z</time></trkpt>
<trkpt lat="43.2697620000" lon="-1.0755700000"><ele>289</ele><time>2026-04-24T07:11:19Z</time></trkpt>
<trkpt lat="43.2697470000" lon="-1.0755870000"><ele>288</ele><time>2026-04-24T07:11:21Z</time></trkpt>
<trkpt lat="43.2697270000" lon="-1.0756100000"><ele>288</ele><time>2026-04-24T07:11:23Z</time></trkpt>
<trkpt lat="43.2697070000" lon="-1.0756300000"><ele>288</ele><time>2026-04-24T07:11:25Z</time></trkpt>
<trkpt lat="43.2696870000" lon="-1.0756470000"><ele>288</ele><time>2026-04-24T07:11:27Z</time></trkpt>
<trkpt lat="43.2696720000" lon="-1.0756720000"><ele>287</ele><time>2026-04-24T07:11:29Z</time></trkpt>
<trkpt lat="43.2696570000" lon="-1.0756920000"><ele>287</ele><time>2026-04-24T07:11:31Z</time></trkpt>
<trkpt lat="43.2696420000" lon="-1.0757120000"><ele>287</ele><time>2026-04-24T07:11:33Z</time></trkpt>
<trkpt lat="43.2696270000" lon="-1.0757300000"><ele>287</ele><time>2026-04-24T07:11:35Z</time></trkpt>
<trkpt lat="43.2696150000" lon="-1.0757580000"><ele>287</ele><time>2026-04-24T07:11:38Z</time></trkpt>
<trkpt lat="43.2695970000" lon="-1.0757870000"><ele>287</ele><time>2026-04-24T07:11:41Z</time></trkpt>
<trkpt lat="43.2695780000" lon="-1.0758020000"><ele>287</ele><time>2026-04-24T07:11:43Z</time></trkpt>
<trkpt lat="43.2695620000" lon="-1.0758220000"><ele>287</ele><time>2026-04-24T07:11:45Z</time></trkpt>
<trkpt lat="43.2695450000" lon="-1.0758370000"><ele>286</ele><time>2026-04-24T07:11:47Z</time></trkpt>
<trkpt lat="43.2695270000" lon="-1.0758470000"><ele>286</ele><time>2026-04-24T07:11:49Z</time></trkpt>
<trkpt lat="43.2695120000" lon="-1.0758670000"><ele>286</ele><time>2026-04-24T07:11:52Z</time></trkpt>
<trkpt lat="43.2694920000" lon="-1.0758770000"><ele>287</ele><time>2026-04-24T07:11:55Z</time></trkpt>
<trkpt lat="43.2694820000" lon="-1.0759000000"><ele>286</ele><time>2026-04-24T07:12:07Z</time></trkpt>
<trkpt lat="43.2694620000" lon="-1.0759270000"><ele>286</ele><time>2026-04-24T07:12:12Z</time></trkpt>
<trkpt lat="43.2694470000" lon="-1.0759670000"><ele>286</ele><time>2026-04-24T07:12:14Z</time></trkpt>
<trkpt lat="43.2694420000" lon="-1.0760070000"><ele>286</ele><time>2026-04-24T07:12:16Z</time></trkpt>
<trkpt lat="43.2694350000" lon="-1.0760400000"><ele>286</ele><time>2026-04-24T07:12:18Z</time></trkpt>
<trkpt lat="43.2694270000" lon="-1.0760670000"><ele>287</ele><time>2026-04-24T07:12:22Z</time></trkpt>
<trkpt lat="43.2694270000" lon="-1.0760920000"><ele>287</ele><time>2026-04-24T07:12:27Z</time></trkpt>
<trkpt lat="43.2694200000" lon="-1.0761170000"><ele>287</ele><time>2026-04-24T07:12:29Z</time></trkpt>
<trkpt lat="43.2694200000" lon="-1.0761520000"><ele>288</ele><time>2026-04-24T07:12:32Z</time></trkpt>
<trkpt lat="43.2694200000" lon="-1.0761770000"><ele>288</ele><time>2026-04-24T07:12:34Z</time></trkpt>
<trkpt lat="43.2694220000" lon="-1.0762070000"><ele>289</ele><time>2026-04-24T07:12:38Z</time></trkpt>
<trkpt lat="43.2694370000" lon="-1.0762350000"><ele>289</ele><time>2026-04-24T07:13:13Z</time></trkpt>
<trkpt lat="43.2694470000" lon="-1.0762620000"><ele>289</ele><time>2026-04-24T07:13:15Z</time></trkpt>
<trkpt lat="43.2694600000" lon="-1.0762920000"><ele>289</ele><time>2026-04-24T07:13:17Z</time></trkpt>
<trkpt lat="43.2694670000" lon="-1.0763200000"><ele>289</ele><time>2026-04-24T07:13:19Z</time></trkpt>
<trkpt lat="43.2694720000" lon="-1.0763520000"><ele>289</ele><time>2026-04-24T07:13:22Z</time></trkpt>
<trkpt lat="43.2694770000" lon="-1.0763820000"><ele>289</ele><time>2026-04-24T07:13:25Z</time></trkpt>
<trkpt lat="43.2694870000" lon="-1.0764120000"><ele>290</ele><time>2026-04-24T07:13:28Z</time></trkpt>
<trkpt lat="43.2694900000" lon="-1.0764370000"><ele>290</ele><time>2026-04-24T07:13:30Z</time></trkpt>
<trkpt lat="43.2694920000" lon="-1.0764720000"><ele>290</ele><time>2026-04-24T07:13:33Z</time></trkpt>
<trkpt lat="43.2695000000" lon="-1.0765020000"><ele>290</ele><time>2026-04-24T07:13:36Z</time></trkpt>
<trkpt lat="43.2695050000" lon="-1.0765270000"><ele>291</ele><time>2026-04-24T07:13:39Z</time></trkpt>
<trkpt lat="43.2695020000" lon="-1.0765600000"><ele>292</ele><time>2026-04-24T07:13:58Z</time></trkpt>
<trkpt lat="43.2695120000" lon="-1.0766020000"><ele>292</ele><time>2026-04-24T07:14:00Z</time></trkpt>
<trkpt lat="43.2695200000" lon="-1.0766370000"><ele>293</ele><time>2026-04-24T07:14:02Z</time></trkpt>
<trkpt lat="43.2695270000" lon="-1.0766720000"><ele>293</ele><time>2026-04-24T07:14:05Z</time></trkpt>
<trkpt lat="43.2695270000" lon="-1.0767000000"><ele>293</ele><time>2026-04-24T07:14:08Z</time></trkpt>
<trkpt lat="43.2695320000" lon="-1.0767350000"><ele>294</ele><time>2026-04-24T07:14:12Z</time></trkpt>
<trkpt lat="43.2695420000" lon="-1.0767650000"><ele>295</ele><time>2026-04-24T07:14:15Z</time></trkpt>
<trkpt lat="43.2695520000" lon="-1.0767920000"><ele>295</ele><time>2026-04-24T07:14:18Z</time></trkpt>
<trkpt lat="43.2695500000" lon="-1.0768200000"><ele>296</ele><time>2026-04-24T07:14:21Z</time></trkpt>
<trkpt lat="43.2695270000" lon="-1.0768070000"><ele>296</ele><time>2026-04-24T07:14:25Z</time></trkpt>
<trkpt lat="43.2695170000" lon="-1.0767870000"><ele>296</ele><time>2026-04-24T07:14:28Z</time></trkpt>
<trkpt lat="43.2695000000" lon="-1.0767620000"><ele>297</ele><time>2026-04-24T07:14:35Z</time></trkpt>
<trkpt lat="43.2694870000" lon="-1.0767370000"><ele>297</ele><time>2026-04-24T07:14:39Z</time></trkpt>
<trkpt lat="43.2694720000" lon="-1.0767030000"><ele>297</ele><time>2026-04-24T07:14:41Z</time></trkpt>
<trkpt lat="43.2694600000" lon="-1.0766770000"><ele>297</ele><time>2026-04-24T07:14:43Z</time></trkpt>
<trkpt lat="43.2694470000" lon="-1.0766520000"><ele>297</ele><time>2026-04-24T07:14:46Z</time></trkpt>
<trkpt lat="43.2694300000" lon="-1.0766320000"><ele>298</ele><time>2026-04-24T07:14:49Z</time></trkpt>
<trkpt lat="43.2694170000" lon="-1.0766120000"><ele>298</ele><time>2026-04-24T07:14:52Z</time></trkpt>
<trkpt lat="43.2694020000" lon="-1.0765920000"><ele>298</ele><time>2026-04-24T07:14:55Z</time></trkpt>
<trkpt lat="43.2693870000" lon="-1.0765680000"><ele>298</ele><time>2026-04-24T07:14:58Z</time></trkpt>
<trkpt lat="43.2693720000" lon="-1.0765420000"><ele>298</ele><time>2026-04-24T07:15:01Z</time></trkpt>
<trkpt lat="43.2693570000" lon="-1.0765150000"><ele>299</ele><time>2026-04-24T07:15:05Z</time></trkpt>
<trkpt lat="43.2693470000" lon="-1.0764870000"><ele>299</ele><time>2026-04-24T07:15:08Z</time></trkpt>
<trkpt lat="43.2693400000" lon="-1.0764620000"><ele>299</ele><time>2026-04-24T07:15:10Z</time></trkpt>
<trkpt lat="43.2693320000" lon="-1.0764270000"><ele>300</ele><time>2026-04-24T07:15:13Z</time></trkpt>
<trkpt lat="43.2693220000" lon="-1.0764070000"><ele>300</ele><time>2026-04-24T07:15:15Z</time></trkpt>
<trkpt lat="43.2693070000" lon="-1.0763770000"><ele>300</ele><time>2026-04-24T07:15:18Z</time></trkpt>
<trkpt lat="43.2692970000" lon="-1.0763520000"><ele>300</ele><time>2026-04-24T07:15:21Z</time></trkpt>
<trkpt lat="43.2692870000" lon="-1.0763300000"><ele>300</ele><time>2026-04-24T07:15:24Z</time></trkpt>
<trkpt lat="43.2692770000" lon="-1.0763100000"><ele>300</ele><time>2026-04-24T07:15:27Z</time></trkpt>
<trkpt lat="43.2692620000" lon="-1.0762920000"><ele>301</ele><time>2026-04-24T07:15:30Z</time></trkpt>
<trkpt lat="43.2692450000" lon="-1.0762670000"><ele>301</ele><time>2026-04-24T07:15:34Z</time></trkpt>
<trkpt lat="43.2692320000" lon="-1.0762420000"><ele>302</ele><time>2026-04-24T07:15:37Z</time></trkpt>
<trkpt lat="43.2692250000" lon="-1.0762170000"><ele>302</ele><time>2026-04-24T07:15:40Z</time></trkpt>
<trkpt lat="43.2692120000" lon="-1.0761950000"><ele>302</ele><time>2026-04-24T07:15:44Z</time></trkpt>
<trkpt lat="43.2691970000" lon="-1.0761720000"><ele>303</ele><time>2026-04-24T07:15:47Z</time></trkpt>
<trkpt lat="43.2691870000" lon="-1.0761470000"><ele>303</ele><time>2026-04-24T07:15:50Z</time></trkpt>
<trkpt lat="43.2691720000" lon="-1.0761180000"><ele>304</ele><time>2026-04-24T07:15:53Z</time></trkpt>
<trkpt lat="43.2691600000" lon="-1.0760970000"><ele>304</ele><time>2026-04-24T07:15:56Z</time></trkpt>
<trkpt lat="43.2691470000" lon="-1.0760780000"><ele>304</ele><time>2026-04-24T07:15:59Z</time></trkpt>
<trkpt lat="43.2691320000" lon="-1.0760600000"><ele>305</ele><time>2026-04-24T07:16:02Z</time></trkpt>
<trkpt lat="43.2691150000" lon="-1.0760430000"><ele>305</ele><time>2026-04-24T07:16:05Z</time></trkpt>
<trkpt lat="43.2690950000" lon="-1.0760270000"><ele>305</ele><time>2026-04-24T07:16:09Z</time></trkpt>
<trkpt lat="43.2690820000" lon="-1.0759970000"><ele>306</ele><time>2026-04-24T07:16:12Z</time></trkpt>
<trkpt lat="43.2690700000" lon="-1.0759770000"><ele>306</ele><time>2026-04-24T07:16:14Z</time></trkpt>
<trkpt lat="43.2690550000" lon="-1.0759550000"><ele>307</ele><time>2026-04-24T07:16:17Z</time></trkpt>
<trkpt lat="43.2690370000" lon="-1.0759320000"><ele>307</ele><time>2026-04-24T07:16:20Z</time></trkpt>
<trkpt lat="43.2690120000" lon="-1.0759250000"><ele>307</ele><time>2026-04-24T07:16:24Z</time></trkpt>
<trkpt lat="43.2689920000" lon="-1.0759250000"><ele>308</ele><time>2026-04-24T07:16:27Z</time></trkpt>
<trkpt lat="43.2689700000" lon="-1.0759170000"><ele>309</ele><time>2026-04-24T07:16:33Z</time></trkpt>
<trkpt lat="43.2689520000" lon="-1.0759270000"><ele>309</ele><time>2026-04-24T07:16:37Z</time></trkpt>
<trkpt lat="43.2689420000" lon="-1.0759520000"><ele>310</ele><time>2026-04-24T07:16:40Z</time></trkpt>
<trkpt lat="43.2689370000" lon="-1.0759830000"><ele>310</ele><time>2026-04-24T07:16:44Z</time></trkpt>
<trkpt lat="43.2689450000" lon="-1.0760120000"><ele>311</ele><time>2026-04-24T07:16:47Z</time></trkpt>
<trkpt lat="43.2689520000" lon="-1.0760420000"><ele>312</ele><time>2026-04-24T07:16:51Z</time></trkpt>
<trkpt lat="43.2689520000" lon="-1.0760670000"><ele>312</ele><time>2026-04-24T07:16:54Z</time></trkpt>
<trkpt lat="43.2689400000" lon="-1.0760870000"><ele>312</ele><time>2026-04-24T07:16:58Z</time></trkpt>
<trkpt lat="43.2689170000" lon="-1.0760730000"><ele>312</ele><time>2026-04-24T07:17:02Z</time></trkpt>
<trkpt lat="43.2688770000" lon="-1.0760620000"><ele>318</ele><time>2026-04-24T07:17:42Z</time></trkpt>
<trkpt lat="43.2688420000" lon="-1.0760520000"><ele>318</ele><time>2026-04-24T07:17:43Z</time></trkpt>
<trkpt lat="43.2687950000" lon="-1.0760420000"><ele>318</ele><time>2026-04-24T07:17:44Z</time></trkpt>
<trkpt lat="43.2687470000" lon="-1.0760280000"><ele>318</ele><time>2026-04-24T07:17:45Z</time></trkpt>
<trkpt lat="43.2687120000" lon="-1.0760220000"><ele>318</ele><time>2026-04-24T07:17:46Z</time></trkpt>
<trkpt lat="43.2686870000" lon="-1.0760170000"><ele>318</ele><time>2026-04-24T07:17:47Z</time></trkpt>
<trkpt lat="43.2686620000" lon="-1.0760250000"><ele>319</ele><time>2026-04-24T07:17:49Z</time></trkpt>
<trkpt lat="43.2686520000" lon="-1.0760470000"><ele>319</ele><time>2026-04-24T07:17:53Z</time></trkpt>
<trkpt lat="43.2686320000" lon="-1.0760520000"><ele>320</ele><time>2026-04-24T07:17:56Z</time></trkpt>
<trkpt lat="43.2686170000" lon="-1.0760670000"><ele>320</ele><time>2026-04-24T07:17:59Z</time></trkpt>
<trkpt lat="43.2685970000" lon="-1.0760900000"><ele>321</ele><time>2026-04-24T07:18:03Z</time></trkpt>
<trkpt lat="43.2685850000" lon="-1.0761120000"><ele>321</ele><time>2026-04-24T07:18:07Z</time></trkpt>
<trkpt lat="43.2685770000" lon="-1.0761400000"><ele>322</ele><time>2026-04-24T07:18:26Z</time></trkpt>
<trkpt lat="43.2685650000" lon="-1.0761620000"><ele>322</ele><time>2026-04-24T07:18:28Z</time></trkpt>
<trkpt lat="43.2685500000" lon="-1.0761870000"><ele>322</ele><time>2026-04-24T07:18:31Z</time></trkpt>
<trkpt lat="43.2685370000" lon="-1.0762120000"><ele>323</ele><time>2026-04-24T07:18:34Z</time></trkpt>
<trkpt lat="43.2685300000" lon="-1.0762350000"><ele>323</ele><time>2026-04-24T07:18:37Z</time></trkpt>
<trkpt lat="43.2685220000" lon="-1.0762580000"><ele>324</ele><time>2026-04-24T07:18:40Z</time></trkpt>
<trkpt lat="43.2685070000" lon="-1.0762820000"><ele>324</ele><time>2026-04-24T07:18:44Z</time></trkpt>
<trkpt lat="43.2684920000" lon="-1.0762980000"><ele>325</ele><time>2026-04-24T07:18:48Z</time></trkpt>
<trkpt lat="43.2684750000" lon="-1.0763130000"><ele>325</ele><time>2026-04-24T07:18:52Z</time></trkpt>
<trkpt lat="43.2684500000" lon="-1.0763200000"><ele>326</ele><time>2026-04-24T07:18:55Z</time></trkpt>
<trkpt lat="43.2684370000" lon="-1.0763420000"><ele>326</ele><time>2026-04-24T07:18:58Z</time></trkpt>
<trkpt lat="43.2684250000" lon="-1.0763600000"><ele>327</ele><time>2026-04-24T07:19:02Z</time></trkpt>
<trkpt lat="43.2684120000" lon="-1.0763800000"><ele>327</ele><time>2026-04-24T07:19:06Z</time></trkpt>
<trkpt lat="43.2684020000" lon="-1.0764020000"><ele>328</ele><time>2026-04-24T07:19:09Z</time></trkpt>
<trkpt lat="43.2683870000" lon="-1.0764250000"><ele>328</ele><time>2026-04-24T07:19:12Z</time></trkpt>
<trkpt lat="43.2683750000" lon="-1.0764480000"><ele>328</ele><time>2026-04-24T07:19:15Z</time></trkpt>
<trkpt lat="43.2683670000" lon="-1.0764720000"><ele>329</ele><time>2026-04-24T07:19:18Z</time></trkpt>
<trkpt lat="43.2683550000" lon="-1.0764970000"><ele>329</ele><time>2026-04-24T07:19:21Z</time></trkpt>
<trkpt lat="43.2683400000" lon="-1.0765200000"><ele>330</ele><time>2026-04-24T07:19:24Z</time></trkpt>
<trkpt lat="43.2683270000" lon="-1.0765500000"><ele>330</ele><time>2026-04-24T07:19:28Z</time></trkpt>
<trkpt lat="43.2683100000" lon="-1.0765770000"><ele>331</ele><time>2026-04-24T07:19:31Z</time></trkpt>
<trkpt lat="43.2682950000" lon="-1.0765970000"><ele>331</ele><time>2026-04-24T07:19:34Z</time></trkpt>
<trkpt lat="43.2682770000" lon="-1.0766180000"><ele>332</ele><time>2026-04-24T07:19:37Z</time></trkpt>
<trkpt lat="43.2682570000" lon="-1.0766370000"><ele>332</ele><time>2026-04-24T07:19:40Z</time></trkpt>
<trkpt lat="43.2682420000" lon="-1.0766520000"><ele>333</ele><time>2026-04-24T07:19:43Z</time></trkpt>
<trkpt lat="43.2682170000" lon="-1.0766580000"><ele>333</ele><time>2026-04-24T07:19:47Z</time></trkpt>
<trkpt lat="43.2682020000" lon="-1.0766720000"><ele>334</ele><time>2026-04-24T07:19:50Z</time></trkpt>
<trkpt lat="43.2681850000" lon="-1.0766970000"><ele>334</ele><time>2026-04-24T07:19:54Z</time></trkpt>
<trkpt lat="43.2681770000" lon="-1.0767220000"><ele>335</ele><time>2026-04-24T07:19:58Z</time></trkpt>
<trkpt lat="43.2681620000" lon="-1.0767470000"><ele>335</ele><time>2026-04-24T07:20:01Z</time></trkpt>
<trkpt lat="43.2681470000" lon="-1.0767650000"><ele>335</ele><time>2026-04-24T07:20:03Z</time></trkpt>
<trkpt lat="43.2681350000" lon="-1.0767850000"><ele>335</ele><time>2026-04-24T07:20:05Z</time></trkpt>
<trkpt lat="43.2681170000" lon="-1.0768100000"><ele>336</ele><time>2026-04-24T07:20:08Z</time></trkpt>
<trkpt lat="43.2681020000" lon="-1.0768320000"><ele>336</ele><time>2026-04-24T07:20:11Z</time></trkpt>
<trkpt lat="43.2680850000" lon="-1.0768570000"><ele>337</ele><time>2026-04-24T07:20:14Z</time></trkpt>
<trkpt lat="43.2680650000" lon="-1.0768770000"><ele>337</ele><time>2026-04-24T07:20:16Z</time></trkpt>
<trkpt lat="43.2680500000" lon="-1.0768920000"><ele>337</ele><time>2026-04-24T07:20:18Z</time></trkpt>
<trkpt lat="43.2680350000" lon="-1.0769170000"><ele>337</ele><time>2026-04-24T07:20:21Z</time></trkpt>
<trkpt lat="43.2680250000" lon="-1.0769420000"><ele>338</ele><time>2026-04-24T07:20:24Z</time></trkpt>
<trkpt lat="43.2680170000" lon="-1.0769670000"><ele>338</ele><time>2026-04-24T07:20:27Z</time></trkpt>
<trkpt lat="43.2680070000" lon="-1.0769920000"><ele>339</ele><time>2026-04-24T07:20:30Z</time></trkpt>
<trkpt lat="43.2680050000" lon="-1.0770270000"><ele>339</ele><time>2026-04-24T07:20:33Z</time></trkpt>
<trkpt lat="43.2679970000" lon="-1.0770570000"><ele>339</ele><time>2026-04-24T07:20:36Z</time></trkpt>
<trkpt lat="43.2679870000" lon="-1.0770920000"><ele>340</ele><time>2026-04-24T07:20:39Z</time></trkpt>
<trkpt lat="43.2679750000" lon="-1.0771200000"><ele>340</ele><time>2026-04-24T07:20:42Z</time></trkpt>
<trkpt lat="43.2679570000" lon="-1.0771470000"><ele>340</ele><time>2026-04-24T07:20:45Z</time></trkpt>
<trkpt lat="43.2679450000" lon="-1.0771670000"><ele>341</ele><time>2026-04-24T07:20:47Z</time></trkpt>
<trkpt lat="43.2679320000" lon="-1.0771970000"><ele>341</ele><time>2026-04-24T07:20:50Z</time></trkpt>
<trkpt lat="43.2679170000" lon="-1.0772200000"><ele>341</ele><time>2026-04-24T07:20:53Z</time></trkpt>
<trkpt lat="43.2679070000" lon="-1.0772420000"><ele>342</ele><time>2026-04-24T07:20:55Z</time></trkpt>
<trkpt lat="43.2679020000" lon="-1.0772670000"><ele>342</ele><time>2026-04-24T07:20:57Z</time></trkpt>
<trkpt lat="43.2678900000" lon="-1.0772970000"><ele>342</ele><time>2026-04-24T07:21:00Z</time></trkpt>
<trkpt lat="43.2678720000" lon="-1.0773270000"><ele>343</ele><time>2026-04-24T07:21:03Z</time></trkpt>
<trkpt lat="43.2678600000" lon="-1.0773600000"><ele>343</ele><time>2026-04-24T07:21:06Z</time></trkpt>
<trkpt lat="43.2678520000" lon="-1.0773870000"><ele>343</ele><time>2026-04-24T07:21:08Z</time></trkpt>
<trkpt lat="43.2678450000" lon="-1.0774120000"><ele>343</ele><time>2026-04-24T07:21:10Z</time></trkpt>
<trkpt lat="43.2678370000" lon="-1.0774500000"><ele>344</ele><time>2026-04-24T07:21:13Z</time></trkpt>
<trkpt lat="43.2678270000" lon="-1.0774720000"><ele>344</ele><time>2026-04-24T07:21:15Z</time></trkpt>
<trkpt lat="43.2678220000" lon="-1.0775070000"><ele>344</ele><time>2026-04-24T07:21:18Z</time></trkpt>
<trkpt lat="43.2678170000" lon="-1.0775320000"><ele>344</ele><time>2026-04-24T07:21:20Z</time></trkpt>
<trkpt lat="43.2678120000" lon="-1.0775600000"><ele>344</ele><time>2026-04-24T07:21:22Z</time></trkpt>
<trkpt lat="43.2678070000" lon="-1.0775950000"><ele>345</ele><time>2026-04-24T07:21:25Z</time></trkpt>
<trkpt lat="43.2677900000" lon="-1.0776170000"><ele>345</ele><time>2026-04-24T07:21:27Z</time></trkpt>
<trkpt lat="43.2677800000" lon="-1.0776400000"><ele>345</ele><time>2026-04-24T07:21:29Z</time></trkpt>
<trkpt lat="43.2677670000" lon="-1.0776600000"><ele>345</ele><time>2026-04-24T07:21:32Z</time></trkpt>
<trkpt lat="43.2677570000" lon="-1.0776920000"><ele>346</ele><time>2026-04-24T07:21:50Z</time></trkpt>
<trkpt lat="43.2677500000" lon="-1.0777250000"><ele>346</ele><time>2026-04-24T07:21:52Z</time></trkpt>
<trkpt lat="43.2677420000" lon="-1.0777520000"><ele>346</ele><time>2026-04-24T07:21:54Z</time></trkpt>
<trkpt lat="43.2677370000" lon="-1.0777780000"><ele>346</ele><time>2026-04-24T07:21:56Z</time></trkpt>
<trkpt lat="43.2677350000" lon="-1.0778050000"><ele>346</ele><time>2026-04-24T07:21:58Z</time></trkpt>
<trkpt lat="43.2677270000" lon="-1.0778300000"><ele>346</ele><time>2026-04-24T07:22:00Z</time></trkpt>
<trkpt lat="43.2677170000" lon="-1.0778520000"><ele>346</ele><time>2026-04-24T07:22:02Z</time></trkpt>
<trkpt lat="43.2677070000" lon="-1.0778770000"><ele>346</ele><time>2026-04-24T07:22:04Z</time></trkpt>
<trkpt lat="43.2676970000" lon="-1.0779000000"><ele>346</ele><time>2026-04-24T07:22:06Z</time></trkpt>
<trkpt lat="43.2676870000" lon="-1.0779250000"><ele>347</ele><time>2026-04-24T07:22:08Z</time></trkpt>
<trkpt lat="43.2676770000" lon="-1.0779570000"><ele>347</ele><time>2026-04-24T07:22:11Z</time></trkpt>
<trkpt lat="43.2676670000" lon="-1.0779820000"><ele>347</ele><time>2026-04-24T07:22:13Z</time></trkpt>
<trkpt lat="43.2676600000" lon="-1.0780070000"><ele>347</ele><time>2026-04-24T07:22:15Z</time></trkpt>
<trkpt lat="43.2676520000" lon="-1.0780320000"><ele>347</ele><time>2026-04-24T07:22:17Z</time></trkpt>
<trkpt lat="43.2676420000" lon="-1.0780530000"><ele>347</ele><time>2026-04-24T07:22:19Z</time></trkpt>
<trkpt lat="43.2676370000" lon="-1.0780820000"><ele>347</ele><time>2026-04-24T07:22:21Z</time></trkpt>
<trkpt lat="43.2676320000" lon="-1.0781120000"><ele>347</ele><time>2026-04-24T07:22:23Z</time></trkpt>
<trkpt lat="43.2676220000" lon="-1.0781370000"><ele>347</ele><time>2026-04-24T07:22:25Z</time></trkpt>
<trkpt lat="43.2676080000" lon="-1.0781620000"><ele>347</ele><time>2026-04-24T07:22:27Z</time></trkpt>
<trkpt lat="43.2675970000" lon="-1.0781820000"><ele>347</ele><time>2026-04-24T07:22:29Z</time></trkpt>
<trkpt lat="43.2675820000" lon="-1.0782120000"><ele>347</ele><time>2026-04-24T07:22:32Z</time></trkpt>
<trkpt lat="43.2675720000" lon="-1.0782370000"><ele>347</ele><time>2026-04-24T07:22:34Z</time></trkpt>
<trkpt lat="43.2675650000" lon="-1.0782650000"><ele>347</ele><time>2026-04-24T07:22:36Z</time></trkpt>
<trkpt lat="43.2675620000" lon="-1.0782920000"><ele>347</ele><time>2026-04-24T07:22:38Z</time></trkpt>
<trkpt lat="43.2675470000" lon="-1.0783270000"><ele>347</ele><time>2026-04-24T07:22:41Z</time></trkpt>
<trkpt lat="43.2675370000" lon="-1.0783520000"><ele>347</ele><time>2026-04-24T07:22:43Z</time></trkpt>
<trkpt lat="43.2675270000" lon="-1.0783820000"><ele>347</ele><time>2026-04-24T07:22:45Z</time></trkpt>
<trkpt lat="43.2675150000" lon="-1.0784100000"><ele>347</ele><time>2026-04-24T07:22:47Z</time></trkpt>
<trkpt lat="43.2675020000" lon="-1.0784320000"><ele>347</ele><time>2026-04-24T07:22:49Z</time></trkpt>
<trkpt lat="43.2674920000" lon="-1.0784530000"><ele>348</ele><time>2026-04-24T07:22:51Z</time></trkpt>
<trkpt lat="43.2674850000" lon="-1.0784800000"><ele>348</ele><time>2026-04-24T07:22:53Z</time></trkpt>
<trkpt lat="43.2674750000" lon="-1.0785130000"><ele>348</ele><time>2026-04-24T07:22:56Z</time></trkpt>
<trkpt lat="43.2674620000" lon="-1.0785350000"><ele>348</ele><time>2026-04-24T07:23:02Z</time></trkpt>
<trkpt lat="43.2674470000" lon="-1.0785570000"><ele>348</ele><time>2026-04-24T07:23:22Z</time></trkpt>
<trkpt lat="43.2674300000" lon="-1.0785970000"><ele>348</ele><time>2026-04-24T07:23:24Z</time></trkpt>
<trkpt lat="43.2674120000" lon="-1.0786330000"><ele>348</ele><time>2026-04-24T07:23:26Z</time></trkpt>
<trkpt lat="43.2674020000" lon="-1.0786670000"><ele>348</ele><time>2026-04-24T07:23:28Z</time></trkpt>
<trkpt lat="43.2673970000" lon="-1.0786970000"><ele>348</ele><time>2026-04-24T07:23:30Z</time></trkpt>
<trkpt lat="43.2674050000" lon="-1.0787180000"><ele>349</ele><time>2026-04-24T07:23:43Z</time></trkpt>
<trkpt lat="43.2674020000" lon="-1.0787570000"><ele>349</ele><time>2026-04-24T07:23:46Z</time></trkpt>
<trkpt lat="43.2674000000" lon="-1.0787970000"><ele>349</ele><time>2026-04-24T07:23:48Z</time></trkpt>
<trkpt lat="43.2673970000" lon="-1.0788370000"><ele>348</ele><time>2026-04-24T07:23:50Z</time></trkpt>
<trkpt lat="43.2673950000" lon="-1.0788750000"><ele>348</ele><time>2026-04-24T07:23:52Z</time></trkpt>
<trkpt lat="43.2673870000" lon="-1.0789100000"><ele>348</ele><time>2026-04-24T07:23:54Z</time></trkpt>
<trkpt lat="43.2673820000" lon="-1.0789430000"><ele>348</ele><time>2026-04-24T07:23:56Z</time></trkpt>
<trkpt lat="43.2673800000" lon="-1.0789770000"><ele>348</ele><time>2026-04-24T07:23:58Z</time></trkpt>
<trkpt lat="43.2673770000" lon="-1.0790070000"><ele>349</ele><time>2026-04-24T07:24:00Z</time></trkpt>
<trkpt lat="43.2673770000" lon="-1.0790370000"><ele>349</ele><time>2026-04-24T07:24:02Z</time></trkpt>
<trkpt lat="43.2673770000" lon="-1.0790670000"><ele>349</ele><time>2026-04-24T07:24:04Z</time></trkpt>
<trkpt lat="43.2673820000" lon="-1.0791020000"><ele>349</ele><time>2026-04-24T07:24:06Z</time></trkpt>
<trkpt lat="43.2673830000" lon="-1.0791370000"><ele>349</ele><time>2026-04-24T07:24:08Z</time></trkpt>
<trkpt lat="43.2673830000" lon="-1.0791670000"><ele>349</ele><time>2026-04-24T07:24:10Z</time></trkpt>
<trkpt lat="43.2673830000" lon="-1.0791970000"><ele>349</ele><time>2026-04-24T07:24:12Z</time></trkpt>
<trkpt lat="43.2673800000" lon="-1.0792270000"><ele>349</ele><time>2026-04-24T07:24:14Z</time></trkpt>
<trkpt lat="43.2673770000" lon="-1.0792550000"><ele>349</ele><time>2026-04-24T07:24:16Z</time></trkpt>
<trkpt lat="43.2673770000" lon="-1.0792850000"><ele>349</ele><time>2026-04-24T07:24:18Z</time></trkpt>
<trkpt lat="43.2673750000" lon="-1.0793220000"><ele>349</ele><time>2026-04-24T07:24:21Z</time></trkpt>
<trkpt lat="43.2673720000" lon="-1.0793470000"><ele>349</ele><time>2026-04-24T07:24:23Z</time></trkpt>
<trkpt lat="43.2673670000" lon="-1.0793770000"><ele>350</ele><time>2026-04-24T07:24:25Z</time></trkpt>
<trkpt lat="43.2673620000" lon="-1.0794120000"><ele>350</ele><time>2026-04-24T07:24:28Z</time></trkpt>
<trkpt lat="43.2673570000" lon="-1.0794370000"><ele>350</ele><time>2026-04-24T07:24:30Z</time></trkpt>
<trkpt lat="43.2673500000" lon="-1.0794620000"><ele>351</ele><time>2026-04-24T07:24:33Z</time></trkpt>
<trkpt lat="43.2673470000" lon="-1.0794900000"><ele>351</ele><time>2026-04-24T07:24:35Z</time></trkpt>
<trkpt lat="43.2673470000" lon="-1.0795220000"><ele>352</ele><time>2026-04-24T07:24:38Z</time></trkpt>
<trkpt lat="43.2673450000" lon="-1.0795520000"><ele>352</ele><time>2026-04-24T07:24:41Z</time></trkpt>
<trkpt lat="43.2673420000" lon="-1.0795820000"><ele>353</ele><time>2026-04-24T07:24:44Z</time></trkpt>
<trkpt lat="43.2673470000" lon="-1.0796120000"><ele>353</ele><time>2026-04-24T07:24:47Z</time></trkpt>
<trkpt lat="43.2673470000" lon="-1.0796420000"><ele>353</ele><time>2026-04-24T07:24:50Z</time></trkpt>
<trkpt lat="43.2673450000" lon="-1.0796720000"><ele>354</ele><time>2026-04-24T07:24:53Z</time></trkpt>
<trkpt lat="43.2673470000" lon="-1.0797020000"><ele>354</ele><time>2026-04-24T07:24:56Z</time></trkpt>
<trkpt lat="43.2673470000" lon="-1.0797270000"><ele>355</ele><time>2026-04-24T07:24:59Z</time></trkpt>
<trkpt lat="43.2673520000" lon="-1.0797520000"><ele>355</ele><time>2026-04-24T07:25:02Z</time></trkpt>
<trkpt lat="43.2673520000" lon="-1.0797820000"><ele>356</ele><time>2026-04-24T07:25:06Z</time></trkpt>
<trkpt lat="43.2673420000" lon="-1.0798070000"><ele>356</ele><time>2026-04-24T07:25:09Z</time></trkpt>
<trkpt lat="43.2673400000" lon="-1.0798370000"><ele>356</ele><time>2026-04-24T07:25:13Z</time></trkpt>
<trkpt lat="43.2673320000" lon="-1.0798620000"><ele>357</ele><time>2026-04-24T07:25:16Z</time></trkpt>
<trkpt lat="43.2673270000" lon="-1.0798970000"><ele>357</ele><time>2026-04-24T07:25:19Z</time></trkpt>
<trkpt lat="43.2673220000" lon="-1.0799270000"><ele>358</ele><time>2026-04-24T07:25:25Z</time></trkpt>
<trkpt lat="43.2673120000" lon="-1.0799550000"><ele>359</ele><time>2026-04-24T07:25:29Z</time></trkpt>
<trkpt lat="43.2673020000" lon="-1.0799820000"><ele>359</ele><time>2026-04-24T07:25:33Z</time></trkpt>
<trkpt lat="43.2672920000" lon="-1.0800120000"><ele>360</ele><time>2026-04-24T07:25:36Z</time></trkpt>
<trkpt lat="43.2672900000" lon="-1.0800420000"><ele>360</ele><time>2026-04-24T07:25:39Z</time></trkpt>
<trkpt lat="43.2672920000" lon="-1.0800720000"><ele>361</ele><time>2026-04-24T07:25:42Z</time></trkpt>
<trkpt lat="43.2672900000" lon="-1.0801020000"><ele>361</ele><time>2026-04-24T07:25:45Z</time></trkpt>
<trkpt lat="43.2672770000" lon="-1.0801220000"><ele>361</ele><time>2026-04-24T07:25:48Z</time></trkpt>
<trkpt lat="43.2672620000" lon="-1.0801450000"><ele>362</ele><time>2026-04-24T07:25:52Z</time></trkpt>
<trkpt lat="43.2672520000" lon="-1.0801700000"><ele>362</ele><time>2026-04-24T07:25:55Z</time></trkpt>
<trkpt lat="43.2672520000" lon="-1.0801970000"><ele>363</ele><time>2026-04-24T07:25:58Z</time></trkpt>
<trkpt lat="43.2672470000" lon="-1.0802220000"><ele>363</ele><time>2026-04-24T07:26:01Z</time></trkpt>
<trkpt lat="43.2672420000" lon="-1.0802480000"><ele>364</ele><time>2026-04-24T07:26:04Z</time></trkpt>
<trkpt lat="43.2672400000" lon="-1.0802820000"><ele>364</ele><time>2026-04-24T07:26:07Z</time></trkpt>
<trkpt lat="43.2672400000" lon="-1.0803070000"><ele>364</ele><time>2026-04-24T07:26:10Z</time></trkpt>
<trkpt lat="43.2672420000" lon="-1.0803330000"><ele>365</ele><time>2026-04-24T07:26:13Z</time></trkpt>
<trkpt lat="43.2672370000" lon="-1.0803570000"><ele>365</ele><time>2026-04-24T07:26:16Z</time></trkpt>
<trkpt lat="43.2672270000" lon="-1.0803880000"><ele>366</ele><time>2026-04-24T07:26:19Z</time></trkpt>
<trkpt lat="43.2672220000" lon="-1.0804170000"><ele>366</ele><time>2026-04-24T07:26:22Z</time></trkpt>
<trkpt lat="43.2672220000" lon="-1.0804470000"><ele>366</ele><time>2026-04-24T07:26:26Z</time></trkpt>
<trkpt lat="43.2672220000" lon="-1.0804770000"><ele>367</ele><time>2026-04-24T07:26:29Z</time></trkpt>
<trkpt lat="43.2672170000" lon="-1.0805130000"><ele>367</ele><time>2026-04-24T07:26:32Z</time></trkpt>
<trkpt lat="43.2672120000" lon="-1.0805420000"><ele>367</ele><time>2026-04-24T07:26:34Z</time></trkpt>
<trkpt lat="43.2672070000" lon="-1.0805670000"><ele>368</ele><time>2026-04-24T07:26:36Z</time></trkpt>
<trkpt lat="43.2671970000" lon="-1.0805950000"><ele>368</ele><time>2026-04-24T07:26:38Z</time></trkpt>
<trkpt lat="43.2671970000" lon="-1.0806250000"><ele>368</ele><time>2026-04-24T07:26:41Z</time></trkpt>
<trkpt lat="43.2671920000" lon="-1.0806570000"><ele>368</ele><time>2026-04-24T07:26:44Z</time></trkpt>
<trkpt lat="43.2671920000" lon="-1.0806820000"><ele>369</ele><time>2026-04-24T07:26:46Z</time></trkpt>
<trkpt lat="43.2671870000" lon="-1.0807150000"><ele>369</ele><time>2026-04-24T07:26:49Z</time></trkpt>
<trkpt lat="43.2671900000" lon="-1.0807500000"><ele>369</ele><time>2026-04-24T07:26:52Z</time></trkpt>
<trkpt lat="43.2671870000" lon="-1.0807820000"><ele>370</ele><time>2026-04-24T07:26:55Z</time></trkpt>
<trkpt lat="43.2671870000" lon="-1.0808150000"><ele>370</ele><time>2026-04-24T07:26:58Z</time></trkpt>
<trkpt lat="43.2671850000" lon="-1.0808470000"><ele>370</ele><time>2026-04-24T07:27:01Z</time></trkpt>
<trkpt lat="43.2671820000" lon="-1.0808770000"><ele>371</ele><time>2026-04-24T07:27:04Z</time></trkpt>
<trkpt lat="43.2671770000" lon="-1.0809120000"><ele>371</ele><time>2026-04-24T07:27:07Z</time></trkpt>
<trkpt lat="43.2671770000" lon="-1.0809400000"><ele>371</ele><time>2026-04-24T07:27:09Z</time></trkpt>
<trkpt lat="43.2671770000" lon="-1.0809670000"><ele>371</ele><time>2026-04-24T07:27:11Z</time></trkpt>
<trkpt lat="43.2671770000" lon="-1.0809950000"><ele>371</ele><time>2026-04-24T07:27:13Z</time></trkpt>
<trkpt lat="43.2671720000" lon="-1.0810220000"><ele>372</ele><time>2026-04-24T07:27:15Z</time></trkpt>
<trkpt lat="43.2671700000" lon="-1.0810570000"><ele>372</ele><time>2026-04-24T07:27:18Z</time></trkpt>
<trkpt lat="43.2671700000" lon="-1.0810900000"><ele>372</ele><time>2026-04-24T07:27:21Z</time></trkpt>
<trkpt lat="43.2671670000" lon="-1.0811250000"><ele>372</ele><time>2026-04-24T07:27:24Z</time></trkpt>
<trkpt lat="43.2671650000" lon="-1.0811500000"><ele>372</ele><time>2026-04-24T07:27:26Z</time></trkpt>
<trkpt lat="43.2671620000" lon="-1.0811770000"><ele>373</ele><time>2026-04-24T07:27:28Z</time></trkpt>
<trkpt lat="43.2671570000" lon="-1.0812120000"><ele>373</ele><time>2026-04-24T07:27:31Z</time></trkpt>
<trkpt lat="43.2671570000" lon="-1.0812470000"><ele>373</ele><time>2026-04-24T07:27:34Z</time></trkpt>
<trkpt lat="43.2671570000" lon="-1.0812720000"><ele>373</ele><time>2026-04-24T07:27:36Z</time></trkpt>
<trkpt lat="43.2671670000" lon="-1.0813070000"><ele>374</ele><time>2026-04-24T07:27:39Z</time></trkpt>
<trkpt lat="43.2671650000" lon="-1.0813320000"><ele>374</ele><time>2026-04-24T07:27:41Z</time></trkpt>
<trkpt lat="43.2671580000" lon="-1.0813620000"><ele>374</ele><time>2026-04-24T07:27:43Z</time></trkpt>
<trkpt lat="43.2671520000" lon="-1.0813950000"><ele>374</ele><time>2026-04-24T07:27:45Z</time></trkpt>
<trkpt lat="43.2671500000" lon="-1.0814280000"><ele>374</ele><time>2026-04-24T07:27:47Z</time></trkpt>
<trkpt lat="43.2671470000" lon="-1.0814670000"><ele>375</ele><time>2026-04-24T07:27:49Z</time></trkpt>
<trkpt lat="43.2671420000" lon="-1.0815000000"><ele>375</ele><time>2026-04-24T07:27:51Z</time></trkpt>
<trkpt lat="43.2671370000" lon="-1.0815270000"><ele>375</ele><time>2026-04-24T07:27:53Z</time></trkpt>
<trkpt lat="43.2671320000" lon="-1.0815570000"><ele>375</ele><time>2026-04-24T07:27:55Z</time></trkpt>
<trkpt lat="43.2671350000" lon="-1.0815820000"><ele>375</ele><time>2026-04-24T07:27:57Z</time></trkpt>
<trkpt lat="43.2671370000" lon="-1.0816070000"><ele>375</ele><time>2026-04-24T07:27:59Z</time></trkpt>
<trkpt lat="43.2671300000" lon="-1.0816370000"><ele>375</ele><time>2026-04-24T07:28:02Z</time></trkpt>
<trkpt lat="43.2671320000" lon="-1.0816620000"><ele>375</ele><time>2026-04-24T07:28:05Z</time></trkpt>
<trkpt lat="43.2671170000" lon="-1.0816770000"><ele>380</ele><time>2026-04-24T07:28:56Z</time></trkpt>
<trkpt lat="43.2670920000" lon="-1.0816920000"><ele>380</ele><time>2026-04-24T07:28:57Z</time></trkpt>
<trkpt lat="43.2670600000" lon="-1.0817150000"><ele>380</ele><time>2026-04-24T07:28:58Z</time></trkpt>
<trkpt lat="43.2670270000" lon="-1.0817350000"><ele>380</ele><time>2026-04-24T07:28:59Z</time></trkpt>
<trkpt lat="43.2670020000" lon="-1.0817500000"><ele>380</ele><time>2026-04-24T07:29:00Z</time></trkpt>
<trkpt lat="43.2669820000" lon="-1.0817550000"><ele>380</ele><time>2026-04-24T07:29:01Z</time></trkpt>
<trkpt lat="43.2669600000" lon="-1.0817570000"><ele>381</ele><time>2026-04-24T07:29:03Z</time></trkpt>
<trkpt lat="43.2669420000" lon="-1.0817570000"><ele>381</ele><time>2026-04-24T07:29:07Z</time></trkpt>
<trkpt lat="43.2669220000" lon="-1.0817600000"><ele>382</ele><time>2026-04-24T07:29:12Z</time></trkpt>
<trkpt lat="43.2669100000" lon="-1.0817770000"><ele>383</ele><time>2026-04-24T07:29:16Z</time></trkpt>
<trkpt lat="43.2668670000" lon="-1.0817800000"><ele>389</ele><time>2026-04-24T07:30:10Z</time></trkpt>
<trkpt lat="43.2668320000" lon="-1.0817770000"><ele>389</ele><time>2026-04-24T07:30:11Z</time></trkpt>
<trkpt lat="43.2667850000" lon="-1.0817750000"><ele>389</ele><time>2026-04-24T07:30:12Z</time></trkpt>
<trkpt lat="43.2667370000" lon="-1.0817720000"><ele>389</ele><time>2026-04-24T07:30:13Z</time></trkpt>
<trkpt lat="43.2667020000" lon="-1.0817720000"><ele>389</ele><time>2026-04-24T07:30:14Z</time></trkpt>
<trkpt lat="43.2666770000" lon="-1.0817720000"><ele>389</ele><time>2026-04-24T07:30:15Z</time></trkpt>
<trkpt lat="43.2666520000" lon="-1.0817670000"><ele>389</ele><time>2026-04-24T07:30:17Z</time></trkpt>
<trkpt lat="43.2666300000" lon="-1.0817700000"><ele>389</ele><time>2026-04-24T07:30:20Z</time></trkpt>
<trkpt lat="43.2666100000" lon="-1.0817720000"><ele>390</ele><time>2026-04-24T07:30:23Z</time></trkpt>
<trkpt lat="43.2665900000" lon="-1.0817700000"><ele>390</ele><time>2026-04-24T07:30:27Z</time></trkpt>
<trkpt lat="43.2665700000" lon="-1.0817800000"><ele>390</ele><time>2026-04-24T07:30:30Z</time></trkpt>
<trkpt lat="43.2665500000" lon="-1.0817820000"><ele>391</ele><time>2026-04-24T07:30:52Z</time></trkpt>
<trkpt lat="43.2665320000" lon="-1.0818070000"><ele>391</ele><time>2026-04-24T07:30:54Z</time></trkpt>
<trkpt lat="43.2665170000" lon="-1.0818370000"><ele>391</ele><time>2026-04-24T07:30:56Z</time></trkpt>
<trkpt lat="43.2665000000" lon="-1.0818670000"><ele>391</ele><time>2026-04-24T07:30:58Z</time></trkpt>
<trkpt lat="43.2664870000" lon="-1.0818870000"><ele>391</ele><time>2026-04-24T07:31:00Z</time></trkpt>
<trkpt lat="43.2664680000" lon="-1.0819120000"><ele>391</ele><time>2026-04-24T07:31:03Z</time></trkpt>
<trkpt lat="43.2664550000" lon="-1.0819300000"><ele>391</ele><time>2026-04-24T07:31:05Z</time></trkpt>
<trkpt lat="43.2664350000" lon="-1.0819520000"><ele>391</ele><time>2026-04-24T07:31:08Z</time></trkpt>
<trkpt lat="43.2664120000" lon="-1.0819720000"><ele>391</ele><time>2026-04-24T07:31:11Z</time></trkpt>
<trkpt lat="43.2663920000" lon="-1.0819850000"><ele>391</ele><time>2026-04-24T07:31:13Z</time></trkpt>
<trkpt lat="43.2663770000" lon="-1.0819950000"><ele>391</ele><time>2026-04-24T07:31:15Z</time></trkpt>
<trkpt lat="43.2663570000" lon="-1.0820120000"><ele>391</ele><time>2026-04-24T07:31:17Z</time></trkpt>
<trkpt lat="43.2663370000" lon="-1.0820350000"><ele>392</ele><time>2026-04-24T07:31:20Z</time></trkpt>
<trkpt lat="43.2663250000" lon="-1.0820520000"><ele>392</ele><time>2026-04-24T07:31:22Z</time></trkpt>
<trkpt lat="43.2663050000" lon="-1.0820770000"><ele>392</ele><time>2026-04-24T07:31:25Z</time></trkpt>
<trkpt lat="43.2662950000" lon="-1.0821020000"><ele>392</ele><time>2026-04-24T07:31:48Z</time></trkpt>
<trkpt lat="43.2662820000" lon="-1.0821250000"><ele>392</ele><time>2026-04-24T07:31:50Z</time></trkpt>
<trkpt lat="43.2662670000" lon="-1.0821430000"><ele>392</ele><time>2026-04-24T07:32:20Z</time></trkpt>
<trkpt lat="43.2662430000" lon="-1.0821720000"><ele>392</ele><time>2026-04-24T07:32:22Z</time></trkpt>
<trkpt lat="43.2662250000" lon="-1.0822020000"><ele>392</ele><time>2026-04-24T07:32:24Z</time></trkpt>
<trkpt lat="43.2662070000" lon="-1.0822220000"><ele>392</ele><time>2026-04-24T07:32:26Z</time></trkpt>
<trkpt lat="43.2661870000" lon="-1.0822400000"><ele>392</ele><time>2026-04-24T07:32:28Z</time></trkpt>
<trkpt lat="43.2661770000" lon="-1.0822620000"><ele>392</ele><time>2026-04-24T07:32:30Z</time></trkpt>
<trkpt lat="43.2661620000" lon="-1.0822770000"><ele>392</ele><time>2026-04-24T07:32:32Z</time></trkpt>
<trkpt lat="43.2661470000" lon="-1.0822920000"><ele>392</ele><time>2026-04-24T07:32:34Z</time></trkpt>
<trkpt lat="43.2661320000" lon="-1.0823180000"><ele>392</ele><time>2026-04-24T07:32:37Z</time></trkpt>
<trkpt lat="43.2661120000" lon="-1.0823300000"><ele>392</ele><time>2026-04-24T07:32:39Z</time></trkpt>
<trkpt lat="43.2660950000" lon="-1.0823320000"><ele>392</ele><time>2026-04-24T07:32:41Z</time></trkpt>
<trkpt lat="43.2660720000" lon="-1.0823400000"><ele>392</ele><time>2026-04-24T07:32:43Z</time></trkpt>
<trkpt lat="43.2660520000" lon="-1.0823450000"><ele>392</ele><time>2026-04-24T07:32:45Z</time></trkpt>
<trkpt lat="43.2660320000" lon="-1.0823520000"><ele>391</ele><time>2026-04-24T07:32:47Z</time></trkpt>
<trkpt lat="43.2660120000" lon="-1.0823550000"><ele>391</ele><time>2026-04-24T07:32:49Z</time></trkpt>
<trkpt lat="43.2659920000" lon="-1.0823550000"><ele>391</ele><time>2026-04-24T07:32:51Z</time></trkpt>
<trkpt lat="43.2659720000" lon="-1.0823600000"><ele>391</ele><time>2026-04-24T07:32:53Z</time></trkpt>
<trkpt lat="43.2659520000" lon="-1.0823720000"><ele>391</ele><time>2026-04-24T07:32:55Z</time></trkpt>
<trkpt lat="43.2659300000" lon="-1.0823850000"><ele>391</ele><time>2026-04-24T07:32:57Z</time></trkpt>
<trkpt lat="43.2659120000" lon="-1.0823920000"><ele>391</ele><time>2026-04-24T07:32:59Z</time></trkpt>
<trkpt lat="43.2658920000" lon="-1.0824020000"><ele>391</ele><time>2026-04-24T07:33:01Z</time></trkpt>
<trkpt lat="43.2658770000" lon="-1.0824220000"><ele>391</ele><time>2026-04-24T07:33:03Z</time></trkpt>
<trkpt lat="43.2658670000" lon="-1.0824470000"><ele>391</ele><time>2026-04-24T07:33:05Z</time></trkpt>
<trkpt lat="43.2658470000" lon="-1.0824620000"><ele>391</ele><time>2026-04-24T07:33:08Z</time></trkpt>
<trkpt lat="43.2658250000" lon="-1.0824620000"><ele>390</ele><time>2026-04-24T07:33:12Z</time></trkpt>
<trkpt lat="43.2658020000" lon="-1.0824600000"><ele>390</ele><time>2026-04-24T07:33:15Z</time></trkpt>
<trkpt lat="43.2657800000" lon="-1.0824500000"><ele>390</ele><time>2026-04-24T07:33:18Z</time></trkpt>
<trkpt lat="43.2657650000" lon="-1.0824350000"><ele>389</ele><time>2026-04-24T07:33:20Z</time></trkpt>
<trkpt lat="43.2657470000" lon="-1.0824220000"><ele>389</ele><time>2026-04-24T07:33:22Z</time></trkpt>
<trkpt lat="43.2657220000" lon="-1.0824320000"><ele>389</ele><time>2026-04-24T07:33:25Z</time></trkpt>
<trkpt lat="43.2656970000" lon="-1.0824470000"><ele>388</ele><time>2026-04-24T07:33:28Z</time></trkpt>
<trkpt lat="43.2656820000" lon="-1.0824650000"><ele>388</ele><time>2026-04-24T07:33:30Z</time></trkpt>
<trkpt lat="43.2656670000" lon="-1.0824920000"><ele>388</ele><time>2026-04-24T07:33:33Z</time></trkpt>
<trkpt lat="43.2656520000" lon="-1.0825070000"><ele>388</ele><time>2026-04-24T07:33:35Z</time></trkpt>
<trkpt lat="43.2656370000" lon="-1.0825320000"><ele>387</ele><time>2026-04-24T07:33:38Z</time></trkpt>
<trkpt lat="43.2656100000" lon="-1.0825370000"><ele>387</ele><time>2026-04-24T07:33:41Z</time></trkpt>
<trkpt lat="43.2655920000" lon="-1.0825470000"><ele>387</ele><time>2026-04-24T07:33:43Z</time></trkpt>
<trkpt lat="43.2655750000" lon="-1.0825570000"><ele>386</ele><time>2026-04-24T07:33:45Z</time></trkpt>
<trkpt lat="43.2655500000" lon="-1.0825570000"><ele>386</ele><time>2026-04-24T07:33:48Z</time></trkpt>
<trkpt lat="43.2655270000" lon="-1.0825520000"><ele>385</ele><time>2026-04-24T07:33:51Z</time></trkpt>
<trkpt lat="43.2655020000" lon="-1.0825480000"><ele>385</ele><time>2026-04-24T07:33:54Z</time></trkpt>
<trkpt lat="43.2654800000" lon="-1.0825670000"><ele>385</ele><time>2026-04-24T07:33:57Z</time></trkpt>
<trkpt lat="43.2654670000" lon="-1.0825870000"><ele>384</ele><time>2026-04-24T07:33:59Z</time></trkpt>
<trkpt lat="43.2654470000" lon="-1.0826150000"><ele>384</ele><time>2026-04-24T07:34:02Z</time></trkpt>
<trkpt lat="43.2654270000" lon="-1.0826370000"><ele>383</ele><time>2026-04-24T07:34:05Z</time></trkpt>
<trkpt lat="43.2653970000" lon="-1.0826270000"><ele>383</ele><time>2026-04-24T07:34:08Z</time></trkpt>
<trkpt lat="43.2653800000" lon="-1.0826220000"><ele>383</ele><time>2026-04-24T07:34:10Z</time></trkpt>
<trkpt lat="43.2653620000" lon="-1.0826250000"><ele>382</ele><time>2026-04-24T07:34:12Z</time></trkpt>
<trkpt lat="43.2653420000" lon="-1.0826300000"><ele>382</ele><time>2026-04-24T07:34:14Z</time></trkpt>
<trkpt lat="43.2653170000" lon="-1.0826300000"><ele>382</ele><time>2026-04-24T07:34:17Z</time></trkpt>
<trkpt lat="43.2652970000" lon="-1.0826300000"><ele>382</ele><time>2026-04-24T07:34:19Z</time></trkpt>
<trkpt lat="43.2652720000" lon="-1.0826120000"><ele>382</ele><time>2026-04-24T07:34:22Z</time></trkpt>
<trkpt lat="43.2652520000" lon="-1.0826020000"><ele>382</ele><time>2026-04-24T07:34:24Z</time></trkpt>
<trkpt lat="43.2652350000" lon="-1.0826070000"><ele>382</ele><time>2026-04-24T07:34:26Z</time></trkpt>
<trkpt lat="43.2652100000" lon="-1.0826220000"><ele>381</ele><time>2026-04-24T07:34:58Z</time></trkpt>
<trkpt lat="43.2651870000" lon="-1.0826420000"><ele>381</ele><time>2026-04-24T07:35:00Z</time></trkpt>
<trkpt lat="43.2651670000" lon="-1.0826570000"><ele>381</ele><time>2026-04-24T07:35:02Z</time></trkpt>
<trkpt lat="43.2651520000" lon="-1.0826770000"><ele>381</ele><time>2026-04-24T07:35:04Z</time></trkpt>
<trkpt lat="43.2651370000" lon="-1.0826970000"><ele>381</ele><time>2026-04-24T07:35:06Z</time></trkpt>
<trkpt lat="43.2651200000" lon="-1.0827120000"><ele>381</ele><time>2026-04-24T07:35:08Z</time></trkpt>
<trkpt lat="43.2651020000" lon="-1.0827300000"><ele>380</ele><time>2026-04-24T07:35:10Z</time></trkpt>
<trkpt lat="43.2650820000" lon="-1.0827450000"><ele>380</ele><time>2026-04-24T07:35:12Z</time></trkpt>
<trkpt lat="43.2650650000" lon="-1.0827570000"><ele>380</ele><time>2026-04-24T07:35:14Z</time></trkpt>
<trkpt lat="43.2650450000" lon="-1.0827720000"><ele>380</ele><time>2026-04-24T07:35:16Z</time></trkpt>
<trkpt lat="43.2650170000" lon="-1.0827870000"><ele>380</ele><time>2026-04-24T07:35:19Z</time></trkpt>
<trkpt lat="43.2650000000" lon="-1.0828020000"><ele>380</ele><time>2026-04-24T07:35:21Z</time></trkpt>
<trkpt lat="43.2649850000" lon="-1.0828180000"><ele>380</ele><time>2026-04-24T07:35:23Z</time></trkpt>
<trkpt lat="43.2649670000" lon="-1.0828370000"><ele>380</ele><time>2026-04-24T07:35:25Z</time></trkpt>
<trkpt lat="43.2649470000" lon="-1.0828520000"><ele>379</ele><time>2026-04-24T07:35:27Z</time></trkpt>
<trkpt lat="43.2649250000" lon="-1.0828700000"><ele>379</ele><time>2026-04-24T07:35:29Z</time></trkpt>
<trkpt lat="43.2649020000" lon="-1.0828770000"><ele>379</ele><time>2026-04-24T07:35:31Z</time></trkpt>
<trkpt lat="43.2648770000" lon="-1.0828870000"><ele>379</ele><time>2026-04-24T07:35:33Z</time></trkpt>
<trkpt lat="43.2648570000" lon="-1.0829000000"><ele>379</ele><time>2026-04-24T07:35:35Z</time></trkpt>
<trkpt lat="43.2648350000" lon="-1.0829150000"><ele>379</ele><time>2026-04-24T07:35:37Z</time></trkpt>
<trkpt lat="43.2648120000" lon="-1.0829300000"><ele>379</ele><time>2026-04-24T07:35:39Z</time></trkpt>
<trkpt lat="43.2647920000" lon="-1.0829470000"><ele>379</ele><time>2026-04-24T07:35:41Z</time></trkpt>
<trkpt lat="43.2647720000" lon="-1.0829620000"><ele>379</ele><time>2026-04-24T07:35:43Z</time></trkpt>
<trkpt lat="43.2647550000" lon="-1.0829750000"><ele>379</ele><time>2026-04-24T07:35:45Z</time></trkpt>
<trkpt lat="43.2647350000" lon="-1.0829870000"><ele>379</ele><time>2026-04-24T07:35:47Z</time></trkpt>
<trkpt lat="43.2647120000" lon="-1.0830020000"><ele>379</ele><time>2026-04-24T07:35:49Z</time></trkpt>
<trkpt lat="43.2646920000" lon="-1.0830170000"><ele>379</ele><time>2026-04-24T07:35:51Z</time></trkpt>
<trkpt lat="43.2646720000" lon="-1.0830350000"><ele>380</ele><time>2026-04-24T07:35:53Z</time></trkpt>
<trkpt lat="43.2646530000" lon="-1.0830470000"><ele>380</ele><time>2026-04-24T07:35:55Z</time></trkpt>
<trkpt lat="43.2646370000" lon="-1.0830620000"><ele>380</ele><time>2026-04-24T07:35:57Z</time></trkpt>
<trkpt lat="43.2646170000" lon="-1.0830670000"><ele>380</ele><time>2026-04-24T07:35:59Z</time></trkpt>
<trkpt lat="43.2645950000" lon="-1.0830720000"><ele>380</ele><time>2026-04-24T07:36:01Z</time></trkpt>
<trkpt lat="43.2645770000" lon="-1.0830650000"><ele>380</ele><time>2026-04-24T07:36:03Z</time></trkpt>
<trkpt lat="43.2645570000" lon="-1.0830570000"><ele>381</ele><time>2026-04-24T07:36:05Z</time></trkpt>
<trkpt lat="43.2645370000" lon="-1.0830500000"><ele>381</ele><time>2026-04-24T07:36:07Z</time></trkpt>
<trkpt lat="43.2645120000" lon="-1.0830500000"><ele>381</ele><time>2026-04-24T07:36:10Z</time></trkpt>
<trkpt lat="43.2644920000" lon="-1.0830520000"><ele>381</ele><time>2026-04-24T07:36:12Z</time></trkpt>
<trkpt lat="43.2644720000" lon="-1.0830570000"><ele>381</ele><time>2026-04-24T07:36:14Z</time></trkpt>
<trkpt lat="43.2644520000" lon="-1.0830620000"><ele>382</ele><time>2026-04-24T07:36:16Z</time></trkpt>
<trkpt lat="43.2644280000" lon="-1.0830670000"><ele>382</ele><time>2026-04-24T07:36:18Z</time></trkpt>
<trkpt lat="43.2644100000" lon="-1.0830770000"><ele>382</ele><time>2026-04-24T07:36:20Z</time></trkpt>
<trkpt lat="43.2643870000" lon="-1.0830870000"><ele>382</ele><time>2026-04-24T07:36:23Z</time></trkpt>
<trkpt lat="43.2643620000" lon="-1.0831020000"><ele>383</ele><time>2026-04-24T07:36:26Z</time></trkpt>
<trkpt lat="43.2643470000" lon="-1.0831170000"><ele>383</ele><time>2026-04-24T07:36:28Z</time></trkpt>
<trkpt lat="43.2643250000" lon="-1.0831370000"><ele>383</ele><time>2026-04-24T07:36:31Z</time></trkpt>
<trkpt lat="43.2643050000" lon="-1.0831470000"><ele>384</ele><time>2026-04-24T07:36:33Z</time></trkpt>
<trkpt lat="43.2642820000" lon="-1.0831670000"><ele>384</ele><time>2026-04-24T07:36:36Z</time></trkpt>
<trkpt lat="43.2642650000" lon="-1.0831820000"><ele>384</ele><time>2026-04-24T07:36:38Z</time></trkpt>
<trkpt lat="43.2642470000" lon="-1.0831950000"><ele>385</ele><time>2026-04-24T07:36:40Z</time></trkpt>
<trkpt lat="43.2642220000" lon="-1.0832150000"><ele>385</ele><time>2026-04-24T07:36:43Z</time></trkpt>
<trkpt lat="43.2642030000" lon="-1.0832270000"><ele>385</ele><time>2026-04-24T07:36:45Z</time></trkpt>
<trkpt lat="43.2641870000" lon="-1.0832420000"><ele>385</ele><time>2026-04-24T07:36:47Z</time></trkpt>
<trkpt lat="43.2641670000" lon="-1.0832620000"><ele>386</ele><time>2026-04-24T07:36:50Z</time></trkpt>
<trkpt lat="43.2641520000" lon="-1.0832770000"><ele>386</ele><time>2026-04-24T07:36:52Z</time></trkpt>
<trkpt lat="43.2641370000" lon="-1.0832920000"><ele>386</ele><time>2026-04-24T07:36:54Z</time></trkpt>
<trkpt lat="43.2641170000" lon="-1.0833120000"><ele>387</ele><time>2026-04-24T07:36:57Z</time></trkpt>
<trkpt lat="43.2640970000" lon="-1.0833320000"><ele>387</ele><time>2026-04-24T07:37:00Z</time></trkpt>
<trkpt lat="43.2640800000" lon="-1.0833520000"><ele>387</ele><time>2026-04-24T07:37:03Z</time></trkpt>
<trkpt lat="43.2640620000" lon="-1.0833620000"><ele>387</ele><time>2026-04-24T07:37:05Z</time></trkpt>
<trkpt lat="43.2640470000" lon="-1.0833720000"><ele>388</ele><time>2026-04-24T07:37:07Z</time></trkpt>
<trkpt lat="43.2640250000" lon="-1.0833900000"><ele>388</ele><time>2026-04-24T07:37:10Z</time></trkpt>
<trkpt lat="43.2640050000" lon="-1.0834100000"><ele>388</ele><time>2026-04-24T07:37:13Z</time></trkpt>
<trkpt lat="43.2639870000" lon="-1.0834250000"><ele>389</ele><time>2026-04-24T07:37:15Z</time></trkpt>
<trkpt lat="43.2639700000" lon="-1.0834370000"><ele>389</ele><time>2026-04-24T07:37:17Z</time></trkpt>
<trkpt lat="43.2639520000" lon="-1.0834470000"><ele>389</ele><time>2026-04-24T07:37:19Z</time></trkpt>
<trkpt lat="43.2639300000" lon="-1.0834650000"><ele>390</ele><time>2026-04-24T07:37:22Z</time></trkpt>
<trkpt lat="43.2639070000" lon="-1.0834770000"><ele>390</ele><time>2026-04-24T07:37:25Z</time></trkpt>
<trkpt lat="43.2638820000" lon="-1.0834900000"><ele>390</ele><time>2026-04-24T07:37:28Z</time></trkpt>
<trkpt lat="43.2638670000" lon="-1.0835070000"><ele>391</ele><time>2026-04-24T07:37:30Z</time></trkpt>
<trkpt lat="43.2638470000" lon="-1.0835170000"><ele>391</ele><time>2026-04-24T07:37:32Z</time></trkpt>
<trkpt lat="43.2638320000" lon="-1.0835320000"><ele>391</ele><time>2026-04-24T07:37:34Z</time></trkpt>
<trkpt lat="43.2638120000" lon="-1.0835470000"><ele>391</ele><time>2026-04-24T07:37:37Z</time></trkpt>
<trkpt lat="43.2637920000" lon="-1.0835550000"><ele>392</ele><time>2026-04-24T07:37:40Z</time></trkpt>
<trkpt lat="43.2637700000" lon="-1.0835550000"><ele>392</ele><time>2026-04-24T07:37:59Z</time></trkpt>
<trkpt lat="43.2637400000" lon="-1.0835670000"><ele>392</ele><time>2026-04-24T07:38:01Z</time></trkpt>
<trkpt lat="43.2637120000" lon="-1.0835900000"><ele>392</ele><time>2026-04-24T07:38:03Z</time></trkpt>
<trkpt lat="43.2636900000" lon="-1.0836100000"><ele>392</ele><time>2026-04-24T07:38:05Z</time></trkpt>
<trkpt lat="43.2636750000" lon="-1.0836300000"><ele>392</ele><time>2026-04-24T07:38:07Z</time></trkpt>
<trkpt lat="43.2636570000" lon="-1.0836470000"><ele>392</ele><time>2026-04-24T07:38:09Z</time></trkpt>
<trkpt lat="43.2636400000" lon="-1.0836670000"><ele>392</ele><time>2026-04-24T07:38:11Z</time></trkpt>
<trkpt lat="43.2636250000" lon="-1.0836870000"><ele>392</ele><time>2026-04-24T07:38:13Z</time></trkpt>
<trkpt lat="43.2636020000" lon="-1.0837020000"><ele>392</ele><time>2026-04-24T07:38:15Z</time></trkpt>
<trkpt lat="43.2635870000" lon="-1.0837200000"><ele>392</ele><time>2026-04-24T07:38:17Z</time></trkpt>
<trkpt lat="43.2635700000" lon="-1.0837320000"><ele>392</ele><time>2026-04-24T07:38:19Z</time></trkpt>
<trkpt lat="43.2635520000" lon="-1.0837520000"><ele>392</ele><time>2026-04-24T07:38:21Z</time></trkpt>
<trkpt lat="43.2635350000" lon="-1.0837720000"><ele>392</ele><time>2026-04-24T07:38:23Z</time></trkpt>
<trkpt lat="43.2635170000" lon="-1.0837870000"><ele>393</ele><time>2026-04-24T07:38:25Z</time></trkpt>
<trkpt lat="43.2634950000" lon="-1.0838030000"><ele>393</ele><time>2026-04-24T07:38:27Z</time></trkpt>
<trkpt lat="43.2634770000" lon="-1.0838220000"><ele>393</ele><time>2026-04-24T07:38:29Z</time></trkpt>
<trkpt lat="43.2634600000" lon="-1.0838350000"><ele>393</ele><time>2026-04-24T07:38:31Z</time></trkpt>
<trkpt lat="43.2634420000" lon="-1.0838570000"><ele>393</ele><time>2026-04-24T07:38:33Z</time></trkpt>
<trkpt lat="43.2634250000" lon="-1.0838720000"><ele>393</ele><time>2026-04-24T07:38:35Z</time></trkpt>
<trkpt lat="43.2634050000" lon="-1.0838870000"><ele>393</ele><time>2026-04-24T07:38:37Z</time></trkpt>
<trkpt lat="43.2633870000" lon="-1.0839100000"><ele>393</ele><time>2026-04-24T07:38:39Z</time></trkpt>
<trkpt lat="43.2633670000" lon="-1.0839300000"><ele>393</ele><time>2026-04-24T07:38:41Z</time></trkpt>
<trkpt lat="43.2633470000" lon="-1.0839520000"><ele>393</ele><time>2026-04-24T07:38:43Z</time></trkpt>
<trkpt lat="43.2633320000" lon="-1.0839770000"><ele>393</ele><time>2026-04-24T07:38:45Z</time></trkpt>
<trkpt lat="43.2633170000" lon="-1.0840050000"><ele>393</ele><time>2026-04-24T07:38:47Z</time></trkpt>
<trkpt lat="43.2633020000" lon="-1.0840270000"><ele>393</ele><time>2026-04-24T07:38:49Z</time></trkpt>
<trkpt lat="43.2632820000" lon="-1.0840450000"><ele>393</ele><time>2026-04-24T07:38:51Z</time></trkpt>
<trkpt lat="43.2632670000" lon="-1.0840650000"><ele>393</ele><time>2026-04-24T07:38:53Z</time></trkpt>
<trkpt lat="43.2632500000" lon="-1.0840850000"><ele>393</ele><time>2026-04-24T07:38:55Z</time></trkpt>
<trkpt lat="43.2632320000" lon="-1.0841070000"><ele>393</ele><time>2026-04-24T07:38:57Z</time></trkpt>
<trkpt lat="43.2632170000" lon="-1.0841270000"><ele>393</ele><time>2026-04-24T07:38:59Z</time></trkpt>
<trkpt lat="43.2632020000" lon="-1.0841570000"><ele>393</ele><time>2026-04-24T07:39:01Z</time></trkpt>
<trkpt lat="43.2631900000" lon="-1.0841820000"><ele>393</ele><time>2026-04-24T07:39:03Z</time></trkpt>
<trkpt lat="43.2631770000" lon="-1.0842050000"><ele>393</ele><time>2026-04-24T07:39:05Z</time></trkpt>
<trkpt lat="43.2631620000" lon="-1.0842250000"><ele>393</ele><time>2026-04-24T07:39:07Z</time></trkpt>
<trkpt lat="43.2631330000" lon="-1.0842370000"><ele>393</ele><time>2026-04-24T07:39:09Z</time></trkpt>
<trkpt lat="43.2631070000" lon="-1.0842480000"><ele>393</ele><time>2026-04-24T07:39:11Z</time></trkpt>
<trkpt lat="43.2630820000" lon="-1.0842570000"><ele>393</ele><time>2026-04-24T07:39:13Z</time></trkpt>
<trkpt lat="43.2630620000" lon="-1.0842670000"><ele>393</ele><time>2026-04-24T07:39:15Z</time></trkpt>
<trkpt lat="43.2630450000" lon="-1.0842920000"><ele>393</ele><time>2026-04-24T07:39:17Z</time></trkpt>
<trkpt lat="43.2630300000" lon="-1.0843150000"><ele>393</ele><time>2026-04-24T07:39:19Z</time></trkpt>
<trkpt lat="43.2630120000" lon="-1.0843370000"><ele>393</ele><time>2026-04-24T07:39:21Z</time></trkpt>
<trkpt lat="43.2629970000" lon="-1.0843570000"><ele>394</ele><time>2026-04-24T07:39:23Z</time></trkpt>
<trkpt lat="43.2629770000" lon="-1.0843750000"><ele>394</ele><time>2026-04-24T07:39:25Z</time></trkpt>
<trkpt lat="43.2629570000" lon="-1.0843950000"><ele>394</ele><time>2026-04-24T07:39:27Z</time></trkpt>
<trkpt lat="43.2629370000" lon="-1.0844070000"><ele>394</ele><time>2026-04-24T07:39:29Z</time></trkpt>
<trkpt lat="43.2629200000" lon="-1.0844270000"><ele>394</ele><time>2026-04-24T07:39:31Z</time></trkpt>
<trkpt lat="43.2629000000" lon="-1.0844420000"><ele>394</ele><time>2026-04-24T07:39:33Z</time></trkpt>
<trkpt lat="43.2628820000" lon="-1.0844620000"><ele>394</ele><time>2026-04-24T07:39:35Z</time></trkpt>
<trkpt lat="43.2628670000" lon="-1.0844870000"><ele>394</ele><time>2026-04-24T07:39:37Z</time></trkpt>
<trkpt lat="43.2628520000" lon="-1.0845070000"><ele>394</ele><time>2026-04-24T07:39:39Z</time></trkpt>
<trkpt lat="43.2628350000" lon="-1.0845320000"><ele>394</ele><time>2026-04-24T07:39:41Z</time></trkpt>
<trkpt lat="43.2628170000" lon="-1.0845550000"><ele>394</ele><time>2026-04-24T07:39:43Z</time></trkpt>
<trkpt lat="43.2628000000" lon="-1.0845770000"><ele>394</ele><time>2026-04-24T07:39:45Z</time></trkpt>
<trkpt lat="43.2627820000" lon="-1.0845970000"><ele>394</ele><time>2026-04-24T07:39:47Z</time></trkpt>
<trkpt lat="43.2627700000" lon="-1.0846220000"><ele>394</ele><time>2026-04-24T07:39:49Z</time></trkpt>
<trkpt lat="43.2627570000" lon="-1.0846470000"><ele>394</ele><time>2026-04-24T07:39:51Z</time></trkpt>
<trkpt lat="43.2627400000" lon="-1.0846770000"><ele>394</ele><time>2026-04-24T07:39:53Z</time></trkpt>
<trkpt lat="43.2627220000" lon="-1.0846970000"><ele>394</ele><time>2026-04-24T07:39:55Z</time></trkpt>
<trkpt lat="43.2627070000" lon="-1.0847200000"><ele>394</ele><time>2026-04-24T07:39:57Z</time></trkpt>
<trkpt lat="43.2626920000" lon="-1.0847420000"><ele>394</ele><time>2026-04-24T07:39:59Z</time></trkpt>
<trkpt lat="43.2626800000" lon="-1.0847650000"><ele>394</ele><time>2026-04-24T07:40:01Z</time></trkpt>
<trkpt lat="43.2626700000" lon="-1.0847880000"><ele>394</ele><time>2026-04-24T07:40:03Z</time></trkpt>
<trkpt lat="43.2626550000" lon="-1.0848170000"><ele>394</ele><time>2026-04-24T07:40:05Z</time></trkpt>
<trkpt lat="43.2626450000" lon="-1.0848420000"><ele>394</ele><time>2026-04-24T07:40:07Z</time></trkpt>
<trkpt lat="43.2626350000" lon="-1.0848720000"><ele>394</ele><time>2026-04-24T07:40:09Z</time></trkpt>
<trkpt lat="43.2626300000" lon="-1.0849020000"><ele>394</ele><time>2026-04-24T07:40:11Z</time></trkpt>
<trkpt lat="43.2626250000" lon="-1.0849370000"><ele>394</ele><time>2026-04-24T07:40:13Z</time></trkpt>
<trkpt lat="43.2626170000" lon="-1.0849670000"><ele>394</ele><time>2026-04-24T07:40:15Z</time></trkpt>
<trkpt lat="43.2626020000" lon="-1.0849950000"><ele>395</ele><time>2026-04-24T07:40:17Z</time></trkpt>
<trkpt lat="43.2625870000" lon="-1.0850170000"><ele>395</ele><time>2026-04-24T07:40:19Z</time></trkpt>
<trkpt lat="43.2625720000" lon="-1.0850370000"><ele>395</ele><time>2026-04-24T07:40:21Z</time></trkpt>
<trkpt lat="43.2625620000" lon="-1.0850620000"><ele>395</ele><time>2026-04-24T07:40:23Z</time></trkpt>
<trkpt lat="43.2625470000" lon="-1.0850870000"><ele>395</ele><time>2026-04-24T07:40:25Z</time></trkpt>
<trkpt lat="43.2625370000" lon="-1.0851120000"><ele>395</ele><time>2026-04-24T07:40:27Z</time></trkpt>
<trkpt lat="43.2625270000" lon="-1.0851320000"><ele>396</ele><time>2026-04-24T07:40:29Z</time></trkpt>
<trkpt lat="43.2625150000" lon="-1.0851570000"><ele>396</ele><time>2026-04-24T07:40:31Z</time></trkpt>
<trkpt lat="43.2624970000" lon="-1.0851820000"><ele>396</ele><time>2026-04-24T07:40:33Z</time></trkpt>
<trkpt lat="43.2624820000" lon="-1.0852170000"><ele>395</ele><time>2026-04-24T07:40:35Z</time></trkpt>
<trkpt lat="43.2624670000" lon="-1.0852470000"><ele>396</ele><time>2026-04-24T07:40:37Z</time></trkpt>
<trkpt lat="43.2624520000" lon="-1.0852820000"><ele>396</ele><time>2026-04-24T07:40:39Z</time></trkpt>
<trkpt lat="43.2624370000" lon="-1.0853070000"><ele>396</ele><time>2026-04-24T07:40:41Z</time></trkpt>
<trkpt lat="43.2624270000" lon="-1.0853280000"><ele>396</ele><time>2026-04-24T07:40:43Z</time></trkpt>
<trkpt lat="43.2624150000" lon="-1.0853600000"><ele>396</ele><time>2026-04-24T07:40:46Z</time></trkpt>
<trkpt lat="43.2624070000" lon="-1.0853820000"><ele>396</ele><time>2026-04-24T07:40:48Z</time></trkpt>
<trkpt lat="43.2623870000" lon="-1.0854070000"><ele>396</ele><time>2026-04-24T07:40:51Z</time></trkpt>
<trkpt lat="43.2623670000" lon="-1.0854220000"><ele>396</ele><time>2026-04-24T07:40:55Z</time></trkpt>
<trkpt lat="43.2623470000" lon="-1.0854070000"><ele>396</ele><time>2026-04-24T07:40:58Z</time></trkpt>
<trkpt lat="43.2623250000" lon="-1.0853950000"><ele>396</ele><time>2026-04-24T07:41:01Z</time></trkpt>
<trkpt lat="43.2623070000" lon="-1.0853920000"><ele>396</ele><time>2026-04-24T07:41:04Z</time></trkpt>
<trkpt lat="43.2623220000" lon="-1.0854220000"><ele>397</ele><time>2026-04-24T07:41:43Z</time></trkpt>
<trkpt lat="43.2623300000" lon="-1.0854630000"><ele>397</ele><time>2026-04-24T07:41:45Z</time></trkpt>
<trkpt lat="43.2623250000" lon="-1.0854900000"><ele>397</ele><time>2026-04-24T07:41:46Z</time></trkpt>
<trkpt lat="43.2623070000" lon="-1.0855300000"><ele>396</ele><time>2026-04-24T07:41:48Z</time></trkpt>
<trkpt lat="43.2622870000" lon="-1.0855620000"><ele>396</ele><time>2026-04-24T07:41:50Z</time></trkpt>
<trkpt lat="43.2622750000" lon="-1.0855920000"><ele>397</ele><time>2026-04-24T07:41:52Z</time></trkpt>
<trkpt lat="43.2622600000" lon="-1.0856120000"><ele>397</ele><time>2026-04-24T07:41:54Z</time></trkpt>
<trkpt lat="43.2622470000" lon="-1.0856370000"><ele>397</ele><time>2026-04-24T07:42:12Z</time></trkpt>
<trkpt lat="43.2622370000" lon="-1.0856670000"><ele>397</ele><time>2026-04-24T07:42:15Z</time></trkpt>
<trkpt lat="43.2622220000" lon="-1.0856950000"><ele>397</ele><time>2026-04-24T07:42:17Z</time></trkpt>
<trkpt lat="43.2622070000" lon="-1.0857150000"><ele>397</ele><time>2026-04-24T07:42:19Z</time></trkpt>
<trkpt lat="43.2621900000" lon="-1.0857320000"><ele>397</ele><time>2026-04-24T07:42:21Z</time></trkpt>
<trkpt lat="43.2621720000" lon="-1.0857500000"><ele>397</ele><time>2026-04-24T07:42:23Z</time></trkpt>
<trkpt lat="43.2621550000" lon="-1.0857700000"><ele>397</ele><time>2026-04-24T07:42:25Z</time></trkpt>
<trkpt lat="43.2621370000" lon="-1.0857870000"><ele>397</ele><time>2026-04-24T07:42:27Z</time></trkpt>
<trkpt lat="43.2621220000" lon="-1.0858100000"><ele>397</ele><time>2026-04-24T07:42:29Z</time></trkpt>
<trkpt lat="43.2621070000" lon="-1.0858370000"><ele>397</ele><time>2026-04-24T07:42:31Z</time></trkpt>
<trkpt lat="43.2620920000" lon="-1.0858620000"><ele>397</ele><time>2026-04-24T07:42:33Z</time></trkpt>
<trkpt lat="43.2620780000" lon="-1.0858870000"><ele>397</ele><time>2026-04-24T07:42:35Z</time></trkpt>
<trkpt lat="43.2620620000" lon="-1.0859120000"><ele>397</ele><time>2026-04-24T07:42:37Z</time></trkpt>
<trkpt lat="43.2620450000" lon="-1.0859370000"><ele>397</ele><time>2026-04-24T07:42:39Z</time></trkpt>
<trkpt lat="43.2620300000" lon="-1.0859600000"><ele>397</ele><time>2026-04-24T07:42:41Z</time></trkpt>
<trkpt lat="43.2620170000" lon="-1.0859820000"><ele>397</ele><time>2026-04-24T07:42:43Z</time></trkpt>
<trkpt lat="43.2620020000" lon="-1.0860100000"><ele>397</ele><time>2026-04-24T07:42:45Z</time></trkpt>
<trkpt lat="43.2619920000" lon="-1.0860370000"><ele>397</ele><time>2026-04-24T07:42:47Z</time></trkpt>
<trkpt lat="43.2619820000" lon="-1.0860670000"><ele>397</ele><time>2026-04-24T07:42:49Z</time></trkpt>
<trkpt lat="43.2619770000" lon="-1.0860970000"><ele>397</ele><time>2026-04-24T07:42:51Z</time></trkpt>
<trkpt lat="43.2619670000" lon="-1.0861250000"><ele>397</ele><time>2026-04-24T07:42:53Z</time></trkpt>
<trkpt lat="43.2619570000" lon="-1.0861500000"><ele>398</ele><time>2026-04-24T07:42:55Z</time></trkpt>
<trkpt lat="43.2619450000" lon="-1.0861770000"><ele>398</ele><time>2026-04-24T07:42:57Z</time></trkpt>
<trkpt lat="43.2619270000" lon="-1.0862020000"><ele>398</ele><time>2026-04-24T07:42:59Z</time></trkpt>
<trkpt lat="43.2619120000" lon="-1.0862250000"><ele>397</ele><time>2026-04-24T07:43:01Z</time></trkpt>
<trkpt lat="43.2619000000" lon="-1.0862500000"><ele>398</ele><time>2026-04-24T07:43:03Z</time></trkpt>
<trkpt lat="43.2618870000" lon="-1.0862770000"><ele>398</ele><time>2026-04-24T07:43:05Z</time></trkpt>
<trkpt lat="43.2618770000" lon="-1.0863050000"><ele>398</ele><time>2026-04-24T07:43:07Z</time></trkpt>
<trkpt lat="43.2618670000" lon="-1.0863320000"><ele>398</ele><time>2026-04-24T07:43:09Z</time></trkpt>
<trkpt lat="43.2618600000" lon="-1.0863620000"><ele>398</ele><time>2026-04-24T07:43:11Z</time></trkpt>
<trkpt lat="43.2618500000" lon="-1.0863900000"><ele>398</ele><time>2026-04-24T07:43:13Z</time></trkpt>
<trkpt lat="43.2618370000" lon="-1.0864120000"><ele>398</ele><time>2026-04-24T07:43:15Z</time></trkpt>
<trkpt lat="43.2618300000" lon="-1.0864370000"><ele>398</ele><time>2026-04-24T07:43:17Z</time></trkpt>
<trkpt lat="43.2618220000" lon="-1.0864650000"><ele>398</ele><time>2026-04-24T07:43:19Z</time></trkpt>
<trkpt lat="43.2618120000" lon="-1.0864920000"><ele>398</ele><time>2026-04-24T07:43:21Z</time></trkpt>
<trkpt lat="43.2618020000" lon="-1.0865200000"><ele>398</ele><time>2026-04-24T07:43:23Z</time></trkpt>
<trkpt lat="43.2617920000" lon="-1.0865450000"><ele>398</ele><time>2026-04-24T07:43:25Z</time></trkpt>
<trkpt lat="43.2617820000" lon="-1.0865700000"><ele>398</ele><time>2026-04-24T07:43:27Z</time></trkpt>
<trkpt lat="43.2617720000" lon="-1.0865970000"><ele>398</ele><time>2026-04-24T07:43:29Z</time></trkpt>
<trkpt lat="43.2617650000" lon="-1.0866220000"><ele>397</ele><time>2026-04-24T07:43:31Z</time></trkpt>
<trkpt lat="43.2617570000" lon="-1.0866470000"><ele>397</ele><time>2026-04-24T07:43:33Z</time></trkpt>
<trkpt lat="43.2617470000" lon="-1.0866750000"><ele>398</ele><time>2026-04-24T07:43:35Z</time></trkpt>
<trkpt lat="43.2617370000" lon="-1.0867020000"><ele>398</ele><time>2026-04-24T07:43:37Z</time></trkpt>
<trkpt lat="43.2617270000" lon="-1.0867300000"><ele>398</ele><time>2026-04-24T07:43:39Z</time></trkpt>
<trkpt lat="43.2617200000" lon="-1.0867570000"><ele>398</ele><time>2026-04-24T07:43:41Z</time></trkpt>
<trkpt lat="43.2617100000" lon="-1.0867870000"><ele>398</ele><time>2026-04-24T07:43:43Z</time></trkpt>
<trkpt lat="43.2617020000" lon="-1.0868150000"><ele>398</ele><time>2026-04-24T07:43:45Z</time></trkpt>
<trkpt lat="43.2616920000" lon="-1.0868420000"><ele>398</ele><time>2026-04-24T07:43:47Z</time></trkpt>
<trkpt lat="43.2616820000" lon="-1.0868700000"><ele>397</ele><time>2026-04-24T07:43:49Z</time></trkpt>
<trkpt lat="43.2616720000" lon="-1.0868970000"><ele>397</ele><time>2026-04-24T07:43:51Z</time></trkpt>
<trkpt lat="43.2616650000" lon="-1.0869220000"><ele>397</ele><time>2026-04-24T07:43:53Z</time></trkpt>
<trkpt lat="43.2616570000" lon="-1.0869520000"><ele>397</ele><time>2026-04-24T07:43:55Z</time></trkpt>
<trkpt lat="43.2616520000" lon="-1.0869820000"><ele>397</ele><time>2026-04-24T07:43:57Z</time></trkpt>
<trkpt lat="43.2616470000" lon="-1.0870100000"><ele>397</ele><time>2026-04-24T07:43:59Z</time></trkpt>
<trkpt lat="43.2616420000" lon="-1.0870370000"><ele>397</ele><time>2026-04-24T07:44:01Z</time></trkpt>
<trkpt lat="43.2616320000" lon="-1.0870670000"><ele>397</ele><time>2026-04-24T07:44:03Z</time></trkpt>
<trkpt lat="43.2616270000" lon="-1.0870950000"><ele>397</ele><time>2026-04-24T07:44:05Z</time></trkpt>
<trkpt lat="43.2616220000" lon="-1.0871230000"><ele>397</ele><time>2026-04-24T07:44:07Z</time></trkpt>
<trkpt lat="43.2616150000" lon="-1.0871520000"><ele>397</ele><time>2026-04-24T07:44:09Z</time></trkpt>
<trkpt lat="43.2616000000" lon="-1.0871820000"><ele>397</ele><time>2026-04-24T07:44:11Z</time></trkpt>
<trkpt lat="43.2615800000" lon="-1.0872020000"><ele>397</ele><time>2026-04-24T07:44:17Z</time></trkpt>
<trkpt lat="43.2615720000" lon="-1.0872350000"><ele>397</ele><time>2026-04-24T07:44:19Z</time></trkpt>
<trkpt lat="43.2615670000" lon="-1.0872670000"><ele>397</ele><time>2026-04-24T07:44:21Z</time></trkpt>
<trkpt lat="43.2615600000" lon="-1.0872980000"><ele>397</ele><time>2026-04-24T07:44:23Z</time></trkpt>
<trkpt lat="43.2615550000" lon="-1.0873300000"><ele>397</ele><time>2026-04-24T07:44:25Z</time></trkpt>
<trkpt lat="43.2615520000" lon="-1.0873620000"><ele>397</ele><time>2026-04-24T07:44:27Z</time></trkpt>
<trkpt lat="43.2615470000" lon="-1.0873870000"><ele>397</ele><time>2026-04-24T07:44:29Z</time></trkpt>
<trkpt lat="43.2615430000" lon="-1.0874170000"><ele>396</ele><time>2026-04-24T07:44:31Z</time></trkpt>
<trkpt lat="43.2615400000" lon="-1.0874470000"><ele>396</ele><time>2026-04-24T07:44:33Z</time></trkpt>
<trkpt lat="43.2615370000" lon="-1.0874770000"><ele>396</ele><time>2026-04-24T07:44:35Z</time></trkpt>
<trkpt lat="43.2615420000" lon="-1.0875070000"><ele>396</ele><time>2026-04-24T07:44:38Z</time></trkpt>
<trkpt lat="43.2615370000" lon="-1.0875470000"><ele>395</ele><time>2026-04-24T07:45:10Z</time></trkpt>
<trkpt lat="43.2615370000" lon="-1.0875870000"><ele>395</ele><time>2026-04-24T07:45:12Z</time></trkpt>
<trkpt lat="43.2615370000" lon="-1.0876250000"><ele>395</ele><time>2026-04-24T07:45:14Z</time></trkpt>
<trkpt lat="43.2615370000" lon="-1.0876520000"><ele>395</ele><time>2026-04-24T07:45:16Z</time></trkpt>
<trkpt lat="43.2615320000" lon="-1.0876800000"><ele>395</ele><time>2026-04-24T07:45:18Z</time></trkpt>
<trkpt lat="43.2615220000" lon="-1.0877020000"><ele>395</ele><time>2026-04-24T07:45:20Z</time></trkpt>
<trkpt lat="43.2615120000" lon="-1.0877270000"><ele>395</ele><time>2026-04-24T07:45:22Z</time></trkpt>
<trkpt lat="43.2614970000" lon="-1.0877550000"><ele>394</ele><time>2026-04-24T07:45:24Z</time></trkpt>
<trkpt lat="43.2614850000" lon="-1.0877820000"><ele>394</ele><time>2026-04-24T07:45:26Z</time></trkpt>
<trkpt lat="43.2614720000" lon="-1.0878070000"><ele>394</ele><time>2026-04-24T07:45:28Z</time></trkpt>
<trkpt lat="43.2614620000" lon="-1.0878320000"><ele>394</ele><time>2026-04-24T07:45:30Z</time></trkpt>
<trkpt lat="43.2614550000" lon="-1.0878570000"><ele>394</ele><time>2026-04-24T07:45:32Z</time></trkpt>
<trkpt lat="43.2614420000" lon="-1.0878770000"><ele>394</ele><time>2026-04-24T07:45:34Z</time></trkpt>
<trkpt lat="43.2614170000" lon="-1.0878920000"><ele>393</ele><time>2026-04-24T07:45:36Z</time></trkpt>
<trkpt lat="43.2614000000" lon="-1.0879100000"><ele>393</ele><time>2026-04-24T07:45:38Z</time></trkpt>
<trkpt lat="43.2613850000" lon="-1.0879300000"><ele>393</ele><time>2026-04-24T07:45:40Z</time></trkpt>
<trkpt lat="43.2613720000" lon="-1.0879520000"><ele>393</ele><time>2026-04-24T07:45:42Z</time></trkpt>
<trkpt lat="43.2613620000" lon="-1.0879720000"><ele>393</ele><time>2026-04-24T07:45:44Z</time></trkpt>
<trkpt lat="43.2613520000" lon="-1.0879970000"><ele>392</ele><time>2026-04-24T07:45:46Z</time></trkpt>
<trkpt lat="43.2613400000" lon="-1.0880270000"><ele>392</ele><time>2026-04-24T07:45:49Z</time></trkpt>
<trkpt lat="43.2613250000" lon="-1.0880550000"><ele>391</ele><time>2026-04-24T07:45:52Z</time></trkpt>
<trkpt lat="43.2613120000" lon="-1.0880720000"><ele>391</ele><time>2026-04-24T07:45:54Z</time></trkpt>
<trkpt lat="43.2612920000" lon="-1.0880970000"><ele>391</ele><time>2026-04-24T07:45:57Z</time></trkpt>
<trkpt lat="43.2612770000" lon="-1.0881200000"><ele>390</ele><time>2026-04-24T07:45:59Z</time></trkpt>
<trkpt lat="43.2612650000" lon="-1.0881420000"><ele>390</ele><time>2026-04-24T07:46:01Z</time></trkpt>
<trkpt lat="43.2612480000" lon="-1.0881620000"><ele>390</ele><time>2026-04-24T07:46:03Z</time></trkpt>
<trkpt lat="43.2612350000" lon="-1.0881820000"><ele>389</ele><time>2026-04-24T07:46:05Z</time></trkpt>
<trkpt lat="43.2612200000" lon="-1.0882020000"><ele>389</ele><time>2026-04-24T07:46:07Z</time></trkpt>
<trkpt lat="43.2612070000" lon="-1.0882200000"><ele>388</ele><time>2026-04-24T07:46:09Z</time></trkpt>
<trkpt lat="43.2611920000" lon="-1.0882420000"><ele>388</ele><time>2026-04-24T07:46:17Z</time></trkpt>
<trkpt lat="43.2611750000" lon="-1.0882650000"><ele>387</ele><time>2026-04-24T07:46:19Z</time></trkpt>
<trkpt lat="43.2611600000" lon="-1.0882870000"><ele>387</ele><time>2026-04-24T07:46:21Z</time></trkpt>
<trkpt lat="43.2611420000" lon="-1.0883120000"><ele>387</ele><time>2026-04-24T07:46:23Z</time></trkpt>
<trkpt lat="43.2611300000" lon="-1.0883300000"><ele>387</ele><time>2026-04-24T07:46:25Z</time></trkpt>
<trkpt lat="43.2611170000" lon="-1.0883500000"><ele>387</ele><time>2026-04-24T07:46:27Z</time></trkpt>
<trkpt lat="43.2611020000" lon="-1.0883670000"><ele>386</ele><time>2026-04-24T07:46:29Z</time></trkpt>
<trkpt lat="43.2610850000" lon="-1.0883870000"><ele>386</ele><time>2026-04-24T07:46:31Z</time></trkpt>
<trkpt lat="43.2610700000" lon="-1.0884020000"><ele>386</ele><time>2026-04-24T07:46:33Z</time></trkpt>
<trkpt lat="43.2610550000" lon="-1.0884170000"><ele>385</ele><time>2026-04-24T07:46:35Z</time></trkpt>
<trkpt lat="43.2610420000" lon="-1.0884370000"><ele>385</ele><time>2026-04-24T07:46:37Z</time></trkpt>
<trkpt lat="43.2610270000" lon="-1.0884570000"><ele>384</ele><time>2026-04-24T07:46:39Z</time></trkpt>
<trkpt lat="43.2610120000" lon="-1.0884820000"><ele>384</ele><time>2026-04-24T07:46:42Z</time></trkpt>
<trkpt lat="43.2609970000" lon="-1.0884970000"><ele>383</ele><time>2026-04-24T07:46:44Z</time></trkpt>
<trkpt lat="43.2609820000" lon="-1.0885130000"><ele>383</ele><time>2026-04-24T07:46:46Z</time></trkpt>
<trkpt lat="43.2609620000" lon="-1.0885250000"><ele>383</ele><time>2026-04-24T07:46:48Z</time></trkpt>
<trkpt lat="43.2609370000" lon="-1.0885320000"><ele>382</ele><time>2026-04-24T07:46:50Z</time></trkpt>
<trkpt lat="43.2609170000" lon="-1.0885420000"><ele>382</ele><time>2026-04-24T07:46:52Z</time></trkpt>
<trkpt lat="43.2609000000" lon="-1.0885600000"><ele>381</ele><time>2026-04-24T07:46:54Z</time></trkpt>
<trkpt lat="43.2608820000" lon="-1.0885770000"><ele>381</ele><time>2026-04-24T07:46:56Z</time></trkpt>
<trkpt lat="43.2608670000" lon="-1.0885920000"><ele>380</ele><time>2026-04-24T07:46:58Z</time></trkpt>
<trkpt lat="43.2608520000" lon="-1.0886070000"><ele>380</ele><time>2026-04-24T07:47:00Z</time></trkpt>
<trkpt lat="43.2608350000" lon="-1.0886220000"><ele>380</ele><time>2026-04-24T07:47:02Z</time></trkpt>
<trkpt lat="43.2608170000" lon="-1.0886370000"><ele>379</ele><time>2026-04-24T07:47:04Z</time></trkpt>
<trkpt lat="43.2608020000" lon="-1.0886570000"><ele>379</ele><time>2026-04-24T07:47:06Z</time></trkpt>
<trkpt lat="43.2607830000" lon="-1.0886820000"><ele>378</ele><time>2026-04-24T07:47:09Z</time></trkpt>
<trkpt lat="43.2607700000" lon="-1.0887000000"><ele>378</ele><time>2026-04-24T07:47:11Z</time></trkpt>
<trkpt lat="43.2607470000" lon="-1.0887200000"><ele>378</ele><time>2026-04-24T07:47:14Z</time></trkpt>
<trkpt lat="43.2607270000" lon="-1.0887370000"><ele>377</ele><time>2026-04-24T07:47:16Z</time></trkpt>
<trkpt lat="43.2607070000" lon="-1.0887520000"><ele>377</ele><time>2026-04-24T07:47:18Z</time></trkpt>
<trkpt lat="43.2606900000" lon="-1.0887650000"><ele>377</ele><time>2026-04-24T07:47:20Z</time></trkpt>
<trkpt lat="43.2606750000" lon="-1.0887820000"><ele>376</ele><time>2026-04-24T07:47:22Z</time></trkpt>
<trkpt lat="43.2606570000" lon="-1.0887950000"><ele>376</ele><time>2026-04-24T07:47:24Z</time></trkpt>
<trkpt lat="43.2606370000" lon="-1.0888100000"><ele>375</ele><time>2026-04-24T07:47:26Z</time></trkpt>
<trkpt lat="43.2606200000" lon="-1.0888320000"><ele>374</ele><time>2026-04-24T07:47:48Z</time></trkpt>
<trkpt lat="43.2606000000" lon="-1.0888520000"><ele>374</ele><time>2026-04-24T07:47:50Z</time></trkpt>
<trkpt lat="43.2605850000" lon="-1.0888720000"><ele>373</ele><time>2026-04-24T07:47:52Z</time></trkpt>
<trkpt lat="43.2605720000" lon="-1.0888970000"><ele>373</ele><time>2026-04-24T07:47:55Z</time></trkpt>
<trkpt lat="43.2605500000" lon="-1.0889150000"><ele>373</ele><time>2026-04-24T07:47:59Z</time></trkpt>
<trkpt lat="43.2605270000" lon="-1.0889220000"><ele>372</ele><time>2026-04-24T07:48:02Z</time></trkpt>
<trkpt lat="43.2605050000" lon="-1.0889320000"><ele>372</ele><time>2026-04-24T07:48:06Z</time></trkpt>
<trkpt lat="43.2604880000" lon="-1.0889470000"><ele>371</ele><time>2026-04-24T07:48:08Z</time></trkpt>
<trkpt lat="43.2604770000" lon="-1.0889670000"><ele>371</ele><time>2026-04-24T07:48:10Z</time></trkpt>
<trkpt lat="43.2604570000" lon="-1.0889900000"><ele>370</ele><time>2026-04-24T07:48:13Z</time></trkpt>
<trkpt lat="43.2604420000" lon="-1.0890150000"><ele>370</ele><time>2026-04-24T07:48:16Z</time></trkpt>
<trkpt lat="43.2604220000" lon="-1.0890370000"><ele>369</ele><time>2026-04-24T07:48:19Z</time></trkpt>
<trkpt lat="43.2604070000" lon="-1.0890520000"><ele>369</ele><time>2026-04-24T07:48:21Z</time></trkpt>
<trkpt lat="43.2603870000" lon="-1.0890770000"><ele>368</ele><time>2026-04-24T07:48:24Z</time></trkpt>
<trkpt lat="43.2603700000" lon="-1.0890970000"><ele>368</ele><time>2026-04-24T07:48:27Z</time></trkpt>
<trkpt lat="43.2603570000" lon="-1.0891170000"><ele>367</ele><time>2026-04-24T07:48:29Z</time></trkpt>
<trkpt lat="43.2603420000" lon="-1.0891320000"><ele>367</ele><time>2026-04-24T07:48:31Z</time></trkpt>
<trkpt lat="43.2603220000" lon="-1.0891550000"><ele>366</ele><time>2026-04-24T07:48:34Z</time></trkpt>
<trkpt lat="43.2603070000" lon="-1.0891670000"><ele>366</ele><time>2026-04-24T07:48:36Z</time></trkpt>
<trkpt lat="43.2602870000" lon="-1.0891900000"><ele>365</ele><time>2026-04-24T07:48:39Z</time></trkpt>
<trkpt lat="43.2602670000" lon="-1.0892120000"><ele>365</ele><time>2026-04-24T07:48:42Z</time></trkpt>
<trkpt lat="43.2602470000" lon="-1.0892270000"><ele>364</ele><time>2026-04-24T07:48:44Z</time></trkpt>
<trkpt lat="43.2602350000" lon="-1.0892450000"><ele>364</ele><time>2026-04-24T07:48:46Z</time></trkpt>
<trkpt lat="43.2602120000" lon="-1.0892620000"><ele>363</ele><time>2026-04-24T07:48:49Z</time></trkpt>
<trkpt lat="43.2601950000" lon="-1.0892770000"><ele>363</ele><time>2026-04-24T07:48:51Z</time></trkpt>
<trkpt lat="43.2601750000" lon="-1.0893020000"><ele>362</ele><time>2026-04-24T07:48:54Z</time></trkpt>
<trkpt lat="43.2601520000" lon="-1.0893220000"><ele>361</ele><time>2026-04-24T07:48:57Z</time></trkpt>
<trkpt lat="43.2601370000" lon="-1.0893370000"><ele>361</ele><time>2026-04-24T07:48:59Z</time></trkpt>
<trkpt lat="43.2601220000" lon="-1.0893570000"><ele>358</ele><time>2026-04-24T07:49:15Z</time></trkpt>
<trkpt lat="43.2601070000" lon="-1.0893750000"><ele>358</ele><time>2026-04-24T07:49:17Z</time></trkpt>
<trkpt lat="43.2600870000" lon="-1.0893900000"><ele>358</ele><time>2026-04-24T07:49:19Z</time></trkpt>
<trkpt lat="43.2600720000" lon="-1.0894100000"><ele>358</ele><time>2026-04-24T07:49:22Z</time></trkpt>
<trkpt lat="43.2600550000" lon="-1.0894320000"><ele>357</ele><time>2026-04-24T07:49:26Z</time></trkpt>
<trkpt lat="43.2600370000" lon="-1.0894500000"><ele>356</ele><time>2026-04-24T07:49:30Z</time></trkpt>
<trkpt lat="43.2600200000" lon="-1.0894670000"><ele>356</ele><time>2026-04-24T07:49:33Z</time></trkpt>
<trkpt lat="43.2600020000" lon="-1.0894820000"><ele>355</ele><time>2026-04-24T07:49:37Z</time></trkpt>
<trkpt lat="43.2599870000" lon="-1.0894970000"><ele>355</ele><time>2026-04-24T07:49:40Z</time></trkpt>
<trkpt lat="43.2599670000" lon="-1.0895170000"><ele>354</ele><time>2026-04-24T07:49:43Z</time></trkpt>
<trkpt lat="43.2599450000" lon="-1.0895320000"><ele>354</ele><time>2026-04-24T07:49:46Z</time></trkpt>
<trkpt lat="43.2599220000" lon="-1.0895520000"><ele>353</ele><time>2026-04-24T07:49:49Z</time></trkpt>
<trkpt lat="43.2599070000" lon="-1.0895670000"><ele>353</ele><time>2026-04-24T07:49:51Z</time></trkpt>
<trkpt lat="43.2598870000" lon="-1.0895870000"><ele>352</ele><time>2026-04-24T07:49:54Z</time></trkpt>
<trkpt lat="43.2598670000" lon="-1.0895920000"><ele>352</ele><time>2026-04-24T07:49:56Z</time></trkpt>
<trkpt lat="43.2598470000" lon="-1.0896000000"><ele>351</ele><time>2026-04-24T07:49:58Z</time></trkpt>
<trkpt lat="43.2598250000" lon="-1.0896120000"><ele>350</ele><time>2026-04-24T07:50:01Z</time></trkpt>
<trkpt lat="43.2598020000" lon="-1.0896370000"><ele>349</ele><time>2026-04-24T07:50:04Z</time></trkpt>
<trkpt lat="43.2597850000" lon="-1.0896620000"><ele>349</ele><time>2026-04-24T07:50:07Z</time></trkpt>
<trkpt lat="43.2597670000" lon="-1.0896730000"><ele>348</ele><time>2026-04-24T07:50:09Z</time></trkpt>
<trkpt lat="43.2597450000" lon="-1.0896870000"><ele>347</ele><time>2026-04-24T07:50:12Z</time></trkpt>
<trkpt lat="43.2597270000" lon="-1.0896970000"><ele>347</ele><time>2026-04-24T07:50:14Z</time></trkpt>
<trkpt lat="43.2597120000" lon="-1.0897150000"><ele>346</ele><time>2026-04-24T07:50:16Z</time></trkpt>
<trkpt lat="43.2596950000" lon="-1.0897320000"><ele>346</ele><time>2026-04-24T07:50:18Z</time></trkpt>
<trkpt lat="43.2596770000" lon="-1.0897450000"><ele>345</ele><time>2026-04-24T07:50:20Z</time></trkpt>
<trkpt lat="43.2596520000" lon="-1.0897620000"><ele>345</ele><time>2026-04-24T07:50:23Z</time></trkpt>
<trkpt lat="43.2596350000" lon="-1.0897770000"><ele>344</ele><time>2026-04-24T07:50:25Z</time></trkpt>
<trkpt lat="43.2596100000" lon="-1.0897920000"><ele>344</ele><time>2026-04-24T07:50:28Z</time></trkpt>
<trkpt lat="43.2595920000" lon="-1.0898050000"><ele>343</ele><time>2026-04-24T07:50:30Z</time></trkpt>
<trkpt lat="43.2595720000" lon="-1.0898170000"><ele>343</ele><time>2026-04-24T07:50:32Z</time></trkpt>
<trkpt lat="43.2595470000" lon="-1.0898320000"><ele>342</ele><time>2026-04-24T07:50:35Z</time></trkpt>
<trkpt lat="43.2595270000" lon="-1.0898400000"><ele>342</ele><time>2026-04-24T07:50:37Z</time></trkpt>
<trkpt lat="43.2595020000" lon="-1.0898470000"><ele>342</ele><time>2026-04-24T07:50:39Z</time></trkpt>
<trkpt lat="43.2594800000" lon="-1.0898550000"><ele>341</ele><time>2026-04-24T07:50:41Z</time></trkpt>
<trkpt lat="43.2594600000" lon="-1.0898670000"><ele>341</ele><time>2026-04-24T07:50:43Z</time></trkpt>
<trkpt lat="43.2594420000" lon="-1.0898820000"><ele>341</ele><time>2026-04-24T07:50:45Z</time></trkpt>
<trkpt lat="43.2594250000" lon="-1.0898950000"><ele>340</ele><time>2026-04-24T07:50:47Z</time></trkpt>
<trkpt lat="43.2594070000" lon="-1.0899070000"><ele>340</ele><time>2026-04-24T07:50:49Z</time></trkpt>
<trkpt lat="43.2593870000" lon="-1.0899220000"><ele>340</ele><time>2026-04-24T07:50:51Z</time></trkpt>
<trkpt lat="43.2593700000" lon="-1.0899320000"><ele>340</ele><time>2026-04-24T07:50:53Z</time></trkpt>
<trkpt lat="43.2593520000" lon="-1.0899430000"><ele>339</ele><time>2026-04-24T07:50:55Z</time></trkpt>
<trkpt lat="43.2593300000" lon="-1.0899570000"><ele>339</ele><time>2026-04-24T07:50:57Z</time></trkpt>
<trkpt lat="43.2593070000" lon="-1.0899720000"><ele>339</ele><time>2026-04-24T07:50:59Z</time></trkpt>
<trkpt lat="43.2592870000" lon="-1.0899870000"><ele>339</ele><time>2026-04-24T07:51:01Z</time></trkpt>
<trkpt lat="43.2592700000" lon="-1.0900020000"><ele>338</ele><time>2026-04-24T07:51:03Z</time></trkpt>
<trkpt lat="43.2592520000" lon="-1.0900200000"><ele>338</ele><time>2026-04-24T07:51:05Z</time></trkpt>
<trkpt lat="43.2592400000" lon="-1.0900450000"><ele>338</ele><time>2026-04-24T07:51:07Z</time></trkpt>
<trkpt lat="43.2592270000" lon="-1.0900620000"><ele>338</ele><time>2026-04-24T07:51:09Z</time></trkpt>
<trkpt lat="43.2592120000" lon="-1.0900820000"><ele>338</ele><time>2026-04-24T07:51:11Z</time></trkpt>
<trkpt lat="43.2591920000" lon="-1.0901000000"><ele>337</ele><time>2026-04-24T07:51:13Z</time></trkpt>
<trkpt lat="43.2591800000" lon="-1.0901170000"><ele>337</ele><time>2026-04-24T07:51:15Z</time></trkpt>
<trkpt lat="43.2591650000" lon="-1.0901350000"><ele>337</ele><time>2026-04-24T07:51:17Z</time></trkpt>
<trkpt lat="43.2591470000" lon="-1.0901520000"><ele>337</ele><time>2026-04-24T07:51:19Z</time></trkpt>
<trkpt lat="43.2591300000" lon="-1.0901700000"><ele>336</ele><time>2026-04-24T07:51:21Z</time></trkpt>
<trkpt lat="43.2591170000" lon="-1.0901920000"><ele>336</ele><time>2026-04-24T07:51:23Z</time></trkpt>
<trkpt lat="43.2591000000" lon="-1.0902120000"><ele>335</ele><time>2026-04-24T07:51:25Z</time></trkpt>
<trkpt lat="43.2590850000" lon="-1.0902320000"><ele>335</ele><time>2026-04-24T07:51:27Z</time></trkpt>
<trkpt lat="43.2590650000" lon="-1.0902520000"><ele>335</ele><time>2026-04-24T07:51:29Z</time></trkpt>
<trkpt lat="43.2590470000" lon="-1.0902670000"><ele>335</ele><time>2026-04-24T07:51:31Z</time></trkpt>
<trkpt lat="43.2590320000" lon="-1.0902870000"><ele>334</ele><time>2026-04-24T07:51:33Z</time></trkpt>
<trkpt lat="43.2590150000" lon="-1.0902970000"><ele>334</ele><time>2026-04-24T07:51:42Z</time></trkpt>
<trkpt lat="43.2589920000" lon="-1.0903220000"><ele>334</ele><time>2026-04-24T07:51:45Z</time></trkpt>
<trkpt lat="43.2589680000" lon="-1.0903450000"><ele>333</ele><time>2026-04-24T07:51:47Z</time></trkpt>
<trkpt lat="43.2589520000" lon="-1.0903670000"><ele>333</ele><time>2026-04-24T07:51:49Z</time></trkpt>
<trkpt lat="43.2589350000" lon="-1.0903850000"><ele>333</ele><time>2026-04-24T07:51:51Z</time></trkpt>
<trkpt lat="43.2589150000" lon="-1.0903920000"><ele>332</ele><time>2026-04-24T07:51:53Z</time></trkpt>
<trkpt lat="43.2588970000" lon="-1.0904020000"><ele>332</ele><time>2026-04-24T07:51:55Z</time></trkpt>
<trkpt lat="43.2588820000" lon="-1.0904220000"><ele>332</ele><time>2026-04-24T07:52:15Z</time></trkpt>
<trkpt lat="43.2588720000" lon="-1.0904470000"><ele>332</ele><time>2026-04-24T07:52:18Z</time></trkpt>
<trkpt lat="43.2588650000" lon="-1.0904770000"><ele>331</ele><time>2026-04-24T07:52:20Z</time></trkpt>
<trkpt lat="43.2588570000" lon="-1.0905070000"><ele>331</ele><time>2026-04-24T07:52:22Z</time></trkpt>
<trkpt lat="43.2588500000" lon="-1.0905320000"><ele>331</ele><time>2026-04-24T07:52:24Z</time></trkpt>
<trkpt lat="43.2588450000" lon="-1.0905570000"><ele>331</ele><time>2026-04-24T07:52:27Z</time></trkpt>
<trkpt lat="43.2588420000" lon="-1.0905170000"><ele>331</ele><time>2026-04-24T07:52:38Z</time></trkpt>
<trkpt lat="43.2588320000" lon="-1.0904720000"><ele>331</ele><time>2026-04-24T07:52:40Z</time></trkpt>
<trkpt lat="43.2588270000" lon="-1.0904500000"><ele>331</ele><time>2026-04-24T07:52:41Z</time></trkpt>
<trkpt lat="43.2588100000" lon="-1.0904070000"><ele>331</ele><time>2026-04-24T07:52:43Z</time></trkpt>
<trkpt lat="43.2587950000" lon="-1.0903770000"><ele>331</ele><time>2026-04-24T07:52:45Z</time></trkpt>
<trkpt lat="43.2587820000" lon="-1.0903520000"><ele>331</ele><time>2026-04-24T07:52:47Z</time></trkpt>
<trkpt lat="43.2587670000" lon="-1.0903220000"><ele>331</ele><time>2026-04-24T07:52:49Z</time></trkpt>
<trkpt lat="43.2587500000" lon="-1.0903020000"><ele>331</ele><time>2026-04-24T07:52:51Z</time></trkpt>
<trkpt lat="43.2587370000" lon="-1.0902800000"><ele>331</ele><time>2026-04-24T07:52:53Z</time></trkpt>
<trkpt lat="43.2587200000" lon="-1.0902700000"><ele>331</ele><time>2026-04-24T07:52:59Z</time></trkpt>
<trkpt lat="43.2587100000" lon="-1.0902920000"><ele>331</ele><time>2026-04-24T07:53:04Z</time></trkpt>
<trkpt lat="43.2586850000" lon="-1.0903170000"><ele>331</ele><time>2026-04-24T07:53:06Z</time></trkpt>
<trkpt lat="43.2586650000" lon="-1.0903320000"><ele>331</ele><time>2026-04-24T07:53:08Z</time></trkpt>
<trkpt lat="43.2586420000" lon="-1.0903470000"><ele>331</ele><time>2026-04-24T07:53:10Z</time></trkpt>
<trkpt lat="43.2586220000" lon="-1.0903620000"><ele>330</ele><time>2026-04-24T07:53:13Z</time></trkpt>
<trkpt lat="43.2586050000" lon="-1.0903800000"><ele>330</ele><time>2026-04-24T07:53:16Z</time></trkpt>
<trkpt lat="43.2586050000" lon="-1.0904100000"><ele>331</ele><time>2026-04-24T07:53:48Z</time></trkpt>
<trkpt lat="43.2586150000" lon="-1.0904520000"><ele>330</ele><time>2026-04-24T07:53:50Z</time></trkpt>
<trkpt lat="43.2586120000" lon="-1.0904920000"><ele>330</ele><time>2026-04-24T07:53:52Z</time></trkpt>
<trkpt lat="43.2586020000" lon="-1.0905220000"><ele>330</ele><time>2026-04-24T07:53:54Z</time></trkpt>
<trkpt lat="43.2585850000" lon="-1.0905500000"><ele>330</ele><time>2026-04-24T07:53:56Z</time></trkpt>
<trkpt lat="43.2585770000" lon="-1.0905720000"><ele>330</ele><time>2026-04-24T07:53:58Z</time></trkpt>
<trkpt lat="43.2585620000" lon="-1.0905920000"><ele>330</ele><time>2026-04-24T07:54:00Z</time></trkpt>
<trkpt lat="43.2585500000" lon="-1.0906120000"><ele>330</ele><time>2026-04-24T07:54:02Z</time></trkpt>
<trkpt lat="43.2585350000" lon="-1.0906320000"><ele>330</ele><time>2026-04-24T07:54:04Z</time></trkpt>
<trkpt lat="43.2585170000" lon="-1.0906550000"><ele>330</ele><time>2026-04-24T07:54:14Z</time></trkpt>
<trkpt lat="43.2585000000" lon="-1.0906750000"><ele>330</ele><time>2026-04-24T07:54:16Z</time></trkpt>
<trkpt lat="43.2584700000" lon="-1.0906900000"><ele>330</ele><time>2026-04-24T07:54:18Z</time></trkpt>
<trkpt lat="43.2584420000" lon="-1.0907020000"><ele>330</ele><time>2026-04-24T07:54:20Z</time></trkpt>
<trkpt lat="43.2584220000" lon="-1.0907150000"><ele>330</ele><time>2026-04-24T07:54:22Z</time></trkpt>
<trkpt lat="43.2584070000" lon="-1.0907270000"><ele>330</ele><time>2026-04-24T07:54:24Z</time></trkpt>
<trkpt lat="43.2583920000" lon="-1.0907420000"><ele>330</ele><time>2026-04-24T07:54:26Z</time></trkpt>
<trkpt lat="43.2583720000" lon="-1.0907570000"><ele>330</ele><time>2026-04-24T07:54:28Z</time></trkpt>
<trkpt lat="43.2583520000" lon="-1.0907720000"><ele>330</ele><time>2026-04-24T07:54:30Z</time></trkpt>
<trkpt lat="43.2583370000" lon="-1.0907900000"><ele>329</ele><time>2026-04-24T07:54:32Z</time></trkpt>
<trkpt lat="43.2583270000" lon="-1.0908170000"><ele>329</ele><time>2026-04-24T07:54:34Z</time></trkpt>
<trkpt lat="43.2583150000" lon="-1.0908520000"><ele>329</ele><time>2026-04-24T07:54:36Z</time></trkpt>
<trkpt lat="43.2582970000" lon="-1.0908770000"><ele>329</ele><time>2026-04-24T07:54:38Z</time></trkpt>
<trkpt lat="43.2582820000" lon="-1.0908950000"><ele>330</ele><time>2026-04-24T07:54:40Z</time></trkpt>
<trkpt lat="43.2582670000" lon="-1.0909220000"><ele>330</ele><time>2026-04-24T07:54:42Z</time></trkpt>
<trkpt lat="43.2582550000" lon="-1.0909450000"><ele>330</ele><time>2026-04-24T07:54:44Z</time></trkpt>
<trkpt lat="43.2582420000" lon="-1.0909670000"><ele>330</ele><time>2026-04-24T07:54:46Z</time></trkpt>
<trkpt lat="43.2582350000" lon="-1.0909950000"><ele>330</ele><time>2026-04-24T07:54:48Z</time></trkpt>
<trkpt lat="43.2582320000" lon="-1.0910220000"><ele>330</ele><time>2026-04-24T07:54:50Z</time></trkpt>
<trkpt lat="43.2582370000" lon="-1.0910500000"><ele>330</ele><time>2026-04-24T07:54:52Z</time></trkpt>
<trkpt lat="43.2582370000" lon="-1.0910770000"><ele>330</ele><time>2026-04-24T07:54:54Z</time></trkpt>
<trkpt lat="43.2582250000" lon="-1.0910970000"><ele>330</ele><time>2026-04-24T07:54:56Z</time></trkpt>
<trkpt lat="43.2582120000" lon="-1.0911170000"><ele>330</ele><time>2026-04-24T07:54:58Z</time></trkpt>
<trkpt lat="43.2581970000" lon="-1.0911450000"><ele>330</ele><time>2026-04-24T07:55:01Z</time></trkpt>
<trkpt lat="43.2581870000" lon="-1.0911670000"><ele>331</ele><time>2026-04-24T07:55:04Z</time></trkpt>
<trkpt lat="43.2582070000" lon="-1.0911720000"><ele>331</ele><time>2026-04-24T07:55:44Z</time></trkpt>
<trkpt lat="43.2581870000" lon="-1.0911770000"><ele>330</ele><time>2026-04-24T07:56:53Z</time></trkpt>
<trkpt lat="43.2581650000" lon="-1.0911870000"><ele>330</ele><time>2026-04-24T07:56:55Z</time></trkpt>
<trkpt lat="43.2581570000" lon="-1.0911650000"><ele>330</ele><time>2026-04-24T07:56:59Z</time></trkpt>
<trkpt lat="43.2581620000" lon="-1.0911400000"><ele>330</ele><time>2026-04-24T07:57:34Z</time></trkpt>
<trkpt lat="43.2581770000" lon="-1.0911570000"><ele>330</ele><time>2026-04-24T07:57:36Z</time></trkpt>
<trkpt lat="43.2581870000" lon="-1.0911870000"><ele>330</ele><time>2026-04-24T07:57:38Z</time></trkpt>
<trkpt lat="43.2581870000" lon="-1.0912120000"><ele>330</ele><time>2026-04-24T07:57:41Z</time></trkpt>
<trkpt lat="43.2581870000" lon="-1.0911800000"><ele>330</ele><time>2026-04-24T07:57:45Z</time></trkpt>
<trkpt lat="43.2581850000" lon="-1.0911550000"><ele>330</ele><time>2026-04-24T07:57:47Z</time></trkpt>
<trkpt lat="43.2581870000" lon="-1.0911870000"><ele>330</ele><time>2026-04-24T07:58:08Z</time></trkpt>
<trkpt lat="43.2581870000" lon="-1.0912120000"><ele>330</ele><time>2026-04-24T07:58:10Z</time></trkpt>
<trkpt lat="43.2581900000" lon="-1.0912470000"><ele>330</ele><time>2026-04-24T07:58:13Z</time></trkpt>
<trkpt lat="43.2581970000" lon="-1.0912120000"><ele>330</ele><time>2026-04-24T07:58:18Z</time></trkpt>
<trkpt lat="43.2582050000" lon="-1.0911900000"><ele>330</ele><time>2026-04-24T08:00:09Z</time></trkpt>
<trkpt lat="43.2581920000" lon="-1.0911670000"><ele>330</ele><time>2026-04-24T08:02:26Z</time></trkpt>
<trkpt lat="43.2581720000" lon="-1.0911670000"><ele>330</ele><time>2026-04-24T08:02:28Z</time></trkpt>
<trkpt lat="43.2581920000" lon="-1.0911770000"><ele>330</ele><time>2026-04-24T08:03:36Z</time></trkpt>
<trkpt lat="43.2581970000" lon="-1.0912020000"><ele>330</ele><time>2026-04-24T08:03:38Z</time></trkpt>
<trkpt lat="43.2582150000" lon="-1.0911820000"><ele>330</ele><time>2026-04-24T08:03:58Z</time></trkpt>
<trkpt lat="43.2581970000" lon="-1.0911580000"><ele>331</ele><time>2026-04-24T08:09:47Z</time></trkpt>
<trkpt lat="43.2581800000" lon="-1.0911420000"><ele>331</ele><time>2026-04-24T08:09:49Z</time></trkpt>
<trkpt lat="43.2581670000" lon="-1.0911220000"><ele>331</ele><time>2026-04-24T08:09:51Z</time></trkpt>
<trkpt lat="43.2581520000" lon="-1.0910970000"><ele>331</ele><time>2026-04-24T08:09:53Z</time></trkpt>
<trkpt lat="43.2581350000" lon="-1.0910820000"><ele>330</ele><time>2026-04-24T08:09:55Z</time></trkpt>
<trkpt lat="43.2581120000" lon="-1.0910820000"><ele>330</ele><time>2026-04-24T08:09:57Z</time></trkpt>
<trkpt lat="43.2580920000" lon="-1.0910870000"><ele>330</ele><time>2026-04-24T08:09:59Z</time></trkpt>
<trkpt lat="43.2580720000" lon="-1.0911050000"><ele>330</ele><time>2026-04-24T08:10:01Z</time></trkpt>
<trkpt lat="43.2580520000" lon="-1.0911250000"><ele>330</ele><time>2026-04-24T08:10:03Z</time></trkpt>
<trkpt lat="43.2580370000" lon="-1.0911400000"><ele>330</ele><time>2026-04-24T08:10:05Z</time></trkpt>
<trkpt lat="43.2580220000" lon="-1.0911580000"><ele>331</ele><time>2026-04-24T08:10:07Z</time></trkpt>
<trkpt lat="43.2580020000" lon="-1.0911770000"><ele>331</ele><time>2026-04-24T08:10:09Z</time></trkpt>
<trkpt lat="43.2579870000" lon="-1.0911920000"><ele>331</ele><time>2026-04-24T08:10:11Z</time></trkpt>
<trkpt lat="43.2579720000" lon="-1.0912100000"><ele>331</ele><time>2026-04-24T08:10:13Z</time></trkpt>
<trkpt lat="43.2579570000" lon="-1.0912320000"><ele>331</ele><time>2026-04-24T08:10:15Z</time></trkpt>
<trkpt lat="43.2579420000" lon="-1.0912470000"><ele>331</ele><time>2026-04-24T08:10:17Z</time></trkpt>
<trkpt lat="43.2579300000" lon="-1.0912620000"><ele>331</ele><time>2026-04-24T08:10:19Z</time></trkpt>
<trkpt lat="43.2579130000" lon="-1.0912800000"><ele>331</ele><time>2026-04-24T08:10:21Z</time></trkpt>
<trkpt lat="43.2579000000" lon="-1.0912970000"><ele>332</ele><time>2026-04-24T08:10:23Z</time></trkpt>
<trkpt lat="43.2578820000" lon="-1.0913220000"><ele>332</ele><time>2026-04-24T08:10:26Z</time></trkpt>
<trkpt lat="43.2578670000" lon="-1.0913370000"><ele>332</ele><time>2026-04-24T08:10:28Z</time></trkpt>
<trkpt lat="43.2578520000" lon="-1.0913550000"><ele>332</ele><time>2026-04-24T08:10:30Z</time></trkpt>
<trkpt lat="43.2578280000" lon="-1.0913720000"><ele>332</ele><time>2026-04-24T08:10:33Z</time></trkpt>
<trkpt lat="43.2578150000" lon="-1.0913900000"><ele>332</ele><time>2026-04-24T08:10:35Z</time></trkpt>
<trkpt lat="43.2578000000" lon="-1.0914100000"><ele>332</ele><time>2026-04-24T08:10:37Z</time></trkpt>
<trkpt lat="43.2577820000" lon="-1.0914370000"><ele>333</ele><time>2026-04-24T08:10:40Z</time></trkpt>
<trkpt lat="43.2577720000" lon="-1.0914570000"><ele>333</ele><time>2026-04-24T08:10:42Z</time></trkpt>
<trkpt lat="43.2577580000" lon="-1.0914770000"><ele>333</ele><time>2026-04-24T08:10:44Z</time></trkpt>
<trkpt lat="43.2577420000" lon="-1.0914950000"><ele>333</ele><time>2026-04-24T08:10:46Z</time></trkpt>
<trkpt lat="43.2577250000" lon="-1.0915120000"><ele>333</ele><time>2026-04-24T08:10:48Z</time></trkpt>
<trkpt lat="43.2577020000" lon="-1.0915350000"><ele>334</ele><time>2026-04-24T08:10:51Z</time></trkpt>
<trkpt lat="43.2576820000" lon="-1.0915570000"><ele>334</ele><time>2026-04-24T08:10:54Z</time></trkpt>
<trkpt lat="43.2576670000" lon="-1.0915670000"><ele>334</ele><time>2026-04-24T08:10:56Z</time></trkpt>
<trkpt lat="43.2576470000" lon="-1.0915870000"><ele>334</ele><time>2026-04-24T08:10:59Z</time></trkpt>
<trkpt lat="43.2576270000" lon="-1.0916070000"><ele>335</ele><time>2026-04-24T08:11:02Z</time></trkpt>
<trkpt lat="43.2576120000" lon="-1.0916220000"><ele>335</ele><time>2026-04-24T08:11:05Z</time></trkpt>
<trkpt lat="43.2575920000" lon="-1.0916400000"><ele>335</ele><time>2026-04-24T08:11:08Z</time></trkpt>
<trkpt lat="43.2575700000" lon="-1.0916570000"><ele>336</ele><time>2026-04-24T08:11:11Z</time></trkpt>
<trkpt lat="43.2575500000" lon="-1.0916750000"><ele>336</ele><time>2026-04-24T08:11:14Z</time></trkpt>
<trkpt lat="43.2575320000" lon="-1.0916850000"><ele>336</ele><time>2026-04-24T08:11:16Z</time></trkpt>
<trkpt lat="43.2575120000" lon="-1.0916980000"><ele>337</ele><time>2026-04-24T08:11:19Z</time></trkpt>
<trkpt lat="43.2574900000" lon="-1.0917120000"><ele>337</ele><time>2026-04-24T08:11:22Z</time></trkpt>
<trkpt lat="43.2574720000" lon="-1.0917150000"><ele>337</ele><time>2026-04-24T08:11:24Z</time></trkpt>
<trkpt lat="43.2574470000" lon="-1.0917200000"><ele>337</ele><time>2026-04-24T08:11:27Z</time></trkpt>
<trkpt lat="43.2574270000" lon="-1.0917220000"><ele>337</ele><time>2026-04-24T08:11:29Z</time></trkpt>
<trkpt lat="43.2574050000" lon="-1.0917350000"><ele>338</ele><time>2026-04-24T08:11:32Z</time></trkpt>
<trkpt lat="43.2573850000" lon="-1.0917520000"><ele>338</ele><time>2026-04-24T08:11:35Z</time></trkpt>
<trkpt lat="43.2573620000" lon="-1.0917620000"><ele>338</ele><time>2026-04-24T08:11:38Z</time></trkpt>
<trkpt lat="43.2573420000" lon="-1.0917670000"><ele>338</ele><time>2026-04-24T08:11:40Z</time></trkpt>
<trkpt lat="43.2573220000" lon="-1.0917720000"><ele>338</ele><time>2026-04-24T08:11:43Z</time></trkpt>
<trkpt lat="43.2573000000" lon="-1.0917720000"><ele>339</ele><time>2026-04-24T08:11:46Z</time></trkpt>
<trkpt lat="43.2572820000" lon="-1.0917720000"><ele>339</ele><time>2026-04-24T08:11:48Z</time></trkpt>
<trkpt lat="43.2572570000" lon="-1.0917670000"><ele>339</ele><time>2026-04-24T08:11:51Z</time></trkpt>
<trkpt lat="43.2572370000" lon="-1.0917570000"><ele>339</ele><time>2026-04-24T08:11:53Z</time></trkpt>
<trkpt lat="43.2572200000" lon="-1.0917520000"><ele>340</ele><time>2026-04-24T08:11:55Z</time></trkpt>
<trkpt lat="43.2572020000" lon="-1.0917470000"><ele>340</ele><time>2026-04-24T08:11:57Z</time></trkpt>
<trkpt lat="43.2571820000" lon="-1.0917370000"><ele>340</ele><time>2026-04-24T08:11:59Z</time></trkpt>
<trkpt lat="43.2571570000" lon="-1.0917320000"><ele>340</ele><time>2026-04-24T08:12:02Z</time></trkpt>
<trkpt lat="43.2571400000" lon="-1.0917220000"><ele>340</ele><time>2026-04-24T08:12:04Z</time></trkpt>
<trkpt lat="43.2571170000" lon="-1.0917200000"><ele>340</ele><time>2026-04-24T08:12:07Z</time></trkpt>
<trkpt lat="43.2570920000" lon="-1.0917220000"><ele>341</ele><time>2026-04-24T08:12:10Z</time></trkpt>
<trkpt lat="43.2570670000" lon="-1.0917320000"><ele>341</ele><time>2026-04-24T08:12:13Z</time></trkpt>
<trkpt lat="43.2570470000" lon="-1.0917320000"><ele>341</ele><time>2026-04-24T08:12:16Z</time></trkpt>
<trkpt lat="43.2570270000" lon="-1.0917320000"><ele>341</ele><time>2026-04-24T08:12:18Z</time></trkpt>
<trkpt lat="43.2570070000" lon="-1.0917320000"><ele>341</ele><time>2026-04-24T08:12:20Z</time></trkpt>
<trkpt lat="43.2569900000" lon="-1.0917350000"><ele>341</ele><time>2026-04-24T08:12:22Z</time></trkpt>
<trkpt lat="43.2569620000" lon="-1.0917380000"><ele>342</ele><time>2026-04-24T08:12:25Z</time></trkpt>
<trkpt lat="43.2569420000" lon="-1.0917450000"><ele>342</ele><time>2026-04-24T08:12:27Z</time></trkpt>
<trkpt lat="43.2569220000" lon="-1.0917520000"><ele>342</ele><time>2026-04-24T08:12:29Z</time></trkpt>
<trkpt lat="43.2569020000" lon="-1.0917620000"><ele>342</ele><time>2026-04-24T08:12:31Z</time></trkpt>
<trkpt lat="43.2568820000" lon="-1.0917770000"><ele>342</ele><time>2026-04-24T08:12:34Z</time></trkpt>
<trkpt lat="43.2568570000" lon="-1.0917950000"><ele>342</ele><time>2026-04-24T08:12:37Z</time></trkpt>
<trkpt lat="43.2568370000" lon="-1.0918020000"><ele>342</ele><time>2026-04-24T08:12:39Z</time></trkpt>
<trkpt lat="43.2568150000" lon="-1.0918220000"><ele>342</ele><time>2026-04-24T08:12:42Z</time></trkpt>
<trkpt lat="43.2567920000" lon="-1.0918370000"><ele>342</ele><time>2026-04-24T08:12:45Z</time></trkpt>
<trkpt lat="43.2567670000" lon="-1.0918470000"><ele>343</ele><time>2026-04-24T08:12:48Z</time></trkpt>
<trkpt lat="43.2567500000" lon="-1.0918550000"><ele>343</ele><time>2026-04-24T08:12:50Z</time></trkpt>
<trkpt lat="43.2567320000" lon="-1.0918570000"><ele>343</ele><time>2026-04-24T08:12:52Z</time></trkpt>
<trkpt lat="43.2567120000" lon="-1.0918620000"><ele>343</ele><time>2026-04-24T08:12:54Z</time></trkpt>
<trkpt lat="43.2566920000" lon="-1.0918670000"><ele>343</ele><time>2026-04-24T08:12:56Z</time></trkpt>
<trkpt lat="43.2566750000" lon="-1.0918720000"><ele>343</ele><time>2026-04-24T08:12:58Z</time></trkpt>
<trkpt lat="43.2566570000" lon="-1.0918720000"><ele>343</ele><time>2026-04-24T08:13:00Z</time></trkpt>
<trkpt lat="43.2566350000" lon="-1.0918800000"><ele>343</ele><time>2026-04-24T08:13:02Z</time></trkpt>
<trkpt lat="43.2566150000" lon="-1.0918870000"><ele>344</ele><time>2026-04-24T08:13:04Z</time></trkpt>
<trkpt lat="43.2565970000" lon="-1.0918920000"><ele>344</ele><time>2026-04-24T08:13:06Z</time></trkpt>
<trkpt lat="43.2565720000" lon="-1.0919000000"><ele>344</ele><time>2026-04-24T08:13:09Z</time></trkpt>
<trkpt lat="43.2565480000" lon="-1.0919150000"><ele>344</ele><time>2026-04-24T08:13:12Z</time></trkpt>
<trkpt lat="43.2565320000" lon="-1.0919250000"><ele>344</ele><time>2026-04-24T08:13:14Z</time></trkpt>
<trkpt lat="43.2565150000" lon="-1.0919320000"><ele>345</ele><time>2026-04-24T08:13:16Z</time></trkpt>
<trkpt lat="43.2564920000" lon="-1.0919450000"><ele>345</ele><time>2026-04-24T08:13:19Z</time></trkpt>
<trkpt lat="43.2564700000" lon="-1.0919600000"><ele>345</ele><time>2026-04-24T08:13:22Z</time></trkpt>
<trkpt lat="43.2564420000" lon="-1.0919720000"><ele>345</ele><time>2026-04-24T08:13:25Z</time></trkpt>
<trkpt lat="43.2564200000" lon="-1.0919800000"><ele>345</ele><time>2026-04-24T08:13:28Z</time></trkpt>
<trkpt lat="43.2563970000" lon="-1.0919900000"><ele>346</ele><time>2026-04-24T08:13:31Z</time></trkpt>
<trkpt lat="43.2563750000" lon="-1.0920020000"><ele>346</ele><time>2026-04-24T08:13:34Z</time></trkpt>
<trkpt lat="43.2563520000" lon="-1.0920200000"><ele>347</ele><time>2026-04-24T08:13:37Z</time></trkpt>
<trkpt lat="43.2563320000" lon="-1.0920300000"><ele>347</ele><time>2026-04-24T08:13:40Z</time></trkpt>
<trkpt lat="43.2563100000" lon="-1.0920420000"><ele>348</ele><time>2026-04-24T08:13:43Z</time></trkpt>
<trkpt lat="43.2562920000" lon="-1.0920550000"><ele>348</ele><time>2026-04-24T08:13:46Z</time></trkpt>
<trkpt lat="43.2562720000" lon="-1.0920750000"><ele>348</ele><time>2026-04-24T08:13:49Z</time></trkpt>
<trkpt lat="43.2562520000" lon="-1.0920920000"><ele>349</ele><time>2026-04-24T08:13:52Z</time></trkpt>
<trkpt lat="43.2562370000" lon="-1.0921050000"><ele>349</ele><time>2026-04-24T08:13:55Z</time></trkpt>
<trkpt lat="43.2562150000" lon="-1.0921200000"><ele>349</ele><time>2026-04-24T08:13:58Z</time></trkpt>
<trkpt lat="43.2561950000" lon="-1.0921350000"><ele>350</ele><time>2026-04-24T08:14:01Z</time></trkpt>
<trkpt lat="43.2561720000" lon="-1.0921370000"><ele>350</ele><time>2026-04-24T08:14:04Z</time></trkpt>
<trkpt lat="43.2561520000" lon="-1.0921400000"><ele>351</ele><time>2026-04-24T08:14:07Z</time></trkpt>
<trkpt lat="43.2561350000" lon="-1.0921550000"><ele>351</ele><time>2026-04-24T08:14:11Z</time></trkpt>
<trkpt lat="43.2561220000" lon="-1.0921720000"><ele>352</ele><time>2026-04-24T08:14:16Z</time></trkpt>
<trkpt lat="43.2561020000" lon="-1.0921900000"><ele>353</ele><time>2026-04-24T08:14:21Z</time></trkpt>
<trkpt lat="43.2560850000" lon="-1.0922120000"><ele>353</ele><time>2026-04-24T08:14:24Z</time></trkpt>
<trkpt lat="43.2560670000" lon="-1.0922370000"><ele>354</ele><time>2026-04-24T08:14:27Z</time></trkpt>
<trkpt lat="43.2560520000" lon="-1.0922620000"><ele>354</ele><time>2026-04-24T08:14:30Z</time></trkpt>
<trkpt lat="43.2560400000" lon="-1.0922770000"><ele>354</ele><time>2026-04-24T08:14:32Z</time></trkpt>
<trkpt lat="43.2560170000" lon="-1.0922950000"><ele>354</ele><time>2026-04-24T08:14:35Z</time></trkpt>
<trkpt lat="43.2559950000" lon="-1.0922970000"><ele>355</ele><time>2026-04-24T08:14:38Z</time></trkpt>
<trkpt lat="43.2559720000" lon="-1.0923020000"><ele>355</ele><time>2026-04-24T08:14:41Z</time></trkpt>
<trkpt lat="43.2559550000" lon="-1.0923070000"><ele>355</ele><time>2026-04-24T08:14:44Z</time></trkpt>
<trkpt lat="43.2559320000" lon="-1.0923170000"><ele>356</ele><time>2026-04-24T08:14:48Z</time></trkpt>
<trkpt lat="43.2559070000" lon="-1.0923270000"><ele>356</ele><time>2026-04-24T08:14:52Z</time></trkpt>
<trkpt lat="43.2558870000" lon="-1.0923350000"><ele>357</ele><time>2026-04-24T08:14:55Z</time></trkpt>
<trkpt lat="43.2558670000" lon="-1.0923370000"><ele>357</ele><time>2026-04-24T08:14:58Z</time></trkpt>
<trkpt lat="43.2558470000" lon="-1.0923400000"><ele>357</ele><time>2026-04-24T08:15:01Z</time></trkpt>
<trkpt lat="43.2558300000" lon="-1.0923450000"><ele>358</ele><time>2026-04-24T08:15:04Z</time></trkpt>
<trkpt lat="43.2558070000" lon="-1.0923470000"><ele>358</ele><time>2026-04-24T08:15:07Z</time></trkpt>
<trkpt lat="43.2557850000" lon="-1.0923520000"><ele>359</ele><time>2026-04-24T08:15:10Z</time></trkpt>
<trkpt lat="43.2557620000" lon="-1.0923550000"><ele>359</ele><time>2026-04-24T08:15:13Z</time></trkpt>
<trkpt lat="43.2557370000" lon="-1.0923550000"><ele>359</ele><time>2026-04-24T08:15:16Z</time></trkpt>
<trkpt lat="43.2557120000" lon="-1.0923500000"><ele>360</ele><time>2026-04-24T08:15:19Z</time></trkpt>
<trkpt lat="43.2556920000" lon="-1.0923520000"><ele>360</ele><time>2026-04-24T08:15:21Z</time></trkpt>
<trkpt lat="43.2556700000" lon="-1.0923620000"><ele>360</ele><time>2026-04-24T08:15:24Z</time></trkpt>
<trkpt lat="43.2556500000" lon="-1.0923720000"><ele>360</ele><time>2026-04-24T08:15:27Z</time></trkpt>
<trkpt lat="43.2556300000" lon="-1.0923820000"><ele>361</ele><time>2026-04-24T08:15:30Z</time></trkpt>
<trkpt lat="43.2556100000" lon="-1.0923900000"><ele>361</ele><time>2026-04-24T08:15:33Z</time></trkpt>
<trkpt lat="43.2555920000" lon="-1.0924020000"><ele>361</ele><time>2026-04-24T08:15:36Z</time></trkpt>
<trkpt lat="43.2555750000" lon="-1.0924170000"><ele>362</ele><time>2026-04-24T08:15:39Z</time></trkpt>
<trkpt lat="43.2555520000" lon="-1.0924350000"><ele>362</ele><time>2026-04-24T08:15:42Z</time></trkpt>
<trkpt lat="43.2555320000" lon="-1.0924470000"><ele>363</ele><time>2026-04-24T08:15:45Z</time></trkpt>
<trkpt lat="43.2555120000" lon="-1.0924570000"><ele>363</ele><time>2026-04-24T08:15:48Z</time></trkpt>
<trkpt lat="43.2554920000" lon="-1.0924720000"><ele>363</ele><time>2026-04-24T08:15:51Z</time></trkpt>
<trkpt lat="43.2554700000" lon="-1.0924870000"><ele>364</ele><time>2026-04-24T08:15:54Z</time></trkpt>
<trkpt lat="43.2554520000" lon="-1.0924970000"><ele>364</ele><time>2026-04-24T08:15:57Z</time></trkpt>
<trkpt lat="43.2554300000" lon="-1.0925120000"><ele>364</ele><time>2026-04-24T08:16:00Z</time></trkpt>
<trkpt lat="43.2554120000" lon="-1.0925220000"><ele>365</ele><time>2026-04-24T08:16:03Z</time></trkpt>
<trkpt lat="43.2553870000" lon="-1.0925370000"><ele>365</ele><time>2026-04-24T08:16:06Z</time></trkpt>
<trkpt lat="43.2553700000" lon="-1.0925420000"><ele>366</ele><time>2026-04-24T08:16:08Z</time></trkpt>
<trkpt lat="43.2553500000" lon="-1.0925450000"><ele>367</ele><time>2026-04-24T08:16:45Z</time></trkpt>
<trkpt lat="43.2553270000" lon="-1.0925570000"><ele>367</ele><time>2026-04-24T08:16:49Z</time></trkpt>
<trkpt lat="43.2553020000" lon="-1.0925720000"><ele>367</ele><time>2026-04-24T08:16:51Z</time></trkpt>
<trkpt lat="43.2552770000" lon="-1.0925820000"><ele>367</ele><time>2026-04-24T08:16:53Z</time></trkpt>
<trkpt lat="43.2552570000" lon="-1.0925920000"><ele>368</ele><time>2026-04-24T08:16:55Z</time></trkpt>
<trkpt lat="43.2552420000" lon="-1.0926020000"><ele>368</ele><time>2026-04-24T08:16:57Z</time></trkpt>
<trkpt lat="43.2552250000" lon="-1.0926120000"><ele>368</ele><time>2026-04-24T08:16:59Z</time></trkpt>
<trkpt lat="43.2552070000" lon="-1.0926220000"><ele>368</ele><time>2026-04-24T08:17:01Z</time></trkpt>
<trkpt lat="43.2551820000" lon="-1.0926370000"><ele>369</ele><time>2026-04-24T08:17:04Z</time></trkpt>
<trkpt lat="43.2551670000" lon="-1.0926470000"><ele>369</ele><time>2026-04-24T08:17:06Z</time></trkpt>
<trkpt lat="43.2551420000" lon="-1.0926570000"><ele>369</ele><time>2026-04-24T08:17:09Z</time></trkpt>
<trkpt lat="43.2551220000" lon="-1.0926670000"><ele>370</ele><time>2026-04-24T08:17:11Z</time></trkpt>
<trkpt lat="43.2551020000" lon="-1.0926770000"><ele>370</ele><time>2026-04-24T08:17:13Z</time></trkpt>
<trkpt lat="43.2550770000" lon="-1.0926900000"><ele>370</ele><time>2026-04-24T08:17:16Z</time></trkpt>
<trkpt lat="43.2550570000" lon="-1.0926970000"><ele>371</ele><time>2026-04-24T08:17:18Z</time></trkpt>
<trkpt lat="43.2550320000" lon="-1.0927120000"><ele>371</ele><time>2026-04-24T08:17:21Z</time></trkpt>
<trkpt lat="43.2550150000" lon="-1.0927220000"><ele>371</ele><time>2026-04-24T08:17:23Z</time></trkpt>
<trkpt lat="43.2549920000" lon="-1.0927370000"><ele>372</ele><time>2026-04-24T08:17:26Z</time></trkpt>
<trkpt lat="43.2549720000" lon="-1.0927520000"><ele>372</ele><time>2026-04-24T08:17:29Z</time></trkpt>
<trkpt lat="43.2549520000" lon="-1.0927600000"><ele>372</ele><time>2026-04-24T08:17:32Z</time></trkpt>
<trkpt lat="43.2549370000" lon="-1.0927770000"><ele>373</ele><time>2026-04-24T08:17:35Z</time></trkpt>
<trkpt lat="43.2549220000" lon="-1.0928000000"><ele>373</ele><time>2026-04-24T08:17:38Z</time></trkpt>
<trkpt lat="43.2548970000" lon="-1.0928170000"><ele>374</ele><time>2026-04-24T08:17:41Z</time></trkpt>
<trkpt lat="43.2548800000" lon="-1.0928270000"><ele>374</ele><time>2026-04-24T08:17:43Z</time></trkpt>
<trkpt lat="43.2548570000" lon="-1.0928270000"><ele>374</ele><time>2026-04-24T08:17:45Z</time></trkpt>
<trkpt lat="43.2548370000" lon="-1.0928320000"><ele>375</ele><time>2026-04-24T08:17:47Z</time></trkpt>
<trkpt lat="43.2548170000" lon="-1.0928370000"><ele>375</ele><time>2026-04-24T08:17:49Z</time></trkpt>
<trkpt lat="43.2548000000" lon="-1.0928320000"><ele>375</ele><time>2026-04-24T08:17:51Z</time></trkpt>
<trkpt lat="43.2547770000" lon="-1.0928370000"><ele>375</ele><time>2026-04-24T08:17:54Z</time></trkpt>
<trkpt lat="43.2547550000" lon="-1.0928450000"><ele>376</ele><time>2026-04-24T08:17:57Z</time></trkpt>
<trkpt lat="43.2547330000" lon="-1.0928620000"><ele>376</ele><time>2026-04-24T08:18:00Z</time></trkpt>
<trkpt lat="43.2547120000" lon="-1.0928750000"><ele>377</ele><time>2026-04-24T08:18:03Z</time></trkpt>
<trkpt lat="43.2546920000" lon="-1.0928870000"><ele>377</ele><time>2026-04-24T08:18:06Z</time></trkpt>
<trkpt lat="43.2546720000" lon="-1.0928970000"><ele>377</ele><time>2026-04-24T08:18:08Z</time></trkpt>
<trkpt lat="43.2546480000" lon="-1.0929120000"><ele>378</ele><time>2026-04-24T08:18:11Z</time></trkpt>
<trkpt lat="43.2546320000" lon="-1.0929270000"><ele>378</ele><time>2026-04-24T08:18:13Z</time></trkpt>
<trkpt lat="43.2546150000" lon="-1.0929370000"><ele>378</ele><time>2026-04-24T08:18:15Z</time></trkpt>
<trkpt lat="43.2545900000" lon="-1.0929520000"><ele>379</ele><time>2026-04-24T08:18:18Z</time></trkpt>
<trkpt lat="43.2545650000" lon="-1.0929670000"><ele>379</ele><time>2026-04-24T08:18:21Z</time></trkpt>
<trkpt lat="43.2545420000" lon="-1.0929750000"><ele>380</ele><time>2026-04-24T08:18:23Z</time></trkpt>
<trkpt lat="43.2545200000" lon="-1.0929870000"><ele>380</ele><time>2026-04-24T08:18:26Z</time></trkpt>
<trkpt lat="43.2545020000" lon="-1.0930000000"><ele>380</ele><time>2026-04-24T08:18:28Z</time></trkpt>
<trkpt lat="43.2544820000" lon="-1.0930200000"><ele>380</ele><time>2026-04-24T08:18:31Z</time></trkpt>
<trkpt lat="43.2544620000" lon="-1.0930370000"><ele>381</ele><time>2026-04-24T08:18:34Z</time></trkpt>
<trkpt lat="43.2544450000" lon="-1.0930600000"><ele>381</ele><time>2026-04-24T08:18:37Z</time></trkpt>
<trkpt lat="43.2544270000" lon="-1.0930720000"><ele>382</ele><time>2026-04-24T08:18:40Z</time></trkpt>
<trkpt lat="43.2544050000" lon="-1.0930820000"><ele>382</ele><time>2026-04-24T08:18:43Z</time></trkpt>
<trkpt lat="43.2543820000" lon="-1.0930970000"><ele>383</ele><time>2026-04-24T08:18:46Z</time></trkpt>
<trkpt lat="43.2543620000" lon="-1.0931150000"><ele>383</ele><time>2026-04-24T08:18:49Z</time></trkpt>
<trkpt lat="43.2543420000" lon="-1.0931280000"><ele>384</ele><time>2026-04-24T08:18:52Z</time></trkpt>
<trkpt lat="43.2543170000" lon="-1.0931350000"><ele>384</ele><time>2026-04-24T08:18:55Z</time></trkpt>
<trkpt lat="43.2542920000" lon="-1.0931450000"><ele>384</ele><time>2026-04-24T08:18:58Z</time></trkpt>
<trkpt lat="43.2542720000" lon="-1.0931470000"><ele>385</ele><time>2026-04-24T08:19:00Z</time></trkpt>
<trkpt lat="43.2542520000" lon="-1.0931520000"><ele>385</ele><time>2026-04-24T08:19:03Z</time></trkpt>
<trkpt lat="43.2542400000" lon="-1.0931270000"><ele>386</ele><time>2026-04-24T08:19:22Z</time></trkpt>
<trkpt lat="43.2542070000" lon="-1.0931280000"><ele>386</ele><time>2026-04-24T08:19:24Z</time></trkpt>
<trkpt lat="43.2541770000" lon="-1.0931370000"><ele>387</ele><time>2026-04-24T08:19:30Z</time></trkpt>
<trkpt lat="43.2541500000" lon="-1.0931470000"><ele>387</ele><time>2026-04-24T08:19:32Z</time></trkpt>
<trkpt lat="43.2541320000" lon="-1.0931550000"><ele>388</ele><time>2026-04-24T08:19:47Z</time></trkpt>
<trkpt lat="43.2541070000" lon="-1.0931670000"><ele>388</ele><time>2026-04-24T08:19:49Z</time></trkpt>
<trkpt lat="43.2540770000" lon="-1.0931770000"><ele>388</ele><time>2026-04-24T08:19:51Z</time></trkpt>
<trkpt lat="43.2540570000" lon="-1.0931820000"><ele>388</ele><time>2026-04-24T08:20:03Z</time></trkpt>
<trkpt lat="43.2540270000" lon="-1.0931950000"><ele>389</ele><time>2026-04-24T08:20:06Z</time></trkpt>
<trkpt lat="43.2539970000" lon="-1.0932050000"><ele>389</ele><time>2026-04-24T08:20:08Z</time></trkpt>
<trkpt lat="43.2539670000" lon="-1.0932100000"><ele>389</ele><time>2026-04-24T08:20:10Z</time></trkpt>
<trkpt lat="43.2539450000" lon="-1.0932150000"><ele>389</ele><time>2026-04-24T08:20:12Z</time></trkpt>
<trkpt lat="43.2539270000" lon="-1.0932200000"><ele>390</ele><time>2026-04-24T08:20:14Z</time></trkpt>
<trkpt lat="43.2539020000" lon="-1.0932220000"><ele>390</ele><time>2026-04-24T08:20:16Z</time></trkpt>
<trkpt lat="43.2538820000" lon="-1.0932220000"><ele>390</ele><time>2026-04-24T08:20:18Z</time></trkpt>
<trkpt lat="43.2538650000" lon="-1.0932220000"><ele>390</ele><time>2026-04-24T08:20:20Z</time></trkpt>
<trkpt lat="43.2538470000" lon="-1.0932230000"><ele>391</ele><time>2026-04-24T08:20:22Z</time></trkpt>
<trkpt lat="43.2538220000" lon="-1.0932220000"><ele>391</ele><time>2026-04-24T08:20:24Z</time></trkpt>
<trkpt lat="43.2537950000" lon="-1.0932120000"><ele>391</ele><time>2026-04-24T08:20:26Z</time></trkpt>
<trkpt lat="43.2537720000" lon="-1.0932000000"><ele>391</ele><time>2026-04-24T08:20:28Z</time></trkpt>
<trkpt lat="43.2537520000" lon="-1.0931900000"><ele>392</ele><time>2026-04-24T08:20:30Z</time></trkpt>
<trkpt lat="43.2537320000" lon="-1.0931950000"><ele>392</ele><time>2026-04-24T08:20:32Z</time></trkpt>
<trkpt lat="43.2537150000" lon="-1.0932000000"><ele>392</ele><time>2026-04-24T08:20:34Z</time></trkpt>
<trkpt lat="43.2536970000" lon="-1.0931970000"><ele>392</ele><time>2026-04-24T08:20:36Z</time></trkpt>
<trkpt lat="43.2536720000" lon="-1.0932000000"><ele>392</ele><time>2026-04-24T08:20:39Z</time></trkpt>
<trkpt lat="43.2536520000" lon="-1.0932100000"><ele>392</ele><time>2026-04-24T08:20:41Z</time></trkpt>
<trkpt lat="43.2536320000" lon="-1.0932120000"><ele>393</ele><time>2026-04-24T08:20:43Z</time></trkpt>
<trkpt lat="43.2536120000" lon="-1.0932170000"><ele>393</ele><time>2026-04-24T08:20:45Z</time></trkpt>
<trkpt lat="43.2535930000" lon="-1.0932220000"><ele>393</ele><time>2026-04-24T08:20:47Z</time></trkpt>
<trkpt lat="43.2535770000" lon="-1.0932270000"><ele>393</ele><time>2026-04-24T08:20:49Z</time></trkpt>
<trkpt lat="43.2535500000" lon="-1.0932420000"><ele>393</ele><time>2026-04-24T08:20:52Z</time></trkpt>
<trkpt lat="43.2535300000" lon="-1.0932550000"><ele>393</ele><time>2026-04-24T08:20:54Z</time></trkpt>
<trkpt lat="43.2535120000" lon="-1.0932700000"><ele>393</ele><time>2026-04-24T08:20:56Z</time></trkpt>
<trkpt lat="43.2534950000" lon="-1.0932820000"><ele>393</ele><time>2026-04-24T08:20:59Z</time></trkpt>
<trkpt lat="43.2534800000" lon="-1.0933020000"><ele>393</ele><time>2026-04-24T08:21:02Z</time></trkpt>
<trkpt lat="43.2534600000" lon="-1.0933200000"><ele>394</ele><time>2026-04-24T08:21:04Z</time></trkpt>
<trkpt lat="43.2534420000" lon="-1.0933370000"><ele>394</ele><time>2026-04-24T08:21:06Z</time></trkpt>
<trkpt lat="43.2534170000" lon="-1.0933570000"><ele>394</ele><time>2026-04-24T08:21:08Z</time></trkpt>
<trkpt lat="43.2533950000" lon="-1.0933670000"><ele>394</ele><time>2026-04-24T08:21:10Z</time></trkpt>
<trkpt lat="43.2533770000" lon="-1.0933850000"><ele>394</ele><time>2026-04-24T08:21:12Z</time></trkpt>
<trkpt lat="43.2533570000" lon="-1.0934020000"><ele>394</ele><time>2026-04-24T08:21:14Z</time></trkpt>
<trkpt lat="43.2533370000" lon="-1.0934170000"><ele>394</ele><time>2026-04-24T08:21:16Z</time></trkpt>
<trkpt lat="43.2533220000" lon="-1.0934320000"><ele>394</ele><time>2026-04-24T08:21:18Z</time></trkpt>
<trkpt lat="43.2533050000" lon="-1.0934500000"><ele>394</ele><time>2026-04-24T08:21:20Z</time></trkpt>
<trkpt lat="43.2532830000" lon="-1.0934670000"><ele>394</ele><time>2026-04-24T08:21:22Z</time></trkpt>
<trkpt lat="43.2532620000" lon="-1.0934820000"><ele>394</ele><time>2026-04-24T08:21:24Z</time></trkpt>
<trkpt lat="43.2532400000" lon="-1.0934970000"><ele>394</ele><time>2026-04-24T08:21:26Z</time></trkpt>
<trkpt lat="43.2532200000" lon="-1.0935150000"><ele>394</ele><time>2026-04-24T08:21:28Z</time></trkpt>
<trkpt lat="43.2532020000" lon="-1.0935320000"><ele>394</ele><time>2026-04-24T08:21:30Z</time></trkpt>
<trkpt lat="43.2531820000" lon="-1.0935470000"><ele>394</ele><time>2026-04-24T08:21:32Z</time></trkpt>
<trkpt lat="43.2531670000" lon="-1.0935620000"><ele>394</ele><time>2026-04-24T08:21:34Z</time></trkpt>
<trkpt lat="43.2531470000" lon="-1.0935750000"><ele>394</ele><time>2026-04-24T08:21:36Z</time></trkpt>
<trkpt lat="43.2531270000" lon="-1.0935950000"><ele>394</ele><time>2026-04-24T08:21:38Z</time></trkpt>
<trkpt lat="43.2531000000" lon="-1.0936050000"><ele>394</ele><time>2026-04-24T08:21:40Z</time></trkpt>
<trkpt lat="43.2530750000" lon="-1.0936150000"><ele>394</ele><time>2026-04-24T08:21:42Z</time></trkpt>
<trkpt lat="43.2530520000" lon="-1.0936300000"><ele>394</ele><time>2026-04-24T08:21:44Z</time></trkpt>
<trkpt lat="43.2530320000" lon="-1.0936470000"><ele>394</ele><time>2026-04-24T08:21:46Z</time></trkpt>
<trkpt lat="43.2530170000" lon="-1.0936620000"><ele>394</ele><time>2026-04-24T08:21:48Z</time></trkpt>
<trkpt lat="43.2530020000" lon="-1.0936770000"><ele>395</ele><time>2026-04-24T08:21:50Z</time></trkpt>
<trkpt lat="43.2529870000" lon="-1.0936950000"><ele>395</ele><time>2026-04-24T08:21:52Z</time></trkpt>
<trkpt lat="43.2529700000" lon="-1.0937150000"><ele>395</ele><time>2026-04-24T08:21:54Z</time></trkpt>
<trkpt lat="43.2529520000" lon="-1.0937270000"><ele>395</ele><time>2026-04-24T08:21:56Z</time></trkpt>
<trkpt lat="43.2529370000" lon="-1.0937400000"><ele>395</ele><time>2026-04-24T08:21:58Z</time></trkpt>
<trkpt lat="43.2529200000" lon="-1.0937520000"><ele>395</ele><time>2026-04-24T08:22:00Z</time></trkpt>
<trkpt lat="43.2529020000" lon="-1.0937700000"><ele>395</ele><time>2026-04-24T08:22:02Z</time></trkpt>
<trkpt lat="43.2528870000" lon="-1.0937870000"><ele>395</ele><time>2026-04-24T08:22:04Z</time></trkpt>
<trkpt lat="43.2528700000" lon="-1.0938030000"><ele>395</ele><time>2026-04-24T08:22:06Z</time></trkpt>
<trkpt lat="43.2528570000" lon="-1.0938220000"><ele>395</ele><time>2026-04-24T08:22:08Z</time></trkpt>
<trkpt lat="43.2528400000" lon="-1.0938350000"><ele>395</ele><time>2026-04-24T08:22:10Z</time></trkpt>
<trkpt lat="43.2528300000" lon="-1.0938570000"><ele>396</ele><time>2026-04-24T08:22:12Z</time></trkpt>
<trkpt lat="43.2528170000" lon="-1.0938800000"><ele>396</ele><time>2026-04-24T08:22:14Z</time></trkpt>
<trkpt lat="43.2528020000" lon="-1.0939020000"><ele>396</ele><time>2026-04-24T08:22:16Z</time></trkpt>
<trkpt lat="43.2527920000" lon="-1.0939220000"><ele>396</ele><time>2026-04-24T08:22:20Z</time></trkpt>
<trkpt lat="43.2527720000" lon="-1.0939420000"><ele>397</ele><time>2026-04-24T08:22:27Z</time></trkpt>
<trkpt lat="43.2527520000" lon="-1.0939620000"><ele>397</ele><time>2026-04-24T08:22:29Z</time></trkpt>
<trkpt lat="43.2527320000" lon="-1.0939820000"><ele>397</ele><time>2026-04-24T08:22:31Z</time></trkpt>
<trkpt lat="43.2527120000" lon="-1.0940020000"><ele>397</ele><time>2026-04-24T08:22:33Z</time></trkpt>
<trkpt lat="43.2526970000" lon="-1.0940170000"><ele>397</ele><time>2026-04-24T08:22:35Z</time></trkpt>
<trkpt lat="43.2526780000" lon="-1.0940270000"><ele>397</ele><time>2026-04-24T08:22:37Z</time></trkpt>
<trkpt lat="43.2526650000" lon="-1.0940420000"><ele>397</ele><time>2026-04-24T08:22:39Z</time></trkpt>
<trkpt lat="43.2526470000" lon="-1.0940550000"><ele>397</ele><time>2026-04-24T08:22:41Z</time></trkpt>
<trkpt lat="43.2526300000" lon="-1.0940650000"><ele>397</ele><time>2026-04-24T08:22:43Z</time></trkpt>
<trkpt lat="43.2526120000" lon="-1.0940870000"><ele>397</ele><time>2026-04-24T08:22:46Z</time></trkpt>
<trkpt lat="43.2526000000" lon="-1.0941120000"><ele>397</ele><time>2026-04-24T08:22:49Z</time></trkpt>
<trkpt lat="43.2525800000" lon="-1.0941320000"><ele>397</ele><time>2026-04-24T08:22:52Z</time></trkpt>
<trkpt lat="43.2525520000" lon="-1.0941420000"><ele>397</ele><time>2026-04-24T08:22:54Z</time></trkpt>
<trkpt lat="43.2525200000" lon="-1.0941450000"><ele>397</ele><time>2026-04-24T08:22:56Z</time></trkpt>
<trkpt lat="43.2524920000" lon="-1.0941470000"><ele>397</ele><time>2026-04-24T08:22:58Z</time></trkpt>
<trkpt lat="43.2524700000" lon="-1.0941470000"><ele>397</ele><time>2026-04-24T08:23:00Z</time></trkpt>
<trkpt lat="43.2524570000" lon="-1.0941670000"><ele>397</ele><time>2026-04-24T08:23:02Z</time></trkpt>
<trkpt lat="43.2524670000" lon="-1.0941870000"><ele>398</ele><time>2026-04-24T08:23:16Z</time></trkpt>
<trkpt lat="43.2524470000" lon="-1.0942020000"><ele>398</ele><time>2026-04-24T08:23:19Z</time></trkpt>
<trkpt lat="43.2524320000" lon="-1.0942170000"><ele>398</ele><time>2026-04-24T08:23:21Z</time></trkpt>
<trkpt lat="43.2524170000" lon="-1.0942350000"><ele>397</ele><time>2026-04-24T08:23:23Z</time></trkpt>
<trkpt lat="43.2524070000" lon="-1.0942550000"><ele>398</ele><time>2026-04-24T08:24:29Z</time></trkpt>
<trkpt lat="43.2524050000" lon="-1.0942870000"><ele>398</ele><time>2026-04-24T08:24:32Z</time></trkpt>
<trkpt lat="43.2524170000" lon="-1.0943120000"><ele>398</ele><time>2026-04-24T08:24:35Z</time></trkpt>
<trkpt lat="43.2524000000" lon="-1.0943020000"><ele>399</ele><time>2026-04-24T08:25:29Z</time></trkpt>
<trkpt lat="43.2523820000" lon="-1.0943120000"><ele>399</ele><time>2026-04-24T08:25:31Z</time></trkpt>
<trkpt lat="43.2523620000" lon="-1.0943300000"><ele>399</ele><time>2026-04-24T08:25:34Z</time></trkpt>
<trkpt lat="43.2523450000" lon="-1.0943430000"><ele>399</ele><time>2026-04-24T08:25:36Z</time></trkpt>
<trkpt lat="43.2523270000" lon="-1.0943570000"><ele>399</ele><time>2026-04-24T08:25:38Z</time></trkpt>
<trkpt lat="43.2523120000" lon="-1.0943720000"><ele>399</ele><time>2026-04-24T08:25:40Z</time></trkpt>
<trkpt lat="43.2522980000" lon="-1.0943950000"><ele>399</ele><time>2026-04-24T08:26:05Z</time></trkpt>
<trkpt lat="43.2522800000" lon="-1.0944170000"><ele>399</ele><time>2026-04-24T08:26:07Z</time></trkpt>
<trkpt lat="43.2522620000" lon="-1.0944420000"><ele>400</ele><time>2026-04-24T08:26:09Z</time></trkpt>
<trkpt lat="43.2522520000" lon="-1.0944620000"><ele>400</ele><time>2026-04-24T08:26:46Z</time></trkpt>
<trkpt lat="43.2522370000" lon="-1.0944970000"><ele>400</ele><time>2026-04-24T08:26:49Z</time></trkpt>
<trkpt lat="43.2522270000" lon="-1.0945300000"><ele>400</ele><time>2026-04-24T08:26:51Z</time></trkpt>
<trkpt lat="43.2522170000" lon="-1.0945570000"><ele>400</ele><time>2026-04-24T08:26:54Z</time></trkpt>
<trkpt lat="43.2522070000" lon="-1.0945950000"><ele>399</ele><time>2026-04-24T08:27:06Z</time></trkpt>
<trkpt lat="43.2521970000" lon="-1.0946300000"><ele>399</ele><time>2026-04-24T08:27:08Z</time></trkpt>
<trkpt lat="43.2521920000" lon="-1.0946620000"><ele>399</ele><time>2026-04-24T08:27:10Z</time></trkpt>
<trkpt lat="43.2521800000" lon="-1.0946920000"><ele>399</ele><time>2026-04-24T08:27:12Z</time></trkpt>
<trkpt lat="43.2521670000" lon="-1.0947200000"><ele>399</ele><time>2026-04-24T08:27:14Z</time></trkpt>
<trkpt lat="43.2521570000" lon="-1.0947480000"><ele>398</ele><time>2026-04-24T08:27:17Z</time></trkpt>
<trkpt lat="43.2521450000" lon="-1.0947750000"><ele>398</ele><time>2026-04-24T08:27:19Z</time></trkpt>
<trkpt lat="43.2521320000" lon="-1.0948020000"><ele>398</ele><time>2026-04-24T08:27:21Z</time></trkpt>
<trkpt lat="43.2521200000" lon="-1.0948270000"><ele>397</ele><time>2026-04-24T08:27:23Z</time></trkpt>
<trkpt lat="43.2521050000" lon="-1.0948520000"><ele>397</ele><time>2026-04-24T08:27:25Z</time></trkpt>
<trkpt lat="43.2520970000" lon="-1.0948820000"><ele>397</ele><time>2026-04-24T08:27:27Z</time></trkpt>
<trkpt lat="43.2520900000" lon="-1.0949150000"><ele>397</ele><time>2026-04-24T08:27:38Z</time></trkpt>
<trkpt lat="43.2520870000" lon="-1.0949470000"><ele>396</ele><time>2026-04-24T08:27:42Z</time></trkpt>
<trkpt lat="43.2520820000" lon="-1.0949820000"><ele>396</ele><time>2026-04-24T08:27:44Z</time></trkpt>
<trkpt lat="43.2520720000" lon="-1.0950250000"><ele>396</ele><time>2026-04-24T08:27:46Z</time></trkpt>
<trkpt lat="43.2520670000" lon="-1.0950620000"><ele>396</ele><time>2026-04-24T08:27:48Z</time></trkpt>
<trkpt lat="43.2520620000" lon="-1.0950920000"><ele>396</ele><time>2026-04-24T08:27:50Z</time></trkpt>
<trkpt lat="43.2520620000" lon="-1.0951220000"><ele>396</ele><time>2026-04-24T08:27:52Z</time></trkpt>
<trkpt lat="43.2520670000" lon="-1.0951570000"><ele>395</ele><time>2026-04-24T08:27:55Z</time></trkpt>
<trkpt lat="43.2520670000" lon="-1.0951870000"><ele>395</ele><time>2026-04-24T08:27:57Z</time></trkpt>
<trkpt lat="43.2520700000" lon="-1.0952150000"><ele>395</ele><time>2026-04-24T08:27:59Z</time></trkpt>
<trkpt lat="43.2520670000" lon="-1.0952450000"><ele>395</ele><time>2026-04-24T08:28:01Z</time></trkpt>
<trkpt lat="43.2520600000" lon="-1.0952770000"><ele>394</ele><time>2026-04-24T08:28:03Z</time></trkpt>
<trkpt lat="43.2520470000" lon="-1.0953150000"><ele>394</ele><time>2026-04-24T08:28:05Z</time></trkpt>
<trkpt lat="43.2520320000" lon="-1.0953520000"><ele>394</ele><time>2026-04-24T08:28:07Z</time></trkpt>
<trkpt lat="43.2520220000" lon="-1.0953820000"><ele>394</ele><time>2026-04-24T08:28:09Z</time></trkpt>
<trkpt lat="43.2520150000" lon="-1.0954120000"><ele>394</ele><time>2026-04-24T08:28:11Z</time></trkpt>
<trkpt lat="43.2520100000" lon="-1.0954450000"><ele>394</ele><time>2026-04-24T08:28:13Z</time></trkpt>
<trkpt lat="43.2520070000" lon="-1.0954770000"><ele>394</ele><time>2026-04-24T08:28:15Z</time></trkpt>
<trkpt lat="43.2520030000" lon="-1.0955070000"><ele>394</ele><time>2026-04-24T08:28:17Z</time></trkpt>
<trkpt lat="43.2520000000" lon="-1.0955370000"><ele>393</ele><time>2026-04-24T08:28:19Z</time></trkpt>
<trkpt lat="43.2519950000" lon="-1.0955670000"><ele>393</ele><time>2026-04-24T08:28:21Z</time></trkpt>
<trkpt lat="43.2519870000" lon="-1.0955950000"><ele>393</ele><time>2026-04-24T08:28:23Z</time></trkpt>
<trkpt lat="43.2519770000" lon="-1.0956220000"><ele>393</ele><time>2026-04-24T08:28:25Z</time></trkpt>
<trkpt lat="43.2519670000" lon="-1.0956470000"><ele>393</ele><time>2026-04-24T08:28:27Z</time></trkpt>
<trkpt lat="43.2519550000" lon="-1.0956750000"><ele>393</ele><time>2026-04-24T08:28:29Z</time></trkpt>
<trkpt lat="43.2519420000" lon="-1.0957000000"><ele>393</ele><time>2026-04-24T08:28:31Z</time></trkpt>
<trkpt lat="43.2519250000" lon="-1.0957270000"><ele>392</ele><time>2026-04-24T08:28:34Z</time></trkpt>
<trkpt lat="43.2519120000" lon="-1.0957520000"><ele>392</ele><time>2026-04-24T08:28:36Z</time></trkpt>
<trkpt lat="43.2519020000" lon="-1.0957770000"><ele>392</ele><time>2026-04-24T08:28:38Z</time></trkpt>
<trkpt lat="43.2518900000" lon="-1.0958020000"><ele>392</ele><time>2026-04-24T08:28:40Z</time></trkpt>
<trkpt lat="43.2518750000" lon="-1.0958270000"><ele>392</ele><time>2026-04-24T08:28:42Z</time></trkpt>
<trkpt lat="43.2518620000" lon="-1.0958550000"><ele>392</ele><time>2026-04-24T08:28:44Z</time></trkpt>
<trkpt lat="43.2518520000" lon="-1.0958820000"><ele>391</ele><time>2026-04-24T08:28:46Z</time></trkpt>
<trkpt lat="43.2518420000" lon="-1.0959120000"><ele>391</ele><time>2026-04-24T08:28:48Z</time></trkpt>
<trkpt lat="43.2518300000" lon="-1.0959370000"><ele>391</ele><time>2026-04-24T08:28:50Z</time></trkpt>
<trkpt lat="43.2518170000" lon="-1.0959620000"><ele>391</ele><time>2026-04-24T08:28:52Z</time></trkpt>
<trkpt lat="43.2518020000" lon="-1.0959870000"><ele>391</ele><time>2026-04-24T08:28:54Z</time></trkpt>
<trkpt lat="43.2517920000" lon="-1.0960120000"><ele>391</ele><time>2026-04-24T08:28:56Z</time></trkpt>
<trkpt lat="43.2517820000" lon="-1.0960370000"><ele>391</ele><time>2026-04-24T08:28:58Z</time></trkpt>
<trkpt lat="43.2517670000" lon="-1.0960620000"><ele>391</ele><time>2026-04-24T08:29:00Z</time></trkpt>
<trkpt lat="43.2517570000" lon="-1.0960850000"><ele>390</ele><time>2026-04-24T08:29:02Z</time></trkpt>
<trkpt lat="43.2517470000" lon="-1.0961100000"><ele>390</ele><time>2026-04-24T08:29:04Z</time></trkpt>
<trkpt lat="43.2517350000" lon="-1.0961350000"><ele>390</ele><time>2026-04-24T08:29:06Z</time></trkpt>
<trkpt lat="43.2517220000" lon="-1.0961620000"><ele>390</ele><time>2026-04-24T08:29:08Z</time></trkpt>
<trkpt lat="43.2517150000" lon="-1.0961900000"><ele>390</ele><time>2026-04-24T08:29:10Z</time></trkpt>
<trkpt lat="43.2517070000" lon="-1.0962170000"><ele>390</ele><time>2026-04-24T08:29:12Z</time></trkpt>
<trkpt lat="43.2516930000" lon="-1.0962420000"><ele>390</ele><time>2026-04-24T08:29:14Z</time></trkpt>
<trkpt lat="43.2516820000" lon="-1.0962650000"><ele>389</ele><time>2026-04-24T08:29:16Z</time></trkpt>
<trkpt lat="43.2516620000" lon="-1.0962920000"><ele>389</ele><time>2026-04-24T08:29:18Z</time></trkpt>
<trkpt lat="43.2516470000" lon="-1.0963130000"><ele>389</ele><time>2026-04-24T08:29:20Z</time></trkpt>
<trkpt lat="43.2516320000" lon="-1.0963370000"><ele>389</ele><time>2026-04-24T08:29:22Z</time></trkpt>
<trkpt lat="43.2516170000" lon="-1.0963620000"><ele>389</ele><time>2026-04-24T08:29:24Z</time></trkpt>
<trkpt lat="43.2516050000" lon="-1.0963870000"><ele>389</ele><time>2026-04-24T08:29:26Z</time></trkpt>
<trkpt lat="43.2515870000" lon="-1.0964120000"><ele>389</ele><time>2026-04-24T08:29:28Z</time></trkpt>
<trkpt lat="43.2515620000" lon="-1.0964320000"><ele>389</ele><time>2026-04-24T08:29:30Z</time></trkpt>
<trkpt lat="43.2515470000" lon="-1.0964520000"><ele>389</ele><time>2026-04-24T08:29:32Z</time></trkpt>
<trkpt lat="43.2515320000" lon="-1.0964720000"><ele>389</ele><time>2026-04-24T08:29:34Z</time></trkpt>
<trkpt lat="43.2515170000" lon="-1.0964920000"><ele>389</ele><time>2026-04-24T08:29:36Z</time></trkpt>
<trkpt lat="43.2515050000" lon="-1.0965220000"><ele>388</ele><time>2026-04-24T08:29:38Z</time></trkpt>
<trkpt lat="43.2514920000" lon="-1.0965520000"><ele>388</ele><time>2026-04-24T08:29:40Z</time></trkpt>
<trkpt lat="43.2514800000" lon="-1.0965770000"><ele>389</ele><time>2026-04-24T08:29:42Z</time></trkpt>
<trkpt lat="43.2514670000" lon="-1.0966050000"><ele>389</ele><time>2026-04-24T08:29:44Z</time></trkpt>
<trkpt lat="43.2514570000" lon="-1.0966320000"><ele>389</ele><time>2026-04-24T08:29:46Z</time></trkpt>
<trkpt lat="43.2514470000" lon="-1.0966600000"><ele>389</ele><time>2026-04-24T08:29:48Z</time></trkpt>
<trkpt lat="43.2514370000" lon="-1.0966850000"><ele>389</ele><time>2026-04-24T08:29:50Z</time></trkpt>
<trkpt lat="43.2514250000" lon="-1.0967170000"><ele>389</ele><time>2026-04-24T08:29:52Z</time></trkpt>
<trkpt lat="43.2514150000" lon="-1.0967520000"><ele>389</ele><time>2026-04-24T08:29:54Z</time></trkpt>
<trkpt lat="43.2514070000" lon="-1.0967800000"><ele>389</ele><time>2026-04-24T08:29:56Z</time></trkpt>
<trkpt lat="43.2513980000" lon="-1.0968070000"><ele>389</ele><time>2026-04-24T08:29:58Z</time></trkpt>
<trkpt lat="43.2513920000" lon="-1.0968370000"><ele>390</ele><time>2026-04-24T08:30:00Z</time></trkpt>
<trkpt lat="43.2513820000" lon="-1.0968650000"><ele>390</ele><time>2026-04-24T08:30:02Z</time></trkpt>
<trkpt lat="43.2513770000" lon="-1.0968920000"><ele>390</ele><time>2026-04-24T08:30:04Z</time></trkpt>
<trkpt lat="43.2513670000" lon="-1.0969170000"><ele>390</ele><time>2026-04-24T08:30:06Z</time></trkpt>
<trkpt lat="43.2513570000" lon="-1.0969420000"><ele>390</ele><time>2026-04-24T08:30:08Z</time></trkpt>
<trkpt lat="43.2513470000" lon="-1.0969700000"><ele>390</ele><time>2026-04-24T08:30:10Z</time></trkpt>
<trkpt lat="43.2513370000" lon="-1.0969970000"><ele>391</ele><time>2026-04-24T08:30:12Z</time></trkpt>
<trkpt lat="43.2513270000" lon="-1.0970250000"><ele>391</ele><time>2026-04-24T08:30:14Z</time></trkpt>
<trkpt lat="43.2513130000" lon="-1.0970520000"><ele>391</ele><time>2026-04-24T08:30:16Z</time></trkpt>
<trkpt lat="43.2513020000" lon="-1.0970820000"><ele>391</ele><time>2026-04-24T08:30:18Z</time></trkpt>
<trkpt lat="43.2512920000" lon="-1.0971100000"><ele>391</ele><time>2026-04-24T08:30:20Z</time></trkpt>
<trkpt lat="43.2512770000" lon="-1.0971350000"><ele>391</ele><time>2026-04-24T08:30:22Z</time></trkpt>
<trkpt lat="43.2512650000" lon="-1.0971600000"><ele>391</ele><time>2026-04-24T08:30:24Z</time></trkpt>
<trkpt lat="43.2512600000" lon="-1.0971870000"><ele>392</ele><time>2026-04-24T08:30:26Z</time></trkpt>
<trkpt lat="43.2512500000" lon="-1.0972120000"><ele>392</ele><time>2026-04-24T08:30:28Z</time></trkpt>
<trkpt lat="43.2512420000" lon="-1.0972350000"><ele>392</ele><time>2026-04-24T08:30:30Z</time></trkpt>
<trkpt lat="43.2512320000" lon="-1.0972620000"><ele>392</ele><time>2026-04-24T08:30:32Z</time></trkpt>
<trkpt lat="43.2512300000" lon="-1.0972870000"><ele>392</ele><time>2026-04-24T08:30:34Z</time></trkpt>
<trkpt lat="43.2512220000" lon="-1.0973120000"><ele>392</ele><time>2026-04-24T08:30:36Z</time></trkpt>
<trkpt lat="43.2512120000" lon="-1.0973420000"><ele>392</ele><time>2026-04-24T08:30:38Z</time></trkpt>
<trkpt lat="43.2511970000" lon="-1.0973670000"><ele>392</ele><time>2026-04-24T08:30:40Z</time></trkpt>
<trkpt lat="43.2511800000" lon="-1.0973900000"><ele>392</ele><time>2026-04-24T08:30:42Z</time></trkpt>
<trkpt lat="43.2511600000" lon="-1.0974170000"><ele>392</ele><time>2026-04-24T08:30:44Z</time></trkpt>
<trkpt lat="43.2511450000" lon="-1.0974470000"><ele>392</ele><time>2026-04-24T08:30:46Z</time></trkpt>
<trkpt lat="43.2511350000" lon="-1.0974770000"><ele>392</ele><time>2026-04-24T08:30:48Z</time></trkpt>
<trkpt lat="43.2511270000" lon="-1.0975070000"><ele>392</ele><time>2026-04-24T08:30:50Z</time></trkpt>
<trkpt lat="43.2511220000" lon="-1.0975350000"><ele>392</ele><time>2026-04-24T08:30:52Z</time></trkpt>
<trkpt lat="43.2511170000" lon="-1.0975620000"><ele>392</ele><time>2026-04-24T08:30:54Z</time></trkpt>
<trkpt lat="43.2511100000" lon="-1.0975900000"><ele>392</ele><time>2026-04-24T08:30:56Z</time></trkpt>
<trkpt lat="43.2511020000" lon="-1.0976170000"><ele>393</ele><time>2026-04-24T08:30:58Z</time></trkpt>
<trkpt lat="43.2510970000" lon="-1.0976420000"><ele>393</ele><time>2026-04-24T08:31:00Z</time></trkpt>
<trkpt lat="43.2510880000" lon="-1.0976700000"><ele>393</ele><time>2026-04-24T08:31:02Z</time></trkpt>
<trkpt lat="43.2510800000" lon="-1.0977030000"><ele>392</ele><time>2026-04-24T08:31:05Z</time></trkpt>
<trkpt lat="43.2510720000" lon="-1.0977300000"><ele>392</ele><time>2026-04-24T08:31:07Z</time></trkpt>
<trkpt lat="43.2510700000" lon="-1.0977550000"><ele>392</ele><time>2026-04-24T08:31:09Z</time></trkpt>
<trkpt lat="43.2510620000" lon="-1.0977800000"><ele>392</ele><time>2026-04-24T08:31:11Z</time></trkpt>
<trkpt lat="43.2510550000" lon="-1.0978050000"><ele>392</ele><time>2026-04-24T08:31:13Z</time></trkpt>
<trkpt lat="43.2510500000" lon="-1.0978350000"><ele>392</ele><time>2026-04-24T08:31:15Z</time></trkpt>
<trkpt lat="43.2510450000" lon="-1.0978620000"><ele>392</ele><time>2026-04-24T08:31:17Z</time></trkpt>
<trkpt lat="43.2510370000" lon="-1.0978920000"><ele>392</ele><time>2026-04-24T08:31:19Z</time></trkpt>
<trkpt lat="43.2510320000" lon="-1.0979170000"><ele>391</ele><time>2026-04-24T08:31:21Z</time></trkpt>
<trkpt lat="43.2510250000" lon="-1.0979470000"><ele>391</ele><time>2026-04-24T08:31:23Z</time></trkpt>
<trkpt lat="43.2510170000" lon="-1.0979720000"><ele>391</ele><time>2026-04-24T08:31:25Z</time></trkpt>
<trkpt lat="43.2510120000" lon="-1.0979950000"><ele>391</ele><time>2026-04-24T08:31:27Z</time></trkpt>
<trkpt lat="43.2510020000" lon="-1.0980270000"><ele>391</ele><time>2026-04-24T08:31:30Z</time></trkpt>
<trkpt lat="43.2509920000" lon="-1.0980570000"><ele>390</ele><time>2026-04-24T08:31:33Z</time></trkpt>
<trkpt lat="43.2509820000" lon="-1.0980920000"><ele>389</ele><time>2026-04-24T08:31:36Z</time></trkpt>
<trkpt lat="43.2509720000" lon="-1.0981270000"><ele>389</ele><time>2026-04-24T08:31:39Z</time></trkpt>
<trkpt lat="43.2509620000" lon="-1.0981620000"><ele>388</ele><time>2026-04-24T08:31:42Z</time></trkpt>
<trkpt lat="43.2509520000" lon="-1.0981850000"><ele>388</ele><time>2026-04-24T08:31:44Z</time></trkpt>
<trkpt lat="43.2509420000" lon="-1.0982170000"><ele>387</ele><time>2026-04-24T08:31:47Z</time></trkpt>
<trkpt lat="43.2509320000" lon="-1.0982470000"><ele>386</ele><time>2026-04-24T08:31:50Z</time></trkpt>
<trkpt lat="43.2509220000" lon="-1.0982700000"><ele>386</ele><time>2026-04-24T08:31:52Z</time></trkpt>
<trkpt lat="43.2509150000" lon="-1.0983020000"><ele>385</ele><time>2026-04-24T08:31:55Z</time></trkpt>
<trkpt lat="43.2509020000" lon="-1.0983220000"><ele>385</ele><time>2026-04-24T08:31:57Z</time></trkpt>
<trkpt lat="43.2508870000" lon="-1.0983400000"><ele>384</ele><time>2026-04-24T08:31:59Z</time></trkpt>
<trkpt lat="43.2508750000" lon="-1.0983620000"><ele>383</ele><time>2026-04-24T08:32:01Z</time></trkpt>
<trkpt lat="43.2508600000" lon="-1.0983970000"><ele>383</ele><time>2026-04-24T08:32:04Z</time></trkpt>
<trkpt lat="43.2508470000" lon="-1.0984270000"><ele>382</ele><time>2026-04-24T08:32:07Z</time></trkpt>
<trkpt lat="43.2508500000" lon="-1.0984600000"><ele>381</ele><time>2026-04-24T08:32:10Z</time></trkpt>
<trkpt lat="43.2508420000" lon="-1.0984920000"><ele>380</ele><time>2026-04-24T08:32:13Z</time></trkpt>
<trkpt lat="43.2508220000" lon="-1.0985100000"><ele>380</ele><time>2026-04-24T08:32:16Z</time></trkpt>
<trkpt lat="43.2508070000" lon="-1.0985270000"><ele>379</ele><time>2026-04-24T08:32:18Z</time></trkpt>
<trkpt lat="43.2507970000" lon="-1.0985520000"><ele>379</ele><time>2026-04-24T08:32:20Z</time></trkpt>
<trkpt lat="43.2507850000" lon="-1.0985720000"><ele>378</ele><time>2026-04-24T08:32:22Z</time></trkpt>
<trkpt lat="43.2507750000" lon="-1.0985950000"><ele>378</ele><time>2026-04-24T08:32:24Z</time></trkpt>
<trkpt lat="43.2507620000" lon="-1.0986150000"><ele>378</ele><time>2026-04-24T08:32:26Z</time></trkpt>
<trkpt lat="43.2507520000" lon="-1.0986370000"><ele>377</ele><time>2026-04-24T08:32:28Z</time></trkpt>
<trkpt lat="43.2507370000" lon="-1.0986570000"><ele>377</ele><time>2026-04-24T08:32:30Z</time></trkpt>
<trkpt lat="43.2507170000" lon="-1.0986820000"><ele>376</ele><time>2026-04-24T08:32:33Z</time></trkpt>
<trkpt lat="43.2507000000" lon="-1.0986970000"><ele>376</ele><time>2026-04-24T08:32:35Z</time></trkpt>
<trkpt lat="43.2506820000" lon="-1.0987070000"><ele>376</ele><time>2026-04-24T08:32:37Z</time></trkpt>
<trkpt lat="43.2506650000" lon="-1.0987170000"><ele>373</ele><time>2026-04-24T08:33:05Z</time></trkpt>
<trkpt lat="43.2506320000" lon="-1.0987320000"><ele>374</ele><time>2026-04-24T08:33:07Z</time></trkpt>
<trkpt lat="43.2506170000" lon="-1.0987450000"><ele>373</ele><time>2026-04-24T08:33:08Z</time></trkpt>
<trkpt lat="43.2505870000" lon="-1.0987620000"><ele>373</ele><time>2026-04-24T08:33:10Z</time></trkpt>
<trkpt lat="43.2505700000" lon="-1.0987670000"><ele>372</ele><time>2026-04-24T08:33:21Z</time></trkpt>
<trkpt lat="43.2505520000" lon="-1.0987820000"><ele>372</ele><time>2026-04-24T08:33:24Z</time></trkpt>
<trkpt lat="43.2505300000" lon="-1.0988000000"><ele>372</ele><time>2026-04-24T08:33:26Z</time></trkpt>
<trkpt lat="43.2505120000" lon="-1.0988170000"><ele>371</ele><time>2026-04-24T08:33:28Z</time></trkpt>
<trkpt lat="43.2504920000" lon="-1.0988350000"><ele>371</ele><time>2026-04-24T08:33:30Z</time></trkpt>
<trkpt lat="43.2504750000" lon="-1.0988470000"><ele>371</ele><time>2026-04-24T08:33:32Z</time></trkpt>
<trkpt lat="43.2504570000" lon="-1.0988570000"><ele>370</ele><time>2026-04-24T08:33:34Z</time></trkpt>
<trkpt lat="43.2504400000" lon="-1.0988700000"><ele>370</ele><time>2026-04-24T08:33:36Z</time></trkpt>
<trkpt lat="43.2504200000" lon="-1.0988800000"><ele>370</ele><time>2026-04-24T08:33:38Z</time></trkpt>
<trkpt lat="43.2504020000" lon="-1.0988900000"><ele>369</ele><time>2026-04-24T08:33:40Z</time></trkpt>
<trkpt lat="43.2503820000" lon="-1.0989020000"><ele>369</ele><time>2026-04-24T08:33:42Z</time></trkpt>
<trkpt lat="43.2503650000" lon="-1.0989170000"><ele>369</ele><time>2026-04-24T08:33:44Z</time></trkpt>
<trkpt lat="43.2503500000" lon="-1.0989320000"><ele>369</ele><time>2026-04-24T08:33:46Z</time></trkpt>
<trkpt lat="43.2503350000" lon="-1.0989470000"><ele>368</ele><time>2026-04-24T08:33:48Z</time></trkpt>
<trkpt lat="43.2503220000" lon="-1.0989650000"><ele>368</ele><time>2026-04-24T08:33:50Z</time></trkpt>
<trkpt lat="43.2503020000" lon="-1.0989820000"><ele>367</ele><time>2026-04-24T08:33:52Z</time></trkpt>
<trkpt lat="43.2502850000" lon="-1.0989950000"><ele>367</ele><time>2026-04-24T08:33:54Z</time></trkpt>
<trkpt lat="43.2502670000" lon="-1.0990150000"><ele>367</ele><time>2026-04-24T08:33:56Z</time></trkpt>
<trkpt lat="43.2502550000" lon="-1.0990320000"><ele>367</ele><time>2026-04-24T08:33:58Z</time></trkpt>
<trkpt lat="43.2502400000" lon="-1.0990500000"><ele>366</ele><time>2026-04-24T08:34:00Z</time></trkpt>
<trkpt lat="43.2502220000" lon="-1.0990720000"><ele>366</ele><time>2026-04-24T08:34:02Z</time></trkpt>
<trkpt lat="43.2502050000" lon="-1.0990820000"><ele>366</ele><time>2026-04-24T08:34:04Z</time></trkpt>
<trkpt lat="43.2501870000" lon="-1.0991070000"><ele>366</ele><time>2026-04-24T08:34:06Z</time></trkpt>
<trkpt lat="43.2501750000" lon="-1.0991300000"><ele>365</ele><time>2026-04-24T08:34:08Z</time></trkpt>
<trkpt lat="43.2501650000" lon="-1.0991520000"><ele>365</ele><time>2026-04-24T08:34:10Z</time></trkpt>
<trkpt lat="43.2501520000" lon="-1.0991720000"><ele>365</ele><time>2026-04-24T08:34:12Z</time></trkpt>
<trkpt lat="43.2501420000" lon="-1.0992000000"><ele>365</ele><time>2026-04-24T08:34:14Z</time></trkpt>
<trkpt lat="43.2501350000" lon="-1.0992270000"><ele>364</ele><time>2026-04-24T08:34:16Z</time></trkpt>
<trkpt lat="43.2501300000" lon="-1.0992520000"><ele>364</ele><time>2026-04-24T08:34:18Z</time></trkpt>
<trkpt lat="43.2501220000" lon="-1.0992770000"><ele>364</ele><time>2026-04-24T08:34:20Z</time></trkpt>
<trkpt lat="43.2501120000" lon="-1.0993020000"><ele>364</ele><time>2026-04-24T08:34:22Z</time></trkpt>
<trkpt lat="43.2501020000" lon="-1.0993300000"><ele>363</ele><time>2026-04-24T08:34:24Z</time></trkpt>
<trkpt lat="43.2500870000" lon="-1.0993570000"><ele>363</ele><time>2026-04-24T08:34:26Z</time></trkpt>
<trkpt lat="43.2500800000" lon="-1.0993820000"><ele>363</ele><time>2026-04-24T08:34:28Z</time></trkpt>
<trkpt lat="43.2500670000" lon="-1.0994070000"><ele>363</ele><time>2026-04-24T08:34:30Z</time></trkpt>
<trkpt lat="43.2500570000" lon="-1.0994300000"><ele>363</ele><time>2026-04-24T08:34:32Z</time></trkpt>
<trkpt lat="43.2500370000" lon="-1.0994620000"><ele>362</ele><time>2026-04-24T08:34:35Z</time></trkpt>
<trkpt lat="43.2500250000" lon="-1.0994900000"><ele>362</ele><time>2026-04-24T08:34:37Z</time></trkpt>
<trkpt lat="43.2500170000" lon="-1.0995150000"><ele>362</ele><time>2026-04-24T08:34:39Z</time></trkpt>
<trkpt lat="43.2500100000" lon="-1.0995420000"><ele>361</ele><time>2026-04-24T08:34:41Z</time></trkpt>
<trkpt lat="43.2500070000" lon="-1.0995700000"><ele>361</ele><time>2026-04-24T08:34:43Z</time></trkpt>
<trkpt lat="43.2500070000" lon="-1.0995970000"><ele>361</ele><time>2026-04-24T08:34:45Z</time></trkpt>
<trkpt lat="43.2500050000" lon="-1.0996270000"><ele>361</ele><time>2026-04-24T08:34:47Z</time></trkpt>
<trkpt lat="43.2500000000" lon="-1.0996520000"><ele>360</ele><time>2026-04-24T08:34:49Z</time></trkpt>
<trkpt lat="43.2499920000" lon="-1.0996770000"><ele>360</ele><time>2026-04-24T08:34:51Z</time></trkpt>
<trkpt lat="43.2499870000" lon="-1.0997020000"><ele>360</ele><time>2026-04-24T08:34:53Z</time></trkpt>
<trkpt lat="43.2499820000" lon="-1.0997320000"><ele>360</ele><time>2026-04-24T08:34:55Z</time></trkpt>
<trkpt lat="43.2499770000" lon="-1.0997600000"><ele>359</ele><time>2026-04-24T08:34:57Z</time></trkpt>
<trkpt lat="43.2499700000" lon="-1.0997870000"><ele>359</ele><time>2026-04-24T08:34:59Z</time></trkpt>
<trkpt lat="43.2499620000" lon="-1.0998150000"><ele>359</ele><time>2026-04-24T08:35:01Z</time></trkpt>
<trkpt lat="43.2499550000" lon="-1.0998370000"><ele>359</ele><time>2026-04-24T08:35:03Z</time></trkpt>
<trkpt lat="43.2499450000" lon="-1.0998650000"><ele>359</ele><time>2026-04-24T08:35:05Z</time></trkpt>
<trkpt lat="43.2499420000" lon="-1.0998920000"><ele>359</ele><time>2026-04-24T08:35:07Z</time></trkpt>
<trkpt lat="43.2499420000" lon="-1.0999220000"><ele>358</ele><time>2026-04-24T08:35:09Z</time></trkpt>
<trkpt lat="43.2499370000" lon="-1.0999470000"><ele>358</ele><time>2026-04-24T08:35:11Z</time></trkpt>
<trkpt lat="43.2499270000" lon="-1.0999750000"><ele>358</ele><time>2026-04-24T08:35:13Z</time></trkpt>
<trkpt lat="43.2499200000" lon="-1.1000020000"><ele>358</ele><time>2026-04-24T08:35:15Z</time></trkpt>
<trkpt lat="43.2499100000" lon="-1.1000270000"><ele>357</ele><time>2026-04-24T08:35:17Z</time></trkpt>
<trkpt lat="43.2498970000" lon="-1.1000570000"><ele>357</ele><time>2026-04-24T08:35:20Z</time></trkpt>
<trkpt lat="43.2498850000" lon="-1.1000820000"><ele>357</ele><time>2026-04-24T08:35:22Z</time></trkpt>
<trkpt lat="43.2498670000" lon="-1.1001070000"><ele>357</ele><time>2026-04-24T08:35:25Z</time></trkpt>
<trkpt lat="43.2498570000" lon="-1.1001320000"><ele>356</ele><time>2026-04-24T08:35:28Z</time></trkpt>
<trkpt lat="43.2498400000" lon="-1.1001520000"><ele>356</ele><time>2026-04-24T08:35:31Z</time></trkpt>
<trkpt lat="43.2498250000" lon="-1.1001820000"><ele>355</ele><time>2026-04-24T08:35:34Z</time></trkpt>
<trkpt lat="43.2498170000" lon="-1.1002070000"><ele>355</ele><time>2026-04-24T08:35:37Z</time></trkpt>
<trkpt lat="43.2498070000" lon="-1.1002400000"><ele>354</ele><time>2026-04-24T08:35:40Z</time></trkpt>
<trkpt lat="43.2498000000" lon="-1.1002650000"><ele>354</ele><time>2026-04-24T08:35:42Z</time></trkpt>
<trkpt lat="43.2497920000" lon="-1.1002870000"><ele>354</ele><time>2026-04-24T08:35:44Z</time></trkpt>
<trkpt lat="43.2497850000" lon="-1.1003120000"><ele>354</ele><time>2026-04-24T08:35:46Z</time></trkpt>
<trkpt lat="43.2497700000" lon="-1.1003450000"><ele>353</ele><time>2026-04-24T08:35:48Z</time></trkpt>
<trkpt lat="43.2497570000" lon="-1.1003770000"><ele>353</ele><time>2026-04-24T08:35:50Z</time></trkpt>
<trkpt lat="43.2497500000" lon="-1.1004020000"><ele>353</ele><time>2026-04-24T08:35:52Z</time></trkpt>
<trkpt lat="43.2497420000" lon="-1.1004370000"><ele>352</ele><time>2026-04-24T08:35:55Z</time></trkpt>
<trkpt lat="43.2497320000" lon="-1.1004600000"><ele>352</ele><time>2026-04-24T08:35:57Z</time></trkpt>
<trkpt lat="43.2497230000" lon="-1.1004820000"><ele>352</ele><time>2026-04-24T08:35:59Z</time></trkpt>
<trkpt lat="43.2497150000" lon="-1.1005070000"><ele>352</ele><time>2026-04-24T08:36:01Z</time></trkpt>
<trkpt lat="43.2497050000" lon="-1.1005350000"><ele>352</ele><time>2026-04-24T08:36:03Z</time></trkpt>
<trkpt lat="43.2496950000" lon="-1.1005600000"><ele>352</ele><time>2026-04-24T08:36:05Z</time></trkpt>
<trkpt lat="43.2496850000" lon="-1.1005870000"><ele>352</ele><time>2026-04-24T08:36:07Z</time></trkpt>
<trkpt lat="43.2496770000" lon="-1.1006100000"><ele>351</ele><time>2026-04-24T08:36:09Z</time></trkpt>
<trkpt lat="43.2496700000" lon="-1.1006320000"><ele>351</ele><time>2026-04-24T08:36:11Z</time></trkpt>
<trkpt lat="43.2496570000" lon="-1.1006520000"><ele>351</ele><time>2026-04-24T08:36:13Z</time></trkpt>
<trkpt lat="43.2496500000" lon="-1.1006850000"><ele>351</ele><time>2026-04-24T08:36:16Z</time></trkpt>
<trkpt lat="43.2496420000" lon="-1.1007100000"><ele>350</ele><time>2026-04-24T08:36:18Z</time></trkpt>
<trkpt lat="43.2496320000" lon="-1.1007450000"><ele>350</ele><time>2026-04-24T08:36:21Z</time></trkpt>
<trkpt lat="43.2496250000" lon="-1.1007700000"><ele>350</ele><time>2026-04-24T08:36:23Z</time></trkpt>
<trkpt lat="43.2496120000" lon="-1.1007950000"><ele>350</ele><time>2026-04-24T08:36:25Z</time></trkpt>
<trkpt lat="43.2495970000" lon="-1.1008170000"><ele>350</ele><time>2026-04-24T08:36:27Z</time></trkpt>
<trkpt lat="43.2495850000" lon="-1.1008370000"><ele>349</ele><time>2026-04-24T08:36:29Z</time></trkpt>
<trkpt lat="43.2495750000" lon="-1.1008700000"><ele>349</ele><time>2026-04-24T08:36:32Z</time></trkpt>
<trkpt lat="43.2495620000" lon="-1.1009020000"><ele>349</ele><time>2026-04-24T08:36:35Z</time></trkpt>
<trkpt lat="43.2495520000" lon="-1.1009250000"><ele>349</ele><time>2026-04-24T08:36:37Z</time></trkpt>
<trkpt lat="43.2495420000" lon="-1.1009470000"><ele>349</ele><time>2026-04-24T08:36:39Z</time></trkpt>
<trkpt lat="43.2495300000" lon="-1.1009720000"><ele>349</ele><time>2026-04-24T08:36:41Z</time></trkpt>
<trkpt lat="43.2495170000" lon="-1.1009950000"><ele>349</ele><time>2026-04-24T08:36:43Z</time></trkpt>
<trkpt lat="43.2495070000" lon="-1.1010200000"><ele>349</ele><time>2026-04-24T08:36:45Z</time></trkpt>
<trkpt lat="43.2494920000" lon="-1.1010470000"><ele>349</ele><time>2026-04-24T08:36:47Z</time></trkpt>
<trkpt lat="43.2494800000" lon="-1.1010700000"><ele>349</ele><time>2026-04-24T08:36:49Z</time></trkpt>
<trkpt lat="43.2494720000" lon="-1.1010970000"><ele>349</ele><time>2026-04-24T08:36:51Z</time></trkpt>
<trkpt lat="43.2494670000" lon="-1.1011220000"><ele>349</ele><time>2026-04-24T08:36:53Z</time></trkpt>
<trkpt lat="43.2494600000" lon="-1.1011470000"><ele>349</ele><time>2026-04-24T08:36:55Z</time></trkpt>
<trkpt lat="43.2494520000" lon="-1.1011720000"><ele>348</ele><time>2026-04-24T08:36:57Z</time></trkpt>
<trkpt lat="43.2494420000" lon="-1.1011970000"><ele>348</ele><time>2026-04-24T08:36:59Z</time></trkpt>
<trkpt lat="43.2494200000" lon="-1.1012220000"><ele>348</ele><time>2026-04-24T08:37:01Z</time></trkpt>
<trkpt lat="43.2493970000" lon="-1.1012500000"><ele>348</ele><time>2026-04-24T08:37:03Z</time></trkpt>
<trkpt lat="43.2493820000" lon="-1.1012720000"><ele>348</ele><time>2026-04-24T08:37:05Z</time></trkpt>
<trkpt lat="43.2493670000" lon="-1.1012920000"><ele>348</ele><time>2026-04-24T08:37:07Z</time></trkpt>
<trkpt lat="43.2493520000" lon="-1.1013220000"><ele>348</ele><time>2026-04-24T08:37:09Z</time></trkpt>
<trkpt lat="43.2493400000" lon="-1.1013470000"><ele>347</ele><time>2026-04-24T08:37:11Z</time></trkpt>
<trkpt lat="43.2493270000" lon="-1.1013770000"><ele>347</ele><time>2026-04-24T08:37:13Z</time></trkpt>
<trkpt lat="43.2493170000" lon="-1.1014020000"><ele>347</ele><time>2026-04-24T08:37:15Z</time></trkpt>
<trkpt lat="43.2493070000" lon="-1.1014270000"><ele>347</ele><time>2026-04-24T08:37:17Z</time></trkpt>
<trkpt lat="43.2492970000" lon="-1.1014520000"><ele>347</ele><time>2026-04-24T08:37:19Z</time></trkpt>
<trkpt lat="43.2492820000" lon="-1.1014750000"><ele>347</ele><time>2026-04-24T08:37:21Z</time></trkpt>
<trkpt lat="43.2492670000" lon="-1.1015020000"><ele>347</ele><time>2026-04-24T08:37:23Z</time></trkpt>
<trkpt lat="43.2492520000" lon="-1.1015270000"><ele>347</ele><time>2026-04-24T08:37:25Z</time></trkpt>
<trkpt lat="43.2492420000" lon="-1.1015520000"><ele>347</ele><time>2026-04-24T08:37:27Z</time></trkpt>
<trkpt lat="43.2492300000" lon="-1.1015800000"><ele>347</ele><time>2026-04-24T08:37:29Z</time></trkpt>
<trkpt lat="43.2492170000" lon="-1.1016070000"><ele>347</ele><time>2026-04-24T08:37:31Z</time></trkpt>
<trkpt lat="43.2492020000" lon="-1.1016350000"><ele>347</ele><time>2026-04-24T08:37:33Z</time></trkpt>
<trkpt lat="43.2491900000" lon="-1.1016620000"><ele>347</ele><time>2026-04-24T08:37:35Z</time></trkpt>
<trkpt lat="43.2491750000" lon="-1.1016870000"><ele>347</ele><time>2026-04-24T08:37:37Z</time></trkpt>
<trkpt lat="43.2491620000" lon="-1.1017100000"><ele>347</ele><time>2026-04-24T08:37:39Z</time></trkpt>
<trkpt lat="43.2491500000" lon="-1.1017370000"><ele>347</ele><time>2026-04-24T08:37:41Z</time></trkpt>
<trkpt lat="43.2491370000" lon="-1.1017620000"><ele>348</ele><time>2026-04-24T08:37:43Z</time></trkpt>
<trkpt lat="43.2491250000" lon="-1.1017870000"><ele>348</ele><time>2026-04-24T08:37:45Z</time></trkpt>
<trkpt lat="43.2491120000" lon="-1.1018120000"><ele>348</ele><time>2026-04-24T08:37:47Z</time></trkpt>
<trkpt lat="43.2490970000" lon="-1.1018320000"><ele>348</ele><time>2026-04-24T08:37:49Z</time></trkpt>
<trkpt lat="43.2490870000" lon="-1.1018520000"><ele>348</ele><time>2026-04-24T08:37:51Z</time></trkpt>
<trkpt lat="43.2490700000" lon="-1.1018720000"><ele>348</ele><time>2026-04-24T08:37:53Z</time></trkpt>
<trkpt lat="43.2490550000" lon="-1.1018900000"><ele>349</ele><time>2026-04-24T08:37:55Z</time></trkpt>
<trkpt lat="43.2490370000" lon="-1.1019070000"><ele>349</ele><time>2026-04-24T08:37:57Z</time></trkpt>
<trkpt lat="43.2490220000" lon="-1.1019270000"><ele>349</ele><time>2026-04-24T08:37:59Z</time></trkpt>
<trkpt lat="43.2490070000" lon="-1.1019500000"><ele>349</ele><time>2026-04-24T08:38:01Z</time></trkpt>
<trkpt lat="43.2489920000" lon="-1.1019670000"><ele>349</ele><time>2026-04-24T08:38:03Z</time></trkpt>
<trkpt lat="43.2489800000" lon="-1.1019970000"><ele>349</ele><time>2026-04-24T08:38:06Z</time></trkpt>
<trkpt lat="43.2489800000" lon="-1.1020300000"><ele>350</ele><time>2026-04-24T08:38:13Z</time></trkpt>
<trkpt lat="43.2489570000" lon="-1.1020520000"><ele>350</ele><time>2026-04-24T08:38:15Z</time></trkpt>
<trkpt lat="43.2489350000" lon="-1.1020720000"><ele>350</ele><time>2026-04-24T08:38:17Z</time></trkpt>
<trkpt lat="43.2489170000" lon="-1.1020920000"><ele>350</ele><time>2026-04-24T08:38:19Z</time></trkpt>
<trkpt lat="43.2489000000" lon="-1.1021120000"><ele>350</ele><time>2026-04-24T08:38:21Z</time></trkpt>
<trkpt lat="43.2488850000" lon="-1.1021300000"><ele>350</ele><time>2026-04-24T08:38:23Z</time></trkpt>
<trkpt lat="43.2488700000" lon="-1.1021500000"><ele>350</ele><time>2026-04-24T08:38:25Z</time></trkpt>
<trkpt lat="43.2488550000" lon="-1.1021720000"><ele>350</ele><time>2026-04-24T08:38:27Z</time></trkpt>
<trkpt lat="43.2488370000" lon="-1.1021920000"><ele>350</ele><time>2026-04-24T08:38:29Z</time></trkpt>
<trkpt lat="43.2488170000" lon="-1.1022120000"><ele>351</ele><time>2026-04-24T08:38:32Z</time></trkpt>
<trkpt lat="43.2488050000" lon="-1.1022320000"><ele>351</ele><time>2026-04-24T08:38:34Z</time></trkpt>
<trkpt lat="43.2487920000" lon="-1.1022500000"><ele>351</ele><time>2026-04-24T08:38:36Z</time></trkpt>
<trkpt lat="43.2487750000" lon="-1.1022720000"><ele>351</ele><time>2026-04-24T08:38:39Z</time></trkpt>
<trkpt lat="43.2487570000" lon="-1.1022970000"><ele>351</ele><time>2026-04-24T08:38:42Z</time></trkpt>
<trkpt lat="43.2487420000" lon="-1.1023170000"><ele>351</ele><time>2026-04-24T08:38:45Z</time></trkpt>
<trkpt lat="43.2487270000" lon="-1.1023370000"><ele>351</ele><time>2026-04-24T08:38:48Z</time></trkpt>
<trkpt lat="43.2487150000" lon="-1.1023570000"><ele>352</ele><time>2026-04-24T08:38:50Z</time></trkpt>
<trkpt lat="43.2487000000" lon="-1.1023720000"><ele>352</ele><time>2026-04-24T08:38:52Z</time></trkpt>
<trkpt lat="43.2486850000" lon="-1.1023970000"><ele>352</ele><time>2026-04-24T08:38:55Z</time></trkpt>
<trkpt lat="43.2486650000" lon="-1.1024170000"><ele>353</ele><time>2026-04-24T08:38:58Z</time></trkpt>
<trkpt lat="43.2486450000" lon="-1.1024370000"><ele>353</ele><time>2026-04-24T08:39:01Z</time></trkpt>
<trkpt lat="43.2486300000" lon="-1.1024520000"><ele>353</ele><time>2026-04-24T08:39:03Z</time></trkpt>
<trkpt lat="43.2486070000" lon="-1.1024750000"><ele>353</ele><time>2026-04-24T08:39:06Z</time></trkpt>
<trkpt lat="43.2485900000" lon="-1.1024900000"><ele>353</ele><time>2026-04-24T08:39:08Z</time></trkpt>
<trkpt lat="43.2485670000" lon="-1.1025100000"><ele>354</ele><time>2026-04-24T08:39:11Z</time></trkpt>
<trkpt lat="43.2485500000" lon="-1.1025270000"><ele>354</ele><time>2026-04-24T08:39:13Z</time></trkpt>
<trkpt lat="43.2485350000" lon="-1.1025470000"><ele>354</ele><time>2026-04-24T08:39:15Z</time></trkpt>
<trkpt lat="43.2485200000" lon="-1.1025700000"><ele>354</ele><time>2026-04-24T08:39:17Z</time></trkpt>
<trkpt lat="43.2485070000" lon="-1.1025970000"><ele>354</ele><time>2026-04-24T08:39:20Z</time></trkpt>
<trkpt lat="43.2484870000" lon="-1.1026250000"><ele>354</ele><time>2026-04-24T08:39:23Z</time></trkpt>
<trkpt lat="43.2484700000" lon="-1.1026450000"><ele>354</ele><time>2026-04-24T08:39:25Z</time></trkpt>
<trkpt lat="43.2484520000" lon="-1.1026620000"><ele>355</ele><time>2026-04-24T08:39:27Z</time></trkpt>
<trkpt lat="43.2484270000" lon="-1.1026820000"><ele>355</ele><time>2026-04-24T08:39:30Z</time></trkpt>
<trkpt lat="43.2484120000" lon="-1.1027000000"><ele>355</ele><time>2026-04-24T08:39:32Z</time></trkpt>
<trkpt lat="43.2483950000" lon="-1.1027220000"><ele>355</ele><time>2026-04-24T08:39:35Z</time></trkpt>
<trkpt lat="43.2483750000" lon="-1.1027370000"><ele>356</ele><time>2026-04-24T08:39:37Z</time></trkpt>
<trkpt lat="43.2483470000" lon="-1.1027500000"><ele>356</ele><time>2026-04-24T08:39:39Z</time></trkpt>
<trkpt lat="43.2483250000" lon="-1.1027570000"><ele>356</ele><time>2026-04-24T08:39:41Z</time></trkpt>
<trkpt lat="43.2483070000" lon="-1.1027720000"><ele>356</ele><time>2026-04-24T08:39:43Z</time></trkpt>
<trkpt lat="43.2482880000" lon="-1.1027870000"><ele>356</ele><time>2026-04-24T08:39:45Z</time></trkpt>
<trkpt lat="43.2482700000" lon="-1.1028050000"><ele>356</ele><time>2026-04-24T08:39:48Z</time></trkpt>
<trkpt lat="43.2482570000" lon="-1.1028220000"><ele>357</ele><time>2026-04-24T08:39:51Z</time></trkpt>
<trkpt lat="43.2482420000" lon="-1.1028420000"><ele>357</ele><time>2026-04-24T08:40:14Z</time></trkpt>
<trkpt lat="43.2482220000" lon="-1.1028620000"><ele>357</ele><time>2026-04-24T08:40:16Z</time></trkpt>
<trkpt lat="43.2482020000" lon="-1.1028770000"><ele>357</ele><time>2026-04-24T08:40:18Z</time></trkpt>
<trkpt lat="43.2481770000" lon="-1.1028920000"><ele>358</ele><time>2026-04-24T08:40:21Z</time></trkpt>
<trkpt lat="43.2481550000" lon="-1.1029070000"><ele>358</ele><time>2026-04-24T08:40:24Z</time></trkpt>
<trkpt lat="43.2481370000" lon="-1.1029200000"><ele>358</ele><time>2026-04-24T08:40:26Z</time></trkpt>
<trkpt lat="43.2481170000" lon="-1.1029320000"><ele>359</ele><time>2026-04-24T08:40:29Z</time></trkpt>
<trkpt lat="43.2480970000" lon="-1.1029470000"><ele>359</ele><time>2026-04-24T08:40:32Z</time></trkpt>
<trkpt lat="43.2480770000" lon="-1.1029570000"><ele>360</ele><time>2026-04-24T08:40:35Z</time></trkpt>
<trkpt lat="43.2480570000" lon="-1.1029670000"><ele>360</ele><time>2026-04-24T08:40:38Z</time></trkpt>
<trkpt lat="43.2480370000" lon="-1.1029770000"><ele>360</ele><time>2026-04-24T08:40:41Z</time></trkpt>
<trkpt lat="43.2480170000" lon="-1.1029820000"><ele>361</ele><time>2026-04-24T08:40:43Z</time></trkpt>
<trkpt lat="43.2479970000" lon="-1.1029930000"><ele>361</ele><time>2026-04-24T08:40:46Z</time></trkpt>
<trkpt lat="43.2479770000" lon="-1.1030050000"><ele>362</ele><time>2026-04-24T08:40:49Z</time></trkpt>
<trkpt lat="43.2479520000" lon="-1.1030120000"><ele>362</ele><time>2026-04-24T08:40:52Z</time></trkpt>
<trkpt lat="43.2479270000" lon="-1.1030200000"><ele>363</ele><time>2026-04-24T08:40:55Z</time></trkpt>
<trkpt lat="43.2479080000" lon="-1.1030220000"><ele>363</ele><time>2026-04-24T08:40:57Z</time></trkpt>
<trkpt lat="43.2478870000" lon="-1.1030300000"><ele>363</ele><time>2026-04-24T08:41:00Z</time></trkpt>
<trkpt lat="43.2478670000" lon="-1.1030420000"><ele>364</ele><time>2026-04-24T08:41:03Z</time></trkpt>
<trkpt lat="43.2478450000" lon="-1.1030570000"><ele>365</ele><time>2026-04-24T08:41:37Z</time></trkpt>
<trkpt lat="43.2478220000" lon="-1.1030700000"><ele>365</ele><time>2026-04-24T08:41:39Z</time></trkpt>
<trkpt lat="43.2477970000" lon="-1.1030800000"><ele>365</ele><time>2026-04-24T08:41:41Z</time></trkpt>
<trkpt lat="43.2477750000" lon="-1.1030870000"><ele>366</ele><time>2026-04-24T08:41:43Z</time></trkpt>
<trkpt lat="43.2477520000" lon="-1.1030950000"><ele>366</ele><time>2026-04-24T08:41:46Z</time></trkpt>
<trkpt lat="43.2477320000" lon="-1.1031020000"><ele>366</ele><time>2026-04-24T08:41:48Z</time></trkpt>
<trkpt lat="43.2477120000" lon="-1.1031070000"><ele>366</ele><time>2026-04-24T08:41:50Z</time></trkpt>
<trkpt lat="43.2476920000" lon="-1.1031120000"><ele>366</ele><time>2026-04-24T08:41:52Z</time></trkpt>
<trkpt lat="43.2476720000" lon="-1.1031250000"><ele>366</ele><time>2026-04-24T08:41:55Z</time></trkpt>
<trkpt lat="43.2476520000" lon="-1.1031450000"><ele>366</ele><time>2026-04-24T08:41:58Z</time></trkpt>
<trkpt lat="43.2476320000" lon="-1.1031370000"><ele>366</ele><time>2026-04-24T08:42:09Z</time></trkpt>
<trkpt lat="43.2476070000" lon="-1.1031350000"><ele>366</ele><time>2026-04-24T08:42:11Z</time></trkpt>
<trkpt lat="43.2475850000" lon="-1.1031350000"><ele>367</ele><time>2026-04-24T08:42:13Z</time></trkpt>
<trkpt lat="43.2475620000" lon="-1.1031320000"><ele>367</ele><time>2026-04-24T08:42:15Z</time></trkpt>
<trkpt lat="43.2475420000" lon="-1.1031370000"><ele>367</ele><time>2026-04-24T08:42:17Z</time></trkpt>
<trkpt lat="43.2475220000" lon="-1.1031400000"><ele>367</ele><time>2026-04-24T08:42:19Z</time></trkpt>
<trkpt lat="43.2474970000" lon="-1.1031420000"><ele>367</ele><time>2026-04-24T08:42:22Z</time></trkpt>
<trkpt lat="43.2474770000" lon="-1.1031470000"><ele>367</ele><time>2026-04-24T08:42:24Z</time></trkpt>
<trkpt lat="43.2474570000" lon="-1.1031470000"><ele>367</ele><time>2026-04-24T08:42:26Z</time></trkpt>
<trkpt lat="43.2474320000" lon="-1.1031520000"><ele>368</ele><time>2026-04-24T08:42:29Z</time></trkpt>
<trkpt lat="43.2474120000" lon="-1.1031570000"><ele>368</ele><time>2026-04-24T08:42:32Z</time></trkpt>
<trkpt lat="43.2473920000" lon="-1.1031620000"><ele>368</ele><time>2026-04-24T08:42:34Z</time></trkpt>
<trkpt lat="43.2473700000" lon="-1.1031620000"><ele>368</ele><time>2026-04-24T08:42:37Z</time></trkpt>
<trkpt lat="43.2473420000" lon="-1.1031720000"><ele>369</ele><time>2026-04-24T08:42:40Z</time></trkpt>
<trkpt lat="43.2473220000" lon="-1.1031770000"><ele>369</ele><time>2026-04-24T08:42:42Z</time></trkpt>
<trkpt lat="43.2473030000" lon="-1.1031800000"><ele>369</ele><time>2026-04-24T08:42:44Z</time></trkpt>
<trkpt lat="43.2472800000" lon="-1.1031820000"><ele>370</ele><time>2026-04-24T08:42:47Z</time></trkpt>
<trkpt lat="43.2472550000" lon="-1.1031870000"><ele>370</ele><time>2026-04-24T08:42:50Z</time></trkpt>
<trkpt lat="43.2472320000" lon="-1.1031870000"><ele>370</ele><time>2026-04-24T08:42:52Z</time></trkpt>
<trkpt lat="43.2472120000" lon="-1.1031900000"><ele>371</ele><time>2026-04-24T08:42:54Z</time></trkpt>
<trkpt lat="43.2471920000" lon="-1.1031900000"><ele>371</ele><time>2026-04-24T08:42:56Z</time></trkpt>
<trkpt lat="43.2471720000" lon="-1.1031870000"><ele>371</ele><time>2026-04-24T08:42:58Z</time></trkpt>
<trkpt lat="43.2471470000" lon="-1.1031870000"><ele>371</ele><time>2026-04-24T08:43:00Z</time></trkpt>
<trkpt lat="43.2471300000" lon="-1.1031850000"><ele>371</ele><time>2026-04-24T08:43:02Z</time></trkpt>
<trkpt lat="43.2471100000" lon="-1.1031870000"><ele>371</ele><time>2026-04-24T08:43:04Z</time></trkpt>
<trkpt lat="43.2470920000" lon="-1.1031920000"><ele>372</ele><time>2026-04-24T08:43:06Z</time></trkpt>
<trkpt lat="43.2470720000" lon="-1.1031950000"><ele>372</ele><time>2026-04-24T08:43:08Z</time></trkpt>
<trkpt lat="43.2470550000" lon="-1.1031950000"><ele>372</ele><time>2026-04-24T08:43:10Z</time></trkpt>
<trkpt lat="43.2470370000" lon="-1.1031970000"><ele>372</ele><time>2026-04-24T08:43:12Z</time></trkpt>
<trkpt lat="43.2470120000" lon="-1.1032070000"><ele>372</ele><time>2026-04-24T08:43:15Z</time></trkpt>
<trkpt lat="43.2469920000" lon="-1.1032050000"><ele>372</ele><time>2026-04-24T08:43:17Z</time></trkpt>
<trkpt lat="43.2469620000" lon="-1.1031920000"><ele>372</ele><time>2026-04-24T08:43:19Z</time></trkpt>
<trkpt lat="43.2469370000" lon="-1.1031800000"><ele>373</ele><time>2026-04-24T08:43:21Z</time></trkpt>
<trkpt lat="43.2469150000" lon="-1.1031720000"><ele>373</ele><time>2026-04-24T08:43:23Z</time></trkpt>
<trkpt lat="43.2468900000" lon="-1.1031650000"><ele>373</ele><time>2026-04-24T08:43:25Z</time></trkpt>
<trkpt lat="43.2468700000" lon="-1.1031620000"><ele>373</ele><time>2026-04-24T08:43:27Z</time></trkpt>
<trkpt lat="43.2468470000" lon="-1.1031620000"><ele>373</ele><time>2026-04-24T08:43:29Z</time></trkpt>
<trkpt lat="43.2468270000" lon="-1.1031620000"><ele>374</ele><time>2026-04-24T08:43:31Z</time></trkpt>
<trkpt lat="43.2468020000" lon="-1.1031620000"><ele>374</ele><time>2026-04-24T08:43:34Z</time></trkpt>
<trkpt lat="43.2467770000" lon="-1.1031620000"><ele>374</ele><time>2026-04-24T08:43:36Z</time></trkpt>
<trkpt lat="43.2467570000" lon="-1.1031620000"><ele>374</ele><time>2026-04-24T08:43:38Z</time></trkpt>
<trkpt lat="43.2467350000" lon="-1.1031570000"><ele>374</ele><time>2026-04-24T08:43:40Z</time></trkpt>
<trkpt lat="43.2467120000" lon="-1.1031570000"><ele>374</ele><time>2026-04-24T08:43:42Z</time></trkpt>
<trkpt lat="43.2466900000" lon="-1.1031520000"><ele>374</ele><time>2026-04-24T08:43:44Z</time></trkpt>
<trkpt lat="43.2466670000" lon="-1.1031520000"><ele>374</ele><time>2026-04-24T08:43:46Z</time></trkpt>
<trkpt lat="43.2466470000" lon="-1.1031550000"><ele>374</ele><time>2026-04-24T08:43:48Z</time></trkpt>
<trkpt lat="43.2466250000" lon="-1.1031550000"><ele>375</ele><time>2026-04-24T08:43:50Z</time></trkpt>
<trkpt lat="43.2466070000" lon="-1.1031570000"><ele>375</ele><time>2026-04-24T08:43:52Z</time></trkpt>
<trkpt lat="43.2465820000" lon="-1.1031520000"><ele>375</ele><time>2026-04-24T08:43:55Z</time></trkpt>
<trkpt lat="43.2465520000" lon="-1.1031520000"><ele>375</ele><time>2026-04-24T08:43:58Z</time></trkpt>
<trkpt lat="43.2465300000" lon="-1.1031520000"><ele>375</ele><time>2026-04-24T08:44:00Z</time></trkpt>
<trkpt lat="43.2465100000" lon="-1.1031570000"><ele>376</ele><time>2026-04-24T08:44:02Z</time></trkpt>
<trkpt lat="43.2464870000" lon="-1.1031720000"><ele>376</ele><time>2026-04-24T08:44:04Z</time></trkpt>
<trkpt lat="43.2464670000" lon="-1.1031770000"><ele>376</ele><time>2026-04-24T08:44:06Z</time></trkpt>
<trkpt lat="43.2464450000" lon="-1.1031770000"><ele>376</ele><time>2026-04-24T08:44:08Z</time></trkpt>
<trkpt lat="43.2464220000" lon="-1.1031720000"><ele>376</ele><time>2026-04-24T08:44:10Z</time></trkpt>
<trkpt lat="43.2463970000" lon="-1.1031720000"><ele>376</ele><time>2026-04-24T08:44:12Z</time></trkpt>
<trkpt lat="43.2463750000" lon="-1.1031720000"><ele>376</ele><time>2026-04-24T08:44:14Z</time></trkpt>
<trkpt lat="43.2463520000" lon="-1.1031770000"><ele>376</ele><time>2026-04-24T08:44:16Z</time></trkpt>
<trkpt lat="43.2463320000" lon="-1.1031820000"><ele>376</ele><time>2026-04-24T08:44:18Z</time></trkpt>
<trkpt lat="43.2463070000" lon="-1.1031770000"><ele>376</ele><time>2026-04-24T08:44:20Z</time></trkpt>
<trkpt lat="43.2462820000" lon="-1.1031770000"><ele>376</ele><time>2026-04-24T08:44:22Z</time></trkpt>
<trkpt lat="43.2462620000" lon="-1.1031770000"><ele>376</ele><time>2026-04-24T08:44:24Z</time></trkpt>
<trkpt lat="43.2462370000" lon="-1.1031720000"><ele>376</ele><time>2026-04-24T08:44:26Z</time></trkpt>
<trkpt lat="43.2462150000" lon="-1.1031720000"><ele>376</ele><time>2026-04-24T08:44:28Z</time></trkpt>
<trkpt lat="43.2461870000" lon="-1.1031700000"><ele>376</ele><time>2026-04-24T08:44:30Z</time></trkpt>
<trkpt lat="43.2461630000" lon="-1.1031670000"><ele>377</ele><time>2026-04-24T08:44:32Z</time></trkpt>
<trkpt lat="43.2461420000" lon="-1.1031620000"><ele>377</ele><time>2026-04-24T08:44:34Z</time></trkpt>
<trkpt lat="43.2461200000" lon="-1.1031570000"><ele>377</ele><time>2026-04-24T08:44:36Z</time></trkpt>
<trkpt lat="43.2460970000" lon="-1.1031520000"><ele>377</ele><time>2026-04-24T08:44:38Z</time></trkpt>
<trkpt lat="43.2460770000" lon="-1.1031520000"><ele>377</ele><time>2026-04-24T08:44:40Z</time></trkpt>
<trkpt lat="43.2460520000" lon="-1.1031420000"><ele>377</ele><time>2026-04-24T08:44:42Z</time></trkpt>
<trkpt lat="43.2460270000" lon="-1.1031250000"><ele>377</ele><time>2026-04-24T08:44:44Z</time></trkpt>
<trkpt lat="43.2460020000" lon="-1.1031120000"><ele>378</ele><time>2026-04-24T08:44:46Z</time></trkpt>
<trkpt lat="43.2459800000" lon="-1.1031100000"><ele>378</ele><time>2026-04-24T08:44:48Z</time></trkpt>
<trkpt lat="43.2459600000" lon="-1.1031120000"><ele>378</ele><time>2026-04-24T08:44:50Z</time></trkpt>
<trkpt lat="43.2459370000" lon="-1.1031250000"><ele>379</ele><time>2026-04-24T08:44:54Z</time></trkpt>
<trkpt lat="43.2459170000" lon="-1.1031370000"><ele>379</ele><time>2026-04-24T08:44:57Z</time></trkpt>
<trkpt lat="43.2458920000" lon="-1.1031400000"><ele>379</ele><time>2026-04-24T08:45:00Z</time></trkpt>
<trkpt lat="43.2458670000" lon="-1.1031400000"><ele>380</ele><time>2026-04-24T08:45:02Z</time></trkpt>
<trkpt lat="43.2458500000" lon="-1.1031370000"><ele>380</ele><time>2026-04-24T08:45:04Z</time></trkpt>
<trkpt lat="43.2458320000" lon="-1.1031370000"><ele>380</ele><time>2026-04-24T08:45:06Z</time></trkpt>
<trkpt lat="43.2458120000" lon="-1.1031370000"><ele>381</ele><time>2026-04-24T08:45:08Z</time></trkpt>
<trkpt lat="43.2457950000" lon="-1.1031370000"><ele>381</ele><time>2026-04-24T08:45:10Z</time></trkpt>
<trkpt lat="43.2457720000" lon="-1.1031320000"><ele>381</ele><time>2026-04-24T08:45:12Z</time></trkpt>
<trkpt lat="43.2457520000" lon="-1.1031280000"><ele>381</ele><time>2026-04-24T08:45:14Z</time></trkpt>
<trkpt lat="43.2457320000" lon="-1.1031270000"><ele>382</ele><time>2026-04-24T08:45:16Z</time></trkpt>
<trkpt lat="43.2457120000" lon="-1.1031170000"><ele>382</ele><time>2026-04-24T08:45:18Z</time></trkpt>
<trkpt lat="43.2456870000" lon="-1.1031150000"><ele>382</ele><time>2026-04-24T08:45:20Z</time></trkpt>
<trkpt lat="43.2456620000" lon="-1.1031120000"><ele>382</ele><time>2026-04-24T08:45:22Z</time></trkpt>
<trkpt lat="43.2456420000" lon="-1.1031070000"><ele>382</ele><time>2026-04-24T08:45:24Z</time></trkpt>
<trkpt lat="43.2456220000" lon="-1.1031050000"><ele>382</ele><time>2026-04-24T08:45:26Z</time></trkpt>
<trkpt lat="43.2456020000" lon="-1.1031020000"><ele>382</ele><time>2026-04-24T08:45:28Z</time></trkpt>
<trkpt lat="43.2455770000" lon="-1.1031020000"><ele>383</ele><time>2026-04-24T08:45:30Z</time></trkpt>
<trkpt lat="43.2455570000" lon="-1.1031020000"><ele>383</ele><time>2026-04-24T08:45:32Z</time></trkpt>
<trkpt lat="43.2455370000" lon="-1.1031020000"><ele>383</ele><time>2026-04-24T08:45:34Z</time></trkpt>
<trkpt lat="43.2455170000" lon="-1.1031020000"><ele>383</ele><time>2026-04-24T08:45:36Z</time></trkpt>
<trkpt lat="43.2454970000" lon="-1.1031050000"><ele>384</ele><time>2026-04-24T08:45:38Z</time></trkpt>
<trkpt lat="43.2454770000" lon="-1.1031020000"><ele>384</ele><time>2026-04-24T08:45:40Z</time></trkpt>
<trkpt lat="43.2454570000" lon="-1.1030970000"><ele>384</ele><time>2026-04-24T08:45:42Z</time></trkpt>
<trkpt lat="43.2454370000" lon="-1.1031020000"><ele>384</ele><time>2026-04-24T08:45:44Z</time></trkpt>
<trkpt lat="43.2454200000" lon="-1.1031070000"><ele>385</ele><time>2026-04-24T08:45:46Z</time></trkpt>
<trkpt lat="43.2454020000" lon="-1.1031150000"><ele>385</ele><time>2026-04-24T08:45:48Z</time></trkpt>
<trkpt lat="43.2453820000" lon="-1.1031200000"><ele>385</ele><time>2026-04-24T08:45:50Z</time></trkpt>
<trkpt lat="43.2453620000" lon="-1.1031200000"><ele>385</ele><time>2026-04-24T08:45:52Z</time></trkpt>
<trkpt lat="43.2453370000" lon="-1.1031100000"><ele>385</ele><time>2026-04-24T08:45:54Z</time></trkpt>
<trkpt lat="43.2453100000" lon="-1.1030970000"><ele>385</ele><time>2026-04-24T08:45:56Z</time></trkpt>
<trkpt lat="43.2452800000" lon="-1.1030870000"><ele>385</ele><time>2026-04-24T08:45:58Z</time></trkpt>
<trkpt lat="43.2452570000" lon="-1.1030850000"><ele>385</ele><time>2026-04-24T08:46:00Z</time></trkpt>
<trkpt lat="43.2452370000" lon="-1.1030770000"><ele>385</ele><time>2026-04-24T08:46:02Z</time></trkpt>
<trkpt lat="43.2452170000" lon="-1.1030750000"><ele>385</ele><time>2026-04-24T08:46:04Z</time></trkpt>
<trkpt lat="43.2451970000" lon="-1.1030720000"><ele>385</ele><time>2026-04-24T08:46:06Z</time></trkpt>
<trkpt lat="43.2451720000" lon="-1.1030700000"><ele>385</ele><time>2026-04-24T08:46:08Z</time></trkpt>
<trkpt lat="43.2451500000" lon="-1.1030720000"><ele>385</ele><time>2026-04-24T08:46:10Z</time></trkpt>
<trkpt lat="43.2451320000" lon="-1.1030770000"><ele>385</ele><time>2026-04-24T08:46:12Z</time></trkpt>
<trkpt lat="43.2451070000" lon="-1.1030770000"><ele>385</ele><time>2026-04-24T08:46:14Z</time></trkpt>
<trkpt lat="43.2450850000" lon="-1.1030700000"><ele>385</ele><time>2026-04-24T08:46:16Z</time></trkpt>
<trkpt lat="43.2450620000" lon="-1.1030670000"><ele>385</ele><time>2026-04-24T08:46:18Z</time></trkpt>
<trkpt lat="43.2450400000" lon="-1.1030700000"><ele>385</ele><time>2026-04-24T08:46:20Z</time></trkpt>
<trkpt lat="43.2450170000" lon="-1.1030700000"><ele>385</ele><time>2026-04-24T08:46:22Z</time></trkpt>
<trkpt lat="43.2449970000" lon="-1.1030670000"><ele>386</ele><time>2026-04-24T08:46:24Z</time></trkpt>
<trkpt lat="43.2449720000" lon="-1.1030670000"><ele>386</ele><time>2026-04-24T08:46:26Z</time></trkpt>
<trkpt lat="43.2449520000" lon="-1.1030670000"><ele>386</ele><time>2026-04-24T08:46:28Z</time></trkpt>
<trkpt lat="43.2449270000" lon="-1.1030650000"><ele>386</ele><time>2026-04-24T08:46:30Z</time></trkpt>
<trkpt lat="43.2449070000" lon="-1.1030600000"><ele>387</ele><time>2026-04-24T08:46:32Z</time></trkpt>
<trkpt lat="43.2448870000" lon="-1.1030600000"><ele>387</ele><time>2026-04-24T08:46:34Z</time></trkpt>
<trkpt lat="43.2448670000" lon="-1.1030600000"><ele>387</ele><time>2026-04-24T08:46:36Z</time></trkpt>
<trkpt lat="43.2448470000" lon="-1.1030570000"><ele>387</ele><time>2026-04-24T08:46:38Z</time></trkpt>
<trkpt lat="43.2448270000" lon="-1.1030550000"><ele>388</ele><time>2026-04-24T08:46:40Z</time></trkpt>
<trkpt lat="43.2448020000" lon="-1.1030500000"><ele>388</ele><time>2026-04-24T08:46:43Z</time></trkpt>
<trkpt lat="43.2447800000" lon="-1.1030470000"><ele>388</ele><time>2026-04-24T08:46:45Z</time></trkpt>
<trkpt lat="43.2447570000" lon="-1.1030370000"><ele>388</ele><time>2026-04-24T08:46:47Z</time></trkpt>
<trkpt lat="43.2447400000" lon="-1.1030350000"><ele>389</ele><time>2026-04-24T08:46:49Z</time></trkpt>
<trkpt lat="43.2447200000" lon="-1.1030370000"><ele>389</ele><time>2026-04-24T08:46:51Z</time></trkpt>
<trkpt lat="43.2447020000" lon="-1.1030370000"><ele>389</ele><time>2026-04-24T08:46:53Z</time></trkpt>
<trkpt lat="43.2446820000" lon="-1.1030320000"><ele>389</ele><time>2026-04-24T08:46:57Z</time></trkpt>
<trkpt lat="43.2446620000" lon="-1.1030300000"><ele>389</ele><time>2026-04-24T08:48:25Z</time></trkpt>
<trkpt lat="43.2446550000" lon="-1.1030520000"><ele>390</ele><time>2026-04-24T08:51:15Z</time></trkpt>
<trkpt lat="43.2446620000" lon="-1.1030870000"><ele>390</ele><time>2026-04-24T08:51:17Z</time></trkpt>
<trkpt lat="43.2446720000" lon="-1.1031200000"><ele>390</ele><time>2026-04-24T08:51:19Z</time></trkpt>
<trkpt lat="43.2446850000" lon="-1.1030970000"><ele>390</ele><time>2026-04-24T08:52:04Z</time></trkpt>
<trkpt lat="43.2446820000" lon="-1.1030620000"><ele>390</ele><time>2026-04-24T08:52:06Z</time></trkpt>
<trkpt lat="43.2446750000" lon="-1.1030400000"><ele>390</ele><time>2026-04-24T08:52:11Z</time></trkpt>
<trkpt lat="43.2446470000" lon="-1.1030370000"><ele>391</ele><time>2026-04-24T08:53:31Z</time></trkpt>
<trkpt lat="43.2446120000" lon="-1.1030400000"><ele>391</ele><time>2026-04-24T08:53:33Z</time></trkpt>
<trkpt lat="43.2445920000" lon="-1.1030370000"><ele>391</ele><time>2026-04-24T08:53:34Z</time></trkpt>
<trkpt lat="43.2445650000" lon="-1.1030270000"><ele>390</ele><time>2026-04-24T08:53:36Z</time></trkpt>
<trkpt lat="43.2445470000" lon="-1.1030300000"><ele>390</ele><time>2026-04-24T08:53:39Z</time></trkpt>
<trkpt lat="43.2445220000" lon="-1.1030350000"><ele>390</ele><time>2026-04-24T08:53:51Z</time></trkpt>
<trkpt lat="43.2444920000" lon="-1.1030270000"><ele>390</ele><time>2026-04-24T08:53:53Z</time></trkpt>
<trkpt lat="43.2444650000" lon="-1.1030150000"><ele>390</ele><time>2026-04-24T08:53:55Z</time></trkpt>
<trkpt lat="43.2444420000" lon="-1.1030100000"><ele>390</ele><time>2026-04-24T08:53:57Z</time></trkpt>
<trkpt lat="43.2444250000" lon="-1.1030020000"><ele>390</ele><time>2026-04-24T08:53:59Z</time></trkpt>
<trkpt lat="43.2444020000" lon="-1.1029900000"><ele>390</ele><time>2026-04-24T08:54:01Z</time></trkpt>
<trkpt lat="43.2443850000" lon="-1.1029820000"><ele>390</ele><time>2026-04-24T08:54:03Z</time></trkpt>
<trkpt lat="43.2443670000" lon="-1.1029770000"><ele>391</ele><time>2026-04-24T08:54:05Z</time></trkpt>
<trkpt lat="43.2443470000" lon="-1.1029670000"><ele>391</ele><time>2026-04-24T08:54:07Z</time></trkpt>
<trkpt lat="43.2443300000" lon="-1.1029600000"><ele>391</ele><time>2026-04-24T08:54:09Z</time></trkpt>
<trkpt lat="43.2443070000" lon="-1.1029530000"><ele>391</ele><time>2026-04-24T08:54:11Z</time></trkpt>
<trkpt lat="43.2442900000" lon="-1.1029470000"><ele>391</ele><time>2026-04-24T08:54:13Z</time></trkpt>
<trkpt lat="43.2442620000" lon="-1.1029370000"><ele>391</ele><time>2026-04-24T08:54:16Z</time></trkpt>
<trkpt lat="43.2442370000" lon="-1.1029320000"><ele>392</ele><time>2026-04-24T08:54:19Z</time></trkpt>
<trkpt lat="43.2442170000" lon="-1.1029250000"><ele>392</ele><time>2026-04-24T08:54:22Z</time></trkpt>
<trkpt lat="43.2442000000" lon="-1.1029170000"><ele>393</ele><time>2026-04-24T08:54:25Z</time></trkpt>
<trkpt lat="43.2441850000" lon="-1.1029320000"><ele>393</ele><time>2026-04-24T08:54:29Z</time></trkpt>
<trkpt lat="43.2441670000" lon="-1.1029370000"><ele>393</ele><time>2026-04-24T08:54:32Z</time></trkpt>
<trkpt lat="43.2441470000" lon="-1.1029420000"><ele>394</ele><time>2026-04-24T08:54:35Z</time></trkpt>
<trkpt lat="43.2441270000" lon="-1.1029320000"><ele>394</ele><time>2026-04-24T08:54:37Z</time></trkpt>
<trkpt lat="43.2441100000" lon="-1.1029170000"><ele>394</ele><time>2026-04-24T08:54:39Z</time></trkpt>
<trkpt lat="43.2440920000" lon="-1.1029070000"><ele>395</ele><time>2026-04-24T08:54:42Z</time></trkpt>
<trkpt lat="43.2440720000" lon="-1.1029070000"><ele>395</ele><time>2026-04-24T08:54:47Z</time></trkpt>
<trkpt lat="43.2440600000" lon="-1.1028900000"><ele>396</ele><time>2026-04-24T08:54:49Z</time></trkpt>
<trkpt lat="43.2440380000" lon="-1.1028800000"><ele>396</ele><time>2026-04-24T08:54:52Z</time></trkpt>
<trkpt lat="43.2440220000" lon="-1.1028720000"><ele>396</ele><time>2026-04-24T08:54:55Z</time></trkpt>
<trkpt lat="43.2440020000" lon="-1.1028650000"><ele>397</ele><time>2026-04-24T08:54:58Z</time></trkpt>
<trkpt lat="43.2439850000" lon="-1.1028580000"><ele>397</ele><time>2026-04-24T08:55:00Z</time></trkpt>
<trkpt lat="43.2439620000" lon="-1.1028470000"><ele>398</ele><time>2026-04-24T08:55:03Z</time></trkpt>
<trkpt lat="43.2439420000" lon="-1.1028370000"><ele>398</ele><time>2026-04-24T08:55:06Z</time></trkpt>
<trkpt lat="43.2439220000" lon="-1.1028350000"><ele>398</ele><time>2026-04-24T08:55:09Z</time></trkpt>
<trkpt lat="43.2439050000" lon="-1.1028270000"><ele>399</ele><time>2026-04-24T08:55:12Z</time></trkpt>
<trkpt lat="43.2438870000" lon="-1.1028180000"><ele>399</ele><time>2026-04-24T08:55:15Z</time></trkpt>
<trkpt lat="43.2438650000" lon="-1.1028180000"><ele>400</ele><time>2026-04-24T08:55:20Z</time></trkpt>
<trkpt lat="43.2438450000" lon="-1.1028120000"><ele>402</ele><time>2026-04-24T08:55:52Z</time></trkpt>
<trkpt lat="43.2438270000" lon="-1.1028250000"><ele>402</ele><time>2026-04-24T08:55:54Z</time></trkpt>
<trkpt lat="43.2438170000" lon="-1.1028470000"><ele>402</ele><time>2026-04-24T08:55:58Z</time></trkpt>
<trkpt lat="43.2438000000" lon="-1.1028300000"><ele>402</ele><time>2026-04-24T08:56:01Z</time></trkpt>
<trkpt lat="43.2437820000" lon="-1.1028120000"><ele>402</ele><time>2026-04-24T08:56:03Z</time></trkpt>
<trkpt lat="43.2437650000" lon="-1.1027970000"><ele>403</ele><time>2026-04-24T08:56:05Z</time></trkpt>
<trkpt lat="43.2437430000" lon="-1.1027820000"><ele>403</ele><time>2026-04-24T08:56:08Z</time></trkpt>
<trkpt lat="43.2437270000" lon="-1.1027670000"><ele>403</ele><time>2026-04-24T08:56:11Z</time></trkpt>
<trkpt lat="43.2437100000" lon="-1.1027570000"><ele>404</ele><time>2026-04-24T08:56:16Z</time></trkpt>
<trkpt lat="43.2436920000" lon="-1.1027550000"><ele>405</ele><time>2026-04-24T08:56:20Z</time></trkpt>
<trkpt lat="43.2436700000" lon="-1.1027420000"><ele>405</ele><time>2026-04-24T08:56:24Z</time></trkpt>
<trkpt lat="43.2436470000" lon="-1.1027370000"><ele>406</ele><time>2026-04-24T08:56:28Z</time></trkpt>
<trkpt lat="43.2436270000" lon="-1.1027320000"><ele>406</ele><time>2026-04-24T08:56:32Z</time></trkpt>
<trkpt lat="43.2436050000" lon="-1.1027300000"><ele>407</ele><time>2026-04-24T08:56:37Z</time></trkpt>
<trkpt lat="43.2435850000" lon="-1.1027250000"><ele>407</ele><time>2026-04-24T08:56:40Z</time></trkpt>
<trkpt lat="43.2435650000" lon="-1.1027250000"><ele>408</ele><time>2026-04-24T08:56:44Z</time></trkpt>
<trkpt lat="43.2435450000" lon="-1.1027120000"><ele>409</ele><time>2026-04-24T08:56:49Z</time></trkpt>
<trkpt lat="43.2435250000" lon="-1.1027100000"><ele>409</ele><time>2026-04-24T08:56:54Z</time></trkpt>
<trkpt lat="43.2435050000" lon="-1.1027000000"><ele>410</ele><time>2026-04-24T08:57:00Z</time></trkpt>
<trkpt lat="43.2434820000" lon="-1.1027000000"><ele>413</ele><time>2026-04-24T08:57:15Z</time></trkpt>
<trkpt lat="43.2434520000" lon="-1.1026820000"><ele>413</ele><time>2026-04-24T08:57:17Z</time></trkpt>
<trkpt lat="43.2434250000" lon="-1.1026570000"><ele>414</ele><time>2026-04-24T08:57:19Z</time></trkpt>
<trkpt lat="43.2434070000" lon="-1.1026350000"><ele>414</ele><time>2026-04-24T08:57:21Z</time></trkpt>
<trkpt lat="43.2433970000" lon="-1.1026120000"><ele>414</ele><time>2026-04-24T08:57:23Z</time></trkpt>
<trkpt lat="43.2433850000" lon="-1.1025970000"><ele>415</ele><time>2026-04-24T08:57:28Z</time></trkpt>
<trkpt lat="43.2433870000" lon="-1.1026320000"><ele>415</ele><time>2026-04-24T08:59:30Z</time></trkpt>
<trkpt lat="43.2433850000" lon="-1.1026620000"><ele>415</ele><time>2026-04-24T08:59:32Z</time></trkpt>
<trkpt lat="43.2433720000" lon="-1.1026820000"><ele>415</ele><time>2026-04-24T08:59:35Z</time></trkpt>
<trkpt lat="43.2433520000" lon="-1.1026870000"><ele>415</ele><time>2026-04-24T08:59:39Z</time></trkpt>
<trkpt lat="43.2433320000" lon="-1.1026820000"><ele>416</ele><time>2026-04-24T08:59:43Z</time></trkpt>
<trkpt lat="43.2433120000" lon="-1.1026870000"><ele>416</ele><time>2026-04-24T08:59:47Z</time></trkpt>
<trkpt lat="43.2432920000" lon="-1.1026770000"><ele>417</ele><time>2026-04-24T08:59:51Z</time></trkpt>
<trkpt lat="43.2432720000" lon="-1.1026620000"><ele>417</ele><time>2026-04-24T08:59:54Z</time></trkpt>
<trkpt lat="43.2432520000" lon="-1.1026570000"><ele>418</ele><time>2026-04-24T08:59:57Z</time></trkpt>
<trkpt lat="43.2432320000" lon="-1.1026600000"><ele>419</ele><time>2026-04-24T09:00:01Z</time></trkpt>
<trkpt lat="43.2432200000" lon="-1.1026820000"><ele>420</ele><time>2026-04-24T09:00:06Z</time></trkpt>
<trkpt lat="43.2431970000" lon="-1.1026820000"><ele>421</ele><time>2026-04-24T09:00:15Z</time></trkpt>
<trkpt lat="43.2431770000" lon="-1.1026770000"><ele>421</ele><time>2026-04-24T09:00:18Z</time></trkpt>
<trkpt lat="43.2431570000" lon="-1.1026750000"><ele>422</ele><time>2026-04-24T09:00:21Z</time></trkpt>
<trkpt lat="43.2431350000" lon="-1.1026750000"><ele>422</ele><time>2026-04-24T09:00:25Z</time></trkpt>
<trkpt lat="43.2431120000" lon="-1.1026700000"><ele>423</ele><time>2026-04-24T09:00:29Z</time></trkpt>
<trkpt lat="43.2430920000" lon="-1.1026600000"><ele>424</ele><time>2026-04-24T09:00:34Z</time></trkpt>
<trkpt lat="43.2430750000" lon="-1.1026520000"><ele>424</ele><time>2026-04-24T09:00:38Z</time></trkpt>
<trkpt lat="43.2430570000" lon="-1.1026520000"><ele>425</ele><time>2026-04-24T09:00:42Z</time></trkpt>
<trkpt lat="43.2430350000" lon="-1.1026470000"><ele>426</ele><time>2026-04-24T09:00:46Z</time></trkpt>
<trkpt lat="43.2430120000" lon="-1.1026400000"><ele>427</ele><time>2026-04-24T09:00:51Z</time></trkpt>
<trkpt lat="43.2429970000" lon="-1.1026270000"><ele>427</ele><time>2026-04-24T09:00:54Z</time></trkpt>
<trkpt lat="43.2429750000" lon="-1.1026270000"><ele>427</ele><time>2026-04-24T09:00:59Z</time></trkpt>
<trkpt lat="43.2429570000" lon="-1.1026150000"><ele>428</ele><time>2026-04-24T09:01:03Z</time></trkpt>
<trkpt lat="43.2429370000" lon="-1.1026070000"><ele>428</ele><time>2026-04-24T09:01:05Z</time></trkpt>
<trkpt lat="43.2429170000" lon="-1.1026020000"><ele>429</ele><time>2026-04-24T09:01:09Z</time></trkpt>
<trkpt lat="43.2428970000" lon="-1.1026050000"><ele>429</ele><time>2026-04-24T09:01:13Z</time></trkpt>
<trkpt lat="43.2428800000" lon="-1.1026070000"><ele>430</ele><time>2026-04-24T09:01:17Z</time></trkpt>
<trkpt lat="43.2428620000" lon="-1.1026120000"><ele>431</ele><time>2026-04-24T09:01:22Z</time></trkpt>
<trkpt lat="43.2428450000" lon="-1.1026220000"><ele>431</ele><time>2026-04-24T09:01:28Z</time></trkpt>
<trkpt lat="43.2428120000" lon="-1.1026200000"><ele>437</ele><time>2026-04-24T09:02:07Z</time></trkpt>
<trkpt lat="43.2427850000" lon="-1.1026220000"><ele>437</ele><time>2026-04-24T09:02:08Z</time></trkpt>
<trkpt lat="43.2427470000" lon="-1.1026220000"><ele>437</ele><time>2026-04-24T09:02:09Z</time></trkpt>
<trkpt lat="43.2427100000" lon="-1.1026270000"><ele>437</ele><time>2026-04-24T09:02:10Z</time></trkpt>
<trkpt lat="43.2426800000" lon="-1.1026270000"><ele>437</ele><time>2026-04-24T09:02:11Z</time></trkpt>
<trkpt lat="43.2426570000" lon="-1.1026270000"><ele>438</ele><time>2026-04-24T09:02:12Z</time></trkpt>
<trkpt lat="43.2426370000" lon="-1.1026300000"><ele>438</ele><time>2026-04-24T09:02:14Z</time></trkpt>
<trkpt lat="43.2426150000" lon="-1.1026200000"><ele>439</ele><time>2026-04-24T09:02:18Z</time></trkpt>
<trkpt lat="43.2425970000" lon="-1.1026070000"><ele>439</ele><time>2026-04-24T09:02:20Z</time></trkpt>
<trkpt lat="43.2425720000" lon="-1.1026020000"><ele>439</ele><time>2026-04-24T09:02:23Z</time></trkpt>
<trkpt lat="43.2425550000" lon="-1.1025950000"><ele>440</ele><time>2026-04-24T09:02:28Z</time></trkpt>
<trkpt lat="43.2425370000" lon="-1.1025970000"><ele>440</ele><time>2026-04-24T09:02:33Z</time></trkpt>
<trkpt lat="43.2425220000" lon="-1.1026170000"><ele>446</ele><time>2026-04-24T09:03:12Z</time></trkpt>
<trkpt lat="43.2425050000" lon="-1.1026270000"><ele>446</ele><time>2026-04-24T09:03:13Z</time></trkpt>
<trkpt lat="43.2424850000" lon="-1.1026450000"><ele>446</ele><time>2026-04-24T09:03:14Z</time></trkpt>
<trkpt lat="43.2424650000" lon="-1.1026670000"><ele>446</ele><time>2026-04-24T09:03:15Z</time></trkpt>
<trkpt lat="43.2424480000" lon="-1.1026870000"><ele>446</ele><time>2026-04-24T09:03:16Z</time></trkpt>
<trkpt lat="43.2424320000" lon="-1.1027220000"><ele>446</ele><time>2026-04-24T09:03:18Z</time></trkpt>
<trkpt lat="43.2424270000" lon="-1.1027520000"><ele>446</ele><time>2026-04-24T09:03:20Z</time></trkpt>
<trkpt lat="43.2424250000" lon="-1.1027770000"><ele>446</ele><time>2026-04-24T09:03:22Z</time></trkpt>
<trkpt lat="43.2424250000" lon="-1.1028100000"><ele>445</ele><time>2026-04-24T09:03:25Z</time></trkpt>
<trkpt lat="43.2424220000" lon="-1.1028350000"><ele>446</ele><time>2026-04-24T09:03:27Z</time></trkpt>
<trkpt lat="43.2424170000" lon="-1.1028620000"><ele>446</ele><time>2026-04-24T09:03:29Z</time></trkpt>
<trkpt lat="43.2424070000" lon="-1.1028950000"><ele>446</ele><time>2026-04-24T09:03:31Z</time></trkpt>
<trkpt lat="43.2423970000" lon="-1.1029250000"><ele>446</ele><time>2026-04-24T09:03:33Z</time></trkpt>
<trkpt lat="43.2423920000" lon="-1.1029520000"><ele>446</ele><time>2026-04-24T09:03:35Z</time></trkpt>
<trkpt lat="43.2423870000" lon="-1.1029820000"><ele>446</ele><time>2026-04-24T09:03:37Z</time></trkpt>
<trkpt lat="43.2423820000" lon="-1.1030100000"><ele>446</ele><time>2026-04-24T09:03:39Z</time></trkpt>
<trkpt lat="43.2423770000" lon="-1.1030370000"><ele>446</ele><time>2026-04-24T09:03:41Z</time></trkpt>
<trkpt lat="43.2423670000" lon="-1.1030620000"><ele>446</ele><time>2026-04-24T09:03:43Z</time></trkpt>
<trkpt lat="43.2423620000" lon="-1.1030880000"><ele>446</ele><time>2026-04-24T09:03:45Z</time></trkpt>
<trkpt lat="43.2423550000" lon="-1.1031150000"><ele>446</ele><time>2026-04-24T09:03:47Z</time></trkpt>
<trkpt lat="43.2423450000" lon="-1.1031420000"><ele>446</ele><time>2026-04-24T09:03:49Z</time></trkpt>
<trkpt lat="43.2423370000" lon="-1.1031650000"><ele>446</ele><time>2026-04-24T09:03:51Z</time></trkpt>
<trkpt lat="43.2423300000" lon="-1.1031900000"><ele>446</ele><time>2026-04-24T09:03:53Z</time></trkpt>
<trkpt lat="43.2423250000" lon="-1.1032170000"><ele>446</ele><time>2026-04-24T09:03:55Z</time></trkpt>
<trkpt lat="43.2423200000" lon="-1.1032450000"><ele>446</ele><time>2026-04-24T09:03:57Z</time></trkpt>
<trkpt lat="43.2423120000" lon="-1.1032720000"><ele>446</ele><time>2026-04-24T09:03:59Z</time></trkpt>
<trkpt lat="43.2423070000" lon="-1.1032970000"><ele>446</ele><time>2026-04-24T09:04:01Z</time></trkpt>
<trkpt lat="43.2423050000" lon="-1.1033220000"><ele>446</ele><time>2026-04-24T09:04:03Z</time></trkpt>
<trkpt lat="43.2423020000" lon="-1.1033520000"><ele>447</ele><time>2026-04-24T09:04:05Z</time></trkpt>
<trkpt lat="43.2422970000" lon="-1.1033820000"><ele>447</ele><time>2026-04-24T09:04:07Z</time></trkpt>
<trkpt lat="43.2422950000" lon="-1.1034120000"><ele>447</ele><time>2026-04-24T09:04:09Z</time></trkpt>
<trkpt lat="43.2422920000" lon="-1.1034400000"><ele>447</ele><time>2026-04-24T09:04:11Z</time></trkpt>
<trkpt lat="43.2422870000" lon="-1.1034650000"><ele>447</ele><time>2026-04-24T09:04:13Z</time></trkpt>
<trkpt lat="43.2422770000" lon="-1.1034870000"><ele>447</ele><time>2026-04-24T09:04:15Z</time></trkpt>
<trkpt lat="43.2422720000" lon="-1.1035150000"><ele>448</ele><time>2026-04-24T09:04:17Z</time></trkpt>
<trkpt lat="43.2422650000" lon="-1.1035370000"><ele>448</ele><time>2026-04-24T09:04:19Z</time></trkpt>
<trkpt lat="43.2422570000" lon="-1.1035720000"><ele>448</ele><time>2026-04-24T09:04:22Z</time></trkpt>
<trkpt lat="43.2422500000" lon="-1.1036000000"><ele>448</ele><time>2026-04-24T09:04:24Z</time></trkpt>
<trkpt lat="43.2422500000" lon="-1.1036270000"><ele>448</ele><time>2026-04-24T09:04:26Z</time></trkpt>
<trkpt lat="43.2422420000" lon="-1.1036570000"><ele>449</ele><time>2026-04-24T09:04:28Z</time></trkpt>
<trkpt lat="43.2422320000" lon="-1.1036870000"><ele>449</ele><time>2026-04-24T09:04:30Z</time></trkpt>
<trkpt lat="43.2422230000" lon="-1.1037170000"><ele>449</ele><time>2026-04-24T09:04:32Z</time></trkpt>
<trkpt lat="43.2422220000" lon="-1.1037450000"><ele>449</ele><time>2026-04-24T09:04:34Z</time></trkpt>
<trkpt lat="43.2422220000" lon="-1.1037720000"><ele>449</ele><time>2026-04-24T09:04:36Z</time></trkpt>
<trkpt lat="43.2422220000" lon="-1.1037970000"><ele>449</ele><time>2026-04-24T09:04:38Z</time></trkpt>
<trkpt lat="43.2422200000" lon="-1.1038270000"><ele>449</ele><time>2026-04-24T09:04:40Z</time></trkpt>
<trkpt lat="43.2422170000" lon="-1.1038570000"><ele>450</ele><time>2026-04-24T09:04:42Z</time></trkpt>
<trkpt lat="43.2422020000" lon="-1.1038870000"><ele>450</ele><time>2026-04-24T09:04:44Z</time></trkpt>
<trkpt lat="43.2421920000" lon="-1.1039170000"><ele>450</ele><time>2026-04-24T09:04:46Z</time></trkpt>
<trkpt lat="43.2421850000" lon="-1.1039450000"><ele>450</ele><time>2026-04-24T09:04:48Z</time></trkpt>
<trkpt lat="43.2421800000" lon="-1.1039700000"><ele>450</ele><time>2026-04-24T09:04:50Z</time></trkpt>
<trkpt lat="43.2421720000" lon="-1.1040000000"><ele>450</ele><time>2026-04-24T09:04:52Z</time></trkpt>
<trkpt lat="43.2421570000" lon="-1.1040270000"><ele>450</ele><time>2026-04-24T09:04:54Z</time></trkpt>
<trkpt lat="43.2421450000" lon="-1.1040570000"><ele>451</ele><time>2026-04-24T09:04:56Z</time></trkpt>
<trkpt lat="43.2421370000" lon="-1.1040920000"><ele>451</ele><time>2026-04-24T09:04:58Z</time></trkpt>
<trkpt lat="43.2421350000" lon="-1.1041200000"><ele>451</ele><time>2026-04-24T09:05:00Z</time></trkpt>
<trkpt lat="43.2421300000" lon="-1.1041470000"><ele>451</ele><time>2026-04-24T09:05:02Z</time></trkpt>
<trkpt lat="43.2421220000" lon="-1.1041820000"><ele>451</ele><time>2026-04-24T09:05:04Z</time></trkpt>
<trkpt lat="43.2421170000" lon="-1.1042150000"><ele>451</ele><time>2026-04-24T09:05:06Z</time></trkpt>
<trkpt lat="43.2421120000" lon="-1.1042420000"><ele>451</ele><time>2026-04-24T09:05:08Z</time></trkpt>
<trkpt lat="43.2421070000" lon="-1.1042700000"><ele>452</ele><time>2026-04-24T09:05:10Z</time></trkpt>
<trkpt lat="43.2421000000" lon="-1.1042970000"><ele>452</ele><time>2026-04-24T09:05:12Z</time></trkpt>
<trkpt lat="43.2420950000" lon="-1.1043270000"><ele>452</ele><time>2026-04-24T09:05:14Z</time></trkpt>
<trkpt lat="43.2420870000" lon="-1.1043570000"><ele>452</ele><time>2026-04-24T09:05:16Z</time></trkpt>
<trkpt lat="43.2420820000" lon="-1.1043870000"><ele>452</ele><time>2026-04-24T09:05:18Z</time></trkpt>
<trkpt lat="43.2420750000" lon="-1.1044120000"><ele>452</ele><time>2026-04-24T09:05:20Z</time></trkpt>
<trkpt lat="43.2420670000" lon="-1.1044470000"><ele>452</ele><time>2026-04-24T09:05:23Z</time></trkpt>
<trkpt lat="43.2420620000" lon="-1.1044750000"><ele>452</ele><time>2026-04-24T09:05:25Z</time></trkpt>
<trkpt lat="43.2420550000" lon="-1.1045000000"><ele>452</ele><time>2026-04-24T09:05:27Z</time></trkpt>
<trkpt lat="43.2420520000" lon="-1.1045250000"><ele>453</ele><time>2026-04-24T09:05:29Z</time></trkpt>
<trkpt lat="43.2420450000" lon="-1.1045520000"><ele>453</ele><time>2026-04-24T09:05:31Z</time></trkpt>
<trkpt lat="43.2420370000" lon="-1.1045820000"><ele>453</ele><time>2026-04-24T09:05:33Z</time></trkpt>
<trkpt lat="43.2420320000" lon="-1.1046070000"><ele>453</ele><time>2026-04-24T09:05:35Z</time></trkpt>
<trkpt lat="43.2420250000" lon="-1.1046370000"><ele>453</ele><time>2026-04-24T09:05:37Z</time></trkpt>
<trkpt lat="43.2420100000" lon="-1.1046620000"><ele>454</ele><time>2026-04-24T09:05:39Z</time></trkpt>
<trkpt lat="43.2419970000" lon="-1.1046800000"><ele>454</ele><time>2026-04-24T09:05:41Z</time></trkpt>
<trkpt lat="43.2419720000" lon="-1.1046970000"><ele>454</ele><time>2026-04-24T09:05:44Z</time></trkpt>
<trkpt lat="43.2419550000" lon="-1.1047020000"><ele>454</ele><time>2026-04-24T09:05:47Z</time></trkpt>
<trkpt lat="43.2419320000" lon="-1.1047000000"><ele>455</ele><time>2026-04-24T09:05:50Z</time></trkpt>
<trkpt lat="43.2419070000" lon="-1.1046820000"><ele>455</ele><time>2026-04-24T09:05:53Z</time></trkpt>
<trkpt lat="43.2418920000" lon="-1.1046670000"><ele>456</ele><time>2026-04-24T09:05:56Z</time></trkpt>
<trkpt lat="43.2418750000" lon="-1.1046530000"><ele>457</ele><time>2026-04-24T09:05:59Z</time></trkpt>
<trkpt lat="43.2418550000" lon="-1.1046620000"><ele>457</ele><time>2026-04-24T09:06:02Z</time></trkpt>
<trkpt lat="43.2418370000" lon="-1.1046770000"><ele>458</ele><time>2026-04-24T09:06:05Z</time></trkpt>
<trkpt lat="43.2418170000" lon="-1.1046800000"><ele>458</ele><time>2026-04-24T09:06:09Z</time></trkpt>
<trkpt lat="43.2417970000" lon="-1.1047000000"><ele>461</ele><time>2026-04-24T09:06:29Z</time></trkpt>
<trkpt lat="43.2417720000" lon="-1.1047270000"><ele>462</ele><time>2026-04-24T09:06:31Z</time></trkpt>
<trkpt lat="43.2417570000" lon="-1.1047420000"><ele>462</ele><time>2026-04-24T09:06:33Z</time></trkpt>
<trkpt lat="43.2417470000" lon="-1.1047700000"><ele>463</ele><time>2026-04-24T09:06:37Z</time></trkpt>
<trkpt lat="43.2417320000" lon="-1.1047920000"><ele>463</ele><time>2026-04-24T09:06:42Z</time></trkpt>
<trkpt lat="43.2417170000" lon="-1.1048100000"><ele>464</ele><time>2026-04-24T09:06:45Z</time></trkpt>
<trkpt lat="43.2416970000" lon="-1.1048150000"><ele>464</ele><time>2026-04-24T09:06:48Z</time></trkpt>
<trkpt lat="43.2416800000" lon="-1.1048270000"><ele>465</ele><time>2026-04-24T09:07:07Z</time></trkpt>
<trkpt lat="43.2416770000" lon="-1.1048620000"><ele>466</ele><time>2026-04-24T09:07:10Z</time></trkpt>
<trkpt lat="43.2416770000" lon="-1.1048970000"><ele>466</ele><time>2026-04-24T09:07:20Z</time></trkpt>
<trkpt lat="43.2416670000" lon="-1.1049450000"><ele>466</ele><time>2026-04-24T09:07:22Z</time></trkpt>
<trkpt lat="43.2416620000" lon="-1.1049820000"><ele>466</ele><time>2026-04-24T09:07:24Z</time></trkpt>
<trkpt lat="43.2416620000" lon="-1.1050170000"><ele>467</ele><time>2026-04-24T09:07:27Z</time></trkpt>
<trkpt lat="43.2416700000" lon="-1.1050470000"><ele>467</ele><time>2026-04-24T09:07:31Z</time></trkpt>
<trkpt lat="43.2416750000" lon="-1.1050750000"><ele>468</ele><time>2026-04-24T09:07:46Z</time></trkpt>
<trkpt lat="43.2416720000" lon="-1.1051020000"><ele>468</ele><time>2026-04-24T09:07:48Z</time></trkpt>
<trkpt lat="43.2416700000" lon="-1.1051350000"><ele>468</ele><time>2026-04-24T09:07:50Z</time></trkpt>
<trkpt lat="43.2416700000" lon="-1.1051620000"><ele>468</ele><time>2026-04-24T09:07:52Z</time></trkpt>
<trkpt lat="43.2416700000" lon="-1.1051900000"><ele>468</ele><time>2026-04-24T09:07:54Z</time></trkpt>
<trkpt lat="43.2416720000" lon="-1.1052170000"><ele>468</ele><time>2026-04-24T09:07:56Z</time></trkpt>
<trkpt lat="43.2416770000" lon="-1.1052470000"><ele>469</ele><time>2026-04-24T09:07:58Z</time></trkpt>
<trkpt lat="43.2416770000" lon="-1.1052720000"><ele>469</ele><time>2026-04-24T09:08:00Z</time></trkpt>
<trkpt lat="43.2416820000" lon="-1.1053100000"><ele>469</ele><time>2026-04-24T09:08:03Z</time></trkpt>
<trkpt lat="43.2416820000" lon="-1.1053450000"><ele>469</ele><time>2026-04-24T09:08:06Z</time></trkpt>
<trkpt lat="43.2416800000" lon="-1.1053720000"><ele>469</ele><time>2026-04-24T09:08:08Z</time></trkpt>
<trkpt lat="43.2416800000" lon="-1.1053970000"><ele>469</ele><time>2026-04-24T09:08:10Z</time></trkpt>
<trkpt lat="43.2416800000" lon="-1.1054220000"><ele>469</ele><time>2026-04-24T09:08:12Z</time></trkpt>
<trkpt lat="43.2416800000" lon="-1.1054470000"><ele>469</ele><time>2026-04-24T09:08:14Z</time></trkpt>
<trkpt lat="43.2416770000" lon="-1.1054750000"><ele>469</ele><time>2026-04-24T09:08:16Z</time></trkpt>
<trkpt lat="43.2416770000" lon="-1.1055100000"><ele>469</ele><time>2026-04-24T09:08:19Z</time></trkpt>
<trkpt lat="43.2416820000" lon="-1.1055420000"><ele>469</ele><time>2026-04-24T09:08:22Z</time></trkpt>
<trkpt lat="43.2416850000" lon="-1.1055770000"><ele>469</ele><time>2026-04-24T09:08:25Z</time></trkpt>
<trkpt lat="43.2416870000" lon="-1.1056070000"><ele>469</ele><time>2026-04-24T09:08:28Z</time></trkpt>
<trkpt lat="43.2416870000" lon="-1.1056450000"><ele>469</ele><time>2026-04-24T09:08:31Z</time></trkpt>
<trkpt lat="43.2416820000" lon="-1.1056800000"><ele>470</ele><time>2026-04-24T09:08:33Z</time></trkpt>
<trkpt lat="43.2416820000" lon="-1.1057120000"><ele>470</ele><time>2026-04-24T09:08:35Z</time></trkpt>
<trkpt lat="43.2416850000" lon="-1.1057400000"><ele>470</ele><time>2026-04-24T09:08:37Z</time></trkpt>
<trkpt lat="43.2416920000" lon="-1.1057670000"><ele>470</ele><time>2026-04-24T09:08:40Z</time></trkpt>
<trkpt lat="43.2416950000" lon="-1.1057950000"><ele>470</ele><time>2026-04-24T09:08:43Z</time></trkpt>
<trkpt lat="43.2416850000" lon="-1.1058170000"><ele>470</ele><time>2026-04-24T09:08:46Z</time></trkpt>
<trkpt lat="43.2417020000" lon="-1.1058350000"><ele>470</ele><time>2026-04-24T09:09:34Z</time></trkpt>
<trkpt lat="43.2417270000" lon="-1.1058520000"><ele>470</ele><time>2026-04-24T09:09:36Z</time></trkpt>
<trkpt lat="43.2417500000" lon="-1.1058770000"><ele>470</ele><time>2026-04-24T09:09:38Z</time></trkpt>
<trkpt lat="43.2417470000" lon="-1.1059020000"><ele>470</ele><time>2026-04-24T09:09:43Z</time></trkpt>
<trkpt lat="43.2417270000" lon="-1.1058950000"><ele>470</ele><time>2026-04-24T09:09:55Z</time></trkpt>
<trkpt lat="43.2417100000" lon="-1.1058620000"><ele>470</ele><time>2026-04-24T09:09:58Z</time></trkpt>
<trkpt lat="43.2417150000" lon="-1.1058950000"><ele>470</ele><time>2026-04-24T09:11:11Z</time></trkpt>
<trkpt lat="43.2417320000" lon="-1.1058720000"><ele>470</ele><time>2026-04-24T09:11:15Z</time></trkpt>
<trkpt lat="43.2417320000" lon="-1.1058470000"><ele>470</ele><time>2026-04-24T09:11:17Z</time></trkpt>
<trkpt lat="43.2417270000" lon="-1.1058200000"><ele>470</ele><time>2026-04-24T09:11:22Z</time></trkpt>
<trkpt lat="43.2417220000" lon="-1.1057970000"><ele>470</ele><time>2026-04-24T09:11:59Z</time></trkpt>
<trkpt lat="43.2417150000" lon="-1.1057620000"><ele>470</ele><time>2026-04-24T09:12:01Z</time></trkpt>
<trkpt lat="43.2417070000" lon="-1.1057270000"><ele>470</ele><time>2026-04-24T09:12:03Z</time></trkpt>
<trkpt lat="43.2416950000" lon="-1.1057070000"><ele>470</ele><time>2026-04-24T09:12:05Z</time></trkpt>
<trkpt lat="43.2416770000" lon="-1.1056800000"><ele>471</ele><time>2026-04-24T09:12:12Z</time></trkpt>
<trkpt lat="43.2416570000" lon="-1.1056700000"><ele>471</ele><time>2026-04-24T09:12:23Z</time></trkpt>
<trkpt lat="43.2416400000" lon="-1.1056720000"><ele>471</ele><time>2026-04-24T09:12:27Z</time></trkpt>
<trkpt lat="43.2416220000" lon="-1.1056450000"><ele>471</ele><time>2026-04-24T09:12:30Z</time></trkpt>
<trkpt lat="43.2416070000" lon="-1.1056170000"><ele>471</ele><time>2026-04-24T09:12:32Z</time></trkpt>
<trkpt lat="43.2415950000" lon="-1.1055900000"><ele>470</ele><time>2026-04-24T09:12:34Z</time></trkpt>
<trkpt lat="43.2415770000" lon="-1.1055650000"><ele>470</ele><time>2026-04-24T09:12:37Z</time></trkpt>
<trkpt lat="43.2415620000" lon="-1.1055470000"><ele>470</ele><time>2026-04-24T09:12:40Z</time></trkpt>
<trkpt lat="43.2415480000" lon="-1.1055270000"><ele>470</ele><time>2026-04-24T09:12:45Z</time></trkpt>
<trkpt lat="43.2415400000" lon="-1.1055020000"><ele>469</ele><time>2026-04-24T09:12:49Z</time></trkpt>
<trkpt lat="43.2415200000" lon="-1.1054950000"><ele>469</ele><time>2026-04-24T09:12:52Z</time></trkpt>
<trkpt lat="43.2415050000" lon="-1.1055100000"><ele>469</ele><time>2026-04-24T09:12:55Z</time></trkpt>
<trkpt lat="43.2414920000" lon="-1.1055320000"><ele>468</ele><time>2026-04-24T09:12:58Z</time></trkpt>
<trkpt lat="43.2414820000" lon="-1.1055570000"><ele>468</ele><time>2026-04-24T09:13:04Z</time></trkpt>
<trkpt lat="43.2414620000" lon="-1.1055570000"><ele>467</ele><time>2026-04-24T09:16:13Z</time></trkpt>
<trkpt lat="43.2414450000" lon="-1.1055420000"><ele>467</ele><time>2026-04-24T09:17:29Z</time></trkpt>
<trkpt lat="43.2414630000" lon="-1.1055520000"><ele>467</ele><time>2026-04-24T09:18:33Z</time></trkpt>
<trkpt lat="43.2414470000" lon="-1.1055420000"><ele>468</ele><time>2026-04-24T09:20:01Z</time></trkpt>
<trkpt lat="43.2414620000" lon="-1.1055600000"><ele>470</ele><time>2026-04-24T09:25:10Z</time></trkpt>
<trkpt lat="43.2414500000" lon="-1.1055320000"><ele>470</ele><time>2026-04-24T09:27:32Z</time></trkpt>
<trkpt lat="43.2414370000" lon="-1.1055070000"><ele>470</ele><time>2026-04-24T09:27:34Z</time></trkpt>
<trkpt lat="43.2414670000" lon="-1.1055220000"><ele>472</ele><time>2026-04-24T09:32:06Z</time></trkpt>
<trkpt lat="43.2414920000" lon="-1.1055220000"><ele>472</ele><time>2026-04-24T09:32:07Z</time></trkpt>
<trkpt lat="43.2415220000" lon="-1.1055270000"><ele>473</ele><time>2026-04-24T09:32:08Z</time></trkpt>
<trkpt lat="43.2415520000" lon="-1.1055370000"><ele>473</ele><time>2026-04-24T09:32:09Z</time></trkpt>
<trkpt lat="43.2415770000" lon="-1.1055420000"><ele>473</ele><time>2026-04-24T09:32:10Z</time></trkpt>
<trkpt lat="43.2416020000" lon="-1.1055520000"><ele>473</ele><time>2026-04-24T09:32:12Z</time></trkpt>
<trkpt lat="43.2416220000" lon="-1.1055850000"><ele>474</ele><time>2026-04-24T09:32:15Z</time></trkpt>
<trkpt lat="43.2416270000" lon="-1.1056070000"><ele>474</ele><time>2026-04-24T09:32:17Z</time></trkpt>
<trkpt lat="43.2416420000" lon="-1.1056250000"><ele>474</ele><time>2026-04-24T09:32:20Z</time></trkpt>
<trkpt lat="43.2416570000" lon="-1.1056400000"><ele>474</ele><time>2026-04-24T09:32:22Z</time></trkpt>
<trkpt lat="43.2416720000" lon="-1.1056570000"><ele>474</ele><time>2026-04-24T09:32:24Z</time></trkpt>
<trkpt lat="43.2416870000" lon="-1.1056870000"><ele>474</ele><time>2026-04-24T09:32:27Z</time></trkpt>
<trkpt lat="43.2417020000" lon="-1.1057120000"><ele>474</ele><time>2026-04-24T09:32:30Z</time></trkpt>
<trkpt lat="43.2417220000" lon="-1.1057400000"><ele>474</ele><time>2026-04-24T09:32:33Z</time></trkpt>
<trkpt lat="43.2417170000" lon="-1.1057770000"><ele>474</ele><time>2026-04-24T09:32:36Z</time></trkpt>
<trkpt lat="43.2417150000" lon="-1.1058070000"><ele>474</ele><time>2026-04-24T09:32:38Z</time></trkpt>
<trkpt lat="43.2417200000" lon="-1.1058350000"><ele>474</ele><time>2026-04-24T09:32:40Z</time></trkpt>
<trkpt lat="43.2417220000" lon="-1.1058620000"><ele>474</ele><time>2026-04-24T09:32:42Z</time></trkpt>
<trkpt lat="43.2417220000" lon="-1.1058870000"><ele>474</ele><time>2026-04-24T09:32:44Z</time></trkpt>
<trkpt lat="43.2417220000" lon="-1.1059220000"><ele>474</ele><time>2026-04-24T09:32:47Z</time></trkpt>
<trkpt lat="43.2417220000" lon="-1.1059470000"><ele>474</ele><time>2026-04-24T09:32:49Z</time></trkpt>
<trkpt lat="43.2417250000" lon="-1.1059820000"><ele>474</ele><time>2026-04-24T09:32:52Z</time></trkpt>
<trkpt lat="43.2417270000" lon="-1.1060150000"><ele>474</ele><time>2026-04-24T09:32:55Z</time></trkpt>
<trkpt lat="43.2417320000" lon="-1.1060520000"><ele>474</ele><time>2026-04-24T09:32:58Z</time></trkpt>
<trkpt lat="43.2417320000" lon="-1.1060770000"><ele>474</ele><time>2026-04-24T09:33:00Z</time></trkpt>
<trkpt lat="43.2417320000" lon="-1.1061120000"><ele>473</ele><time>2026-04-24T09:33:03Z</time></trkpt>
<trkpt lat="43.2417370000" lon="-1.1061470000"><ele>473</ele><time>2026-04-24T09:33:06Z</time></trkpt>
<trkpt lat="43.2417370000" lon="-1.1061720000"><ele>473</ele><time>2026-04-24T09:33:08Z</time></trkpt>
<trkpt lat="43.2417370000" lon="-1.1061970000"><ele>473</ele><time>2026-04-24T09:33:10Z</time></trkpt>
<trkpt lat="43.2417370000" lon="-1.1062270000"><ele>473</ele><time>2026-04-24T09:33:13Z</time></trkpt>
<trkpt lat="43.2417370000" lon="-1.1062620000"><ele>473</ele><time>2026-04-24T09:33:16Z</time></trkpt>
<trkpt lat="43.2417350000" lon="-1.1062970000"><ele>473</ele><time>2026-04-24T09:33:19Z</time></trkpt>
<trkpt lat="43.2417320000" lon="-1.1063270000"><ele>473</ele><time>2026-04-24T09:33:22Z</time></trkpt>
<trkpt lat="43.2417350000" lon="-1.1063600000"><ele>473</ele><time>2026-04-24T09:33:25Z</time></trkpt>
<trkpt lat="43.2417370000" lon="-1.1063850000"><ele>472</ele><time>2026-04-24T09:33:27Z</time></trkpt>
<trkpt lat="43.2417370000" lon="-1.1064200000"><ele>472</ele><time>2026-04-24T09:33:30Z</time></trkpt>
<trkpt lat="43.2417420000" lon="-1.1064450000"><ele>472</ele><time>2026-04-24T09:33:32Z</time></trkpt>
<trkpt lat="43.2417500000" lon="-1.1064670000"><ele>472</ele><time>2026-04-24T09:33:35Z</time></trkpt>
<trkpt lat="43.2417620000" lon="-1.1064920000"><ele>472</ele><time>2026-04-24T09:33:38Z</time></trkpt>
<trkpt lat="43.2417600000" lon="-1.1065270000"><ele>471</ele><time>2026-04-24T09:34:13Z</time></trkpt>
<trkpt lat="43.2417600000" lon="-1.1065600000"><ele>471</ele><time>2026-04-24T09:34:15Z</time></trkpt>
<trkpt lat="43.2417620000" lon="-1.1065920000"><ele>471</ele><time>2026-04-24T09:34:17Z</time></trkpt>
<trkpt lat="43.2417620000" lon="-1.1066200000"><ele>471</ele><time>2026-04-24T09:34:19Z</time></trkpt>
<trkpt lat="43.2417600000" lon="-1.1066470000"><ele>471</ele><time>2026-04-24T09:34:26Z</time></trkpt>
<trkpt lat="43.2417450000" lon="-1.1066720000"><ele>470</ele><time>2026-04-24T09:34:29Z</time></trkpt>
<trkpt lat="43.2417270000" lon="-1.1066970000"><ele>470</ele><time>2026-04-24T09:34:32Z</time></trkpt>
<trkpt lat="43.2417100000" lon="-1.1067270000"><ele>470</ele><time>2026-04-24T09:34:35Z</time></trkpt>
<trkpt lat="43.2417000000" lon="-1.1067550000"><ele>469</ele><time>2026-04-24T09:34:54Z</time></trkpt>
<trkpt lat="43.2416880000" lon="-1.1067900000"><ele>469</ele><time>2026-04-24T09:34:56Z</time></trkpt>
<trkpt lat="43.2416750000" lon="-1.1068270000"><ele>469</ele><time>2026-04-24T09:34:58Z</time></trkpt>
<trkpt lat="43.2416670000" lon="-1.1068520000"><ele>468</ele><time>2026-04-24T09:35:00Z</time></trkpt>
<trkpt lat="43.2416620000" lon="-1.1068850000"><ele>468</ele><time>2026-04-24T09:35:03Z</time></trkpt>
<trkpt lat="43.2416570000" lon="-1.1069170000"><ele>467</ele><time>2026-04-24T09:35:06Z</time></trkpt>
<trkpt lat="43.2416470000" lon="-1.1069420000"><ele>466</ele><time>2026-04-24T09:35:08Z</time></trkpt>
<trkpt lat="43.2416370000" lon="-1.1069650000"><ele>465</ele><time>2026-04-24T09:35:10Z</time></trkpt>
<trkpt lat="43.2416300000" lon="-1.1069880000"><ele>465</ele><time>2026-04-24T09:35:12Z</time></trkpt>
<trkpt lat="43.2416180000" lon="-1.1070220000"><ele>464</ele><time>2026-04-24T09:35:15Z</time></trkpt>
<trkpt lat="43.2416120000" lon="-1.1070500000"><ele>464</ele><time>2026-04-24T09:35:17Z</time></trkpt>
<trkpt lat="43.2416020000" lon="-1.1070770000"><ele>463</ele><time>2026-04-24T09:35:20Z</time></trkpt>
<trkpt lat="43.2415920000" lon="-1.1071020000"><ele>463</ele><time>2026-04-24T09:35:23Z</time></trkpt>
<trkpt lat="43.2415920000" lon="-1.1071370000"><ele>461</ele><time>2026-04-24T09:35:56Z</time></trkpt>
<trkpt lat="43.2415950000" lon="-1.1071820000"><ele>461</ele><time>2026-04-24T09:35:58Z</time></trkpt>
<trkpt lat="43.2415970000" lon="-1.1072200000"><ele>460</ele><time>2026-04-24T09:36:00Z</time></trkpt>
<trkpt lat="43.2415950000" lon="-1.1072470000"><ele>460</ele><time>2026-04-24T09:36:02Z</time></trkpt>
<trkpt lat="43.2415870000" lon="-1.1072820000"><ele>460</ele><time>2026-04-24T09:36:05Z</time></trkpt>
<trkpt lat="43.2415820000" lon="-1.1073170000"><ele>459</ele><time>2026-04-24T09:36:08Z</time></trkpt>
<trkpt lat="43.2415770000" lon="-1.1073520000"><ele>459</ele><time>2026-04-24T09:36:11Z</time></trkpt>
<trkpt lat="43.2415720000" lon="-1.1073820000"><ele>458</ele><time>2026-04-24T09:36:14Z</time></trkpt>
<trkpt lat="43.2415720000" lon="-1.1074170000"><ele>457</ele><time>2026-04-24T09:36:17Z</time></trkpt>
<trkpt lat="43.2415670000" lon="-1.1074500000"><ele>457</ele><time>2026-04-24T09:36:20Z</time></trkpt>
<trkpt lat="43.2415600000" lon="-1.1074720000"><ele>456</ele><time>2026-04-24T09:36:22Z</time></trkpt>
<trkpt lat="43.2415550000" lon="-1.1075000000"><ele>456</ele><time>2026-04-24T09:36:24Z</time></trkpt>
<trkpt lat="43.2415470000" lon="-1.1075320000"><ele>455</ele><time>2026-04-24T09:36:27Z</time></trkpt>
<trkpt lat="43.2415470000" lon="-1.1075620000"><ele>455</ele><time>2026-04-24T09:36:30Z</time></trkpt>
<trkpt lat="43.2415420000" lon="-1.1075870000"><ele>454</ele><time>2026-04-24T09:36:33Z</time></trkpt>
<trkpt lat="43.2415370000" lon="-1.1076170000"><ele>454</ele><time>2026-04-24T09:36:36Z</time></trkpt>
<trkpt lat="43.2415370000" lon="-1.1076420000"><ele>453</ele><time>2026-04-24T09:36:38Z</time></trkpt>
<trkpt lat="43.2415300000" lon="-1.1076720000"><ele>452</ele><time>2026-04-24T09:36:41Z</time></trkpt>
<trkpt lat="43.2415220000" lon="-1.1077020000"><ele>452</ele><time>2026-04-24T09:36:44Z</time></trkpt>
<trkpt lat="43.2415200000" lon="-1.1077300000"><ele>451</ele><time>2026-04-24T09:36:47Z</time></trkpt>
<trkpt lat="43.2415070000" lon="-1.1077620000"><ele>450</ele><time>2026-04-24T09:36:50Z</time></trkpt>
<trkpt lat="43.2414970000" lon="-1.1077950000"><ele>450</ele><time>2026-04-24T09:36:53Z</time></trkpt>
<trkpt lat="43.2414900000" lon="-1.1078220000"><ele>449</ele><time>2026-04-24T09:36:56Z</time></trkpt>
<trkpt lat="43.2414820000" lon="-1.1078550000"><ele>448</ele><time>2026-04-24T09:36:59Z</time></trkpt>
<trkpt lat="43.2414770000" lon="-1.1078820000"><ele>448</ele><time>2026-04-24T09:37:02Z</time></trkpt>
<trkpt lat="43.2414720000" lon="-1.1079120000"><ele>447</ele><time>2026-04-24T09:37:05Z</time></trkpt>
<trkpt lat="43.2414670000" lon="-1.1079470000"><ele>446</ele><time>2026-04-24T09:37:08Z</time></trkpt>
<trkpt lat="43.2414620000" lon="-1.1079730000"><ele>446</ele><time>2026-04-24T09:37:11Z</time></trkpt>
<trkpt lat="43.2414670000" lon="-1.1080020000"><ele>445</ele><time>2026-04-24T09:37:15Z</time></trkpt>
<trkpt lat="43.2414630000" lon="-1.1080320000"><ele>444</ele><time>2026-04-24T09:37:18Z</time></trkpt>
<trkpt lat="43.2414570000" lon="-1.1080620000"><ele>443</ele><time>2026-04-24T09:37:21Z</time></trkpt>
<trkpt lat="43.2414470000" lon="-1.1080920000"><ele>443</ele><time>2026-04-24T09:37:24Z</time></trkpt>
<trkpt lat="43.2414370000" lon="-1.1081150000"><ele>442</ele><time>2026-04-24T09:37:27Z</time></trkpt>
<trkpt lat="43.2414270000" lon="-1.1081470000"><ele>441</ele><time>2026-04-24T09:37:30Z</time></trkpt>
<trkpt lat="43.2414170000" lon="-1.1081770000"><ele>441</ele><time>2026-04-24T09:37:33Z</time></trkpt>
<trkpt lat="43.2414120000" lon="-1.1082000000"><ele>440</ele><time>2026-04-24T09:37:35Z</time></trkpt>
<trkpt lat="43.2414020000" lon="-1.1082320000"><ele>440</ele><time>2026-04-24T09:37:38Z</time></trkpt>
<trkpt lat="43.2413930000" lon="-1.1082600000"><ele>439</ele><time>2026-04-24T09:37:41Z</time></trkpt>
<trkpt lat="43.2413870000" lon="-1.1082900000"><ele>438</ele><time>2026-04-24T09:37:44Z</time></trkpt>
<trkpt lat="43.2413820000" lon="-1.1083220000"><ele>438</ele><time>2026-04-24T09:37:47Z</time></trkpt>
<trkpt lat="43.2413670000" lon="-1.1083470000"><ele>437</ele><time>2026-04-24T09:37:50Z</time></trkpt>
<trkpt lat="43.2413650000" lon="-1.1083820000"><ele>436</ele><time>2026-04-24T09:37:53Z</time></trkpt>
<trkpt lat="43.2413650000" lon="-1.1084150000"><ele>436</ele><time>2026-04-24T09:37:56Z</time></trkpt>
<trkpt lat="43.2413620000" lon="-1.1084450000"><ele>435</ele><time>2026-04-24T09:37:59Z</time></trkpt>
<trkpt lat="43.2413620000" lon="-1.1084700000"><ele>435</ele><time>2026-04-24T09:38:01Z</time></trkpt>
<trkpt lat="43.2413620000" lon="-1.1085020000"><ele>434</ele><time>2026-04-24T09:38:04Z</time></trkpt>
<trkpt lat="43.2413600000" lon="-1.1085320000"><ele>433</ele><time>2026-04-24T09:38:07Z</time></trkpt>
<trkpt lat="43.2413520000" lon="-1.1085700000"><ele>433</ele><time>2026-04-24T09:38:10Z</time></trkpt>
<trkpt lat="43.2413570000" lon="-1.1085970000"><ele>432</ele><time>2026-04-24T09:38:12Z</time></trkpt>
<trkpt lat="43.2413570000" lon="-1.1086250000"><ele>432</ele><time>2026-04-24T09:38:14Z</time></trkpt>
<trkpt lat="43.2413570000" lon="-1.1086600000"><ele>432</ele><time>2026-04-24T09:38:17Z</time></trkpt>
<trkpt lat="43.2413520000" lon="-1.1086970000"><ele>431</ele><time>2026-04-24T09:38:20Z</time></trkpt>
<trkpt lat="43.2413470000" lon="-1.1087320000"><ele>430</ele><time>2026-04-24T09:38:23Z</time></trkpt>
<trkpt lat="43.2413420000" lon="-1.1087670000"><ele>430</ele><time>2026-04-24T09:38:26Z</time></trkpt>
<trkpt lat="43.2413370000" lon="-1.1087920000"><ele>429</ele><time>2026-04-24T09:38:28Z</time></trkpt>
<trkpt lat="43.2413320000" lon="-1.1088200000"><ele>429</ele><time>2026-04-24T09:38:30Z</time></trkpt>
<trkpt lat="43.2413270000" lon="-1.1088550000"><ele>429</ele><time>2026-04-24T09:38:33Z</time></trkpt>
<trkpt lat="43.2413220000" lon="-1.1088920000"><ele>428</ele><time>2026-04-24T09:38:36Z</time></trkpt>
<trkpt lat="43.2413170000" lon="-1.1089270000"><ele>428</ele><time>2026-04-24T09:38:39Z</time></trkpt>
<trkpt lat="43.2413120000" lon="-1.1089580000"><ele>427</ele><time>2026-04-24T09:38:42Z</time></trkpt>
<trkpt lat="43.2413070000" lon="-1.1089920000"><ele>427</ele><time>2026-04-24T09:38:45Z</time></trkpt>
<trkpt lat="43.2413020000" lon="-1.1090220000"><ele>426</ele><time>2026-04-24T09:38:47Z</time></trkpt>
<trkpt lat="43.2412920000" lon="-1.1090420000"><ele>426</ele><time>2026-04-24T09:38:49Z</time></trkpt>
<trkpt lat="43.2412800000" lon="-1.1090750000"><ele>426</ele><time>2026-04-24T09:38:52Z</time></trkpt>
<trkpt lat="43.2412620000" lon="-1.1090930000"><ele>425</ele><time>2026-04-24T09:38:56Z</time></trkpt>
<trkpt lat="43.2412750000" lon="-1.1091220000"><ele>425</ele><time>2026-04-24T09:39:44Z</time></trkpt>
<trkpt lat="43.2412850000" lon="-1.1091570000"><ele>425</ele><time>2026-04-24T09:39:46Z</time></trkpt>
<trkpt lat="43.2412970000" lon="-1.1091850000"><ele>424</ele><time>2026-04-24T09:39:48Z</time></trkpt>
<trkpt lat="43.2413020000" lon="-1.1092200000"><ele>424</ele><time>2026-04-24T09:41:44Z</time></trkpt>
<trkpt lat="43.2413120000" lon="-1.1092550000"><ele>424</ele><time>2026-04-24T09:41:46Z</time></trkpt>
<trkpt lat="43.2413070000" lon="-1.1092870000"><ele>423</ele><time>2026-04-24T09:41:52Z</time></trkpt>
<trkpt lat="43.2413170000" lon="-1.1093170000"><ele>423</ele><time>2026-04-24T09:41:54Z</time></trkpt>
<trkpt lat="43.2413270000" lon="-1.1093420000"><ele>423</ele><time>2026-04-24T09:41:56Z</time></trkpt>
<trkpt lat="43.2413320000" lon="-1.1093700000"><ele>421</ele><time>2026-04-24T09:42:19Z</time></trkpt>
<trkpt lat="43.2413350000" lon="-1.1094020000"><ele>421</ele><time>2026-04-24T09:42:21Z</time></trkpt>
<trkpt lat="43.2413370000" lon="-1.1094420000"><ele>421</ele><time>2026-04-24T09:42:23Z</time></trkpt>
<trkpt lat="43.2413370000" lon="-1.1094750000"><ele>421</ele><time>2026-04-24T09:42:25Z</time></trkpt>
<trkpt lat="43.2413370000" lon="-1.1095050000"><ele>421</ele><time>2026-04-24T09:42:27Z</time></trkpt>
<trkpt lat="43.2413370000" lon="-1.1095300000"><ele>420</ele><time>2026-04-24T09:42:29Z</time></trkpt>
<trkpt lat="43.2413320000" lon="-1.1095550000"><ele>420</ele><time>2026-04-24T09:42:31Z</time></trkpt>
<trkpt lat="43.2413220000" lon="-1.1095870000"><ele>420</ele><time>2026-04-24T09:42:33Z</time></trkpt>
<trkpt lat="43.2413050000" lon="-1.1095970000"><ele>419</ele><time>2026-04-24T09:42:36Z</time></trkpt>
<trkpt lat="43.2413120000" lon="-1.1095670000"><ele>418</ele><time>2026-04-24T09:44:30Z</time></trkpt>
<trkpt lat="43.2413270000" lon="-1.1095820000"><ele>419</ele><time>2026-04-24T09:46:56Z</time></trkpt>
<trkpt lat="43.2413220000" lon="-1.1096120000"><ele>418</ele><time>2026-04-24T09:50:40Z</time></trkpt>
<trkpt lat="43.2413250000" lon="-1.1095870000"><ele>417</ele><time>2026-04-24T09:52:16Z</time></trkpt>
<trkpt lat="43.2413270000" lon="-1.1095520000"><ele>418</ele><time>2026-04-24T09:52:32Z</time></trkpt>
<trkpt lat="43.2413150000" lon="-1.1095700000"><ele>418</ele><time>2026-04-24T09:55:47Z</time></trkpt>
<trkpt lat="43.2413350000" lon="-1.1095570000"><ele>418</ele><time>2026-04-24T09:55:51Z</time></trkpt>
<trkpt lat="43.2413400000" lon="-1.1095270000"><ele>416</ele><time>2026-04-24T10:03:19Z</time></trkpt>
<trkpt lat="43.2413600000" lon="-1.1095270000"><ele>416</ele><time>2026-04-24T10:05:59Z</time></trkpt>
<trkpt lat="43.2413370000" lon="-1.1095300000"><ele>416</ele><time>2026-04-24T10:09:50Z</time></trkpt>
<trkpt lat="43.2413600000" lon="-1.1095220000"><ele>416</ele><time>2026-04-24T10:12:08Z</time></trkpt>
<trkpt lat="43.2413420000" lon="-1.1095370000"><ele>415</ele><time>2026-04-24T10:14:53Z</time></trkpt>
<trkpt lat="43.2413220000" lon="-1.1095450000"><ele>417</ele><time>2026-04-24T10:19:56Z</time></trkpt>
<trkpt lat="43.2413220000" lon="-1.1095750000"><ele>417</ele><time>2026-04-24T10:21:07Z</time></trkpt>
<trkpt lat="43.2413170000" lon="-1.1096100000"><ele>417</ele><time>2026-04-24T10:21:09Z</time></trkpt>
<trkpt lat="43.2413050000" lon="-1.1096520000"><ele>417</ele><time>2026-04-24T10:21:11Z</time></trkpt>
<trkpt lat="43.2412920000" lon="-1.1096900000"><ele>417</ele><time>2026-04-24T10:21:13Z</time></trkpt>
<trkpt lat="43.2412800000" lon="-1.1097200000"><ele>416</ele><time>2026-04-24T10:21:15Z</time></trkpt>
<trkpt lat="43.2412670000" lon="-1.1097500000"><ele>416</ele><time>2026-04-24T10:21:17Z</time></trkpt>
<trkpt lat="43.2412570000" lon="-1.1097800000"><ele>416</ele><time>2026-04-24T10:21:19Z</time></trkpt>
<trkpt lat="43.2412380000" lon="-1.1098050000"><ele>415</ele><time>2026-04-24T10:21:21Z</time></trkpt>
<trkpt lat="43.2412270000" lon="-1.1098320000"><ele>415</ele><time>2026-04-24T10:21:23Z</time></trkpt>
<trkpt lat="43.2412150000" lon="-1.1098650000"><ele>415</ele><time>2026-04-24T10:21:25Z</time></trkpt>
<trkpt lat="43.2412050000" lon="-1.1098970000"><ele>415</ele><time>2026-04-24T10:21:27Z</time></trkpt>
<trkpt lat="43.2411970000" lon="-1.1099270000"><ele>414</ele><time>2026-04-24T10:21:29Z</time></trkpt>
<trkpt lat="43.2411920000" lon="-1.1099600000"><ele>414</ele><time>2026-04-24T10:21:31Z</time></trkpt>
<trkpt lat="43.2411770000" lon="-1.1099870000"><ele>414</ele><time>2026-04-24T10:21:33Z</time></trkpt>
<trkpt lat="43.2411670000" lon="-1.1100220000"><ele>414</ele><time>2026-04-24T10:21:35Z</time></trkpt>
<trkpt lat="43.2411600000" lon="-1.1100550000"><ele>414</ele><time>2026-04-24T10:21:37Z</time></trkpt>
<trkpt lat="43.2411550000" lon="-1.1100870000"><ele>413</ele><time>2026-04-24T10:21:39Z</time></trkpt>
<trkpt lat="43.2411500000" lon="-1.1101200000"><ele>413</ele><time>2026-04-24T10:21:41Z</time></trkpt>
<trkpt lat="43.2411420000" lon="-1.1101520000"><ele>413</ele><time>2026-04-24T10:21:43Z</time></trkpt>
<trkpt lat="43.2411300000" lon="-1.1101850000"><ele>413</ele><time>2026-04-24T10:21:45Z</time></trkpt>
<trkpt lat="43.2411220000" lon="-1.1102200000"><ele>413</ele><time>2026-04-24T10:21:47Z</time></trkpt>
<trkpt lat="43.2411150000" lon="-1.1102550000"><ele>413</ele><time>2026-04-24T10:21:49Z</time></trkpt>
<trkpt lat="43.2411070000" lon="-1.1102920000"><ele>413</ele><time>2026-04-24T10:21:51Z</time></trkpt>
<trkpt lat="43.2411050000" lon="-1.1103270000"><ele>413</ele><time>2026-04-24T10:21:53Z</time></trkpt>
<trkpt lat="43.2411020000" lon="-1.1103670000"><ele>413</ele><time>2026-04-24T10:21:55Z</time></trkpt>
<trkpt lat="43.2410950000" lon="-1.1104000000"><ele>413</ele><time>2026-04-24T10:21:57Z</time></trkpt>
<trkpt lat="43.2410870000" lon="-1.1104300000"><ele>413</ele><time>2026-04-24T10:21:59Z</time></trkpt>
<trkpt lat="43.2410800000" lon="-1.1104620000"><ele>413</ele><time>2026-04-24T10:22:01Z</time></trkpt>
<trkpt lat="43.2410750000" lon="-1.1105000000"><ele>413</ele><time>2026-04-24T10:22:03Z</time></trkpt>
<trkpt lat="43.2410670000" lon="-1.1105370000"><ele>413</ele><time>2026-04-24T10:22:05Z</time></trkpt>
<trkpt lat="43.2410670000" lon="-1.1105750000"><ele>413</ele><time>2026-04-24T10:22:07Z</time></trkpt>
<trkpt lat="43.2410620000" lon="-1.1106070000"><ele>413</ele><time>2026-04-24T10:22:09Z</time></trkpt>
<trkpt lat="43.2410650000" lon="-1.1106450000"><ele>414</ele><time>2026-04-24T10:22:11Z</time></trkpt>
<trkpt lat="43.2410620000" lon="-1.1106820000"><ele>414</ele><time>2026-04-24T10:22:13Z</time></trkpt>
<trkpt lat="43.2410570000" lon="-1.1107200000"><ele>414</ele><time>2026-04-24T10:22:15Z</time></trkpt>
<trkpt lat="43.2410520000" lon="-1.1107520000"><ele>414</ele><time>2026-04-24T10:22:17Z</time></trkpt>
<trkpt lat="43.2410550000" lon="-1.1107900000"><ele>414</ele><time>2026-04-24T10:22:30Z</time></trkpt>
<trkpt lat="43.2410450000" lon="-1.1108350000"><ele>413</ele><time>2026-04-24T10:22:32Z</time></trkpt>
<trkpt lat="43.2410370000" lon="-1.1108820000"><ele>413</ele><time>2026-04-24T10:22:34Z</time></trkpt>
<trkpt lat="43.2410270000" lon="-1.1109270000"><ele>413</ele><time>2026-04-24T10:22:36Z</time></trkpt>
<trkpt lat="43.2410170000" lon="-1.1109620000"><ele>413</ele><time>2026-04-24T10:22:38Z</time></trkpt>
<trkpt lat="43.2410120000" lon="-1.1109950000"><ele>414</ele><time>2026-04-24T10:22:40Z</time></trkpt>
<trkpt lat="43.2410120000" lon="-1.1110320000"><ele>414</ele><time>2026-04-24T10:22:42Z</time></trkpt>
<trkpt lat="43.2410070000" lon="-1.1110670000"><ele>414</ele><time>2026-04-24T10:22:44Z</time></trkpt>
<trkpt lat="43.2410020000" lon="-1.1110970000"><ele>414</ele><time>2026-04-24T10:22:46Z</time></trkpt>
<trkpt lat="43.2409970000" lon="-1.1111300000"><ele>414</ele><time>2026-04-24T10:22:48Z</time></trkpt>
<trkpt lat="43.2409870000" lon="-1.1111620000"><ele>414</ele><time>2026-04-24T10:22:50Z</time></trkpt>
<trkpt lat="43.2409820000" lon="-1.1111970000"><ele>414</ele><time>2026-04-24T10:22:52Z</time></trkpt>
<trkpt lat="43.2409770000" lon="-1.1112320000"><ele>414</ele><time>2026-04-24T10:22:54Z</time></trkpt>
<trkpt lat="43.2409720000" lon="-1.1112670000"><ele>414</ele><time>2026-04-24T10:22:56Z</time></trkpt>
<trkpt lat="43.2409650000" lon="-1.1113020000"><ele>413</ele><time>2026-04-24T10:22:58Z</time></trkpt>
<trkpt lat="43.2409600000" lon="-1.1113350000"><ele>413</ele><time>2026-04-24T10:23:00Z</time></trkpt>
<trkpt lat="43.2409600000" lon="-1.1113670000"><ele>413</ele><time>2026-04-24T10:23:02Z</time></trkpt>
<trkpt lat="43.2409550000" lon="-1.1114020000"><ele>413</ele><time>2026-04-24T10:23:04Z</time></trkpt>
<trkpt lat="43.2409500000" lon="-1.1114350000"><ele>413</ele><time>2026-04-24T10:23:06Z</time></trkpt>
<trkpt lat="43.2409450000" lon="-1.1114700000"><ele>413</ele><time>2026-04-24T10:23:08Z</time></trkpt>
<trkpt lat="43.2409400000" lon="-1.1115050000"><ele>412</ele><time>2026-04-24T10:23:10Z</time></trkpt>
<trkpt lat="43.2409320000" lon="-1.1115420000"><ele>412</ele><time>2026-04-24T10:23:12Z</time></trkpt>
<trkpt lat="43.2409220000" lon="-1.1115770000"><ele>412</ele><time>2026-04-24T10:23:14Z</time></trkpt>
<trkpt lat="43.2409170000" lon="-1.1116070000"><ele>411</ele><time>2026-04-24T10:23:16Z</time></trkpt>
<trkpt lat="43.2409120000" lon="-1.1116370000"><ele>411</ele><time>2026-04-24T10:23:18Z</time></trkpt>
<trkpt lat="43.2409070000" lon="-1.1116700000"><ele>411</ele><time>2026-04-24T10:23:20Z</time></trkpt>
<trkpt lat="43.2409070000" lon="-1.1116980000"><ele>411</ele><time>2026-04-24T10:23:22Z</time></trkpt>
<trkpt lat="43.2409070000" lon="-1.1117270000"><ele>410</ele><time>2026-04-24T10:23:24Z</time></trkpt>
<trkpt lat="43.2409020000" lon="-1.1117570000"><ele>410</ele><time>2026-04-24T10:23:26Z</time></trkpt>
<trkpt lat="43.2408970000" lon="-1.1117900000"><ele>410</ele><time>2026-04-24T10:23:28Z</time></trkpt>
<trkpt lat="43.2408850000" lon="-1.1118300000"><ele>409</ele><time>2026-04-24T10:23:30Z</time></trkpt>
<trkpt lat="43.2408670000" lon="-1.1118670000"><ele>409</ele><time>2026-04-24T10:23:32Z</time></trkpt>
<trkpt lat="43.2408550000" lon="-1.1119000000"><ele>409</ele><time>2026-04-24T10:23:34Z</time></trkpt>
<trkpt lat="43.2408420000" lon="-1.1119320000"><ele>409</ele><time>2026-04-24T10:23:36Z</time></trkpt>
<trkpt lat="43.2408320000" lon="-1.1119620000"><ele>408</ele><time>2026-04-24T10:23:38Z</time></trkpt>
<trkpt lat="43.2408200000" lon="-1.1119920000"><ele>408</ele><time>2026-04-24T10:23:40Z</time></trkpt>
<trkpt lat="43.2408100000" lon="-1.1120170000"><ele>407</ele><time>2026-04-24T10:24:00Z</time></trkpt>
<trkpt lat="43.2408100000" lon="-1.1120520000"><ele>407</ele><time>2026-04-24T10:24:02Z</time></trkpt>
<trkpt lat="43.2408050000" lon="-1.1120970000"><ele>407</ele><time>2026-04-24T10:24:04Z</time></trkpt>
<trkpt lat="43.2407970000" lon="-1.1121400000"><ele>406</ele><time>2026-04-24T10:24:06Z</time></trkpt>
<trkpt lat="43.2407880000" lon="-1.1121750000"><ele>406</ele><time>2026-04-24T10:24:08Z</time></trkpt>
<trkpt lat="43.2407850000" lon="-1.1122050000"><ele>406</ele><time>2026-04-24T10:24:10Z</time></trkpt>
<trkpt lat="43.2407770000" lon="-1.1122420000"><ele>406</ele><time>2026-04-24T10:24:12Z</time></trkpt>
<trkpt lat="43.2407720000" lon="-1.1122720000"><ele>406</ele><time>2026-04-24T10:24:14Z</time></trkpt>
<trkpt lat="43.2407670000" lon="-1.1123070000"><ele>406</ele><time>2026-04-24T10:24:16Z</time></trkpt>
<trkpt lat="43.2407650000" lon="-1.1123370000"><ele>405</ele><time>2026-04-24T10:24:18Z</time></trkpt>
<trkpt lat="43.2407570000" lon="-1.1123720000"><ele>405</ele><time>2026-04-24T10:24:20Z</time></trkpt>
<trkpt lat="43.2407520000" lon="-1.1124050000"><ele>405</ele><time>2026-04-24T10:24:22Z</time></trkpt>
<trkpt lat="43.2407470000" lon="-1.1124370000"><ele>405</ele><time>2026-04-24T10:24:24Z</time></trkpt>
<trkpt lat="43.2407420000" lon="-1.1124670000"><ele>404</ele><time>2026-04-24T10:24:26Z</time></trkpt>
<trkpt lat="43.2407320000" lon="-1.1125000000"><ele>404</ele><time>2026-04-24T10:24:28Z</time></trkpt>
<trkpt lat="43.2407270000" lon="-1.1125320000"><ele>404</ele><time>2026-04-24T10:24:30Z</time></trkpt>
<trkpt lat="43.2407270000" lon="-1.1125620000"><ele>404</ele><time>2026-04-24T10:24:32Z</time></trkpt>
<trkpt lat="43.2407220000" lon="-1.1125970000"><ele>403</ele><time>2026-04-24T10:24:34Z</time></trkpt>
<trkpt lat="43.2407200000" lon="-1.1126320000"><ele>403</ele><time>2026-04-24T10:24:36Z</time></trkpt>
<trkpt lat="43.2407170000" lon="-1.1126670000"><ele>403</ele><time>2026-04-24T10:24:38Z</time></trkpt>
<trkpt lat="43.2407170000" lon="-1.1127000000"><ele>402</ele><time>2026-04-24T10:24:40Z</time></trkpt>
<trkpt lat="43.2407150000" lon="-1.1127320000"><ele>402</ele><time>2026-04-24T10:24:42Z</time></trkpt>
<trkpt lat="43.2407120000" lon="-1.1127670000"><ele>402</ele><time>2026-04-24T10:24:44Z</time></trkpt>
<trkpt lat="43.2407120000" lon="-1.1128000000"><ele>402</ele><time>2026-04-24T10:24:46Z</time></trkpt>
<trkpt lat="43.2407120000" lon="-1.1128420000"><ele>402</ele><time>2026-04-24T10:24:48Z</time></trkpt>
<trkpt lat="43.2407070000" lon="-1.1128720000"><ele>402</ele><time>2026-04-24T10:24:50Z</time></trkpt>
<trkpt lat="43.2407070000" lon="-1.1129070000"><ele>401</ele><time>2026-04-24T10:24:52Z</time></trkpt>
<trkpt lat="43.2407030000" lon="-1.1129500000"><ele>401</ele><time>2026-04-24T10:24:54Z</time></trkpt>
<trkpt lat="43.2406970000" lon="-1.1129900000"><ele>401</ele><time>2026-04-24T10:24:56Z</time></trkpt>
<trkpt lat="43.2406950000" lon="-1.1130270000"><ele>401</ele><time>2026-04-24T10:24:58Z</time></trkpt>
<trkpt lat="43.2406900000" lon="-1.1130620000"><ele>401</ele><time>2026-04-24T10:25:00Z</time></trkpt>
<trkpt lat="43.2406900000" lon="-1.1131000000"><ele>401</ele><time>2026-04-24T10:25:02Z</time></trkpt>
<trkpt lat="43.2406870000" lon="-1.1131350000"><ele>402</ele><time>2026-04-24T10:25:04Z</time></trkpt>
<trkpt lat="43.2406870000" lon="-1.1131700000"><ele>402</ele><time>2026-04-24T10:25:06Z</time></trkpt>
<trkpt lat="43.2406820000" lon="-1.1132020000"><ele>402</ele><time>2026-04-24T10:25:08Z</time></trkpt>
<trkpt lat="43.2406770000" lon="-1.1132320000"><ele>402</ele><time>2026-04-24T10:25:10Z</time></trkpt>
<trkpt lat="43.2406720000" lon="-1.1132620000"><ele>402</ele><time>2026-04-24T10:25:12Z</time></trkpt>
<trkpt lat="43.2406720000" lon="-1.1132950000"><ele>402</ele><time>2026-04-24T10:25:14Z</time></trkpt>
<trkpt lat="43.2406670000" lon="-1.1133220000"><ele>402</ele><time>2026-04-24T10:25:16Z</time></trkpt>
<trkpt lat="43.2406620000" lon="-1.1133550000"><ele>402</ele><time>2026-04-24T10:25:18Z</time></trkpt>
<trkpt lat="43.2406570000" lon="-1.1133870000"><ele>402</ele><time>2026-04-24T10:25:20Z</time></trkpt>
<trkpt lat="43.2406520000" lon="-1.1134200000"><ele>402</ele><time>2026-04-24T10:25:22Z</time></trkpt>
<trkpt lat="43.2406420000" lon="-1.1134520000"><ele>401</ele><time>2026-04-24T10:25:24Z</time></trkpt>
<trkpt lat="43.2406370000" lon="-1.1134870000"><ele>401</ele><time>2026-04-24T10:25:26Z</time></trkpt>
<trkpt lat="43.2406270000" lon="-1.1135250000"><ele>401</ele><time>2026-04-24T10:25:28Z</time></trkpt>
<trkpt lat="43.2406170000" lon="-1.1135570000"><ele>400</ele><time>2026-04-24T10:25:30Z</time></trkpt>
<trkpt lat="43.2406120000" lon="-1.1135920000"><ele>400</ele><time>2026-04-24T10:25:32Z</time></trkpt>
<trkpt lat="43.2406050000" lon="-1.1136250000"><ele>400</ele><time>2026-04-24T10:25:34Z</time></trkpt>
<trkpt lat="43.2406000000" lon="-1.1136550000"><ele>399</ele><time>2026-04-24T10:25:36Z</time></trkpt>
<trkpt lat="43.2405970000" lon="-1.1136870000"><ele>399</ele><time>2026-04-24T10:25:38Z</time></trkpt>
<trkpt lat="43.2405920000" lon="-1.1137220000"><ele>399</ele><time>2026-04-24T10:25:40Z</time></trkpt>
<trkpt lat="43.2405870000" lon="-1.1137570000"><ele>399</ele><time>2026-04-24T10:25:42Z</time></trkpt>
<trkpt lat="43.2405820000" lon="-1.1137920000"><ele>398</ele><time>2026-04-24T10:25:44Z</time></trkpt>
<trkpt lat="43.2405770000" lon="-1.1138270000"><ele>398</ele><time>2026-04-24T10:25:46Z</time></trkpt>
<trkpt lat="43.2405720000" lon="-1.1138620000"><ele>398</ele><time>2026-04-24T10:25:48Z</time></trkpt>
<trkpt lat="43.2405700000" lon="-1.1138970000"><ele>398</ele><time>2026-04-24T10:25:50Z</time></trkpt>
<trkpt lat="43.2405670000" lon="-1.1139320000"><ele>398</ele><time>2026-04-24T10:25:52Z</time></trkpt>
<trkpt lat="43.2405620000" lon="-1.1139620000"><ele>398</ele><time>2026-04-24T10:25:54Z</time></trkpt>
<trkpt lat="43.2405600000" lon="-1.1139920000"><ele>398</ele><time>2026-04-24T10:25:56Z</time></trkpt>
<trkpt lat="43.2405520000" lon="-1.1140300000"><ele>398</ele><time>2026-04-24T10:25:58Z</time></trkpt>
<trkpt lat="43.2405470000" lon="-1.1140620000"><ele>398</ele><time>2026-04-24T10:26:00Z</time></trkpt>
<trkpt lat="43.2405400000" lon="-1.1140920000"><ele>398</ele><time>2026-04-24T10:26:02Z</time></trkpt>
<trkpt lat="43.2405370000" lon="-1.1141300000"><ele>398</ele><time>2026-04-24T10:26:04Z</time></trkpt>
<trkpt lat="43.2405350000" lon="-1.1141670000"><ele>398</ele><time>2026-04-24T10:26:06Z</time></trkpt>
<trkpt lat="43.2405250000" lon="-1.1142070000"><ele>398</ele><time>2026-04-24T10:26:08Z</time></trkpt>
<trkpt lat="43.2405170000" lon="-1.1142500000"><ele>398</ele><time>2026-04-24T10:26:10Z</time></trkpt>
<trkpt lat="43.2405150000" lon="-1.1142870000"><ele>398</ele><time>2026-04-24T10:26:12Z</time></trkpt>
<trkpt lat="43.2405120000" lon="-1.1143200000"><ele>398</ele><time>2026-04-24T10:26:14Z</time></trkpt>
<trkpt lat="43.2405070000" lon="-1.1143520000"><ele>398</ele><time>2026-04-24T10:26:16Z</time></trkpt>
<trkpt lat="43.2405020000" lon="-1.1143870000"><ele>397</ele><time>2026-04-24T10:26:18Z</time></trkpt>
<trkpt lat="43.2404970000" lon="-1.1144200000"><ele>397</ele><time>2026-04-24T10:26:20Z</time></trkpt>
<trkpt lat="43.2404920000" lon="-1.1144550000"><ele>397</ele><time>2026-04-24T10:26:22Z</time></trkpt>
<trkpt lat="43.2404870000" lon="-1.1144870000"><ele>397</ele><time>2026-04-24T10:26:24Z</time></trkpt>
<trkpt lat="43.2404820000" lon="-1.1145200000"><ele>397</ele><time>2026-04-24T10:26:26Z</time></trkpt>
<trkpt lat="43.2404780000" lon="-1.1145470000"><ele>397</ele><time>2026-04-24T10:26:28Z</time></trkpt>
<trkpt lat="43.2404770000" lon="-1.1145820000"><ele>397</ele><time>2026-04-24T10:26:30Z</time></trkpt>
<trkpt lat="43.2404720000" lon="-1.1146120000"><ele>396</ele><time>2026-04-24T10:26:32Z</time></trkpt>
<trkpt lat="43.2404670000" lon="-1.1146420000"><ele>396</ele><time>2026-04-24T10:26:34Z</time></trkpt>
<trkpt lat="43.2404620000" lon="-1.1146800000"><ele>396</ele><time>2026-04-24T10:26:36Z</time></trkpt>
<trkpt lat="43.2404550000" lon="-1.1147170000"><ele>396</ele><time>2026-04-24T10:26:38Z</time></trkpt>
<trkpt lat="43.2404520000" lon="-1.1147520000"><ele>396</ele><time>2026-04-24T10:26:40Z</time></trkpt>
<trkpt lat="43.2404470000" lon="-1.1147870000"><ele>396</ele><time>2026-04-24T10:26:42Z</time></trkpt>
<trkpt lat="43.2404420000" lon="-1.1148200000"><ele>396</ele><time>2026-04-24T10:26:44Z</time></trkpt>
<trkpt lat="43.2404370000" lon="-1.1148520000"><ele>396</ele><time>2026-04-24T10:26:46Z</time></trkpt>
<trkpt lat="43.2404320000" lon="-1.1148870000"><ele>395</ele><time>2026-04-24T10:26:48Z</time></trkpt>
<trkpt lat="43.2404270000" lon="-1.1149200000"><ele>395</ele><time>2026-04-24T10:26:50Z</time></trkpt>
<trkpt lat="43.2404170000" lon="-1.1149520000"><ele>395</ele><time>2026-04-24T10:26:52Z</time></trkpt>
<trkpt lat="43.2404080000" lon="-1.1149870000"><ele>395</ele><time>2026-04-24T10:26:54Z</time></trkpt>
<trkpt lat="43.2404000000" lon="-1.1150180000"><ele>395</ele><time>2026-04-24T10:26:56Z</time></trkpt>
<trkpt lat="43.2403920000" lon="-1.1150520000"><ele>395</ele><time>2026-04-24T10:26:58Z</time></trkpt>
<trkpt lat="43.2403870000" lon="-1.1150850000"><ele>394</ele><time>2026-04-24T10:27:00Z</time></trkpt>
<trkpt lat="43.2403800000" lon="-1.1151170000"><ele>394</ele><time>2026-04-24T10:27:02Z</time></trkpt>
<trkpt lat="43.2403720000" lon="-1.1151500000"><ele>394</ele><time>2026-04-24T10:27:04Z</time></trkpt>
<trkpt lat="43.2403650000" lon="-1.1151820000"><ele>394</ele><time>2026-04-24T10:27:06Z</time></trkpt>
<trkpt lat="43.2403550000" lon="-1.1152150000"><ele>394</ele><time>2026-04-24T10:27:08Z</time></trkpt>
<trkpt lat="43.2403420000" lon="-1.1152470000"><ele>393</ele><time>2026-04-24T10:27:10Z</time></trkpt>
<trkpt lat="43.2403350000" lon="-1.1152820000"><ele>393</ele><time>2026-04-24T10:27:12Z</time></trkpt>
<trkpt lat="43.2403270000" lon="-1.1153150000"><ele>393</ele><time>2026-04-24T10:27:14Z</time></trkpt>
<trkpt lat="43.2403170000" lon="-1.1153470000"><ele>393</ele><time>2026-04-24T10:27:16Z</time></trkpt>
<trkpt lat="43.2403050000" lon="-1.1153770000"><ele>393</ele><time>2026-04-24T10:27:18Z</time></trkpt>
<trkpt lat="43.2402920000" lon="-1.1154120000"><ele>393</ele><time>2026-04-24T10:27:20Z</time></trkpt>
<trkpt lat="43.2402770000" lon="-1.1154400000"><ele>392</ele><time>2026-04-24T10:27:22Z</time></trkpt>
<trkpt lat="43.2402620000" lon="-1.1154630000"><ele>392</ele><time>2026-04-24T10:27:24Z</time></trkpt>
<trkpt lat="43.2402500000" lon="-1.1154900000"><ele>392</ele><time>2026-04-24T10:27:26Z</time></trkpt>
<trkpt lat="43.2402400000" lon="-1.1155170000"><ele>392</ele><time>2026-04-24T10:27:28Z</time></trkpt>
<trkpt lat="43.2402370000" lon="-1.1155450000"><ele>392</ele><time>2026-04-24T10:27:30Z</time></trkpt>
<trkpt lat="43.2402320000" lon="-1.1155720000"><ele>392</ele><time>2026-04-24T10:27:32Z</time></trkpt>
<trkpt lat="43.2402250000" lon="-1.1156020000"><ele>391</ele><time>2026-04-24T10:27:34Z</time></trkpt>
<trkpt lat="43.2402170000" lon="-1.1156300000"><ele>391</ele><time>2026-04-24T10:27:36Z</time></trkpt>
<trkpt lat="43.2402100000" lon="-1.1156570000"><ele>391</ele><time>2026-04-24T10:27:38Z</time></trkpt>
<trkpt lat="43.2402000000" lon="-1.1156870000"><ele>390</ele><time>2026-04-24T10:27:40Z</time></trkpt>
<trkpt lat="43.2401870000" lon="-1.1157170000"><ele>390</ele><time>2026-04-24T10:27:42Z</time></trkpt>
<trkpt lat="43.2401770000" lon="-1.1157450000"><ele>389</ele><time>2026-04-24T10:27:44Z</time></trkpt>
<trkpt lat="43.2401670000" lon="-1.1157720000"><ele>389</ele><time>2026-04-24T10:27:46Z</time></trkpt>
<trkpt lat="43.2401600000" lon="-1.1158020000"><ele>389</ele><time>2026-04-24T10:27:48Z</time></trkpt>
<trkpt lat="43.2401520000" lon="-1.1158320000"><ele>388</ele><time>2026-04-24T10:27:50Z</time></trkpt>
<trkpt lat="43.2401470000" lon="-1.1158620000"><ele>388</ele><time>2026-04-24T10:27:52Z</time></trkpt>
<trkpt lat="43.2401420000" lon="-1.1158870000"><ele>388</ele><time>2026-04-24T10:27:54Z</time></trkpt>
<trkpt lat="43.2401370000" lon="-1.1159120000"><ele>388</ele><time>2026-04-24T10:27:56Z</time></trkpt>
<trkpt lat="43.2401320000" lon="-1.1159400000"><ele>387</ele><time>2026-04-24T10:27:58Z</time></trkpt>
<trkpt lat="43.2401220000" lon="-1.1159670000"><ele>387</ele><time>2026-04-24T10:28:00Z</time></trkpt>
<trkpt lat="43.2401120000" lon="-1.1159950000"><ele>387</ele><time>2026-04-24T10:28:02Z</time></trkpt>
<trkpt lat="43.2400980000" lon="-1.1160220000"><ele>387</ele><time>2026-04-24T10:28:04Z</time></trkpt>
<trkpt lat="43.2400870000" lon="-1.1160500000"><ele>387</ele><time>2026-04-24T10:28:06Z</time></trkpt>
<trkpt lat="43.2400720000" lon="-1.1160770000"><ele>386</ele><time>2026-04-24T10:28:08Z</time></trkpt>
<trkpt lat="43.2400650000" lon="-1.1161020000"><ele>386</ele><time>2026-04-24T10:28:10Z</time></trkpt>
<trkpt lat="43.2400550000" lon="-1.1161250000"><ele>386</ele><time>2026-04-24T10:28:14Z</time></trkpt>
<trkpt lat="43.2400320000" lon="-1.1161470000"><ele>384</ele><time>2026-04-24T10:29:52Z</time></trkpt>
<trkpt lat="43.2400170000" lon="-1.1161620000"><ele>384</ele><time>2026-04-24T10:29:53Z</time></trkpt>
<trkpt lat="43.2400000000" lon="-1.1161780000"><ele>384</ele><time>2026-04-24T10:29:54Z</time></trkpt>
<trkpt lat="43.2399820000" lon="-1.1161950000"><ele>384</ele><time>2026-04-24T10:29:55Z</time></trkpt>
<trkpt lat="43.2399520000" lon="-1.1162100000"><ele>384</ele><time>2026-04-24T10:29:57Z</time></trkpt>
<trkpt lat="43.2399220000" lon="-1.1162200000"><ele>384</ele><time>2026-04-24T10:29:59Z</time></trkpt>
<trkpt lat="43.2399020000" lon="-1.1162300000"><ele>384</ele><time>2026-04-24T10:30:01Z</time></trkpt>
<trkpt lat="43.2398800000" lon="-1.1162370000"><ele>384</ele><time>2026-04-24T10:30:03Z</time></trkpt>
<trkpt lat="43.2398570000" lon="-1.1162550000"><ele>384</ele><time>2026-04-24T10:30:05Z</time></trkpt>
<trkpt lat="43.2398370000" lon="-1.1162650000"><ele>383</ele><time>2026-04-24T10:30:07Z</time></trkpt>
<trkpt lat="43.2398150000" lon="-1.1162670000"><ele>383</ele><time>2026-04-24T10:30:09Z</time></trkpt>
<trkpt lat="43.2397920000" lon="-1.1162670000"><ele>383</ele><time>2026-04-24T10:30:11Z</time></trkpt>
<trkpt lat="43.2397700000" lon="-1.1162770000"><ele>383</ele><time>2026-04-24T10:30:13Z</time></trkpt>
<trkpt lat="43.2397470000" lon="-1.1162850000"><ele>383</ele><time>2026-04-24T10:30:15Z</time></trkpt>
<trkpt lat="43.2397220000" lon="-1.1162920000"><ele>383</ele><time>2026-04-24T10:30:17Z</time></trkpt>
<trkpt lat="43.2396970000" lon="-1.1162970000"><ele>383</ele><time>2026-04-24T10:30:19Z</time></trkpt>
<trkpt lat="43.2396720000" lon="-1.1163020000"><ele>383</ele><time>2026-04-24T10:30:21Z</time></trkpt>
<trkpt lat="43.2396470000" lon="-1.1163020000"><ele>382</ele><time>2026-04-24T10:30:23Z</time></trkpt>
<trkpt lat="43.2396220000" lon="-1.1163000000"><ele>382</ele><time>2026-04-24T10:30:25Z</time></trkpt>
<trkpt lat="43.2396000000" lon="-1.1163000000"><ele>382</ele><time>2026-04-24T10:30:27Z</time></trkpt>
<trkpt lat="43.2395770000" lon="-1.1163020000"><ele>382</ele><time>2026-04-24T10:30:29Z</time></trkpt>
<trkpt lat="43.2395520000" lon="-1.1162950000"><ele>382</ele><time>2026-04-24T10:30:31Z</time></trkpt>
<trkpt lat="43.2395270000" lon="-1.1162870000"><ele>382</ele><time>2026-04-24T10:30:33Z</time></trkpt>
<trkpt lat="43.2395020000" lon="-1.1162770000"><ele>382</ele><time>2026-04-24T10:30:35Z</time></trkpt>
<trkpt lat="43.2394770000" lon="-1.1162670000"><ele>382</ele><time>2026-04-24T10:30:37Z</time></trkpt>
<trkpt lat="43.2394550000" lon="-1.1162570000"><ele>381</ele><time>2026-04-24T10:30:39Z</time></trkpt>
<trkpt lat="43.2394320000" lon="-1.1162420000"><ele>381</ele><time>2026-04-24T10:30:41Z</time></trkpt>
<trkpt lat="43.2394070000" lon="-1.1162320000"><ele>381</ele><time>2026-04-24T10:30:43Z</time></trkpt>
<trkpt lat="43.2393820000" lon="-1.1162220000"><ele>381</ele><time>2026-04-24T10:30:45Z</time></trkpt>
<trkpt lat="43.2393600000" lon="-1.1162150000"><ele>381</ele><time>2026-04-24T10:30:47Z</time></trkpt>
<trkpt lat="43.2393370000" lon="-1.1162020000"><ele>381</ele><time>2026-04-24T10:30:49Z</time></trkpt>
<trkpt lat="43.2393170000" lon="-1.1161920000"><ele>381</ele><time>2026-04-24T10:30:59Z</time></trkpt>
<trkpt lat="43.2392900000" lon="-1.1161870000"><ele>381</ele><time>2026-04-24T10:31:01Z</time></trkpt>
<trkpt lat="43.2392620000" lon="-1.1161870000"><ele>381</ele><time>2026-04-24T10:31:03Z</time></trkpt>
<trkpt lat="43.2392370000" lon="-1.1161770000"><ele>381</ele><time>2026-04-24T10:31:05Z</time></trkpt>
<trkpt lat="43.2392120000" lon="-1.1161700000"><ele>381</ele><time>2026-04-24T10:31:07Z</time></trkpt>
<trkpt lat="43.2391870000" lon="-1.1161570000"><ele>381</ele><time>2026-04-24T10:31:09Z</time></trkpt>
<trkpt lat="43.2391550000" lon="-1.1161380000"><ele>381</ele><time>2026-04-24T10:31:11Z</time></trkpt>
<trkpt lat="43.2391270000" lon="-1.1161150000"><ele>381</ele><time>2026-04-24T10:31:13Z</time></trkpt>
<trkpt lat="43.2391020000" lon="-1.1160950000"><ele>381</ele><time>2026-04-24T10:31:15Z</time></trkpt>
<trkpt lat="43.2390770000" lon="-1.1160770000"><ele>381</ele><time>2026-04-24T10:31:17Z</time></trkpt>
<trkpt lat="43.2390550000" lon="-1.1160600000"><ele>381</ele><time>2026-04-24T10:31:19Z</time></trkpt>
<trkpt lat="43.2390320000" lon="-1.1160420000"><ele>381</ele><time>2026-04-24T10:31:21Z</time></trkpt>
<trkpt lat="43.2390070000" lon="-1.1160250000"><ele>381</ele><time>2026-04-24T10:31:23Z</time></trkpt>
<trkpt lat="43.2389820000" lon="-1.1160070000"><ele>381</ele><time>2026-04-24T10:31:25Z</time></trkpt>
<trkpt lat="43.2389600000" lon="-1.1159870000"><ele>381</ele><time>2026-04-24T10:31:27Z</time></trkpt>
<trkpt lat="43.2389400000" lon="-1.1159670000"><ele>381</ele><time>2026-04-24T10:31:29Z</time></trkpt>
<trkpt lat="43.2389220000" lon="-1.1159470000"><ele>381</ele><time>2026-04-24T10:31:31Z</time></trkpt>
<trkpt lat="43.2389020000" lon="-1.1159320000"><ele>380</ele><time>2026-04-24T10:31:33Z</time></trkpt>
<trkpt lat="43.2388820000" lon="-1.1159150000"><ele>380</ele><time>2026-04-24T10:31:35Z</time></trkpt>
<trkpt lat="43.2388620000" lon="-1.1159000000"><ele>380</ele><time>2026-04-24T10:31:37Z</time></trkpt>
<trkpt lat="43.2388420000" lon="-1.1158820000"><ele>380</ele><time>2026-04-24T10:31:39Z</time></trkpt>
<trkpt lat="43.2388250000" lon="-1.1158600000"><ele>380</ele><time>2026-04-24T10:31:41Z</time></trkpt>
<trkpt lat="43.2388070000" lon="-1.1158420000"><ele>379</ele><time>2026-04-24T10:31:43Z</time></trkpt>
<trkpt lat="43.2387870000" lon="-1.1158250000"><ele>379</ele><time>2026-04-24T10:31:45Z</time></trkpt>
<trkpt lat="43.2387620000" lon="-1.1158350000"><ele>379</ele><time>2026-04-24T10:31:47Z</time></trkpt>
<trkpt lat="43.2387450000" lon="-1.1158600000"><ele>379</ele><time>2026-04-24T10:31:49Z</time></trkpt>
<trkpt lat="43.2387300000" lon="-1.1158770000"><ele>379</ele><time>2026-04-24T10:31:52Z</time></trkpt>
<trkpt lat="43.2387120000" lon="-1.1158520000"><ele>378</ele><time>2026-04-24T10:31:59Z</time></trkpt>
<trkpt lat="43.2386920000" lon="-1.1158120000"><ele>378</ele><time>2026-04-24T10:32:01Z</time></trkpt>
<trkpt lat="43.2386770000" lon="-1.1157770000"><ele>378</ele><time>2026-04-24T10:32:03Z</time></trkpt>
<trkpt lat="43.2386630000" lon="-1.1157420000"><ele>378</ele><time>2026-04-24T10:32:05Z</time></trkpt>
<trkpt lat="43.2386520000" lon="-1.1157170000"><ele>378</ele><time>2026-04-24T10:32:07Z</time></trkpt>
<trkpt lat="43.2386400000" lon="-1.1156920000"><ele>378</ele><time>2026-04-24T10:32:09Z</time></trkpt>
<trkpt lat="43.2386220000" lon="-1.1156620000"><ele>378</ele><time>2026-04-24T10:32:11Z</time></trkpt>
<trkpt lat="43.2386070000" lon="-1.1156400000"><ele>378</ele><time>2026-04-24T10:32:13Z</time></trkpt>
<trkpt lat="43.2385930000" lon="-1.1156200000"><ele>378</ele><time>2026-04-24T10:32:15Z</time></trkpt>
<trkpt lat="43.2385820000" lon="-1.1156020000"><ele>378</ele><time>2026-04-24T10:32:17Z</time></trkpt>
<trkpt lat="43.2385670000" lon="-1.1155750000"><ele>377</ele><time>2026-04-24T10:32:19Z</time></trkpt>
<trkpt lat="43.2385520000" lon="-1.1155520000"><ele>377</ele><time>2026-04-24T10:32:21Z</time></trkpt>
<trkpt lat="43.2385420000" lon="-1.1155120000"><ele>377</ele><time>2026-04-24T10:32:23Z</time></trkpt>
<trkpt lat="43.2385370000" lon="-1.1154870000"><ele>377</ele><time>2026-04-24T10:32:24Z</time></trkpt>
<trkpt lat="43.2385270000" lon="-1.1154450000"><ele>377</ele><time>2026-04-24T10:32:26Z</time></trkpt>
<trkpt lat="43.2385170000" lon="-1.1154120000"><ele>376</ele><time>2026-04-24T10:32:28Z</time></trkpt>
<trkpt lat="43.2385050000" lon="-1.1153870000"><ele>376</ele><time>2026-04-24T10:32:30Z</time></trkpt>
<trkpt lat="43.2384920000" lon="-1.1153620000"><ele>376</ele><time>2026-04-24T10:32:32Z</time></trkpt>
<trkpt lat="43.2384770000" lon="-1.1153350000"><ele>376</ele><time>2026-04-24T10:32:34Z</time></trkpt>
<trkpt lat="43.2384620000" lon="-1.1153100000"><ele>375</ele><time>2026-04-24T10:32:36Z</time></trkpt>
<trkpt lat="43.2384470000" lon="-1.1152820000"><ele>375</ele><time>2026-04-24T10:32:38Z</time></trkpt>
<trkpt lat="43.2384350000" lon="-1.1152570000"><ele>375</ele><time>2026-04-24T10:32:40Z</time></trkpt>
<trkpt lat="43.2384220000" lon="-1.1152270000"><ele>374</ele><time>2026-04-24T10:32:42Z</time></trkpt>
<trkpt lat="43.2384120000" lon="-1.1151970000"><ele>374</ele><time>2026-04-24T10:32:44Z</time></trkpt>
<trkpt lat="43.2384020000" lon="-1.1151670000"><ele>374</ele><time>2026-04-24T10:32:46Z</time></trkpt>
<trkpt lat="43.2383870000" lon="-1.1151370000"><ele>373</ele><time>2026-04-24T10:32:48Z</time></trkpt>
<trkpt lat="43.2383750000" lon="-1.1151120000"><ele>373</ele><time>2026-04-24T10:32:50Z</time></trkpt>
<trkpt lat="43.2383620000" lon="-1.1150870000"><ele>373</ele><time>2026-04-24T10:32:52Z</time></trkpt>
<trkpt lat="43.2383500000" lon="-1.1150570000"><ele>373</ele><time>2026-04-24T10:32:54Z</time></trkpt>
<trkpt lat="43.2383370000" lon="-1.1150320000"><ele>372</ele><time>2026-04-24T10:32:56Z</time></trkpt>
<trkpt lat="43.2383250000" lon="-1.1150100000"><ele>372</ele><time>2026-04-24T10:32:58Z</time></trkpt>
<trkpt lat="43.2383120000" lon="-1.1149850000"><ele>372</ele><time>2026-04-24T10:33:00Z</time></trkpt>
<trkpt lat="43.2382970000" lon="-1.1149570000"><ele>371</ele><time>2026-04-24T10:33:02Z</time></trkpt>
<trkpt lat="43.2382830000" lon="-1.1149300000"><ele>371</ele><time>2026-04-24T10:33:04Z</time></trkpt>
<trkpt lat="43.2382750000" lon="-1.1149000000"><ele>371</ele><time>2026-04-24T10:33:06Z</time></trkpt>
<trkpt lat="43.2382620000" lon="-1.1148720000"><ele>370</ele><time>2026-04-24T10:33:08Z</time></trkpt>
<trkpt lat="43.2382500000" lon="-1.1148470000"><ele>370</ele><time>2026-04-24T10:33:10Z</time></trkpt>
<trkpt lat="43.2382370000" lon="-1.1148250000"><ele>369</ele><time>2026-04-24T10:33:12Z</time></trkpt>
<trkpt lat="43.2382270000" lon="-1.1147970000"><ele>369</ele><time>2026-04-24T10:33:14Z</time></trkpt>
<trkpt lat="43.2382120000" lon="-1.1147750000"><ele>368</ele><time>2026-04-24T10:33:16Z</time></trkpt>
<trkpt lat="43.2382020000" lon="-1.1147470000"><ele>368</ele><time>2026-04-24T10:33:18Z</time></trkpt>
<trkpt lat="43.2381920000" lon="-1.1147170000"><ele>368</ele><time>2026-04-24T10:33:20Z</time></trkpt>
<trkpt lat="43.2381800000" lon="-1.1146900000"><ele>367</ele><time>2026-04-24T10:33:22Z</time></trkpt>
<trkpt lat="43.2381670000" lon="-1.1146620000"><ele>367</ele><time>2026-04-24T10:33:24Z</time></trkpt>
<trkpt lat="43.2381450000" lon="-1.1146370000"><ele>367</ele><time>2026-04-24T10:33:26Z</time></trkpt>
<trkpt lat="43.2381320000" lon="-1.1146120000"><ele>366</ele><time>2026-04-24T10:33:28Z</time></trkpt>
<trkpt lat="43.2381170000" lon="-1.1145900000"><ele>366</ele><time>2026-04-24T10:33:34Z</time></trkpt>
<trkpt lat="43.2381050000" lon="-1.1145600000"><ele>365</ele><time>2026-04-24T10:33:36Z</time></trkpt>
<trkpt lat="43.2380920000" lon="-1.1145270000"><ele>365</ele><time>2026-04-24T10:33:38Z</time></trkpt>
<trkpt lat="43.2380720000" lon="-1.1144920000"><ele>365</ele><time>2026-04-24T10:33:40Z</time></trkpt>
<trkpt lat="43.2380550000" lon="-1.1144670000"><ele>364</ele><time>2026-04-24T10:33:42Z</time></trkpt>
<trkpt lat="43.2380420000" lon="-1.1144420000"><ele>364</ele><time>2026-04-24T10:33:44Z</time></trkpt>
<trkpt lat="43.2380270000" lon="-1.1144150000"><ele>364</ele><time>2026-04-24T10:33:46Z</time></trkpt>
<trkpt lat="43.2380120000" lon="-1.1143900000"><ele>363</ele><time>2026-04-24T10:33:48Z</time></trkpt>
<trkpt lat="43.2379970000" lon="-1.1143650000"><ele>363</ele><time>2026-04-24T10:33:50Z</time></trkpt>
<trkpt lat="43.2379820000" lon="-1.1143420000"><ele>363</ele><time>2026-04-24T10:33:52Z</time></trkpt>
<trkpt lat="43.2379670000" lon="-1.1143170000"><ele>362</ele><time>2026-04-24T10:33:54Z</time></trkpt>
<trkpt lat="43.2379550000" lon="-1.1142900000"><ele>362</ele><time>2026-04-24T10:33:56Z</time></trkpt>
<trkpt lat="43.2379420000" lon="-1.1142620000"><ele>362</ele><time>2026-04-24T10:33:58Z</time></trkpt>
<trkpt lat="43.2379320000" lon="-1.1142370000"><ele>361</ele><time>2026-04-24T10:34:00Z</time></trkpt>
<trkpt lat="43.2379200000" lon="-1.1142120000"><ele>361</ele><time>2026-04-24T10:34:02Z</time></trkpt>
<trkpt lat="43.2379100000" lon="-1.1141870000"><ele>361</ele><time>2026-04-24T10:34:04Z</time></trkpt>
<trkpt lat="43.2378970000" lon="-1.1141620000"><ele>361</ele><time>2026-04-24T10:34:06Z</time></trkpt>
<trkpt lat="43.2378900000" lon="-1.1141370000"><ele>360</ele><time>2026-04-24T10:34:08Z</time></trkpt>
<trkpt lat="43.2378750000" lon="-1.1141100000"><ele>360</ele><time>2026-04-24T10:34:10Z</time></trkpt>
<trkpt lat="43.2378650000" lon="-1.1140820000"><ele>360</ele><time>2026-04-24T10:34:12Z</time></trkpt>
<trkpt lat="43.2378520000" lon="-1.1140470000"><ele>359</ele><time>2026-04-24T10:34:14Z</time></trkpt>
<trkpt lat="43.2378420000" lon="-1.1140170000"><ele>359</ele><time>2026-04-24T10:34:16Z</time></trkpt>
<trkpt lat="43.2378320000" lon="-1.1139870000"><ele>359</ele><time>2026-04-24T10:34:18Z</time></trkpt>
<trkpt lat="43.2378220000" lon="-1.1139600000"><ele>358</ele><time>2026-04-24T10:34:20Z</time></trkpt>
<trkpt lat="43.2378170000" lon="-1.1139370000"><ele>358</ele><time>2026-04-24T10:34:22Z</time></trkpt>
<trkpt lat="43.2378050000" lon="-1.1139120000"><ele>357</ele><time>2026-04-24T10:34:24Z</time></trkpt>
<trkpt lat="43.2377920000" lon="-1.1138870000"><ele>357</ele><time>2026-04-24T10:34:26Z</time></trkpt>
<trkpt lat="43.2377820000" lon="-1.1138600000"><ele>357</ele><time>2026-04-24T10:34:28Z</time></trkpt>
<trkpt lat="43.2377720000" lon="-1.1138320000"><ele>356</ele><time>2026-04-24T10:34:30Z</time></trkpt>
<trkpt lat="43.2377620000" lon="-1.1138020000"><ele>356</ele><time>2026-04-24T10:34:32Z</time></trkpt>
<trkpt lat="43.2377480000" lon="-1.1137750000"><ele>355</ele><time>2026-04-24T10:34:34Z</time></trkpt>
<trkpt lat="43.2377400000" lon="-1.1137420000"><ele>355</ele><time>2026-04-24T10:34:36Z</time></trkpt>
<trkpt lat="43.2377270000" lon="-1.1137120000"><ele>355</ele><time>2026-04-24T10:34:38Z</time></trkpt>
<trkpt lat="43.2377120000" lon="-1.1136820000"><ele>354</ele><time>2026-04-24T10:34:40Z</time></trkpt>
<trkpt lat="43.2377000000" lon="-1.1136600000"><ele>354</ele><time>2026-04-24T10:34:42Z</time></trkpt>
<trkpt lat="43.2376870000" lon="-1.1136320000"><ele>354</ele><time>2026-04-24T10:34:44Z</time></trkpt>
<trkpt lat="43.2376770000" lon="-1.1136120000"><ele>354</ele><time>2026-04-24T10:34:46Z</time></trkpt>
<trkpt lat="43.2376650000" lon="-1.1135850000"><ele>353</ele><time>2026-04-24T10:34:48Z</time></trkpt>
<trkpt lat="43.2376570000" lon="-1.1135450000"><ele>353</ele><time>2026-04-24T10:34:50Z</time></trkpt>
<trkpt lat="43.2376470000" lon="-1.1135070000"><ele>353</ele><time>2026-04-24T10:34:52Z</time></trkpt>
<trkpt lat="43.2376420000" lon="-1.1134770000"><ele>352</ele><time>2026-04-24T10:34:54Z</time></trkpt>
<trkpt lat="43.2376320000" lon="-1.1134520000"><ele>352</ele><time>2026-04-24T10:34:56Z</time></trkpt>
<trkpt lat="43.2376220000" lon="-1.1134250000"><ele>351</ele><time>2026-04-24T10:34:58Z</time></trkpt>
<trkpt lat="43.2376120000" lon="-1.1133980000"><ele>351</ele><time>2026-04-24T10:35:00Z</time></trkpt>
<trkpt lat="43.2376020000" lon="-1.1133750000"><ele>351</ele><time>2026-04-24T10:35:02Z</time></trkpt>
<trkpt lat="43.2375950000" lon="-1.1133500000"><ele>350</ele><time>2026-04-24T10:35:04Z</time></trkpt>
<trkpt lat="43.2375850000" lon="-1.1133220000"><ele>350</ele><time>2026-04-24T10:35:06Z</time></trkpt>
<trkpt lat="43.2375770000" lon="-1.1132920000"><ele>349</ele><time>2026-04-24T10:35:08Z</time></trkpt>
<trkpt lat="43.2375670000" lon="-1.1132620000"><ele>349</ele><time>2026-04-24T10:35:10Z</time></trkpt>
<trkpt lat="43.2375570000" lon="-1.1132320000"><ele>349</ele><time>2026-04-24T10:35:12Z</time></trkpt>
<trkpt lat="43.2375470000" lon="-1.1131970000"><ele>348</ele><time>2026-04-24T10:35:14Z</time></trkpt>
<trkpt lat="43.2375370000" lon="-1.1131670000"><ele>348</ele><time>2026-04-24T10:35:16Z</time></trkpt>
<trkpt lat="43.2375270000" lon="-1.1131470000"><ele>348</ele><time>2026-04-24T10:35:18Z</time></trkpt>
<trkpt lat="43.2375170000" lon="-1.1131150000"><ele>348</ele><time>2026-04-24T10:35:20Z</time></trkpt>
<trkpt lat="43.2375070000" lon="-1.1130870000"><ele>347</ele><time>2026-04-24T10:35:22Z</time></trkpt>
<trkpt lat="43.2374970000" lon="-1.1130600000"><ele>347</ele><time>2026-04-24T10:35:24Z</time></trkpt>
<trkpt lat="43.2374870000" lon="-1.1130300000"><ele>347</ele><time>2026-04-24T10:35:26Z</time></trkpt>
<trkpt lat="43.2374720000" lon="-1.1129970000"><ele>346</ele><time>2026-04-24T10:35:28Z</time></trkpt>
<trkpt lat="43.2374620000" lon="-1.1129700000"><ele>346</ele><time>2026-04-24T10:35:30Z</time></trkpt>
<trkpt lat="43.2374520000" lon="-1.1129400000"><ele>346</ele><time>2026-04-24T10:35:32Z</time></trkpt>
<trkpt lat="43.2374420000" lon="-1.1129120000"><ele>345</ele><time>2026-04-24T10:35:34Z</time></trkpt>
<trkpt lat="43.2374320000" lon="-1.1128800000"><ele>345</ele><time>2026-04-24T10:35:36Z</time></trkpt>
<trkpt lat="43.2374270000" lon="-1.1128420000"><ele>344</ele><time>2026-04-24T10:35:38Z</time></trkpt>
<trkpt lat="43.2374170000" lon="-1.1128070000"><ele>344</ele><time>2026-04-24T10:35:40Z</time></trkpt>
<trkpt lat="43.2374070000" lon="-1.1127770000"><ele>344</ele><time>2026-04-24T10:35:42Z</time></trkpt>
<trkpt lat="43.2373970000" lon="-1.1127520000"><ele>343</ele><time>2026-04-24T10:35:44Z</time></trkpt>
<trkpt lat="43.2373870000" lon="-1.1127270000"><ele>343</ele><time>2026-04-24T10:35:46Z</time></trkpt>
<trkpt lat="43.2373750000" lon="-1.1126970000"><ele>343</ele><time>2026-04-24T10:35:48Z</time></trkpt>
<trkpt lat="43.2373650000" lon="-1.1126700000"><ele>342</ele><time>2026-04-24T10:35:50Z</time></trkpt>
<trkpt lat="43.2373550000" lon="-1.1126420000"><ele>342</ele><time>2026-04-24T10:35:52Z</time></trkpt>
<trkpt lat="43.2373470000" lon="-1.1126150000"><ele>342</ele><time>2026-04-24T10:35:54Z</time></trkpt>
<trkpt lat="43.2373350000" lon="-1.1125870000"><ele>341</ele><time>2026-04-24T10:35:56Z</time></trkpt>
<trkpt lat="43.2373250000" lon="-1.1125570000"><ele>341</ele><time>2026-04-24T10:35:58Z</time></trkpt>
<trkpt lat="43.2373170000" lon="-1.1125270000"><ele>341</ele><time>2026-04-24T10:36:00Z</time></trkpt>
<trkpt lat="43.2373070000" lon="-1.1124970000"><ele>340</ele><time>2026-04-24T10:36:02Z</time></trkpt>
<trkpt lat="43.2373020000" lon="-1.1124700000"><ele>340</ele><time>2026-04-24T10:36:04Z</time></trkpt>
<trkpt lat="43.2372950000" lon="-1.1124420000"><ele>340</ele><time>2026-04-24T10:36:06Z</time></trkpt>
<trkpt lat="43.2372870000" lon="-1.1124120000"><ele>339</ele><time>2026-04-24T10:36:08Z</time></trkpt>
<trkpt lat="43.2372770000" lon="-1.1123820000"><ele>339</ele><time>2026-04-24T10:36:10Z</time></trkpt>
<trkpt lat="43.2372670000" lon="-1.1123520000"><ele>339</ele><time>2026-04-24T10:36:12Z</time></trkpt>
<trkpt lat="43.2372620000" lon="-1.1123150000"><ele>338</ele><time>2026-04-24T10:36:14Z</time></trkpt>
<trkpt lat="43.2372600000" lon="-1.1123400000"><ele>337</ele><time>2026-04-24T10:36:35Z</time></trkpt>
<trkpt lat="43.2372500000" lon="-1.1123070000"><ele>337</ele><time>2026-04-24T10:36:38Z</time></trkpt>
<trkpt lat="43.2372370000" lon="-1.1122650000"><ele>337</ele><time>2026-04-24T10:36:40Z</time></trkpt>
<trkpt lat="43.2372270000" lon="-1.1122220000"><ele>337</ele><time>2026-04-24T10:36:42Z</time></trkpt>
<trkpt lat="43.2372220000" lon="-1.1121870000"><ele>337</ele><time>2026-04-24T10:36:44Z</time></trkpt>
<trkpt lat="43.2372120000" lon="-1.1121600000"><ele>337</ele><time>2026-04-24T10:36:46Z</time></trkpt>
<trkpt lat="43.2372020000" lon="-1.1121270000"><ele>336</ele><time>2026-04-24T10:36:48Z</time></trkpt>
<trkpt lat="43.2371970000" lon="-1.1120920000"><ele>336</ele><time>2026-04-24T10:36:50Z</time></trkpt>
<trkpt lat="43.2371920000" lon="-1.1120620000"><ele>336</ele><time>2026-04-24T10:36:52Z</time></trkpt>
<trkpt lat="43.2371850000" lon="-1.1120320000"><ele>335</ele><time>2026-04-24T10:36:54Z</time></trkpt>
<trkpt lat="43.2371770000" lon="-1.1120020000"><ele>335</ele><time>2026-04-24T10:36:56Z</time></trkpt>
<trkpt lat="43.2371720000" lon="-1.1119680000"><ele>335</ele><time>2026-04-24T10:36:58Z</time></trkpt>
<trkpt lat="43.2371650000" lon="-1.1119370000"><ele>334</ele><time>2026-04-24T10:37:00Z</time></trkpt>
<trkpt lat="43.2371570000" lon="-1.1119070000"><ele>334</ele><time>2026-04-24T10:37:02Z</time></trkpt>
<trkpt lat="43.2371470000" lon="-1.1118730000"><ele>334</ele><time>2026-04-24T10:37:04Z</time></trkpt>
<trkpt lat="43.2371370000" lon="-1.1118450000"><ele>334</ele><time>2026-04-24T10:37:06Z</time></trkpt>
<trkpt lat="43.2371320000" lon="-1.1118120000"><ele>333</ele><time>2026-04-24T10:37:08Z</time></trkpt>
<trkpt lat="43.2371270000" lon="-1.1117850000"><ele>333</ele><time>2026-04-24T10:37:10Z</time></trkpt>
<trkpt lat="43.2371170000" lon="-1.1117550000"><ele>333</ele><time>2026-04-24T10:37:12Z</time></trkpt>
<trkpt lat="43.2371070000" lon="-1.1117270000"><ele>332</ele><time>2026-04-24T10:37:14Z</time></trkpt>
<trkpt lat="43.2371000000" lon="-1.1117020000"><ele>332</ele><time>2026-04-24T10:37:16Z</time></trkpt>
<trkpt lat="43.2370850000" lon="-1.1116750000"><ele>332</ele><time>2026-04-24T10:37:18Z</time></trkpt>
<trkpt lat="43.2370720000" lon="-1.1116470000"><ele>331</ele><time>2026-04-24T10:37:20Z</time></trkpt>
<trkpt lat="43.2370650000" lon="-1.1116150000"><ele>331</ele><time>2026-04-24T10:37:22Z</time></trkpt>
<trkpt lat="43.2370570000" lon="-1.1115820000"><ele>331</ele><time>2026-04-24T10:37:24Z</time></trkpt>
<trkpt lat="43.2370500000" lon="-1.1115470000"><ele>330</ele><time>2026-04-24T10:37:26Z</time></trkpt>
<trkpt lat="43.2370520000" lon="-1.1115020000"><ele>330</ele><time>2026-04-24T10:37:28Z</time></trkpt>
<trkpt lat="43.2370570000" lon="-1.1114620000"><ele>330</ele><time>2026-04-24T10:37:30Z</time></trkpt>
<trkpt lat="43.2370570000" lon="-1.1114270000"><ele>329</ele><time>2026-04-24T10:37:32Z</time></trkpt>
<trkpt lat="43.2370520000" lon="-1.1113950000"><ele>329</ele><time>2026-04-24T10:37:34Z</time></trkpt>
<trkpt lat="43.2370470000" lon="-1.1113650000"><ele>329</ele><time>2026-04-24T10:37:36Z</time></trkpt>
<trkpt lat="43.2370350000" lon="-1.1113350000"><ele>328</ele><time>2026-04-24T10:37:38Z</time></trkpt>
<trkpt lat="43.2370300000" lon="-1.1113050000"><ele>328</ele><time>2026-04-24T10:37:40Z</time></trkpt>
<trkpt lat="43.2370250000" lon="-1.1112770000"><ele>328</ele><time>2026-04-24T10:37:42Z</time></trkpt>
<trkpt lat="43.2370170000" lon="-1.1112500000"><ele>327</ele><time>2026-04-24T10:37:44Z</time></trkpt>
<trkpt lat="43.2370170000" lon="-1.1112200000"><ele>327</ele><time>2026-04-24T10:37:46Z</time></trkpt>
<trkpt lat="43.2370150000" lon="-1.1111900000"><ele>327</ele><time>2026-04-24T10:37:48Z</time></trkpt>
<trkpt lat="43.2370150000" lon="-1.1111570000"><ele>326</ele><time>2026-04-24T10:37:50Z</time></trkpt>
<trkpt lat="43.2370120000" lon="-1.1111250000"><ele>326</ele><time>2026-04-24T10:37:52Z</time></trkpt>
<trkpt lat="43.2370070000" lon="-1.1110950000"><ele>326</ele><time>2026-04-24T10:37:54Z</time></trkpt>
<trkpt lat="43.2370100000" lon="-1.1110620000"><ele>325</ele><time>2026-04-24T10:37:56Z</time></trkpt>
<trkpt lat="43.2370050000" lon="-1.1110270000"><ele>325</ele><time>2026-04-24T10:37:58Z</time></trkpt>
<trkpt lat="43.2369970000" lon="-1.1110020000"><ele>325</ele><time>2026-04-24T10:38:00Z</time></trkpt>
<trkpt lat="43.2369950000" lon="-1.1109720000"><ele>325</ele><time>2026-04-24T10:38:02Z</time></trkpt>
<trkpt lat="43.2369870000" lon="-1.1109400000"><ele>324</ele><time>2026-04-24T10:38:04Z</time></trkpt>
<trkpt lat="43.2369800000" lon="-1.1109070000"><ele>324</ele><time>2026-04-24T10:38:06Z</time></trkpt>
<trkpt lat="43.2369770000" lon="-1.1108700000"><ele>324</ele><time>2026-04-24T10:38:08Z</time></trkpt>
<trkpt lat="43.2369770000" lon="-1.1108350000"><ele>323</ele><time>2026-04-24T10:38:10Z</time></trkpt>
<trkpt lat="43.2369720000" lon="-1.1108050000"><ele>323</ele><time>2026-04-24T10:38:12Z</time></trkpt>
<trkpt lat="43.2369750000" lon="-1.1107720000"><ele>323</ele><time>2026-04-24T10:38:14Z</time></trkpt>
<trkpt lat="43.2369750000" lon="-1.1107400000"><ele>322</ele><time>2026-04-24T10:38:16Z</time></trkpt>
<trkpt lat="43.2369720000" lon="-1.1107130000"><ele>322</ele><time>2026-04-24T10:38:18Z</time></trkpt>
<trkpt lat="43.2369670000" lon="-1.1106870000"><ele>322</ele><time>2026-04-24T10:38:20Z</time></trkpt>
<trkpt lat="43.2369670000" lon="-1.1106570000"><ele>321</ele><time>2026-04-24T10:38:22Z</time></trkpt>
<trkpt lat="43.2369570000" lon="-1.1106250000"><ele>321</ele><time>2026-04-24T10:38:24Z</time></trkpt>
<trkpt lat="43.2369570000" lon="-1.1105950000"><ele>321</ele><time>2026-04-24T10:38:26Z</time></trkpt>
<trkpt lat="43.2369550000" lon="-1.1105620000"><ele>320</ele><time>2026-04-24T10:38:28Z</time></trkpt>
<trkpt lat="43.2369520000" lon="-1.1105350000"><ele>320</ele><time>2026-04-24T10:38:30Z</time></trkpt>
<trkpt lat="43.2369520000" lon="-1.1105070000"><ele>319</ele><time>2026-04-24T10:38:32Z</time></trkpt>
<trkpt lat="43.2369420000" lon="-1.1104770000"><ele>319</ele><time>2026-04-24T10:38:34Z</time></trkpt>
<trkpt lat="43.2369350000" lon="-1.1104470000"><ele>318</ele><time>2026-04-24T10:38:36Z</time></trkpt>
<trkpt lat="43.2369300000" lon="-1.1104170000"><ele>318</ele><time>2026-04-24T10:38:38Z</time></trkpt>
<trkpt lat="43.2369320000" lon="-1.1103820000"><ele>317</ele><time>2026-04-24T10:38:40Z</time></trkpt>
<trkpt lat="43.2369370000" lon="-1.1103370000"><ele>317</ele><time>2026-04-24T10:38:42Z</time></trkpt>
<trkpt lat="43.2369500000" lon="-1.1103050000"><ele>317</ele><time>2026-04-24T10:38:44Z</time></trkpt>
<trkpt lat="43.2369550000" lon="-1.1102750000"><ele>316</ele><time>2026-04-24T10:38:46Z</time></trkpt>
<trkpt lat="43.2369620000" lon="-1.1102500000"><ele>316</ele><time>2026-04-24T10:38:48Z</time></trkpt>
<trkpt lat="43.2369650000" lon="-1.1102220000"><ele>315</ele><time>2026-04-24T10:38:50Z</time></trkpt>
<trkpt lat="43.2369720000" lon="-1.1101970000"><ele>315</ele><time>2026-04-24T10:38:52Z</time></trkpt>
<trkpt lat="43.2369770000" lon="-1.1101720000"><ele>314</ele><time>2026-04-24T10:38:54Z</time></trkpt>
<trkpt lat="43.2369900000" lon="-1.1101370000"><ele>314</ele><time>2026-04-24T10:38:57Z</time></trkpt>
<trkpt lat="43.2370100000" lon="-1.1101120000"><ele>313</ele><time>2026-04-24T10:38:59Z</time></trkpt>
<trkpt lat="43.2370320000" lon="-1.1100920000"><ele>313</ele><time>2026-04-24T10:39:01Z</time></trkpt>
<trkpt lat="43.2370570000" lon="-1.1100720000"><ele>313</ele><time>2026-04-24T10:39:03Z</time></trkpt>
<trkpt lat="43.2370770000" lon="-1.1100570000"><ele>312</ele><time>2026-04-24T10:39:05Z</time></trkpt>
<trkpt lat="43.2371020000" lon="-1.1100380000"><ele>312</ele><time>2026-04-24T10:39:07Z</time></trkpt>
<trkpt lat="43.2371220000" lon="-1.1100200000"><ele>311</ele><time>2026-04-24T10:39:09Z</time></trkpt>
<trkpt lat="43.2371370000" lon="-1.1099970000"><ele>311</ele><time>2026-04-24T10:39:11Z</time></trkpt>
<trkpt lat="43.2371520000" lon="-1.1099770000"><ele>310</ele><time>2026-04-24T10:39:13Z</time></trkpt>
<trkpt lat="43.2371720000" lon="-1.1099570000"><ele>310</ele><time>2026-04-24T10:39:15Z</time></trkpt>
<trkpt lat="43.2371900000" lon="-1.1099270000"><ele>310</ele><time>2026-04-24T10:39:18Z</time></trkpt>
<trkpt lat="43.2372120000" lon="-1.1099120000"><ele>309</ele><time>2026-04-24T10:39:20Z</time></trkpt>
<trkpt lat="43.2372270000" lon="-1.1098870000"><ele>309</ele><time>2026-04-24T10:39:22Z</time></trkpt>
<trkpt lat="43.2372500000" lon="-1.1098650000"><ele>309</ele><time>2026-04-24T10:39:24Z</time></trkpt>
<trkpt lat="43.2372700000" lon="-1.1098450000"><ele>308</ele><time>2026-04-24T10:39:26Z</time></trkpt>
<trkpt lat="43.2372850000" lon="-1.1098220000"><ele>308</ele><time>2026-04-24T10:39:28Z</time></trkpt>
<trkpt lat="43.2373070000" lon="-1.1098100000"><ele>308</ele><time>2026-04-24T10:39:30Z</time></trkpt>
<trkpt lat="43.2373220000" lon="-1.1097920000"><ele>308</ele><time>2026-04-24T10:39:32Z</time></trkpt>
<trkpt lat="43.2373420000" lon="-1.1097680000"><ele>307</ele><time>2026-04-24T10:39:34Z</time></trkpt>
<trkpt lat="43.2373620000" lon="-1.1097620000"><ele>307</ele><time>2026-04-24T10:39:36Z</time></trkpt>
<trkpt lat="43.2373820000" lon="-1.1097520000"><ele>307</ele><time>2026-04-24T10:39:38Z</time></trkpt>
<trkpt lat="43.2374050000" lon="-1.1097370000"><ele>307</ele><time>2026-04-24T10:39:40Z</time></trkpt>
<trkpt lat="43.2374270000" lon="-1.1097270000"><ele>306</ele><time>2026-04-24T10:39:42Z</time></trkpt>
<trkpt lat="43.2374400000" lon="-1.1097070000"><ele>306</ele><time>2026-04-24T10:39:44Z</time></trkpt>
<trkpt lat="43.2374600000" lon="-1.1096850000"><ele>305</ele><time>2026-04-24T10:39:47Z</time></trkpt>
<trkpt lat="43.2374820000" lon="-1.1096650000"><ele>305</ele><time>2026-04-24T10:39:49Z</time></trkpt>
<trkpt lat="43.2375020000" lon="-1.1096520000"><ele>304</ele><time>2026-04-24T10:39:51Z</time></trkpt>
<trkpt lat="43.2375170000" lon="-1.1096270000"><ele>304</ele><time>2026-04-24T10:39:53Z</time></trkpt>
<trkpt lat="43.2375320000" lon="-1.1095970000"><ele>304</ele><time>2026-04-24T10:39:55Z</time></trkpt>
<trkpt lat="43.2375470000" lon="-1.1095620000"><ele>303</ele><time>2026-04-24T10:39:57Z</time></trkpt>
<trkpt lat="43.2375470000" lon="-1.1095350000"><ele>303</ele><time>2026-04-24T10:39:59Z</time></trkpt>
<trkpt lat="43.2375600000" lon="-1.1094980000"><ele>303</ele><time>2026-04-24T10:40:01Z</time></trkpt>
<trkpt lat="43.2375720000" lon="-1.1094670000"><ele>302</ele><time>2026-04-24T10:40:03Z</time></trkpt>
<trkpt lat="43.2375870000" lon="-1.1094320000"><ele>302</ele><time>2026-04-24T10:40:05Z</time></trkpt>
<trkpt lat="43.2376050000" lon="-1.1094020000"><ele>302</ele><time>2026-04-24T10:40:07Z</time></trkpt>
<trkpt lat="43.2376080000" lon="-1.1093620000"><ele>301</ele><time>2026-04-24T10:40:09Z</time></trkpt>
<trkpt lat="43.2376170000" lon="-1.1093270000"><ele>301</ele><time>2026-04-24T10:40:11Z</time></trkpt>
<trkpt lat="43.2376220000" lon="-1.1092920000"><ele>301</ele><time>2026-04-24T10:40:13Z</time></trkpt>
<trkpt lat="43.2376220000" lon="-1.1092520000"><ele>300</ele><time>2026-04-24T10:40:15Z</time></trkpt>
<trkpt lat="43.2376150000" lon="-1.1092220000"><ele>300</ele><time>2026-04-24T10:40:17Z</time></trkpt>
<trkpt lat="43.2376120000" lon="-1.1091970000"><ele>300</ele><time>2026-04-24T10:40:19Z</time></trkpt>
<trkpt lat="43.2376120000" lon="-1.1091670000"><ele>299</ele><time>2026-04-24T10:40:21Z</time></trkpt>
<trkpt lat="43.2376080000" lon="-1.1091400000"><ele>299</ele><time>2026-04-24T10:40:23Z</time></trkpt>
<trkpt lat="43.2376170000" lon="-1.1091120000"><ele>299</ele><time>2026-04-24T10:40:25Z</time></trkpt>
<trkpt lat="43.2376170000" lon="-1.1090820000"><ele>298</ele><time>2026-04-24T10:40:27Z</time></trkpt>
<trkpt lat="43.2376150000" lon="-1.1090470000"><ele>298</ele><time>2026-04-24T10:40:29Z</time></trkpt>
<trkpt lat="43.2376150000" lon="-1.1090220000"><ele>297</ele><time>2026-04-24T10:40:31Z</time></trkpt>
<trkpt lat="43.2376050000" lon="-1.1089850000"><ele>297</ele><time>2026-04-24T10:40:34Z</time></trkpt>
<trkpt lat="43.2375970000" lon="-1.1089500000"><ele>297</ele><time>2026-04-24T10:40:36Z</time></trkpt>
<trkpt lat="43.2375920000" lon="-1.1089180000"><ele>296</ele><time>2026-04-24T10:40:38Z</time></trkpt>
<trkpt lat="43.2375870000" lon="-1.1088870000"><ele>296</ele><time>2026-04-24T10:40:40Z</time></trkpt>
<trkpt lat="43.2375820000" lon="-1.1088570000"><ele>296</ele><time>2026-04-24T10:40:42Z</time></trkpt>
<trkpt lat="43.2375770000" lon="-1.1088270000"><ele>295</ele><time>2026-04-24T10:40:44Z</time></trkpt>
<trkpt lat="43.2375720000" lon="-1.1088000000"><ele>295</ele><time>2026-04-24T10:40:46Z</time></trkpt>
<trkpt lat="43.2375770000" lon="-1.1087620000"><ele>294</ele><time>2026-04-24T10:40:49Z</time></trkpt>
<trkpt lat="43.2375720000" lon="-1.1087320000"><ele>294</ele><time>2026-04-24T10:40:51Z</time></trkpt>
<trkpt lat="43.2375670000" lon="-1.1087000000"><ele>294</ele><time>2026-04-24T10:40:54Z</time></trkpt>
<trkpt lat="43.2375720000" lon="-1.1086650000"><ele>293</ele><time>2026-04-24T10:40:57Z</time></trkpt>
<trkpt lat="43.2375720000" lon="-1.1086370000"><ele>292</ele><time>2026-04-24T10:40:59Z</time></trkpt>
<trkpt lat="43.2375770000" lon="-1.1086070000"><ele>292</ele><time>2026-04-24T10:41:01Z</time></trkpt>
<trkpt lat="43.2375800000" lon="-1.1085820000"><ele>292</ele><time>2026-04-24T10:41:03Z</time></trkpt>
<trkpt lat="43.2375800000" lon="-1.1085520000"><ele>291</ele><time>2026-04-24T10:41:05Z</time></trkpt>
<trkpt lat="43.2375770000" lon="-1.1085220000"><ele>291</ele><time>2026-04-24T10:41:07Z</time></trkpt>
<trkpt lat="43.2375670000" lon="-1.1084970000"><ele>291</ele><time>2026-04-24T10:41:09Z</time></trkpt>
<trkpt lat="43.2375670000" lon="-1.1084720000"><ele>290</ele><time>2026-04-24T10:41:11Z</time></trkpt>
<trkpt lat="43.2375600000" lon="-1.1084420000"><ele>290</ele><time>2026-04-24T10:41:13Z</time></trkpt>
<trkpt lat="43.2375620000" lon="-1.1084120000"><ele>290</ele><time>2026-04-24T10:41:15Z</time></trkpt>
<trkpt lat="43.2375670000" lon="-1.1083770000"><ele>290</ele><time>2026-04-24T10:41:17Z</time></trkpt>
<trkpt lat="43.2375570000" lon="-1.1083450000"><ele>289</ele><time>2026-04-24T10:41:19Z</time></trkpt>
<trkpt lat="43.2375550000" lon="-1.1083170000"><ele>289</ele><time>2026-04-24T10:41:21Z</time></trkpt>
<trkpt lat="43.2375550000" lon="-1.1082870000"><ele>289</ele><time>2026-04-24T10:41:23Z</time></trkpt>
<trkpt lat="43.2375570000" lon="-1.1082550000"><ele>289</ele><time>2026-04-24T10:41:25Z</time></trkpt>
<trkpt lat="43.2375620000" lon="-1.1082170000"><ele>289</ele><time>2026-04-24T10:41:27Z</time></trkpt>
<trkpt lat="43.2375700000" lon="-1.1081820000"><ele>288</ele><time>2026-04-24T10:41:29Z</time></trkpt>
<trkpt lat="43.2375720000" lon="-1.1081520000"><ele>288</ele><time>2026-04-24T10:41:31Z</time></trkpt>
<trkpt lat="43.2375820000" lon="-1.1081300000"><ele>288</ele><time>2026-04-24T10:41:35Z</time></trkpt>
<trkpt lat="43.2375820000" lon="-1.1081020000"><ele>287</ele><time>2026-04-24T10:41:40Z</time></trkpt>
<trkpt lat="43.2375820000" lon="-1.1080770000"><ele>287</ele><time>2026-04-24T10:41:42Z</time></trkpt>
<trkpt lat="43.2375770000" lon="-1.1080500000"><ele>287</ele><time>2026-04-24T10:41:44Z</time></trkpt>
<trkpt lat="43.2375650000" lon="-1.1080320000"><ele>286</ele><time>2026-04-24T10:42:00Z</time></trkpt>
<trkpt lat="43.2375600000" lon="-1.1080000000"><ele>286</ele><time>2026-04-24T10:42:02Z</time></trkpt>
<trkpt lat="43.2375550000" lon="-1.1079520000"><ele>286</ele><time>2026-04-24T10:42:04Z</time></trkpt>
<trkpt lat="43.2375520000" lon="-1.1079070000"><ele>285</ele><time>2026-04-24T10:42:06Z</time></trkpt>
<trkpt lat="43.2375520000" lon="-1.1078750000"><ele>285</ele><time>2026-04-24T10:42:08Z</time></trkpt>
<trkpt lat="43.2375570000" lon="-1.1078500000"><ele>285</ele><time>2026-04-24T10:42:11Z</time></trkpt>
<trkpt lat="43.2375550000" lon="-1.1078220000"><ele>285</ele><time>2026-04-24T10:42:13Z</time></trkpt>
<trkpt lat="43.2375570000" lon="-1.1077970000"><ele>284</ele><time>2026-04-24T10:42:15Z</time></trkpt>
<trkpt lat="43.2375600000" lon="-1.1077650000"><ele>284</ele><time>2026-04-24T10:42:17Z</time></trkpt>
<trkpt lat="43.2375670000" lon="-1.1077350000"><ele>284</ele><time>2026-04-24T10:42:19Z</time></trkpt>
<trkpt lat="43.2375850000" lon="-1.1077250000"><ele>283</ele><time>2026-04-24T10:42:51Z</time></trkpt>
<trkpt lat="43.2376070000" lon="-1.1077200000"><ele>283</ele><time>2026-04-24T10:42:55Z</time></trkpt>
<trkpt lat="43.2375850000" lon="-1.1077150000"><ele>282</ele><time>2026-04-24T10:44:27Z</time></trkpt>
<trkpt lat="43.2375670000" lon="-1.1077120000"><ele>282</ele><time>2026-04-24T10:44:29Z</time></trkpt>
<trkpt lat="43.2375720000" lon="-1.1076870000"><ele>282</ele><time>2026-04-24T10:45:10Z</time></trkpt>
<trkpt lat="43.2375750000" lon="-1.1076470000"><ele>282</ele><time>2026-04-24T10:45:12Z</time></trkpt>
<trkpt lat="43.2375770000" lon="-1.1076120000"><ele>281</ele><time>2026-04-24T10:45:14Z</time></trkpt>
<trkpt lat="43.2375720000" lon="-1.1075770000"><ele>281</ele><time>2026-04-24T10:45:16Z</time></trkpt>
<trkpt lat="43.2375720000" lon="-1.1075420000"><ele>281</ele><time>2026-04-24T10:45:18Z</time></trkpt>
<trkpt lat="43.2375720000" lon="-1.1075050000"><ele>281</ele><time>2026-04-24T10:45:20Z</time></trkpt>
<trkpt lat="43.2375700000" lon="-1.1074670000"><ele>280</ele><time>2026-04-24T10:45:22Z</time></trkpt>
<trkpt lat="43.2375670000" lon="-1.1074420000"><ele>280</ele><time>2026-04-24T10:45:24Z</time></trkpt>
<trkpt lat="43.2375720000" lon="-1.1074150000"><ele>280</ele><time>2026-04-24T10:45:26Z</time></trkpt>
<trkpt lat="43.2375720000" lon="-1.1073870000"><ele>279</ele><time>2026-04-24T10:45:28Z</time></trkpt>
<trkpt lat="43.2375720000" lon="-1.1073600000"><ele>279</ele><time>2026-04-24T10:45:30Z</time></trkpt>
<trkpt lat="43.2375600000" lon="-1.1073370000"><ele>279</ele><time>2026-04-24T10:45:32Z</time></trkpt>
<trkpt lat="43.2375550000" lon="-1.1073020000"><ele>278</ele><time>2026-04-24T10:45:35Z</time></trkpt>
<trkpt lat="43.2375570000" lon="-1.1072700000"><ele>278</ele><time>2026-04-24T10:45:37Z</time></trkpt>
<trkpt lat="43.2375550000" lon="-1.1072420000"><ele>277</ele><time>2026-04-24T10:45:39Z</time></trkpt>
<trkpt lat="43.2375450000" lon="-1.1072070000"><ele>277</ele><time>2026-04-24T10:45:41Z</time></trkpt>
<trkpt lat="43.2375400000" lon="-1.1071750000"><ele>277</ele><time>2026-04-24T10:45:42Z</time></trkpt>
<trkpt lat="43.2375370000" lon="-1.1071470000"><ele>277</ele><time>2026-04-24T10:45:43Z</time></trkpt>
<trkpt lat="43.2375300000" lon="-1.1071170000"><ele>277</ele><time>2026-04-24T10:45:44Z</time></trkpt>
<trkpt lat="43.2375220000" lon="-1.1070870000"><ele>276</ele><time>2026-04-24T10:45:45Z</time></trkpt>
<trkpt lat="43.2375120000" lon="-1.1070470000"><ele>276</ele><time>2026-04-24T10:45:47Z</time></trkpt>
<trkpt lat="43.2375070000" lon="-1.1070170000"><ele>276</ele><time>2026-04-24T10:45:49Z</time></trkpt>
<trkpt lat="43.2374970000" lon="-1.1069870000"><ele>276</ele><time>2026-04-24T10:45:51Z</time></trkpt>
<trkpt lat="43.2374820000" lon="-1.1069650000"><ele>275</ele><time>2026-04-24T10:45:53Z</time></trkpt>
<trkpt lat="43.2374700000" lon="-1.1069370000"><ele>275</ele><time>2026-04-24T10:45:55Z</time></trkpt>
<trkpt lat="43.2374570000" lon="-1.1069070000"><ele>275</ele><time>2026-04-24T10:45:57Z</time></trkpt>
<trkpt lat="43.2374470000" lon="-1.1068770000"><ele>275</ele><time>2026-04-24T10:45:59Z</time></trkpt>
<trkpt lat="43.2374450000" lon="-1.1068520000"><ele>274</ele><time>2026-04-24T10:46:01Z</time></trkpt>
<trkpt lat="43.2374220000" lon="-1.1068270000"><ele>273</ele><time>2026-04-24T10:46:33Z</time></trkpt>
<trkpt lat="43.2374070000" lon="-1.1067900000"><ele>273</ele><time>2026-04-24T10:46:35Z</time></trkpt>
<trkpt lat="43.2373920000" lon="-1.1067550000"><ele>272</ele><time>2026-04-24T10:46:37Z</time></trkpt>
<trkpt lat="43.2373800000" lon="-1.1067320000"><ele>272</ele><time>2026-04-24T10:46:39Z</time></trkpt>
<trkpt lat="43.2373620000" lon="-1.1067120000"><ele>272</ele><time>2026-04-24T10:46:41Z</time></trkpt>
<trkpt lat="43.2373470000" lon="-1.1066920000"><ele>272</ele><time>2026-04-24T10:46:43Z</time></trkpt>
<trkpt lat="43.2373320000" lon="-1.1066670000"><ele>271</ele><time>2026-04-24T10:46:45Z</time></trkpt>
<trkpt lat="43.2373170000" lon="-1.1066420000"><ele>271</ele><time>2026-04-24T10:46:47Z</time></trkpt>
<trkpt lat="43.2372980000" lon="-1.1066270000"><ele>271</ele><time>2026-04-24T10:46:49Z</time></trkpt>
<trkpt lat="43.2372850000" lon="-1.1066020000"><ele>270</ele><time>2026-04-24T10:46:51Z</time></trkpt>
<trkpt lat="43.2372620000" lon="-1.1065800000"><ele>269</ele><time>2026-04-24T10:46:54Z</time></trkpt>
<trkpt lat="43.2372470000" lon="-1.1065500000"><ele>269</ele><time>2026-04-24T10:46:56Z</time></trkpt>
<trkpt lat="43.2372370000" lon="-1.1065220000"><ele>269</ele><time>2026-04-24T10:46:58Z</time></trkpt>
<trkpt lat="43.2372320000" lon="-1.1064920000"><ele>268</ele><time>2026-04-24T10:47:00Z</time></trkpt>
<trkpt lat="43.2372270000" lon="-1.1064600000"><ele>268</ele><time>2026-04-24T10:47:02Z</time></trkpt>
<trkpt lat="43.2372070000" lon="-1.1064270000"><ele>268</ele><time>2026-04-24T10:47:04Z</time></trkpt>
<trkpt lat="43.2371870000" lon="-1.1064070000"><ele>267</ele><time>2026-04-24T10:47:06Z</time></trkpt>
<trkpt lat="43.2371620000" lon="-1.1063920000"><ele>267</ele><time>2026-04-24T10:47:08Z</time></trkpt>
<trkpt lat="43.2371500000" lon="-1.1063750000"><ele>266</ele><time>2026-04-24T10:47:10Z</time></trkpt>
<trkpt lat="43.2371320000" lon="-1.1063550000"><ele>266</ele><time>2026-04-24T10:47:12Z</time></trkpt>
<trkpt lat="43.2371120000" lon="-1.1063420000"><ele>266</ele><time>2026-04-24T10:47:14Z</time></trkpt>
<trkpt lat="43.2370920000" lon="-1.1063130000"><ele>266</ele><time>2026-04-24T10:47:16Z</time></trkpt>
<trkpt lat="43.2370670000" lon="-1.1062900000"><ele>265</ele><time>2026-04-24T10:47:18Z</time></trkpt>
<trkpt lat="43.2370500000" lon="-1.1062670000"><ele>265</ele><time>2026-04-24T10:47:20Z</time></trkpt>
<trkpt lat="43.2370320000" lon="-1.1062520000"><ele>265</ele><time>2026-04-24T10:47:22Z</time></trkpt>
<trkpt lat="43.2370050000" lon="-1.1062320000"><ele>265</ele><time>2026-04-24T10:47:24Z</time></trkpt>
<trkpt lat="43.2369870000" lon="-1.1062070000"><ele>265</ele><time>2026-04-24T10:47:26Z</time></trkpt>
<trkpt lat="43.2369720000" lon="-1.1061700000"><ele>264</ele><time>2026-04-24T10:47:29Z</time></trkpt>
<trkpt lat="43.2369570000" lon="-1.1061380000"><ele>264</ele><time>2026-04-24T10:47:31Z</time></trkpt>
<trkpt lat="43.2369370000" lon="-1.1061120000"><ele>264</ele><time>2026-04-24T10:47:33Z</time></trkpt>
<trkpt lat="43.2369170000" lon="-1.1060820000"><ele>263</ele><time>2026-04-24T10:47:35Z</time></trkpt>
<trkpt lat="43.2369020000" lon="-1.1060620000"><ele>263</ele><time>2026-04-24T10:47:37Z</time></trkpt>
<trkpt lat="43.2368850000" lon="-1.1060400000"><ele>263</ele><time>2026-04-24T10:47:39Z</time></trkpt>
<trkpt lat="43.2368670000" lon="-1.1060170000"><ele>263</ele><time>2026-04-24T10:47:41Z</time></trkpt>
<trkpt lat="43.2368400000" lon="-1.1059970000"><ele>262</ele><time>2026-04-24T10:47:43Z</time></trkpt>
<trkpt lat="43.2368200000" lon="-1.1059720000"><ele>262</ele><time>2026-04-24T10:47:45Z</time></trkpt>
<trkpt lat="43.2367970000" lon="-1.1059470000"><ele>262</ele><time>2026-04-24T10:47:47Z</time></trkpt>
<trkpt lat="43.2367820000" lon="-1.1059200000"><ele>262</ele><time>2026-04-24T10:47:50Z</time></trkpt>
<trkpt lat="43.2367620000" lon="-1.1059000000"><ele>261</ele><time>2026-04-24T10:47:52Z</time></trkpt>
<trkpt lat="43.2367420000" lon="-1.1058820000"><ele>261</ele><time>2026-04-24T10:47:54Z</time></trkpt>
<trkpt lat="43.2367220000" lon="-1.1058520000"><ele>261</ele><time>2026-04-24T10:47:57Z</time></trkpt>
<trkpt lat="43.2367120000" lon="-1.1058270000"><ele>260</ele><time>2026-04-24T10:47:59Z</time></trkpt>
<trkpt lat="43.2366870000" lon="-1.1058000000"><ele>260</ele><time>2026-04-24T10:48:01Z</time></trkpt>
<trkpt lat="43.2366720000" lon="-1.1057720000"><ele>260</ele><time>2026-04-24T10:48:03Z</time></trkpt>
<trkpt lat="43.2366550000" lon="-1.1057400000"><ele>259</ele><time>2026-04-24T10:48:07Z</time></trkpt>
<trkpt lat="43.2366420000" lon="-1.1057020000"><ele>259</ele><time>2026-04-24T10:48:09Z</time></trkpt>
<trkpt lat="43.2366300000" lon="-1.1056870000"><ele>259</ele><time>2026-04-24T10:48:10Z</time></trkpt>
<trkpt lat="43.2366170000" lon="-1.1056600000"><ele>259</ele><time>2026-04-24T10:48:12Z</time></trkpt>
<trkpt lat="43.2366020000" lon="-1.1056320000"><ele>259</ele><time>2026-04-24T10:48:14Z</time></trkpt>
<trkpt lat="43.2365970000" lon="-1.1056020000"><ele>258</ele><time>2026-04-24T10:48:17Z</time></trkpt>
<trkpt lat="43.2365850000" lon="-1.1055770000"><ele>258</ele><time>2026-04-24T10:48:19Z</time></trkpt>
<trkpt lat="43.2365670000" lon="-1.1055600000"><ele>258</ele><time>2026-04-24T10:48:21Z</time></trkpt>
<trkpt lat="43.2365420000" lon="-1.1055350000"><ele>258</ele><time>2026-04-24T10:48:23Z</time></trkpt>
<trkpt lat="43.2365170000" lon="-1.1055070000"><ele>258</ele><time>2026-04-24T10:48:25Z</time></trkpt>
<trkpt lat="43.2364970000" lon="-1.1054850000"><ele>257</ele><time>2026-04-24T10:48:27Z</time></trkpt>
<trkpt lat="43.2364820000" lon="-1.1054620000"><ele>257</ele><time>2026-04-24T10:48:29Z</time></trkpt>
<trkpt lat="43.2364620000" lon="-1.1054400000"><ele>257</ele><time>2026-04-24T10:48:31Z</time></trkpt>
<trkpt lat="43.2364470000" lon="-1.1054070000"><ele>257</ele><time>2026-04-24T10:48:34Z</time></trkpt>
<trkpt lat="43.2364420000" lon="-1.1053800000"><ele>256</ele><time>2026-04-24T10:48:35Z</time></trkpt>
<trkpt lat="43.2364370000" lon="-1.1053550000"><ele>256</ele><time>2026-04-24T10:48:37Z</time></trkpt>
<trkpt lat="43.2364220000" lon="-1.1053280000"><ele>256</ele><time>2026-04-24T10:48:39Z</time></trkpt>
<trkpt lat="43.2364120000" lon="-1.1053070000"><ele>256</ele><time>2026-04-24T10:48:41Z</time></trkpt>
<trkpt lat="43.2363950000" lon="-1.1052820000"><ele>255</ele><time>2026-04-24T10:48:43Z</time></trkpt>
<trkpt lat="43.2363800000" lon="-1.1052570000"><ele>255</ele><time>2026-04-24T10:48:45Z</time></trkpt>
<trkpt lat="43.2363600000" lon="-1.1052220000"><ele>255</ele><time>2026-04-24T10:48:47Z</time></trkpt>
<trkpt lat="43.2363520000" lon="-1.1051870000"><ele>255</ele><time>2026-04-24T10:48:49Z</time></trkpt>
<trkpt lat="43.2363470000" lon="-1.1051620000"><ele>254</ele><time>2026-04-24T10:48:51Z</time></trkpt>
<trkpt lat="43.2363350000" lon="-1.1051370000"><ele>254</ele><time>2026-04-24T10:48:53Z</time></trkpt>
<trkpt lat="43.2363200000" lon="-1.1051070000"><ele>254</ele><time>2026-04-24T10:48:55Z</time></trkpt>
<trkpt lat="43.2363070000" lon="-1.1050750000"><ele>254</ele><time>2026-04-24T10:48:57Z</time></trkpt>
<trkpt lat="43.2362970000" lon="-1.1050520000"><ele>254</ele><time>2026-04-24T10:48:58Z</time></trkpt>
<trkpt lat="43.2362920000" lon="-1.1050220000"><ele>253</ele><time>2026-04-24T10:49:00Z</time></trkpt>
<trkpt lat="43.2362870000" lon="-1.1049870000"><ele>253</ele><time>2026-04-24T10:49:02Z</time></trkpt>
<trkpt lat="43.2362800000" lon="-1.1049570000"><ele>253</ele><time>2026-04-24T10:49:04Z</time></trkpt>
<trkpt lat="43.2362750000" lon="-1.1049300000"><ele>252</ele><time>2026-04-24T10:49:06Z</time></trkpt>
<trkpt lat="43.2362570000" lon="-1.1049050000"><ele>252</ele><time>2026-04-24T10:49:08Z</time></trkpt>
<trkpt lat="43.2362420000" lon="-1.1048750000"><ele>252</ele><time>2026-04-24T10:49:11Z</time></trkpt>
<trkpt lat="43.2362300000" lon="-1.1048470000"><ele>252</ele><time>2026-04-24T10:49:13Z</time></trkpt>
<trkpt lat="43.2362070000" lon="-1.1048270000"><ele>251</ele><time>2026-04-24T10:49:15Z</time></trkpt>
<trkpt lat="43.2362020000" lon="-1.1047970000"><ele>251</ele><time>2026-04-24T10:49:17Z</time></trkpt>
<trkpt lat="43.2362020000" lon="-1.1047570000"><ele>251</ele><time>2026-04-24T10:49:19Z</time></trkpt>
<trkpt lat="43.2362020000" lon="-1.1047170000"><ele>251</ele><time>2026-04-24T10:49:21Z</time></trkpt>
<trkpt lat="43.2361970000" lon="-1.1046800000"><ele>251</ele><time>2026-04-24T10:49:23Z</time></trkpt>
<trkpt lat="43.2361920000" lon="-1.1046500000"><ele>250</ele><time>2026-04-24T10:49:25Z</time></trkpt>
<trkpt lat="43.2361920000" lon="-1.1046200000"><ele>250</ele><time>2026-04-24T10:49:27Z</time></trkpt>
<trkpt lat="43.2361870000" lon="-1.1045870000"><ele>250</ele><time>2026-04-24T10:49:29Z</time></trkpt>
<trkpt lat="43.2361720000" lon="-1.1045520000"><ele>249</ele><time>2026-04-24T10:49:31Z</time></trkpt>
<trkpt lat="43.2361720000" lon="-1.1045180000"><ele>249</ele><time>2026-04-24T10:49:33Z</time></trkpt>
<trkpt lat="43.2361720000" lon="-1.1044850000"><ele>249</ele><time>2026-04-24T10:49:35Z</time></trkpt>
<trkpt lat="43.2361750000" lon="-1.1044520000"><ele>249</ele><time>2026-04-24T10:49:37Z</time></trkpt>
<trkpt lat="43.2361670000" lon="-1.1044250000"><ele>248</ele><time>2026-04-24T10:49:39Z</time></trkpt>
<trkpt lat="43.2361580000" lon="-1.1043970000"><ele>248</ele><time>2026-04-24T10:49:41Z</time></trkpt>
<trkpt lat="43.2361520000" lon="-1.1043650000"><ele>248</ele><time>2026-04-24T10:49:43Z</time></trkpt>
<trkpt lat="43.2361500000" lon="-1.1043350000"><ele>248</ele><time>2026-04-24T10:49:45Z</time></trkpt>
<trkpt lat="43.2361420000" lon="-1.1043070000"><ele>248</ele><time>2026-04-24T10:49:47Z</time></trkpt>
<trkpt lat="43.2361450000" lon="-1.1042770000"><ele>247</ele><time>2026-04-24T10:49:49Z</time></trkpt>
<trkpt lat="43.2361400000" lon="-1.1042470000"><ele>247</ele><time>2026-04-24T10:49:51Z</time></trkpt>
<trkpt lat="43.2361420000" lon="-1.1042200000"><ele>246</ele><time>2026-04-24T10:49:53Z</time></trkpt>
<trkpt lat="43.2361420000" lon="-1.1041870000"><ele>246</ele><time>2026-04-24T10:49:55Z</time></trkpt>
<trkpt lat="43.2361420000" lon="-1.1041620000"><ele>246</ele><time>2026-04-24T10:49:57Z</time></trkpt>
<trkpt lat="43.2361400000" lon="-1.1041300000"><ele>246</ele><time>2026-04-24T10:49:59Z</time></trkpt>
<trkpt lat="43.2361350000" lon="-1.1040970000"><ele>245</ele><time>2026-04-24T10:50:01Z</time></trkpt>
<trkpt lat="43.2361320000" lon="-1.1040700000"><ele>245</ele><time>2026-04-24T10:50:03Z</time></trkpt>
<trkpt lat="43.2361370000" lon="-1.1040420000"><ele>245</ele><time>2026-04-24T10:50:05Z</time></trkpt>
<trkpt lat="43.2361370000" lon="-1.1040070000"><ele>244</ele><time>2026-04-24T10:50:08Z</time></trkpt>
<trkpt lat="43.2361370000" lon="-1.1039820000"><ele>244</ele><time>2026-04-24T10:50:10Z</time></trkpt>
<trkpt lat="43.2361450000" lon="-1.1039520000"><ele>244</ele><time>2026-04-24T10:50:12Z</time></trkpt>
<trkpt lat="43.2361500000" lon="-1.1039220000"><ele>243</ele><time>2026-04-24T10:50:14Z</time></trkpt>
<trkpt lat="43.2361520000" lon="-1.1038920000"><ele>243</ele><time>2026-04-24T10:50:16Z</time></trkpt>
<trkpt lat="43.2361650000" lon="-1.1038670000"><ele>243</ele><time>2026-04-24T10:50:18Z</time></trkpt>
<trkpt lat="43.2361750000" lon="-1.1038350000"><ele>243</ele><time>2026-04-24T10:50:20Z</time></trkpt>
<trkpt lat="43.2361800000" lon="-1.1038070000"><ele>242</ele><time>2026-04-24T10:50:22Z</time></trkpt>
<trkpt lat="43.2361850000" lon="-1.1037820000"><ele>242</ele><time>2026-04-24T10:50:24Z</time></trkpt>
<trkpt lat="43.2361970000" lon="-1.1037570000"><ele>241</ele><time>2026-04-24T10:50:26Z</time></trkpt>
<trkpt lat="43.2362070000" lon="-1.1037320000"><ele>241</ele><time>2026-04-24T10:50:28Z</time></trkpt>
<trkpt lat="43.2362170000" lon="-1.1037070000"><ele>241</ele><time>2026-04-24T10:50:30Z</time></trkpt>
<trkpt lat="43.2362350000" lon="-1.1036920000"><ele>241</ele><time>2026-04-24T10:50:32Z</time></trkpt>
<trkpt lat="43.2362550000" lon="-1.1036750000"><ele>240</ele><time>2026-04-24T10:50:34Z</time></trkpt>
<trkpt lat="43.2362670000" lon="-1.1036520000"><ele>240</ele><time>2026-04-24T10:50:36Z</time></trkpt>
<trkpt lat="43.2362870000" lon="-1.1036250000"><ele>240</ele><time>2026-04-24T10:50:38Z</time></trkpt>
<trkpt lat="43.2363020000" lon="-1.1036020000"><ele>239</ele><time>2026-04-24T10:50:40Z</time></trkpt>
<trkpt lat="43.2363170000" lon="-1.1035820000"><ele>239</ele><time>2026-04-24T10:50:42Z</time></trkpt>
<trkpt lat="43.2363450000" lon="-1.1035720000"><ele>239</ele><time>2026-04-24T10:50:44Z</time></trkpt>
<trkpt lat="43.2363700000" lon="-1.1035570000"><ele>238</ele><time>2026-04-24T10:50:46Z</time></trkpt>
<trkpt lat="43.2363920000" lon="-1.1035420000"><ele>238</ele><time>2026-04-24T10:50:48Z</time></trkpt>
<trkpt lat="43.2364070000" lon="-1.1035270000"><ele>238</ele><time>2026-04-24T10:50:50Z</time></trkpt>
<trkpt lat="43.2364220000" lon="-1.1035070000"><ele>237</ele><time>2026-04-24T10:50:52Z</time></trkpt>
<trkpt lat="43.2364470000" lon="-1.1034900000"><ele>237</ele><time>2026-04-24T10:50:55Z</time></trkpt>
<trkpt lat="43.2364720000" lon="-1.1034850000"><ele>236</ele><time>2026-04-24T10:51:20Z</time></trkpt>
<trkpt lat="43.2365000000" lon="-1.1034770000"><ele>236</ele><time>2026-04-24T10:51:22Z</time></trkpt>
<trkpt lat="43.2365220000" lon="-1.1034650000"><ele>235</ele><time>2026-04-24T10:51:24Z</time></trkpt>
<trkpt lat="43.2365470000" lon="-1.1034600000"><ele>235</ele><time>2026-04-24T10:51:27Z</time></trkpt>
<trkpt lat="43.2365700000" lon="-1.1034570000"><ele>235</ele><time>2026-04-24T10:51:29Z</time></trkpt>
<trkpt lat="43.2365920000" lon="-1.1034620000"><ele>234</ele><time>2026-04-24T10:51:32Z</time></trkpt>
<trkpt lat="43.2366170000" lon="-1.1034620000"><ele>234</ele><time>2026-04-24T10:51:35Z</time></trkpt>
<trkpt lat="43.2366400000" lon="-1.1034620000"><ele>233</ele><time>2026-04-24T10:51:38Z</time></trkpt>
<trkpt lat="43.2366670000" lon="-1.1034670000"><ele>233</ele><time>2026-04-24T10:51:41Z</time></trkpt>
<trkpt lat="43.2366870000" lon="-1.1034620000"><ele>233</ele><time>2026-04-24T10:51:43Z</time></trkpt>
<trkpt lat="43.2367100000" lon="-1.1034670000"><ele>232</ele><time>2026-04-24T10:51:45Z</time></trkpt>
<trkpt lat="43.2367320000" lon="-1.1034770000"><ele>232</ele><time>2026-04-24T10:51:48Z</time></trkpt>
<trkpt lat="43.2367570000" lon="-1.1034820000"><ele>231</ele><time>2026-04-24T10:51:51Z</time></trkpt>
<trkpt lat="43.2367800000" lon="-1.1035000000"><ele>231</ele><time>2026-04-24T10:51:53Z</time></trkpt>
<trkpt lat="43.2367920000" lon="-1.1035170000"><ele>231</ele><time>2026-04-24T10:51:54Z</time></trkpt>
<trkpt lat="43.2368150000" lon="-1.1035220000"><ele>231</ele><time>2026-04-24T10:51:55Z</time></trkpt>
<trkpt lat="43.2368420000" lon="-1.1035170000"><ele>230</ele><time>2026-04-24T10:51:57Z</time></trkpt>
<trkpt lat="43.2368770000" lon="-1.1035020000"><ele>230</ele><time>2026-04-24T10:51:59Z</time></trkpt>
<trkpt lat="43.2369100000" lon="-1.1034820000"><ele>230</ele><time>2026-04-24T10:52:01Z</time></trkpt>
<trkpt lat="43.2369370000" lon="-1.1034670000"><ele>229</ele><time>2026-04-24T10:52:03Z</time></trkpt>
<trkpt lat="43.2369570000" lon="-1.1034370000"><ele>229</ele><time>2026-04-24T10:52:05Z</time></trkpt>
<trkpt lat="43.2369720000" lon="-1.1034120000"><ele>229</ele><time>2026-04-24T10:52:07Z</time></trkpt>
<trkpt lat="43.2369850000" lon="-1.1033920000"><ele>228</ele><time>2026-04-24T10:52:09Z</time></trkpt>
<trkpt lat="43.2369920000" lon="-1.1033620000"><ele>228</ele><time>2026-04-24T10:52:11Z</time></trkpt>
<trkpt lat="43.2370050000" lon="-1.1033320000"><ele>228</ele><time>2026-04-24T10:52:13Z</time></trkpt>
<trkpt lat="43.2370170000" lon="-1.1033020000"><ele>228</ele><time>2026-04-24T10:52:16Z</time></trkpt>
<trkpt lat="43.2370320000" lon="-1.1032670000"><ele>227</ele><time>2026-04-24T10:52:19Z</time></trkpt>
<trkpt lat="43.2370470000" lon="-1.1032450000"><ele>227</ele><time>2026-04-24T10:52:21Z</time></trkpt>
<trkpt lat="43.2370570000" lon="-1.1032200000"><ele>227</ele><time>2026-04-24T10:52:23Z</time></trkpt>
<trkpt lat="43.2370720000" lon="-1.1031970000"><ele>227</ele><time>2026-04-24T10:52:25Z</time></trkpt>
<trkpt lat="43.2370970000" lon="-1.1031850000"><ele>226</ele><time>2026-04-24T10:52:27Z</time></trkpt>
<trkpt lat="43.2371170000" lon="-1.1031720000"><ele>226</ele><time>2026-04-24T10:52:29Z</time></trkpt>
<trkpt lat="43.2371320000" lon="-1.1031420000"><ele>226</ele><time>2026-04-24T10:52:32Z</time></trkpt>
<trkpt lat="43.2371470000" lon="-1.1031270000"><ele>225</ele><time>2026-04-24T10:52:34Z</time></trkpt>
<trkpt lat="43.2371650000" lon="-1.1031170000"><ele>225</ele><time>2026-04-24T10:52:36Z</time></trkpt>
<trkpt lat="43.2371770000" lon="-1.1030920000"><ele>224</ele><time>2026-04-24T10:52:39Z</time></trkpt>
<trkpt lat="43.2371970000" lon="-1.1030720000"><ele>224</ele><time>2026-04-24T10:52:41Z</time></trkpt>
<trkpt lat="43.2372070000" lon="-1.1030500000"><ele>223</ele><time>2026-04-24T10:52:43Z</time></trkpt>
<trkpt lat="43.2372250000" lon="-1.1030300000"><ele>223</ele><time>2026-04-24T10:52:45Z</time></trkpt>
<trkpt lat="43.2372420000" lon="-1.1030170000"><ele>223</ele><time>2026-04-24T10:52:48Z</time></trkpt>
<trkpt lat="43.2372620000" lon="-1.1030270000"><ele>222</ele><time>2026-04-24T10:52:52Z</time></trkpt>
<trkpt lat="43.2372570000" lon="-1.1030720000"><ele>221</ele><time>2026-04-24T10:52:56Z</time></trkpt>
<trkpt lat="43.2372670000" lon="-1.1030320000"><ele>221</ele><time>2026-04-24T10:52:59Z</time></trkpt>
<trkpt lat="43.2372570000" lon="-1.1030070000"><ele>221</ele><time>2026-04-24T10:54:38Z</time></trkpt>
<trkpt lat="43.2372520000" lon="-1.1029820000"><ele>221</ele><time>2026-04-24T10:54:41Z</time></trkpt>
<trkpt lat="43.2372700000" lon="-1.1029820000"><ele>220</ele><time>2026-04-24T10:55:53Z</time></trkpt>
<trkpt lat="43.2372820000" lon="-1.1030020000"><ele>220</ele><time>2026-04-24T10:56:53Z</time></trkpt>
<trkpt lat="43.2372620000" lon="-1.1029770000"><ele>219</ele><time>2026-04-24T10:58:01Z</time></trkpt>
<trkpt lat="43.2372420000" lon="-1.1029450000"><ele>219</ele><time>2026-04-24T10:58:03Z</time></trkpt>
<trkpt lat="43.2372220000" lon="-1.1029400000"><ele>219</ele><time>2026-04-24T10:58:06Z</time></trkpt>
<trkpt lat="43.2372370000" lon="-1.1029170000"><ele>219</ele><time>2026-04-24T10:58:45Z</time></trkpt>
<trkpt lat="43.2372270000" lon="-1.1028770000"><ele>219</ele><time>2026-04-24T10:58:47Z</time></trkpt>
<trkpt lat="43.2372270000" lon="-1.1028370000"><ele>219</ele><time>2026-04-24T10:58:49Z</time></trkpt>
<trkpt lat="43.2372250000" lon="-1.1028120000"><ele>218</ele><time>2026-04-24T10:58:51Z</time></trkpt>
<trkpt lat="43.2372170000" lon="-1.1027870000"><ele>218</ele><time>2026-04-24T10:58:53Z</time></trkpt>
<trkpt lat="43.2372070000" lon="-1.1027670000"><ele>218</ele><time>2026-04-24T10:58:55Z</time></trkpt>
<trkpt lat="43.2371970000" lon="-1.1027370000"><ele>218</ele><time>2026-04-24T10:58:59Z</time></trkpt>
<trkpt lat="43.2371850000" lon="-1.1027200000"><ele>217</ele><time>2026-04-24T10:59:01Z</time></trkpt>
<trkpt lat="43.2371720000" lon="-1.1026970000"><ele>217</ele><time>2026-04-24T10:59:03Z</time></trkpt>
<trkpt lat="43.2371520000" lon="-1.1026900000"><ele>217</ele><time>2026-04-24T10:59:05Z</time></trkpt>
<trkpt lat="43.2371370000" lon="-1.1026770000"><ele>216</ele><time>2026-04-24T10:59:07Z</time></trkpt>
<trkpt lat="43.2371200000" lon="-1.1026670000"><ele>216</ele><time>2026-04-24T10:59:09Z</time></trkpt>
<trkpt lat="43.2371020000" lon="-1.1026600000"><ele>216</ele><time>2026-04-24T10:59:11Z</time></trkpt>
<trkpt lat="43.2370770000" lon="-1.1026520000"><ele>215</ele><time>2026-04-24T10:59:14Z</time></trkpt>
<trkpt lat="43.2370500000" lon="-1.1026570000"><ele>215</ele><time>2026-04-24T10:59:17Z</time></trkpt>
<trkpt lat="43.2370270000" lon="-1.1026550000"><ele>214</ele><time>2026-04-24T10:59:20Z</time></trkpt>
<trkpt lat="43.2370020000" lon="-1.1026570000"><ele>214</ele><time>2026-04-24T10:59:23Z</time></trkpt>
<trkpt lat="43.2369850000" lon="-1.1026470000"><ele>213</ele><time>2026-04-24T10:59:25Z</time></trkpt>
<trkpt lat="43.2369670000" lon="-1.1026450000"><ele>213</ele><time>2026-04-24T10:59:27Z</time></trkpt>
<trkpt lat="43.2369420000" lon="-1.1026470000"><ele>213</ele><time>2026-04-24T10:59:29Z</time></trkpt>
<trkpt lat="43.2369220000" lon="-1.1026470000"><ele>212</ele><time>2026-04-24T10:59:31Z</time></trkpt>
<trkpt lat="43.2369020000" lon="-1.1026470000"><ele>212</ele><time>2026-04-24T10:59:33Z</time></trkpt>
<trkpt lat="43.2368800000" lon="-1.1026470000"><ele>212</ele><time>2026-04-24T10:59:35Z</time></trkpt>
<trkpt lat="43.2368480000" lon="-1.1026370000"><ele>212</ele><time>2026-04-24T10:59:37Z</time></trkpt>
<trkpt lat="43.2368200000" lon="-1.1026220000"><ele>211</ele><time>2026-04-24T10:59:39Z</time></trkpt>
<trkpt lat="43.2367950000" lon="-1.1026120000"><ele>211</ele><time>2026-04-24T10:59:41Z</time></trkpt>
<trkpt lat="43.2367720000" lon="-1.1026020000"><ele>211</ele><time>2026-04-24T10:59:43Z</time></trkpt>
<trkpt lat="43.2367550000" lon="-1.1025920000"><ele>211</ele><time>2026-04-24T10:59:45Z</time></trkpt>
<trkpt lat="43.2367300000" lon="-1.1025850000"><ele>210</ele><time>2026-04-24T10:59:48Z</time></trkpt>
<trkpt lat="43.2367050000" lon="-1.1025770000"><ele>210</ele><time>2026-04-24T10:59:51Z</time></trkpt>
<trkpt lat="43.2366870000" lon="-1.1025700000"><ele>209</ele><time>2026-04-24T10:59:53Z</time></trkpt>
<trkpt lat="43.2366670000" lon="-1.1025670000"><ele>209</ele><time>2026-04-24T10:59:55Z</time></trkpt>
<trkpt lat="43.2366400000" lon="-1.1025600000"><ele>208</ele><time>2026-04-24T10:59:58Z</time></trkpt>
<trkpt lat="43.2366170000" lon="-1.1025520000"><ele>208</ele><time>2026-04-24T11:00:00Z</time></trkpt>
<trkpt lat="43.2365920000" lon="-1.1025470000"><ele>207</ele><time>2026-04-24T11:00:03Z</time></trkpt>
<trkpt lat="43.2365750000" lon="-1.1025450000"><ele>207</ele><time>2026-04-24T11:00:05Z</time></trkpt>
<trkpt lat="43.2365520000" lon="-1.1025350000"><ele>207</ele><time>2026-04-24T11:00:07Z</time></trkpt>
<trkpt lat="43.2365320000" lon="-1.1025300000"><ele>206</ele><time>2026-04-24T11:00:09Z</time></trkpt>
<trkpt lat="43.2365150000" lon="-1.1025270000"><ele>206</ele><time>2026-04-24T11:00:11Z</time></trkpt>
<trkpt lat="43.2364920000" lon="-1.1025220000"><ele>206</ele><time>2026-04-24T11:00:13Z</time></trkpt>
<trkpt lat="43.2364750000" lon="-1.1025120000"><ele>205</ele><time>2026-04-24T11:00:15Z</time></trkpt>
<trkpt lat="43.2364520000" lon="-1.1025020000"><ele>205</ele><time>2026-04-24T11:00:17Z</time></trkpt>
<trkpt lat="43.2364320000" lon="-1.1025000000"><ele>204</ele><time>2026-04-24T11:00:19Z</time></trkpt>
<trkpt lat="43.2364120000" lon="-1.1024970000"><ele>204</ele><time>2026-04-24T11:00:21Z</time></trkpt>
<trkpt lat="43.2363920000" lon="-1.1024850000"><ele>204</ele><time>2026-04-24T11:00:23Z</time></trkpt>
<trkpt lat="43.2363720000" lon="-1.1024820000"><ele>203</ele><time>2026-04-24T11:00:26Z</time></trkpt>
<trkpt lat="43.2363550000" lon="-1.1024800000"><ele>203</ele><time>2026-04-24T11:00:28Z</time></trkpt>
<trkpt lat="43.2363320000" lon="-1.1024770000"><ele>203</ele><time>2026-04-24T11:00:30Z</time></trkpt>
<trkpt lat="43.2363120000" lon="-1.1024670000"><ele>202</ele><time>2026-04-24T11:00:32Z</time></trkpt>
<trkpt lat="43.2362870000" lon="-1.1024520000"><ele>202</ele><time>2026-04-24T11:00:34Z</time></trkpt>
<trkpt lat="43.2362670000" lon="-1.1024520000"><ele>202</ele><time>2026-04-24T11:00:36Z</time></trkpt>
<trkpt lat="43.2362430000" lon="-1.1024500000"><ele>202</ele><time>2026-04-24T11:00:38Z</time></trkpt>
<trkpt lat="43.2362270000" lon="-1.1024520000"><ele>201</ele><time>2026-04-24T11:00:40Z</time></trkpt>
<trkpt lat="43.2362050000" lon="-1.1024550000"><ele>201</ele><time>2026-04-24T11:00:44Z</time></trkpt>
<trkpt lat="43.2361820000" lon="-1.1024520000"><ele>200</ele><time>2026-04-24T11:00:54Z</time></trkpt>
<trkpt lat="43.2361470000" lon="-1.1024420000"><ele>200</ele><time>2026-04-24T11:00:56Z</time></trkpt>
<trkpt lat="43.2361200000" lon="-1.1024320000"><ele>200</ele><time>2026-04-24T11:00:58Z</time></trkpt>
<trkpt lat="43.2360970000" lon="-1.1024170000"><ele>200</ele><time>2026-04-24T11:01:00Z</time></trkpt>
<trkpt lat="43.2360750000" lon="-1.1023970000"><ele>200</ele><time>2026-04-24T11:01:02Z</time></trkpt>
<trkpt lat="43.2360470000" lon="-1.1024000000"><ele>199</ele><time>2026-04-24T11:01:04Z</time></trkpt>
<trkpt lat="43.2360170000" lon="-1.1023970000"><ele>199</ele><time>2026-04-24T11:01:06Z</time></trkpt>
<trkpt lat="43.2359870000" lon="-1.1023850000"><ele>199</ele><time>2026-04-24T11:01:08Z</time></trkpt>
<trkpt lat="43.2359620000" lon="-1.1023770000"><ele>199</ele><time>2026-04-24T11:01:10Z</time></trkpt>
<trkpt lat="43.2359400000" lon="-1.1023570000"><ele>199</ele><time>2026-04-24T11:01:12Z</time></trkpt>
<trkpt lat="43.2359170000" lon="-1.1023470000"><ele>198</ele><time>2026-04-24T11:01:14Z</time></trkpt>
<trkpt lat="43.2358970000" lon="-1.1023320000"><ele>198</ele><time>2026-04-24T11:01:16Z</time></trkpt>
<trkpt lat="43.2358750000" lon="-1.1023220000"><ele>198</ele><time>2026-04-24T11:01:18Z</time></trkpt>
<trkpt lat="43.2358450000" lon="-1.1023170000"><ele>198</ele><time>2026-04-24T11:01:20Z</time></trkpt>
<trkpt lat="43.2358270000" lon="-1.1023100000"><ele>197</ele><time>2026-04-24T11:01:22Z</time></trkpt>
<trkpt lat="43.2358020000" lon="-1.1023020000"><ele>197</ele><time>2026-04-24T11:01:25Z</time></trkpt>
<trkpt lat="43.2357820000" lon="-1.1023020000"><ele>197</ele><time>2026-04-24T11:01:27Z</time></trkpt>
<trkpt lat="43.2357520000" lon="-1.1023020000"><ele>196</ele><time>2026-04-24T11:01:29Z</time></trkpt>
<trkpt lat="43.2357300000" lon="-1.1023050000"><ele>196</ele><time>2026-04-24T11:01:31Z</time></trkpt>
<trkpt lat="43.2357120000" lon="-1.1023120000"><ele>196</ele><time>2026-04-24T11:01:33Z</time></trkpt>
<trkpt lat="43.2356920000" lon="-1.1023070000"><ele>196</ele><time>2026-04-24T11:01:35Z</time></trkpt>
<trkpt lat="43.2356650000" lon="-1.1023020000"><ele>196</ele><time>2026-04-24T11:01:37Z</time></trkpt>
<trkpt lat="43.2356450000" lon="-1.1022950000"><ele>195</ele><time>2026-04-24T11:01:39Z</time></trkpt>
<trkpt lat="43.2356220000" lon="-1.1022780000"><ele>195</ele><time>2026-04-24T11:01:42Z</time></trkpt>
<trkpt lat="43.2355970000" lon="-1.1022720000"><ele>195</ele><time>2026-04-24T11:01:44Z</time></trkpt>
<trkpt lat="43.2355700000" lon="-1.1022620000"><ele>195</ele><time>2026-04-24T11:01:46Z</time></trkpt>
<trkpt lat="43.2355450000" lon="-1.1022570000"><ele>194</ele><time>2026-04-24T11:01:48Z</time></trkpt>
<trkpt lat="43.2355270000" lon="-1.1022520000"><ele>194</ele><time>2026-04-24T11:01:50Z</time></trkpt>
<trkpt lat="43.2355070000" lon="-1.1022670000"><ele>194</ele><time>2026-04-24T11:01:53Z</time></trkpt>
<trkpt lat="43.2354870000" lon="-1.1022670000"><ele>193</ele><time>2026-04-24T11:01:55Z</time></trkpt>
<trkpt lat="43.2354650000" lon="-1.1022570000"><ele>193</ele><time>2026-04-24T11:01:58Z</time></trkpt>
<trkpt lat="43.2354350000" lon="-1.1022470000"><ele>192</ele><time>2026-04-24T11:02:01Z</time></trkpt>
<trkpt lat="43.2354020000" lon="-1.1022270000"><ele>192</ele><time>2026-04-24T11:02:03Z</time></trkpt>
<trkpt lat="43.2353750000" lon="-1.1022000000"><ele>192</ele><time>2026-04-24T11:02:05Z</time></trkpt>
<trkpt lat="43.2353500000" lon="-1.1021750000"><ele>191</ele><time>2026-04-24T11:02:07Z</time></trkpt>
<trkpt lat="43.2353270000" lon="-1.1021700000"><ele>191</ele><time>2026-04-24T11:02:09Z</time></trkpt>
<trkpt lat="43.2353050000" lon="-1.1021700000"><ele>191</ele><time>2026-04-24T11:02:11Z</time></trkpt>
<trkpt lat="43.2352820000" lon="-1.1021720000"><ele>191</ele><time>2026-04-24T11:02:13Z</time></trkpt>
<trkpt lat="43.2352520000" lon="-1.1021620000"><ele>190</ele><time>2026-04-24T11:02:16Z</time></trkpt>
<trkpt lat="43.2352320000" lon="-1.1021550000"><ele>190</ele><time>2026-04-24T11:02:18Z</time></trkpt>
<trkpt lat="43.2352050000" lon="-1.1021650000"><ele>189</ele><time>2026-04-24T11:02:21Z</time></trkpt>
<trkpt lat="43.2351820000" lon="-1.1021670000"><ele>189</ele><time>2026-04-24T11:02:23Z</time></trkpt>
<trkpt lat="43.2351800000" lon="-1.1021950000"><ele>188</ele><time>2026-04-24T11:02:28Z</time></trkpt>
<trkpt lat="43.2351900000" lon="-1.1022170000"><ele>188</ele><time>2026-04-24T11:02:30Z</time></trkpt>
<trkpt lat="43.2352000000" lon="-1.1022470000"><ele>189</ele><time>2026-04-24T11:02:33Z</time></trkpt>
<trkpt lat="43.2351820000" lon="-1.1022420000"><ele>188</ele><time>2026-04-24T11:02:50Z</time></trkpt>
<trkpt lat="43.2351570000" lon="-1.1022300000"><ele>188</ele><time>2026-04-24T11:02:52Z</time></trkpt>
<trkpt lat="43.2351370000" lon="-1.1022100000"><ele>188</ele><time>2026-04-24T11:02:54Z</time></trkpt>
<trkpt lat="43.2351170000" lon="-1.1021950000"><ele>188</ele><time>2026-04-24T11:02:56Z</time></trkpt>
<trkpt lat="43.2351020000" lon="-1.1021820000"><ele>188</ele><time>2026-04-24T11:02:58Z</time></trkpt>
<trkpt lat="43.2350820000" lon="-1.1021720000"><ele>188</ele><time>2026-04-24T11:03:00Z</time></trkpt>
<trkpt lat="43.2350600000" lon="-1.1021470000"><ele>188</ele><time>2026-04-24T11:03:02Z</time></trkpt>
<trkpt lat="43.2350370000" lon="-1.1021270000"><ele>188</ele><time>2026-04-24T11:03:04Z</time></trkpt>
<trkpt lat="43.2350200000" lon="-1.1021070000"><ele>188</ele><time>2026-04-24T11:03:06Z</time></trkpt>
<trkpt lat="43.2350020000" lon="-1.1020870000"><ele>188</ele><time>2026-04-24T11:03:08Z</time></trkpt>
<trkpt lat="43.2349820000" lon="-1.1020720000"><ele>188</ele><time>2026-04-24T11:03:10Z</time></trkpt>
<trkpt lat="43.2349600000" lon="-1.1020620000"><ele>188</ele><time>2026-04-24T11:03:12Z</time></trkpt>
<trkpt lat="43.2349370000" lon="-1.1020420000"><ele>188</ele><time>2026-04-24T11:03:14Z</time></trkpt>
<trkpt lat="43.2349120000" lon="-1.1020120000"><ele>188</ele><time>2026-04-24T11:03:16Z</time></trkpt>
<trkpt lat="43.2348870000" lon="-1.1019820000"><ele>187</ele><time>2026-04-24T11:03:18Z</time></trkpt>
<trkpt lat="43.2348650000" lon="-1.1019520000"><ele>188</ele><time>2026-04-24T11:03:20Z</time></trkpt>
<trkpt lat="43.2348420000" lon="-1.1019220000"><ele>188</ele><time>2026-04-24T11:03:22Z</time></trkpt>
<trkpt lat="43.2348220000" lon="-1.1018970000"><ele>188</ele><time>2026-04-24T11:03:24Z</time></trkpt>
<trkpt lat="43.2348020000" lon="-1.1018820000"><ele>187</ele><time>2026-04-24T11:03:26Z</time></trkpt>
<trkpt lat="43.2347850000" lon="-1.1018650000"><ele>187</ele><time>2026-04-24T11:03:28Z</time></trkpt>
<trkpt lat="43.2347670000" lon="-1.1018520000"><ele>187</ele><time>2026-04-24T11:03:30Z</time></trkpt>
<trkpt lat="43.2347400000" lon="-1.1018370000"><ele>187</ele><time>2026-04-24T11:03:35Z</time></trkpt>
<trkpt lat="43.2347220000" lon="-1.1018270000"><ele>187</ele><time>2026-04-24T11:03:58Z</time></trkpt>
<trkpt lat="43.2347070000" lon="-1.1018020000"><ele>187</ele><time>2026-04-24T11:04:00Z</time></trkpt>
<trkpt lat="43.2346850000" lon="-1.1017720000"><ele>187</ele><time>2026-04-24T11:04:02Z</time></trkpt>
<trkpt lat="43.2346670000" lon="-1.1017420000"><ele>187</ele><time>2026-04-24T11:04:06Z</time></trkpt>
<trkpt lat="43.2346470000" lon="-1.1017220000"><ele>187</ele><time>2026-04-24T11:04:08Z</time></trkpt>
<trkpt lat="43.2346270000" lon="-1.1016980000"><ele>187</ele><time>2026-04-24T11:04:10Z</time></trkpt>
<trkpt lat="43.2346050000" lon="-1.1016800000"><ele>187</ele><time>2026-04-24T11:04:12Z</time></trkpt>
<trkpt lat="43.2345820000" lon="-1.1016600000"><ele>187</ele><time>2026-04-24T11:04:14Z</time></trkpt>
<trkpt lat="43.2345720000" lon="-1.1016370000"><ele>187</ele><time>2026-04-24T11:04:16Z</time></trkpt>
<trkpt lat="43.2345620000" lon="-1.1016120000"><ele>187</ele><time>2026-04-24T11:04:18Z</time></trkpt>
<trkpt lat="43.2345470000" lon="-1.1015720000"><ele>187</ele><time>2026-04-24T11:04:20Z</time></trkpt>
<trkpt lat="43.2345370000" lon="-1.1015450000"><ele>187</ele><time>2026-04-24T11:04:22Z</time></trkpt>
<trkpt lat="43.2345250000" lon="-1.1015170000"><ele>187</ele><time>2026-04-24T11:04:24Z</time></trkpt>
<trkpt lat="43.2345120000" lon="-1.1014870000"><ele>187</ele><time>2026-04-24T11:04:26Z</time></trkpt>
<trkpt lat="43.2344950000" lon="-1.1014600000"><ele>187</ele><time>2026-04-24T11:04:28Z</time></trkpt>
<trkpt lat="43.2344850000" lon="-1.1014270000"><ele>187</ele><time>2026-04-24T11:04:30Z</time></trkpt>
<trkpt lat="43.2344670000" lon="-1.1014000000"><ele>187</ele><time>2026-04-24T11:04:32Z</time></trkpt>
<trkpt lat="43.2344520000" lon="-1.1013670000"><ele>187</ele><time>2026-04-24T11:04:34Z</time></trkpt>
<trkpt lat="43.2344320000" lon="-1.1013450000"><ele>187</ele><time>2026-04-24T11:04:36Z</time></trkpt>
<trkpt lat="43.2344120000" lon="-1.1013220000"><ele>187</ele><time>2026-04-24T11:04:38Z</time></trkpt>
<trkpt lat="43.2343850000" lon="-1.1012970000"><ele>187</ele><time>2026-04-24T11:04:40Z</time></trkpt>
<trkpt lat="43.2343650000" lon="-1.1012720000"><ele>187</ele><time>2026-04-24T11:04:42Z</time></trkpt>
<trkpt lat="43.2343500000" lon="-1.1012500000"><ele>187</ele><time>2026-04-24T11:04:44Z</time></trkpt>
<trkpt lat="43.2343220000" lon="-1.1012320000"><ele>186</ele><time>2026-04-24T11:04:46Z</time></trkpt>
<trkpt lat="43.2343100000" lon="-1.1012070000"><ele>186</ele><time>2026-04-24T11:04:48Z</time></trkpt>
<trkpt lat="43.2343000000" lon="-1.1011820000"><ele>186</ele><time>2026-04-24T11:04:50Z</time></trkpt>
<trkpt lat="43.2342820000" lon="-1.1011570000"><ele>186</ele><time>2026-04-24T11:04:52Z</time></trkpt>
<trkpt lat="43.2342720000" lon="-1.1011300000"><ele>186</ele><time>2026-04-24T11:04:54Z</time></trkpt>
<trkpt lat="43.2342620000" lon="-1.1011020000"><ele>186</ele><time>2026-04-24T11:04:56Z</time></trkpt>
<trkpt lat="43.2342520000" lon="-1.1010620000"><ele>186</ele><time>2026-04-24T11:04:58Z</time></trkpt>
<trkpt lat="43.2342450000" lon="-1.1010350000"><ele>186</ele><time>2026-04-24T11:05:00Z</time></trkpt>
<trkpt lat="43.2342320000" lon="-1.1010120000"><ele>186</ele><time>2026-04-24T11:05:02Z</time></trkpt>
<trkpt lat="43.2342170000" lon="-1.1009870000"><ele>185</ele><time>2026-04-24T11:05:04Z</time></trkpt>
<trkpt lat="43.2341970000" lon="-1.1009570000"><ele>185</ele><time>2026-04-24T11:05:06Z</time></trkpt>
<trkpt lat="43.2341820000" lon="-1.1009270000"><ele>185</ele><time>2026-04-24T11:05:08Z</time></trkpt>
<trkpt lat="43.2341670000" lon="-1.1009050000"><ele>185</ele><time>2026-04-24T11:05:10Z</time></trkpt>
<trkpt lat="43.2341570000" lon="-1.1008770000"><ele>185</ele><time>2026-04-24T11:05:12Z</time></trkpt>
<trkpt lat="43.2341520000" lon="-1.1008420000"><ele>185</ele><time>2026-04-24T11:05:14Z</time></trkpt>
<trkpt lat="43.2341400000" lon="-1.1008120000"><ele>185</ele><time>2026-04-24T11:05:16Z</time></trkpt>
<trkpt lat="43.2341320000" lon="-1.1007820000"><ele>185</ele><time>2026-04-24T11:05:18Z</time></trkpt>
<trkpt lat="43.2341220000" lon="-1.1007520000"><ele>185</ele><time>2026-04-24T11:05:20Z</time></trkpt>
<trkpt lat="43.2341070000" lon="-1.1007220000"><ele>185</ele><time>2026-04-24T11:05:23Z</time></trkpt>
<trkpt lat="43.2341000000" lon="-1.1006920000"><ele>185</ele><time>2026-04-24T11:05:25Z</time></trkpt>
<trkpt lat="43.2340900000" lon="-1.1006700000"><ele>185</ele><time>2026-04-24T11:05:27Z</time></trkpt>
<trkpt lat="43.2340770000" lon="-1.1006420000"><ele>184</ele><time>2026-04-24T11:05:29Z</time></trkpt>
<trkpt lat="43.2340620000" lon="-1.1006170000"><ele>184</ele><time>2026-04-24T11:05:31Z</time></trkpt>
<trkpt lat="43.2340470000" lon="-1.1005850000"><ele>184</ele><time>2026-04-24T11:05:33Z</time></trkpt>
<trkpt lat="43.2340320000" lon="-1.1005520000"><ele>184</ele><time>2026-04-24T11:05:35Z</time></trkpt>
<trkpt lat="43.2340150000" lon="-1.1005270000"><ele>184</ele><time>2026-04-24T11:05:37Z</time></trkpt>
<trkpt lat="43.2340000000" lon="-1.1005020000"><ele>184</ele><time>2026-04-24T11:05:39Z</time></trkpt>
<trkpt lat="43.2339870000" lon="-1.1004750000"><ele>184</ele><time>2026-04-24T11:05:42Z</time></trkpt>
<trkpt lat="43.2339770000" lon="-1.1004500000"><ele>183</ele><time>2026-04-24T11:05:45Z</time></trkpt>
<trkpt lat="43.2339670000" lon="-1.1004250000"><ele>183</ele><time>2026-04-24T11:05:47Z</time></trkpt>
<trkpt lat="43.2339500000" lon="-1.1004050000"><ele>183</ele><time>2026-04-24T11:05:49Z</time></trkpt>
<trkpt lat="43.2339320000" lon="-1.1003770000"><ele>183</ele><time>2026-04-24T11:05:51Z</time></trkpt>
<trkpt lat="43.2339170000" lon="-1.1003670000"><ele>183</ele><time>2026-04-24T11:05:53Z</time></trkpt>
<trkpt lat="43.2339100000" lon="-1.1003950000"><ele>183</ele><time>2026-04-24T11:05:56Z</time></trkpt>
<trkpt lat="43.2339300000" lon="-1.1003820000"><ele>183</ele><time>2026-04-24T11:06:04Z</time></trkpt>
<trkpt lat="43.2339470000" lon="-1.1003570000"><ele>183</ele><time>2026-04-24T11:06:06Z</time></trkpt>
<trkpt lat="43.2339620000" lon="-1.1003320000"><ele>183</ele><time>2026-04-24T11:06:08Z</time></trkpt>
<trkpt lat="43.2339700000" lon="-1.1003070000"><ele>183</ele><time>2026-04-24T11:06:10Z</time></trkpt>
<trkpt lat="43.2339870000" lon="-1.1002870000"><ele>183</ele><time>2026-04-24T11:06:12Z</time></trkpt>
<trkpt lat="43.2340020000" lon="-1.1002670000"><ele>183</ele><time>2026-04-24T11:06:14Z</time></trkpt>
<trkpt lat="43.2340120000" lon="-1.1002370000"><ele>183</ele><time>2026-04-24T11:06:16Z</time></trkpt>
<trkpt lat="43.2340300000" lon="-1.1002170000"><ele>183</ele><time>2026-04-24T11:06:18Z</time></trkpt>
<trkpt lat="43.2340470000" lon="-1.1001950000"><ele>183</ele><time>2026-04-24T11:06:20Z</time></trkpt>
<trkpt lat="43.2340650000" lon="-1.1001700000"><ele>183</ele><time>2026-04-24T11:06:22Z</time></trkpt>
<trkpt lat="43.2340770000" lon="-1.1001500000"><ele>183</ele><time>2026-04-24T11:06:24Z</time></trkpt>
<trkpt lat="43.2341000000" lon="-1.1001250000"><ele>183</ele><time>2026-04-24T11:06:27Z</time></trkpt>
<trkpt lat="43.2341170000" lon="-1.1001000000"><ele>183</ele><time>2026-04-24T11:06:29Z</time></trkpt>
<trkpt lat="43.2341420000" lon="-1.1000770000"><ele>182</ele><time>2026-04-24T11:06:31Z</time></trkpt>
<trkpt lat="43.2341620000" lon="-1.1000570000"><ele>183</ele><time>2026-04-24T11:06:33Z</time></trkpt>
<trkpt lat="43.2341820000" lon="-1.1000350000"><ele>183</ele><time>2026-04-24T11:06:35Z</time></trkpt>
<trkpt lat="43.2342070000" lon="-1.1000170000"><ele>183</ele><time>2026-04-24T11:06:37Z</time></trkpt>
<trkpt lat="43.2342270000" lon="-1.0999970000"><ele>183</ele><time>2026-04-24T11:06:39Z</time></trkpt>
<trkpt lat="43.2342370000" lon="-1.0999700000"><ele>183</ele><time>2026-04-24T11:06:41Z</time></trkpt>
<trkpt lat="43.2342570000" lon="-1.0999420000"><ele>183</ele><time>2026-04-24T11:06:43Z</time></trkpt>
<trkpt lat="43.2342800000" lon="-1.0999170000"><ele>183</ele><time>2026-04-24T11:06:45Z</time></trkpt>
<trkpt lat="43.2343070000" lon="-1.0998970000"><ele>183</ele><time>2026-04-24T11:06:47Z</time></trkpt>
<trkpt lat="43.2343270000" lon="-1.0998750000"><ele>183</ele><time>2026-04-24T11:06:49Z</time></trkpt>
<trkpt lat="43.2343430000" lon="-1.0998470000"><ele>183</ele><time>2026-04-24T11:06:51Z</time></trkpt>
<trkpt lat="43.2343600000" lon="-1.0998320000"><ele>183</ele><time>2026-04-24T11:06:53Z</time></trkpt>
<trkpt lat="43.2343750000" lon="-1.0998170000"><ele>183</ele><time>2026-04-24T11:06:55Z</time></trkpt>
<trkpt lat="43.2343870000" lon="-1.0998000000"><ele>183</ele><time>2026-04-24T11:06:57Z</time></trkpt>
<trkpt lat="43.2344020000" lon="-1.0997620000"><ele>182</ele><time>2026-04-24T11:07:00Z</time></trkpt>
<trkpt lat="43.2344170000" lon="-1.0997370000"><ele>182</ele><time>2026-04-24T11:07:02Z</time></trkpt>
<trkpt lat="43.2344270000" lon="-1.0996970000"><ele>182</ele><time>2026-04-24T11:07:04Z</time></trkpt>
<trkpt lat="43.2344370000" lon="-1.0996570000"><ele>182</ele><time>2026-04-24T11:07:06Z</time></trkpt>
<trkpt lat="43.2344600000" lon="-1.0996300000"><ele>182</ele><time>2026-04-24T11:07:08Z</time></trkpt>
<trkpt lat="43.2344750000" lon="-1.0996120000"><ele>182</ele><time>2026-04-24T11:07:09Z</time></trkpt>
<trkpt lat="43.2344920000" lon="-1.0995820000"><ele>182</ele><time>2026-04-24T11:07:11Z</time></trkpt>
<trkpt lat="43.2345070000" lon="-1.0995600000"><ele>182</ele><time>2026-04-24T11:07:13Z</time></trkpt>
<trkpt lat="43.2345220000" lon="-1.0995350000"><ele>182</ele><time>2026-04-24T11:07:15Z</time></trkpt>
<trkpt lat="43.2345370000" lon="-1.0995100000"><ele>182</ele><time>2026-04-24T11:07:17Z</time></trkpt>
<trkpt lat="43.2345550000" lon="-1.0994920000"><ele>182</ele><time>2026-04-24T11:07:19Z</time></trkpt>
<trkpt lat="43.2345770000" lon="-1.0994750000"><ele>182</ele><time>2026-04-24T11:07:21Z</time></trkpt>
<trkpt lat="43.2345970000" lon="-1.0994570000"><ele>182</ele><time>2026-04-24T11:07:23Z</time></trkpt>
<trkpt lat="43.2346100000" lon="-1.0994250000"><ele>182</ele><time>2026-04-24T11:07:25Z</time></trkpt>
<trkpt lat="43.2346170000" lon="-1.0993870000"><ele>182</ele><time>2026-04-24T11:07:27Z</time></trkpt>
<trkpt lat="43.2346250000" lon="-1.0993550000"><ele>182</ele><time>2026-04-24T11:07:29Z</time></trkpt>
<trkpt lat="43.2346420000" lon="-1.0993220000"><ele>182</ele><time>2026-04-24T11:07:31Z</time></trkpt>
<trkpt lat="43.2346500000" lon="-1.0992950000"><ele>182</ele><time>2026-04-24T11:07:33Z</time></trkpt>
<trkpt lat="43.2346620000" lon="-1.0992550000"><ele>182</ele><time>2026-04-24T11:07:35Z</time></trkpt>
<trkpt lat="43.2346670000" lon="-1.0992270000"><ele>182</ele><time>2026-04-24T11:07:37Z</time></trkpt>
<trkpt lat="43.2346700000" lon="-1.0992020000"><ele>182</ele><time>2026-04-24T11:07:39Z</time></trkpt>
<trkpt lat="43.2346700000" lon="-1.0991750000"><ele>182</ele><time>2026-04-24T11:07:41Z</time></trkpt>
<trkpt lat="43.2346820000" lon="-1.0991450000"><ele>182</ele><time>2026-04-24T11:07:43Z</time></trkpt>
<trkpt lat="43.2346920000" lon="-1.0991120000"><ele>182</ele><time>2026-04-24T11:07:45Z</time></trkpt>
<trkpt lat="43.2347070000" lon="-1.0990770000"><ele>182</ele><time>2026-04-24T11:07:47Z</time></trkpt>
<trkpt lat="43.2347100000" lon="-1.0990400000"><ele>182</ele><time>2026-04-24T11:07:49Z</time></trkpt>
<trkpt lat="43.2347150000" lon="-1.0990070000"><ele>182</ele><time>2026-04-24T11:07:51Z</time></trkpt>
<trkpt lat="43.2347150000" lon="-1.0989770000"><ele>182</ele><time>2026-04-24T11:07:53Z</time></trkpt>
<trkpt lat="43.2347150000" lon="-1.0989470000"><ele>182</ele><time>2026-04-24T11:07:55Z</time></trkpt>
<trkpt lat="43.2347100000" lon="-1.0989050000"><ele>182</ele><time>2026-04-24T11:07:57Z</time></trkpt>
<trkpt lat="43.2347020000" lon="-1.0988700000"><ele>182</ele><time>2026-04-24T11:07:59Z</time></trkpt>
<trkpt lat="43.2346970000" lon="-1.0988370000"><ele>182</ele><time>2026-04-24T11:08:01Z</time></trkpt>
<trkpt lat="43.2346920000" lon="-1.0987970000"><ele>182</ele><time>2026-04-24T11:08:03Z</time></trkpt>
<trkpt lat="43.2346870000" lon="-1.0987620000"><ele>182</ele><time>2026-04-24T11:08:05Z</time></trkpt>
<trkpt lat="43.2346870000" lon="-1.0987300000"><ele>182</ele><time>2026-04-24T11:08:07Z</time></trkpt>
<trkpt lat="43.2346770000" lon="-1.0987020000"><ele>181</ele><time>2026-04-24T11:08:09Z</time></trkpt>
<trkpt lat="43.2346650000" lon="-1.0986720000"><ele>181</ele><time>2026-04-24T11:08:11Z</time></trkpt>
<trkpt lat="43.2346570000" lon="-1.0986470000"><ele>181</ele><time>2026-04-24T11:08:13Z</time></trkpt>
<trkpt lat="43.2346470000" lon="-1.0986070000"><ele>181</ele><time>2026-04-24T11:08:15Z</time></trkpt>
<trkpt lat="43.2346400000" lon="-1.0985670000"><ele>181</ele><time>2026-04-24T11:08:17Z</time></trkpt>
<trkpt lat="43.2346420000" lon="-1.0985250000"><ele>181</ele><time>2026-04-24T11:08:19Z</time></trkpt>
<trkpt lat="43.2346420000" lon="-1.0984870000"><ele>180</ele><time>2026-04-24T11:08:21Z</time></trkpt>
<trkpt lat="43.2346420000" lon="-1.0984500000"><ele>180</ele><time>2026-04-24T11:08:23Z</time></trkpt>
<trkpt lat="43.2346420000" lon="-1.0984150000"><ele>180</ele><time>2026-04-24T11:08:25Z</time></trkpt>
<trkpt lat="43.2346420000" lon="-1.0983850000"><ele>180</ele><time>2026-04-24T11:08:27Z</time></trkpt>
<trkpt lat="43.2346400000" lon="-1.0983520000"><ele>180</ele><time>2026-04-24T11:08:29Z</time></trkpt>
<trkpt lat="43.2346370000" lon="-1.0983170000"><ele>180</ele><time>2026-04-24T11:08:31Z</time></trkpt>
<trkpt lat="43.2346350000" lon="-1.0982820000"><ele>180</ele><time>2026-04-24T11:08:33Z</time></trkpt>
<trkpt lat="43.2346420000" lon="-1.0982520000"><ele>180</ele><time>2026-04-24T11:08:35Z</time></trkpt>
<trkpt lat="43.2346450000" lon="-1.0982250000"><ele>180</ele><time>2026-04-24T11:08:37Z</time></trkpt>
<trkpt lat="43.2346450000" lon="-1.0981920000"><ele>180</ele><time>2026-04-24T11:08:39Z</time></trkpt>
<trkpt lat="43.2346320000" lon="-1.0981670000"><ele>180</ele><time>2026-04-24T11:08:41Z</time></trkpt>
<trkpt lat="43.2346200000" lon="-1.0981420000"><ele>180</ele><time>2026-04-24T11:08:43Z</time></trkpt>
<trkpt lat="43.2346070000" lon="-1.0981170000"><ele>180</ele><time>2026-04-24T11:08:45Z</time></trkpt>
<trkpt lat="43.2346020000" lon="-1.0980870000"><ele>180</ele><time>2026-04-24T11:08:47Z</time></trkpt>
<trkpt lat="43.2346020000" lon="-1.0980550000"><ele>179</ele><time>2026-04-24T11:08:49Z</time></trkpt>
<trkpt lat="43.2346000000" lon="-1.0980170000"><ele>179</ele><time>2026-04-24T11:08:51Z</time></trkpt>
<trkpt lat="43.2345970000" lon="-1.0979870000"><ele>179</ele><time>2026-04-24T11:08:53Z</time></trkpt>
<trkpt lat="43.2345970000" lon="-1.0979520000"><ele>179</ele><time>2026-04-24T11:08:55Z</time></trkpt>
<trkpt lat="43.2345970000" lon="-1.0979170000"><ele>179</ele><time>2026-04-24T11:08:57Z</time></trkpt>
<trkpt lat="43.2346020000" lon="-1.0978820000"><ele>179</ele><time>2026-04-24T11:08:59Z</time></trkpt>
<trkpt lat="43.2346020000" lon="-1.0978520000"><ele>179</ele><time>2026-04-24T11:09:01Z</time></trkpt>
<trkpt lat="43.2346020000" lon="-1.0978200000"><ele>179</ele><time>2026-04-24T11:09:03Z</time></trkpt>
<trkpt lat="43.2346000000" lon="-1.0977820000"><ele>179</ele><time>2026-04-24T11:09:05Z</time></trkpt>
<trkpt lat="43.2345970000" lon="-1.0977520000"><ele>178</ele><time>2026-04-24T11:09:07Z</time></trkpt>
<trkpt lat="43.2345920000" lon="-1.0977170000"><ele>178</ele><time>2026-04-24T11:09:09Z</time></trkpt>
<trkpt lat="43.2345870000" lon="-1.0976820000"><ele>178</ele><time>2026-04-24T11:09:11Z</time></trkpt>
<trkpt lat="43.2345850000" lon="-1.0976520000"><ele>178</ele><time>2026-04-24T11:09:13Z</time></trkpt>
<trkpt lat="43.2345820000" lon="-1.0976170000"><ele>178</ele><time>2026-04-24T11:09:15Z</time></trkpt>
<trkpt lat="43.2345770000" lon="-1.0975870000"><ele>178</ele><time>2026-04-24T11:09:17Z</time></trkpt>
<trkpt lat="43.2345750000" lon="-1.0975620000"><ele>178</ele><time>2026-04-24T11:09:19Z</time></trkpt>
<trkpt lat="43.2345670000" lon="-1.0975320000"><ele>178</ele><time>2026-04-24T11:09:21Z</time></trkpt>
<trkpt lat="43.2345620000" lon="-1.0975070000"><ele>178</ele><time>2026-04-24T11:09:23Z</time></trkpt>
<trkpt lat="43.2345570000" lon="-1.0974770000"><ele>178</ele><time>2026-04-24T11:09:25Z</time></trkpt>
<trkpt lat="43.2345570000" lon="-1.0974450000"><ele>177</ele><time>2026-04-24T11:09:27Z</time></trkpt>
<trkpt lat="43.2345570000" lon="-1.0974120000"><ele>177</ele><time>2026-04-24T11:09:29Z</time></trkpt>
<trkpt lat="43.2345520000" lon="-1.0973850000"><ele>177</ele><time>2026-04-24T11:09:31Z</time></trkpt>
<trkpt lat="43.2345470000" lon="-1.0973550000"><ele>177</ele><time>2026-04-24T11:09:33Z</time></trkpt>
<trkpt lat="43.2345420000" lon="-1.0973250000"><ele>177</ele><time>2026-04-24T11:09:35Z</time></trkpt>
<trkpt lat="43.2345350000" lon="-1.0972950000"><ele>177</ele><time>2026-04-24T11:09:37Z</time></trkpt>
<trkpt lat="43.2345300000" lon="-1.0972550000"><ele>177</ele><time>2026-04-24T11:09:39Z</time></trkpt>
<trkpt lat="43.2345220000" lon="-1.0972120000"><ele>177</ele><time>2026-04-24T11:09:41Z</time></trkpt>
<trkpt lat="43.2345220000" lon="-1.0971720000"><ele>177</ele><time>2026-04-24T11:09:43Z</time></trkpt>
<trkpt lat="43.2345170000" lon="-1.0971420000"><ele>177</ele><time>2026-04-24T11:09:45Z</time></trkpt>
<trkpt lat="43.2345120000" lon="-1.0971120000"><ele>177</ele><time>2026-04-24T11:09:47Z</time></trkpt>
<trkpt lat="43.2345050000" lon="-1.0970820000"><ele>176</ele><time>2026-04-24T11:09:49Z</time></trkpt>
<trkpt lat="43.2345020000" lon="-1.0970570000"><ele>176</ele><time>2026-04-24T11:09:51Z</time></trkpt>
<trkpt lat="43.2344980000" lon="-1.0970270000"><ele>176</ele><time>2026-04-24T11:09:53Z</time></trkpt>
<trkpt lat="43.2344980000" lon="-1.0969970000"><ele>176</ele><time>2026-04-24T11:09:55Z</time></trkpt>
<trkpt lat="43.2344980000" lon="-1.0969670000"><ele>176</ele><time>2026-04-24T11:09:57Z</time></trkpt>
<trkpt lat="43.2344970000" lon="-1.0969370000"><ele>176</ele><time>2026-04-24T11:09:59Z</time></trkpt>
<trkpt lat="43.2344920000" lon="-1.0969070000"><ele>176</ele><time>2026-04-24T11:10:01Z</time></trkpt>
<trkpt lat="43.2344920000" lon="-1.0968770000"><ele>176</ele><time>2026-04-24T11:10:03Z</time></trkpt>
<trkpt lat="43.2345020000" lon="-1.0968370000"><ele>175</ele><time>2026-04-24T11:10:16Z</time></trkpt>
<trkpt lat="43.2345070000" lon="-1.0967920000"><ele>175</ele><time>2026-04-24T11:10:18Z</time></trkpt>
<trkpt lat="43.2345070000" lon="-1.0967500000"><ele>175</ele><time>2026-04-24T11:10:20Z</time></trkpt>
<trkpt lat="43.2345070000" lon="-1.0967150000"><ele>175</ele><time>2026-04-24T11:10:22Z</time></trkpt>
<trkpt lat="43.2345070000" lon="-1.0966820000"><ele>175</ele><time>2026-04-24T11:10:24Z</time></trkpt>
<trkpt lat="43.2345120000" lon="-1.0966520000"><ele>175</ele><time>2026-04-24T11:10:26Z</time></trkpt>
<trkpt lat="43.2345170000" lon="-1.0966220000"><ele>175</ele><time>2026-04-24T11:10:28Z</time></trkpt>
<trkpt lat="43.2345150000" lon="-1.0965870000"><ele>174</ele><time>2026-04-24T11:10:30Z</time></trkpt>
<trkpt lat="43.2345120000" lon="-1.0965570000"><ele>174</ele><time>2026-04-24T11:10:32Z</time></trkpt>
<trkpt lat="43.2345170000" lon="-1.0965270000"><ele>174</ele><time>2026-04-24T11:10:34Z</time></trkpt>
<trkpt lat="43.2345170000" lon="-1.0964970000"><ele>174</ele><time>2026-04-24T11:10:36Z</time></trkpt>
<trkpt lat="43.2345170000" lon="-1.0964650000"><ele>174</ele><time>2026-04-24T11:10:38Z</time></trkpt>
<trkpt lat="43.2345170000" lon="-1.0964320000"><ele>173</ele><time>2026-04-24T11:10:40Z</time></trkpt>
<trkpt lat="43.2345170000" lon="-1.0964070000"><ele>173</ele><time>2026-04-24T11:10:42Z</time></trkpt>
<trkpt lat="43.2345320000" lon="-1.0963770000"><ele>173</ele><time>2026-04-24T11:10:44Z</time></trkpt>
<trkpt lat="43.2345370000" lon="-1.0963470000"><ele>173</ele><time>2026-04-24T11:10:46Z</time></trkpt>
<trkpt lat="43.2345270000" lon="-1.0963130000"><ele>173</ele><time>2026-04-24T11:10:49Z</time></trkpt>
<trkpt lat="43.2345220000" lon="-1.0962850000"><ele>173</ele><time>2026-04-24T11:10:51Z</time></trkpt>
<trkpt lat="43.2345020000" lon="-1.0962600000"><ele>172</ele><time>2026-04-24T11:10:53Z</time></trkpt>
<trkpt lat="43.2344770000" lon="-1.0962350000"><ele>172</ele><time>2026-04-24T11:10:55Z</time></trkpt>
<trkpt lat="43.2344670000" lon="-1.0962020000"><ele>172</ele><time>2026-04-24T11:10:57Z</time></trkpt>
<trkpt lat="43.2344520000" lon="-1.0961720000"><ele>171</ele><time>2026-04-24T11:10:59Z</time></trkpt>
<trkpt lat="43.2344370000" lon="-1.0961470000"><ele>171</ele><time>2026-04-24T11:11:01Z</time></trkpt>
<trkpt lat="43.2344220000" lon="-1.0961220000"><ele>171</ele><time>2026-04-24T11:11:03Z</time></trkpt>
<trkpt lat="43.2344100000" lon="-1.0960970000"><ele>170</ele><time>2026-04-24T11:11:05Z</time></trkpt>
<trkpt lat="43.2343970000" lon="-1.0960670000"><ele>170</ele><time>2026-04-24T11:11:07Z</time></trkpt>
<trkpt lat="43.2343900000" lon="-1.0960420000"><ele>170</ele><time>2026-04-24T11:11:09Z</time></trkpt>
<trkpt lat="43.2343870000" lon="-1.0960120000"><ele>169</ele><time>2026-04-24T11:11:12Z</time></trkpt>
<trkpt lat="43.2343970000" lon="-1.0959920000"><ele>169</ele><time>2026-04-24T11:11:14Z</time></trkpt>
<trkpt lat="43.2344120000" lon="-1.0959720000"><ele>169</ele><time>2026-04-24T11:11:16Z</time></trkpt>
<trkpt lat="43.2344220000" lon="-1.0959520000"><ele>168</ele><time>2026-04-24T11:11:18Z</time></trkpt>
<trkpt lat="43.2344370000" lon="-1.0959370000"><ele>168</ele><time>2026-04-24T11:11:20Z</time></trkpt>
<trkpt lat="43.2344570000" lon="-1.0959170000"><ele>167</ele><time>2026-04-24T11:11:22Z</time></trkpt>
<trkpt lat="43.2344750000" lon="-1.0958920000"><ele>167</ele><time>2026-04-24T11:11:24Z</time></trkpt>
<trkpt lat="43.2344920000" lon="-1.0958720000"><ele>167</ele><time>2026-04-24T11:11:26Z</time></trkpt>
<trkpt lat="43.2345070000" lon="-1.0958520000"><ele>167</ele><time>2026-04-24T11:11:28Z</time></trkpt>
<trkpt lat="43.2345200000" lon="-1.0958320000"><ele>167</ele><time>2026-04-24T11:11:30Z</time></trkpt>
<trkpt lat="43.2345420000" lon="-1.0957970000"><ele>166</ele><time>2026-04-24T11:11:32Z</time></trkpt>
<trkpt lat="43.2345470000" lon="-1.0957620000"><ele>166</ele><time>2026-04-24T11:11:34Z</time></trkpt>
<trkpt lat="43.2345600000" lon="-1.0957220000"><ele>166</ele><time>2026-04-24T11:11:36Z</time></trkpt>
<trkpt lat="43.2345670000" lon="-1.0956900000"><ele>166</ele><time>2026-04-24T11:11:38Z</time></trkpt>
<trkpt lat="43.2345770000" lon="-1.0956620000"><ele>166</ele><time>2026-04-24T11:11:40Z</time></trkpt>
<trkpt lat="43.2345870000" lon="-1.0956270000"><ele>166</ele><time>2026-04-24T11:11:42Z</time></trkpt>
<trkpt lat="43.2345950000" lon="-1.0955950000"><ele>166</ele><time>2026-04-24T11:11:44Z</time></trkpt>
<trkpt lat="43.2345970000" lon="-1.0955620000"><ele>166</ele><time>2026-04-24T11:11:46Z</time></trkpt>
<trkpt lat="43.2346000000" lon="-1.0955270000"><ele>166</ele><time>2026-04-24T11:11:48Z</time></trkpt>
<trkpt lat="43.2346050000" lon="-1.0954970000"><ele>166</ele><time>2026-04-24T11:11:50Z</time></trkpt>
<trkpt lat="43.2346120000" lon="-1.0954720000"><ele>166</ele><time>2026-04-24T11:11:52Z</time></trkpt>
<trkpt lat="43.2346170000" lon="-1.0954400000"><ele>166</ele><time>2026-04-24T11:11:55Z</time></trkpt>
<trkpt lat="43.2346220000" lon="-1.0954100000"><ele>166</ele><time>2026-04-24T11:11:57Z</time></trkpt>
<trkpt lat="43.2346270000" lon="-1.0953820000"><ele>165</ele><time>2026-04-24T11:11:59Z</time></trkpt>
<trkpt lat="43.2346270000" lon="-1.0953470000"><ele>166</ele><time>2026-04-24T11:12:01Z</time></trkpt>
<trkpt lat="43.2346300000" lon="-1.0953120000"><ele>166</ele><time>2026-04-24T11:12:03Z</time></trkpt>
<trkpt lat="43.2346420000" lon="-1.0952750000"><ele>166</ele><time>2026-04-24T11:12:05Z</time></trkpt>
<trkpt lat="43.2346500000" lon="-1.0952420000"><ele>166</ele><time>2026-04-24T11:12:07Z</time></trkpt>
<trkpt lat="43.2346600000" lon="-1.0952070000"><ele>166</ele><time>2026-04-24T11:12:09Z</time></trkpt>
<trkpt lat="43.2346620000" lon="-1.0951750000"><ele>166</ele><time>2026-04-24T11:12:11Z</time></trkpt>
<trkpt lat="43.2346700000" lon="-1.0951420000"><ele>166</ele><time>2026-04-24T11:12:13Z</time></trkpt>
<trkpt lat="43.2346720000" lon="-1.0951150000"><ele>166</ele><time>2026-04-24T11:12:15Z</time></trkpt>
<trkpt lat="43.2346820000" lon="-1.0950870000"><ele>166</ele><time>2026-04-24T11:12:17Z</time></trkpt>
<trkpt lat="43.2346900000" lon="-1.0950620000"><ele>166</ele><time>2026-04-24T11:12:19Z</time></trkpt>
<trkpt lat="43.2347000000" lon="-1.0950350000"><ele>165</ele><time>2026-04-24T11:12:21Z</time></trkpt>
<trkpt lat="43.2347050000" lon="-1.0950070000"><ele>165</ele><time>2026-04-24T11:12:23Z</time></trkpt>
<trkpt lat="43.2347150000" lon="-1.0949770000"><ele>166</ele><time>2026-04-24T11:12:25Z</time></trkpt>
<trkpt lat="43.2347220000" lon="-1.0949520000"><ele>165</ele><time>2026-04-24T11:12:27Z</time></trkpt>
<trkpt lat="43.2347370000" lon="-1.0949230000"><ele>165</ele><time>2026-04-24T11:12:29Z</time></trkpt>
<trkpt lat="43.2347450000" lon="-1.0948970000"><ele>165</ele><time>2026-04-24T11:12:31Z</time></trkpt>
<trkpt lat="43.2347550000" lon="-1.0948720000"><ele>165</ele><time>2026-04-24T11:12:33Z</time></trkpt>
<trkpt lat="43.2347620000" lon="-1.0948470000"><ele>165</ele><time>2026-04-24T11:12:35Z</time></trkpt>
<trkpt lat="43.2347720000" lon="-1.0948170000"><ele>165</ele><time>2026-04-24T11:12:37Z</time></trkpt>
<trkpt lat="43.2347850000" lon="-1.0947920000"><ele>165</ele><time>2026-04-24T11:12:39Z</time></trkpt>
<trkpt lat="43.2348000000" lon="-1.0947700000"><ele>165</ele><time>2026-04-24T11:12:41Z</time></trkpt>
<trkpt lat="43.2348120000" lon="-1.0947470000"><ele>165</ele><time>2026-04-24T11:12:43Z</time></trkpt>
<trkpt lat="43.2348270000" lon="-1.0947200000"><ele>165</ele><time>2026-04-24T11:12:45Z</time></trkpt>
<trkpt lat="43.2348470000" lon="-1.0946950000"><ele>165</ele><time>2026-04-24T11:12:47Z</time></trkpt>
<trkpt lat="43.2348570000" lon="-1.0946720000"><ele>165</ele><time>2026-04-24T11:12:49Z</time></trkpt>
<trkpt lat="43.2348720000" lon="-1.0946500000"><ele>165</ele><time>2026-04-24T11:12:53Z</time></trkpt>
<trkpt lat="43.2348850000" lon="-1.0946270000"><ele>165</ele><time>2026-04-24T11:12:55Z</time></trkpt>
<trkpt lat="43.2349020000" lon="-1.0946020000"><ele>165</ele><time>2026-04-24T11:12:57Z</time></trkpt>
<trkpt lat="43.2349120000" lon="-1.0945720000"><ele>165</ele><time>2026-04-24T11:12:59Z</time></trkpt>
<trkpt lat="43.2349220000" lon="-1.0945450000"><ele>165</ele><time>2026-04-24T11:13:01Z</time></trkpt>
<trkpt lat="43.2349250000" lon="-1.0945120000"><ele>165</ele><time>2026-04-24T11:13:04Z</time></trkpt>
<trkpt lat="43.2349350000" lon="-1.0944870000"><ele>165</ele><time>2026-04-24T11:13:06Z</time></trkpt>
<trkpt lat="43.2349520000" lon="-1.0944670000"><ele>165</ele><time>2026-04-24T11:13:08Z</time></trkpt>
<trkpt lat="43.2349670000" lon="-1.0944470000"><ele>165</ele><time>2026-04-24T11:13:10Z</time></trkpt>
<trkpt lat="43.2349850000" lon="-1.0944270000"><ele>164</ele><time>2026-04-24T11:13:12Z</time></trkpt>
<trkpt lat="43.2350000000" lon="-1.0944050000"><ele>164</ele><time>2026-04-24T11:13:14Z</time></trkpt>
<trkpt lat="43.2350170000" lon="-1.0943800000"><ele>164</ele><time>2026-04-24T11:13:16Z</time></trkpt>
<trkpt lat="43.2350450000" lon="-1.0943520000"><ele>163</ele><time>2026-04-24T11:13:18Z</time></trkpt>
<trkpt lat="43.2350650000" lon="-1.0943270000"><ele>163</ele><time>2026-04-24T11:13:20Z</time></trkpt>
<trkpt lat="43.2350850000" lon="-1.0943050000"><ele>163</ele><time>2026-04-24T11:13:22Z</time></trkpt>
<trkpt lat="43.2351000000" lon="-1.0942800000"><ele>162</ele><time>2026-04-24T11:13:24Z</time></trkpt>
<trkpt lat="43.2351170000" lon="-1.0942570000"><ele>162</ele><time>2026-04-24T11:13:26Z</time></trkpt>
<trkpt lat="43.2351320000" lon="-1.0942320000"><ele>162</ele><time>2026-04-24T11:13:28Z</time></trkpt>
<trkpt lat="43.2351520000" lon="-1.0942120000"><ele>162</ele><time>2026-04-24T11:13:30Z</time></trkpt>
<trkpt lat="43.2351730000" lon="-1.0941950000"><ele>161</ele><time>2026-04-24T11:13:32Z</time></trkpt>
<trkpt lat="43.2351900000" lon="-1.0941700000"><ele>161</ele><time>2026-04-24T11:13:34Z</time></trkpt>
<trkpt lat="43.2352020000" lon="-1.0941470000"><ele>161</ele><time>2026-04-24T11:13:36Z</time></trkpt>
<trkpt lat="43.2352270000" lon="-1.0941220000"><ele>161</ele><time>2026-04-24T11:13:38Z</time></trkpt>
<trkpt lat="43.2352450000" lon="-1.0940970000"><ele>161</ele><time>2026-04-24T11:13:40Z</time></trkpt>
<trkpt lat="43.2352620000" lon="-1.0940700000"><ele>161</ele><time>2026-04-24T11:13:42Z</time></trkpt>
<trkpt lat="43.2352770000" lon="-1.0940450000"><ele>161</ele><time>2026-04-24T11:13:44Z</time></trkpt>
<trkpt lat="43.2352900000" lon="-1.0940170000"><ele>161</ele><time>2026-04-24T11:13:46Z</time></trkpt>
<trkpt lat="43.2353070000" lon="-1.0939970000"><ele>161</ele><time>2026-04-24T11:13:48Z</time></trkpt>
<trkpt lat="43.2353170000" lon="-1.0939720000"><ele>161</ele><time>2026-04-24T11:13:50Z</time></trkpt>
<trkpt lat="43.2353320000" lon="-1.0939470000"><ele>161</ele><time>2026-04-24T11:13:52Z</time></trkpt>
<trkpt lat="43.2353370000" lon="-1.0939170000"><ele>161</ele><time>2026-04-24T11:13:54Z</time></trkpt>
<trkpt lat="43.2353470000" lon="-1.0938920000"><ele>161</ele><time>2026-04-24T11:13:56Z</time></trkpt>
<trkpt lat="43.2353570000" lon="-1.0938600000"><ele>161</ele><time>2026-04-24T11:13:58Z</time></trkpt>
<trkpt lat="43.2353700000" lon="-1.0938320000"><ele>161</ele><time>2026-04-24T11:14:00Z</time></trkpt>
<trkpt lat="43.2353870000" lon="-1.0938030000"><ele>161</ele><time>2026-04-24T11:14:02Z</time></trkpt>
<trkpt lat="43.2353980000" lon="-1.0937800000"><ele>161</ele><time>2026-04-24T11:14:04Z</time></trkpt>
<trkpt lat="43.2354100000" lon="-1.0937500000"><ele>161</ele><time>2026-04-24T11:14:06Z</time></trkpt>
<trkpt lat="43.2354220000" lon="-1.0937220000"><ele>161</ele><time>2026-04-24T11:14:08Z</time></trkpt>
<trkpt lat="43.2354400000" lon="-1.0937020000"><ele>161</ele><time>2026-04-24T11:14:10Z</time></trkpt>
<trkpt lat="43.2354550000" lon="-1.0936720000"><ele>161</ele><time>2026-04-24T11:14:12Z</time></trkpt>
<trkpt lat="43.2354720000" lon="-1.0936420000"><ele>161</ele><time>2026-04-24T11:14:14Z</time></trkpt>
<trkpt lat="43.2354970000" lon="-1.0936100000"><ele>161</ele><time>2026-04-24T11:14:16Z</time></trkpt>
<trkpt lat="43.2355170000" lon="-1.0935820000"><ele>162</ele><time>2026-04-24T11:14:18Z</time></trkpt>
<trkpt lat="43.2355370000" lon="-1.0935570000"><ele>162</ele><time>2026-04-24T11:14:20Z</time></trkpt>
<trkpt lat="43.2355500000" lon="-1.0935270000"><ele>162</ele><time>2026-04-24T11:14:22Z</time></trkpt>
<trkpt lat="43.2355600000" lon="-1.0935020000"><ele>162</ele><time>2026-04-24T11:14:24Z</time></trkpt>
<trkpt lat="43.2355700000" lon="-1.0934800000"><ele>162</ele><time>2026-04-24T11:14:26Z</time></trkpt>
<trkpt lat="43.2355820000" lon="-1.0934570000"><ele>162</ele><time>2026-04-24T11:14:28Z</time></trkpt>
<trkpt lat="43.2355920000" lon="-1.0934270000"><ele>162</ele><time>2026-04-24T11:14:30Z</time></trkpt>
<trkpt lat="43.2356020000" lon="-1.0934020000"><ele>162</ele><time>2026-04-24T11:14:32Z</time></trkpt>
<trkpt lat="43.2356170000" lon="-1.0933720000"><ele>162</ele><time>2026-04-24T11:14:34Z</time></trkpt>
<trkpt lat="43.2356370000" lon="-1.0933470000"><ele>162</ele><time>2026-04-24T11:14:36Z</time></trkpt>
<trkpt lat="43.2356570000" lon="-1.0933170000"><ele>162</ele><time>2026-04-24T11:14:38Z</time></trkpt>
<trkpt lat="43.2356770000" lon="-1.0932870000"><ele>162</ele><time>2026-04-24T11:14:40Z</time></trkpt>
<trkpt lat="43.2356900000" lon="-1.0932520000"><ele>162</ele><time>2026-04-24T11:14:42Z</time></trkpt>
<trkpt lat="43.2357020000" lon="-1.0932300000"><ele>162</ele><time>2026-04-24T11:14:44Z</time></trkpt>
<trkpt lat="43.2357170000" lon="-1.0932050000"><ele>162</ele><time>2026-04-24T11:14:46Z</time></trkpt>
<trkpt lat="43.2357320000" lon="-1.0931770000"><ele>162</ele><time>2026-04-24T11:14:48Z</time></trkpt>
<trkpt lat="43.2357450000" lon="-1.0931500000"><ele>162</ele><time>2026-04-24T11:14:50Z</time></trkpt>
<trkpt lat="43.2357570000" lon="-1.0931270000"><ele>162</ele><time>2026-04-24T11:14:52Z</time></trkpt>
<trkpt lat="43.2357670000" lon="-1.0931020000"><ele>162</ele><time>2026-04-24T11:14:54Z</time></trkpt>
<trkpt lat="43.2357820000" lon="-1.0930800000"><ele>162</ele><time>2026-04-24T11:14:56Z</time></trkpt>
<trkpt lat="43.2358020000" lon="-1.0930550000"><ele>162</ele><time>2026-04-24T11:14:58Z</time></trkpt>
<trkpt lat="43.2358170000" lon="-1.0930270000"><ele>162</ele><time>2026-04-24T11:15:00Z</time></trkpt>
<trkpt lat="43.2358320000" lon="-1.0929970000"><ele>162</ele><time>2026-04-24T11:15:02Z</time></trkpt>
<trkpt lat="43.2358320000" lon="-1.0929670000"><ele>162</ele><time>2026-04-24T11:15:04Z</time></trkpt>
<trkpt lat="43.2358320000" lon="-1.0929300000"><ele>161</ele><time>2026-04-24T11:15:35Z</time></trkpt>
<trkpt lat="43.2358370000" lon="-1.0928870000"><ele>161</ele><time>2026-04-24T11:15:37Z</time></trkpt>
<trkpt lat="43.2358350000" lon="-1.0928500000"><ele>161</ele><time>2026-04-24T11:15:39Z</time></trkpt>
<trkpt lat="43.2358270000" lon="-1.0928170000"><ele>161</ele><time>2026-04-24T11:15:41Z</time></trkpt>
<trkpt lat="43.2358150000" lon="-1.0927870000"><ele>161</ele><time>2026-04-24T11:15:43Z</time></trkpt>
<trkpt lat="43.2358020000" lon="-1.0927670000"><ele>161</ele><time>2026-04-24T11:15:45Z</time></trkpt>
<trkpt lat="43.2357870000" lon="-1.0927420000"><ele>161</ele><time>2026-04-24T11:15:49Z</time></trkpt>
<trkpt lat="43.2357870000" lon="-1.0927070000"><ele>160</ele><time>2026-04-24T11:15:51Z</time></trkpt>
<trkpt lat="43.2357820000" lon="-1.0926670000"><ele>160</ele><time>2026-04-24T11:15:53Z</time></trkpt>
<trkpt lat="43.2357770000" lon="-1.0926320000"><ele>160</ele><time>2026-04-24T11:15:55Z</time></trkpt>
<trkpt lat="43.2357750000" lon="-1.0926000000"><ele>160</ele><time>2026-04-24T11:15:57Z</time></trkpt>
<trkpt lat="43.2357720000" lon="-1.0925700000"><ele>160</ele><time>2026-04-24T11:15:59Z</time></trkpt>
<trkpt lat="43.2357670000" lon="-1.0925400000"><ele>159</ele><time>2026-04-24T11:16:01Z</time></trkpt>
<trkpt lat="43.2357620000" lon="-1.0925120000"><ele>159</ele><time>2026-04-24T11:16:03Z</time></trkpt>
<trkpt lat="43.2357520000" lon="-1.0924850000"><ele>159</ele><time>2026-04-24T11:16:05Z</time></trkpt>
<trkpt lat="43.2357420000" lon="-1.0924570000"><ele>159</ele><time>2026-04-24T11:16:07Z</time></trkpt>
<trkpt lat="43.2357270000" lon="-1.0924350000"><ele>159</ele><time>2026-04-24T11:16:09Z</time></trkpt>
<trkpt lat="43.2357150000" lon="-1.0924070000"><ele>159</ele><time>2026-04-24T11:16:11Z</time></trkpt>
<trkpt lat="43.2357000000" lon="-1.0923820000"><ele>158</ele><time>2026-04-24T11:16:13Z</time></trkpt>
<trkpt lat="43.2356870000" lon="-1.0923550000"><ele>158</ele><time>2026-04-24T11:16:15Z</time></trkpt>
<trkpt lat="43.2356770000" lon="-1.0923270000"><ele>158</ele><time>2026-04-24T11:16:17Z</time></trkpt>
<trkpt lat="43.2356700000" lon="-1.0923000000"><ele>158</ele><time>2026-04-24T11:16:19Z</time></trkpt>
<trkpt lat="43.2356620000" lon="-1.0922720000"><ele>158</ele><time>2026-04-24T11:16:21Z</time></trkpt>
<trkpt lat="43.2356520000" lon="-1.0922420000"><ele>158</ele><time>2026-04-24T11:16:23Z</time></trkpt>
<trkpt lat="43.2356470000" lon="-1.0922120000"><ele>158</ele><time>2026-04-24T11:16:25Z</time></trkpt>
<trkpt lat="43.2356420000" lon="-1.0921800000"><ele>158</ele><time>2026-04-24T11:16:27Z</time></trkpt>
<trkpt lat="43.2356320000" lon="-1.0921520000"><ele>158</ele><time>2026-04-24T11:16:29Z</time></trkpt>
<trkpt lat="43.2356250000" lon="-1.0921250000"><ele>157</ele><time>2026-04-24T11:16:31Z</time></trkpt>
<trkpt lat="43.2356150000" lon="-1.0920970000"><ele>157</ele><time>2026-04-24T11:16:33Z</time></trkpt>
<trkpt lat="43.2356020000" lon="-1.0920700000"><ele>157</ele><time>2026-04-24T11:16:35Z</time></trkpt>
<trkpt lat="43.2355950000" lon="-1.0920420000"><ele>157</ele><time>2026-04-24T11:16:37Z</time></trkpt>
<trkpt lat="43.2355870000" lon="-1.0920170000"><ele>157</ele><time>2026-04-24T11:16:39Z</time></trkpt>
<trkpt lat="43.2355770000" lon="-1.0919870000"><ele>157</ele><time>2026-04-24T11:16:41Z</time></trkpt>
<trkpt lat="43.2355720000" lon="-1.0919620000"><ele>157</ele><time>2026-04-24T11:16:43Z</time></trkpt>
<trkpt lat="43.2355650000" lon="-1.0919350000"><ele>156</ele><time>2026-04-24T11:16:45Z</time></trkpt>
<trkpt lat="43.2355600000" lon="-1.0919050000"><ele>156</ele><time>2026-04-24T11:16:47Z</time></trkpt>
<trkpt lat="43.2355520000" lon="-1.0918730000"><ele>156</ele><time>2026-04-24T11:16:49Z</time></trkpt>
<trkpt lat="43.2355500000" lon="-1.0918500000"><ele>156</ele><time>2026-04-24T11:16:51Z</time></trkpt>
<trkpt lat="43.2355470000" lon="-1.0918250000"><ele>156</ele><time>2026-04-24T11:16:53Z</time></trkpt>
<trkpt lat="43.2355530000" lon="-1.0917920000"><ele>155</ele><time>2026-04-24T11:16:56Z</time></trkpt>
<trkpt lat="43.2355620000" lon="-1.0917670000"><ele>155</ele><time>2026-04-24T11:16:58Z</time></trkpt>
<trkpt lat="43.2355750000" lon="-1.0917420000"><ele>155</ele><time>2026-04-24T11:17:00Z</time></trkpt>
<trkpt lat="43.2355870000" lon="-1.0917170000"><ele>155</ele><time>2026-04-24T11:17:02Z</time></trkpt>
<trkpt lat="43.2356100000" lon="-1.0916920000"><ele>155</ele><time>2026-04-24T11:17:04Z</time></trkpt>
<trkpt lat="43.2356350000" lon="-1.0916670000"><ele>155</ele><time>2026-04-24T11:17:06Z</time></trkpt>
<trkpt lat="43.2356520000" lon="-1.0916420000"><ele>154</ele><time>2026-04-24T11:17:08Z</time></trkpt>
<trkpt lat="43.2356670000" lon="-1.0916170000"><ele>154</ele><time>2026-04-24T11:17:10Z</time></trkpt>
<trkpt lat="43.2356820000" lon="-1.0915920000"><ele>154</ele><time>2026-04-24T11:17:12Z</time></trkpt>
<trkpt lat="43.2356970000" lon="-1.0915670000"><ele>154</ele><time>2026-04-24T11:17:14Z</time></trkpt>
<trkpt lat="43.2357120000" lon="-1.0915420000"><ele>154</ele><time>2026-04-24T11:17:16Z</time></trkpt>
<trkpt lat="43.2357220000" lon="-1.0915170000"><ele>154</ele><time>2026-04-24T11:17:18Z</time></trkpt>
<trkpt lat="43.2357320000" lon="-1.0914920000"><ele>154</ele><time>2026-04-24T11:17:20Z</time></trkpt>
<trkpt lat="43.2357420000" lon="-1.0914670000"><ele>154</ele><time>2026-04-24T11:17:22Z</time></trkpt>
<trkpt lat="43.2357570000" lon="-1.0914420000"><ele>154</ele><time>2026-04-24T11:17:24Z</time></trkpt>
<trkpt lat="43.2357720000" lon="-1.0914170000"><ele>154</ele><time>2026-04-24T11:17:26Z</time></trkpt>
<trkpt lat="43.2357820000" lon="-1.0913950000"><ele>154</ele><time>2026-04-24T11:17:28Z</time></trkpt>
<trkpt lat="43.2357900000" lon="-1.0913670000"><ele>153</ele><time>2026-04-24T11:17:30Z</time></trkpt>
<trkpt lat="43.2358020000" lon="-1.0913450000"><ele>153</ele><time>2026-04-24T11:17:32Z</time></trkpt>
<trkpt lat="43.2358100000" lon="-1.0913200000"><ele>153</ele><time>2026-04-24T11:17:34Z</time></trkpt>
<trkpt lat="43.2358250000" lon="-1.0912930000"><ele>153</ele><time>2026-04-24T11:17:36Z</time></trkpt>
<trkpt lat="43.2358370000" lon="-1.0912720000"><ele>153</ele><time>2026-04-24T11:17:38Z</time></trkpt>
<trkpt lat="43.2358520000" lon="-1.0912420000"><ele>152</ele><time>2026-04-24T11:17:40Z</time></trkpt>
<trkpt lat="43.2358630000" lon="-1.0912200000"><ele>152</ele><time>2026-04-24T11:17:42Z</time></trkpt>
<trkpt lat="43.2358720000" lon="-1.0911920000"><ele>152</ele><time>2026-04-24T11:17:44Z</time></trkpt>
<trkpt lat="43.2358900000" lon="-1.0911670000"><ele>152</ele><time>2026-04-24T11:17:46Z</time></trkpt>
<trkpt lat="43.2359070000" lon="-1.0911420000"><ele>152</ele><time>2026-04-24T11:17:48Z</time></trkpt>
<trkpt lat="43.2359270000" lon="-1.0911170000"><ele>152</ele><time>2026-04-24T11:17:50Z</time></trkpt>
<trkpt lat="43.2359420000" lon="-1.0910920000"><ele>152</ele><time>2026-04-24T11:17:52Z</time></trkpt>
<trkpt lat="43.2359570000" lon="-1.0910670000"><ele>151</ele><time>2026-04-24T11:17:54Z</time></trkpt>
<trkpt lat="43.2359750000" lon="-1.0910450000"><ele>151</ele><time>2026-04-24T11:17:56Z</time></trkpt>
<trkpt lat="43.2359900000" lon="-1.0910170000"><ele>151</ele><time>2026-04-24T11:17:58Z</time></trkpt>
<trkpt lat="43.2360020000" lon="-1.0909900000"><ele>151</ele><time>2026-04-24T11:18:00Z</time></trkpt>
<trkpt lat="43.2360170000" lon="-1.0909620000"><ele>151</ele><time>2026-04-24T11:18:02Z</time></trkpt>
<trkpt lat="43.2360320000" lon="-1.0909370000"><ele>151</ele><time>2026-04-24T11:18:04Z</time></trkpt>
<trkpt lat="43.2360470000" lon="-1.0909150000"><ele>151</ele><time>2026-04-24T11:18:06Z</time></trkpt>
<trkpt lat="43.2360520000" lon="-1.0908870000"><ele>151</ele><time>2026-04-24T11:18:08Z</time></trkpt>
<trkpt lat="43.2360600000" lon="-1.0908570000"><ele>151</ele><time>2026-04-24T11:18:10Z</time></trkpt>
<trkpt lat="43.2360700000" lon="-1.0908300000"><ele>151</ele><time>2026-04-24T11:18:12Z</time></trkpt>
<trkpt lat="43.2360820000" lon="-1.0908070000"><ele>150</ele><time>2026-04-24T11:18:14Z</time></trkpt>
<trkpt lat="43.2361020000" lon="-1.0907800000"><ele>150</ele><time>2026-04-24T11:18:16Z</time></trkpt>
<trkpt lat="43.2361220000" lon="-1.0907530000"><ele>150</ele><time>2026-04-24T11:18:18Z</time></trkpt>
<trkpt lat="43.2361470000" lon="-1.0907300000"><ele>150</ele><time>2026-04-24T11:18:20Z</time></trkpt>
<trkpt lat="43.2361670000" lon="-1.0907050000"><ele>150</ele><time>2026-04-24T11:18:22Z</time></trkpt>
<trkpt lat="43.2361820000" lon="-1.0906770000"><ele>150</ele><time>2026-04-24T11:18:24Z</time></trkpt>
<trkpt lat="43.2361950000" lon="-1.0906500000"><ele>150</ele><time>2026-04-24T11:18:26Z</time></trkpt>
<trkpt lat="43.2362100000" lon="-1.0906220000"><ele>149</ele><time>2026-04-24T11:18:28Z</time></trkpt>
<trkpt lat="43.2362200000" lon="-1.0905920000"><ele>149</ele><time>2026-04-24T11:18:30Z</time></trkpt>
<trkpt lat="43.2362320000" lon="-1.0905650000"><ele>149</ele><time>2026-04-24T11:18:32Z</time></trkpt>
<trkpt lat="43.2362430000" lon="-1.0905370000"><ele>149</ele><time>2026-04-24T11:18:34Z</time></trkpt>
<trkpt lat="43.2362600000" lon="-1.0905120000"><ele>149</ele><time>2026-04-24T11:18:36Z</time></trkpt>
<trkpt lat="43.2362720000" lon="-1.0904870000"><ele>149</ele><time>2026-04-24T11:18:38Z</time></trkpt>
<trkpt lat="43.2362850000" lon="-1.0904570000"><ele>149</ele><time>2026-04-24T11:18:40Z</time></trkpt>
<trkpt lat="43.2362970000" lon="-1.0904320000"><ele>149</ele><time>2026-04-24T11:18:42Z</time></trkpt>
<trkpt lat="43.2363100000" lon="-1.0904100000"><ele>148</ele><time>2026-04-24T11:18:44Z</time></trkpt>
<trkpt lat="43.2363270000" lon="-1.0903870000"><ele>148</ele><time>2026-04-24T11:18:46Z</time></trkpt>
<trkpt lat="43.2363420000" lon="-1.0903650000"><ele>148</ele><time>2026-04-24T11:18:48Z</time></trkpt>
<trkpt lat="43.2363520000" lon="-1.0903370000"><ele>148</ele><time>2026-04-24T11:18:50Z</time></trkpt>
<trkpt lat="43.2363650000" lon="-1.0903070000"><ele>148</ele><time>2026-04-24T11:18:52Z</time></trkpt>
<trkpt lat="43.2363820000" lon="-1.0902770000"><ele>148</ele><time>2026-04-24T11:18:54Z</time></trkpt>
<trkpt lat="43.2364020000" lon="-1.0902550000"><ele>148</ele><time>2026-04-24T11:18:56Z</time></trkpt>
<trkpt lat="43.2364200000" lon="-1.0902270000"><ele>148</ele><time>2026-04-24T11:18:58Z</time></trkpt>
<trkpt lat="43.2364320000" lon="-1.0901970000"><ele>148</ele><time>2026-04-24T11:19:00Z</time></trkpt>
<trkpt lat="43.2364470000" lon="-1.0901670000"><ele>147</ele><time>2026-04-24T11:19:02Z</time></trkpt>
<trkpt lat="43.2364620000" lon="-1.0901420000"><ele>147</ele><time>2026-04-24T11:19:04Z</time></trkpt>
<trkpt lat="43.2364800000" lon="-1.0901150000"><ele>147</ele><time>2026-04-24T11:19:06Z</time></trkpt>
<trkpt lat="43.2364920000" lon="-1.0900870000"><ele>147</ele><time>2026-04-24T11:19:08Z</time></trkpt>
<trkpt lat="43.2365050000" lon="-1.0900620000"><ele>147</ele><time>2026-04-24T11:19:10Z</time></trkpt>
<trkpt lat="43.2365170000" lon="-1.0900320000"><ele>147</ele><time>2026-04-24T11:19:12Z</time></trkpt>
<trkpt lat="43.2365220000" lon="-1.0900020000"><ele>147</ele><time>2026-04-24T11:19:14Z</time></trkpt>
<trkpt lat="43.2365350000" lon="-1.0899770000"><ele>147</ele><time>2026-04-24T11:19:16Z</time></trkpt>
<trkpt lat="43.2365420000" lon="-1.0899470000"><ele>147</ele><time>2026-04-24T11:19:18Z</time></trkpt>
<trkpt lat="43.2365500000" lon="-1.0899220000"><ele>147</ele><time>2026-04-24T11:19:20Z</time></trkpt>
<trkpt lat="43.2365600000" lon="-1.0899000000"><ele>147</ele><time>2026-04-24T11:19:22Z</time></trkpt>
<trkpt lat="43.2365720000" lon="-1.0898750000"><ele>147</ele><time>2026-04-24T11:19:24Z</time></trkpt>
<trkpt lat="43.2365870000" lon="-1.0898500000"><ele>147</ele><time>2026-04-24T11:19:26Z</time></trkpt>
<trkpt lat="43.2366070000" lon="-1.0898220000"><ele>146</ele><time>2026-04-24T11:19:28Z</time></trkpt>
<trkpt lat="43.2366230000" lon="-1.0898000000"><ele>146</ele><time>2026-04-24T11:19:30Z</time></trkpt>
<trkpt lat="43.2366400000" lon="-1.0897750000"><ele>146</ele><time>2026-04-24T11:19:32Z</time></trkpt>
<trkpt lat="43.2366520000" lon="-1.0897470000"><ele>146</ele><time>2026-04-24T11:19:34Z</time></trkpt>
<trkpt lat="43.2366700000" lon="-1.0897220000"><ele>146</ele><time>2026-04-24T11:19:36Z</time></trkpt>
<trkpt lat="43.2366920000" lon="-1.0896920000"><ele>146</ele><time>2026-04-24T11:19:38Z</time></trkpt>
<trkpt lat="43.2367150000" lon="-1.0896620000"><ele>146</ele><time>2026-04-24T11:19:40Z</time></trkpt>
<trkpt lat="43.2367320000" lon="-1.0896400000"><ele>146</ele><time>2026-04-24T11:19:42Z</time></trkpt>
<trkpt lat="43.2367500000" lon="-1.0896120000"><ele>146</ele><time>2026-04-24T11:19:44Z</time></trkpt>
<trkpt lat="43.2367670000" lon="-1.0895870000"><ele>146</ele><time>2026-04-24T11:19:46Z</time></trkpt>
<trkpt lat="43.2367820000" lon="-1.0895570000"><ele>146</ele><time>2026-04-24T11:19:48Z</time></trkpt>
<trkpt lat="43.2368000000" lon="-1.0895320000"><ele>145</ele><time>2026-04-24T11:19:50Z</time></trkpt>
<trkpt lat="43.2368150000" lon="-1.0895100000"><ele>145</ele><time>2026-04-24T11:19:52Z</time></trkpt>
<trkpt lat="43.2368270000" lon="-1.0894850000"><ele>145</ele><time>2026-04-24T11:19:54Z</time></trkpt>
<trkpt lat="43.2368400000" lon="-1.0894570000"><ele>145</ele><time>2026-04-24T11:19:56Z</time></trkpt>
<trkpt lat="43.2368550000" lon="-1.0894250000"><ele>145</ele><time>2026-04-24T11:19:58Z</time></trkpt>
<trkpt lat="43.2368670000" lon="-1.0893970000"><ele>145</ele><time>2026-04-24T11:20:00Z</time></trkpt>
<trkpt lat="43.2368820000" lon="-1.0893720000"><ele>145</ele><time>2026-04-24T11:20:02Z</time></trkpt>
<trkpt lat="43.2368920000" lon="-1.0893450000"><ele>145</ele><time>2026-04-24T11:20:04Z</time></trkpt>
<trkpt lat="43.2369050000" lon="-1.0893170000"><ele>145</ele><time>2026-04-24T11:20:06Z</time></trkpt>
<trkpt lat="43.2369170000" lon="-1.0892900000"><ele>145</ele><time>2026-04-24T11:20:08Z</time></trkpt>
<trkpt lat="43.2369320000" lon="-1.0892650000"><ele>145</ele><time>2026-04-24T11:20:10Z</time></trkpt>
<trkpt lat="43.2369470000" lon="-1.0892370000"><ele>145</ele><time>2026-04-24T11:20:12Z</time></trkpt>
<trkpt lat="43.2369620000" lon="-1.0892070000"><ele>145</ele><time>2026-04-24T11:20:14Z</time></trkpt>
<trkpt lat="43.2369770000" lon="-1.0891800000"><ele>145</ele><time>2026-04-24T11:20:16Z</time></trkpt>
<trkpt lat="43.2369900000" lon="-1.0891520000"><ele>145</ele><time>2026-04-24T11:20:18Z</time></trkpt>
<trkpt lat="43.2370020000" lon="-1.0891250000"><ele>145</ele><time>2026-04-24T11:20:20Z</time></trkpt>
<trkpt lat="43.2370170000" lon="-1.0890970000"><ele>145</ele><time>2026-04-24T11:20:22Z</time></trkpt>
<trkpt lat="43.2370320000" lon="-1.0890700000"><ele>145</ele><time>2026-04-24T11:20:24Z</time></trkpt>
<trkpt lat="43.2370450000" lon="-1.0890400000"><ele>145</ele><time>2026-04-24T11:20:26Z</time></trkpt>
<trkpt lat="43.2370650000" lon="-1.0890170000"><ele>145</ele><time>2026-04-24T11:20:28Z</time></trkpt>
<trkpt lat="43.2370770000" lon="-1.0889870000"><ele>145</ele><time>2026-04-24T11:20:30Z</time></trkpt>
<trkpt lat="43.2370920000" lon="-1.0889620000"><ele>145</ele><time>2026-04-24T11:20:32Z</time></trkpt>
<trkpt lat="43.2371100000" lon="-1.0889320000"><ele>145</ele><time>2026-04-24T11:20:34Z</time></trkpt>
<trkpt lat="43.2371270000" lon="-1.0889070000"><ele>145</ele><time>2026-04-24T11:20:36Z</time></trkpt>
<trkpt lat="43.2371420000" lon="-1.0888770000"><ele>145</ele><time>2026-04-24T11:20:38Z</time></trkpt>
<trkpt lat="43.2371570000" lon="-1.0888520000"><ele>145</ele><time>2026-04-24T11:20:40Z</time></trkpt>
<trkpt lat="43.2371700000" lon="-1.0888230000"><ele>145</ele><time>2026-04-24T11:20:42Z</time></trkpt>
<trkpt lat="43.2371820000" lon="-1.0888000000"><ele>145</ele><time>2026-04-24T11:20:44Z</time></trkpt>
<trkpt lat="43.2371970000" lon="-1.0887750000"><ele>145</ele><time>2026-04-24T11:20:46Z</time></trkpt>
<trkpt lat="43.2372100000" lon="-1.0887520000"><ele>146</ele><time>2026-04-24T11:20:48Z</time></trkpt>
<trkpt lat="43.2372220000" lon="-1.0887220000"><ele>146</ele><time>2026-04-24T11:20:50Z</time></trkpt>
<trkpt lat="43.2372420000" lon="-1.0886950000"><ele>146</ele><time>2026-04-24T11:20:52Z</time></trkpt>
<trkpt lat="43.2372570000" lon="-1.0886670000"><ele>146</ele><time>2026-04-24T11:20:54Z</time></trkpt>
<trkpt lat="43.2372720000" lon="-1.0886420000"><ele>146</ele><time>2026-04-24T11:20:56Z</time></trkpt>
<trkpt lat="43.2372920000" lon="-1.0886170000"><ele>146</ele><time>2026-04-24T11:20:58Z</time></trkpt>
<trkpt lat="43.2373070000" lon="-1.0885920000"><ele>146</ele><time>2026-04-24T11:21:00Z</time></trkpt>
<trkpt lat="43.2373220000" lon="-1.0885650000"><ele>146</ele><time>2026-04-24T11:21:02Z</time></trkpt>
<trkpt lat="43.2373370000" lon="-1.0885400000"><ele>146</ele><time>2026-04-24T11:21:04Z</time></trkpt>
<trkpt lat="43.2373550000" lon="-1.0885130000"><ele>146</ele><time>2026-04-24T11:21:06Z</time></trkpt>
<trkpt lat="43.2373680000" lon="-1.0884870000"><ele>146</ele><time>2026-04-24T11:21:08Z</time></trkpt>
<trkpt lat="43.2373820000" lon="-1.0884570000"><ele>146</ele><time>2026-04-24T11:21:10Z</time></trkpt>
<trkpt lat="43.2373970000" lon="-1.0884270000"><ele>146</ele><time>2026-04-24T11:21:12Z</time></trkpt>
<trkpt lat="43.2374100000" lon="-1.0883970000"><ele>146</ele><time>2026-04-24T11:21:14Z</time></trkpt>
<trkpt lat="43.2374220000" lon="-1.0883700000"><ele>147</ele><time>2026-04-24T11:21:16Z</time></trkpt>
<trkpt lat="43.2374270000" lon="-1.0883400000"><ele>147</ele><time>2026-04-24T11:21:18Z</time></trkpt>
<trkpt lat="43.2374320000" lon="-1.0883120000"><ele>147</ele><time>2026-04-24T11:21:20Z</time></trkpt>
<trkpt lat="43.2374420000" lon="-1.0882830000"><ele>147</ele><time>2026-04-24T11:21:22Z</time></trkpt>
<trkpt lat="43.2374570000" lon="-1.0882620000"><ele>147</ele><time>2026-04-24T11:21:24Z</time></trkpt>
<trkpt lat="43.2374720000" lon="-1.0882370000"><ele>147</ele><time>2026-04-24T11:21:26Z</time></trkpt>
<trkpt lat="43.2374870000" lon="-1.0882120000"><ele>147</ele><time>2026-04-24T11:21:28Z</time></trkpt>
<trkpt lat="43.2375020000" lon="-1.0881900000"><ele>147</ele><time>2026-04-24T11:21:30Z</time></trkpt>
<trkpt lat="43.2375170000" lon="-1.0881620000"><ele>147</ele><time>2026-04-24T11:21:32Z</time></trkpt>
<trkpt lat="43.2375320000" lon="-1.0881350000"><ele>147</ele><time>2026-04-24T11:21:34Z</time></trkpt>
<trkpt lat="43.2375520000" lon="-1.0881080000"><ele>147</ele><time>2026-04-24T11:21:36Z</time></trkpt>
<trkpt lat="43.2375670000" lon="-1.0880820000"><ele>147</ele><time>2026-04-24T11:21:38Z</time></trkpt>
<trkpt lat="43.2375820000" lon="-1.0880570000"><ele>147</ele><time>2026-04-24T11:21:40Z</time></trkpt>
<trkpt lat="43.2375920000" lon="-1.0880270000"><ele>147</ele><time>2026-04-24T11:21:42Z</time></trkpt>
<trkpt lat="43.2376070000" lon="-1.0880050000"><ele>147</ele><time>2026-04-24T11:21:44Z</time></trkpt>
<trkpt lat="43.2376250000" lon="-1.0879800000"><ele>147</ele><time>2026-04-24T11:21:46Z</time></trkpt>
<trkpt lat="43.2376400000" lon="-1.0879570000"><ele>148</ele><time>2026-04-24T11:21:48Z</time></trkpt>
<trkpt lat="43.2376520000" lon="-1.0879270000"><ele>148</ele><time>2026-04-24T11:21:50Z</time></trkpt>
<trkpt lat="43.2376670000" lon="-1.0879020000"><ele>148</ele><time>2026-04-24T11:21:52Z</time></trkpt>
<trkpt lat="43.2376770000" lon="-1.0878720000"><ele>148</ele><time>2026-04-24T11:21:54Z</time></trkpt>
<trkpt lat="43.2376870000" lon="-1.0878470000"><ele>148</ele><time>2026-04-24T11:21:56Z</time></trkpt>
<trkpt lat="43.2377050000" lon="-1.0878200000"><ele>148</ele><time>2026-04-24T11:21:58Z</time></trkpt>
<trkpt lat="43.2377200000" lon="-1.0877920000"><ele>148</ele><time>2026-04-24T11:22:00Z</time></trkpt>
<trkpt lat="43.2377350000" lon="-1.0877620000"><ele>148</ele><time>2026-04-24T11:22:02Z</time></trkpt>
<trkpt lat="43.2377550000" lon="-1.0877320000"><ele>148</ele><time>2026-04-24T11:22:04Z</time></trkpt>
<trkpt lat="43.2377720000" lon="-1.0877020000"><ele>148</ele><time>2026-04-24T11:22:06Z</time></trkpt>
<trkpt lat="43.2377900000" lon="-1.0876770000"><ele>149</ele><time>2026-04-24T11:22:08Z</time></trkpt>
<trkpt lat="43.2378020000" lon="-1.0876520000"><ele>149</ele><time>2026-04-24T11:22:10Z</time></trkpt>
<trkpt lat="43.2378120000" lon="-1.0876270000"><ele>149</ele><time>2026-04-24T11:22:12Z</time></trkpt>
<trkpt lat="43.2378370000" lon="-1.0876170000"><ele>148</ele><time>2026-04-24T11:23:05Z</time></trkpt>
<trkpt lat="43.2378700000" lon="-1.0876220000"><ele>148</ele><time>2026-04-24T11:23:07Z</time></trkpt>
<trkpt lat="43.2379020000" lon="-1.0876420000"><ele>148</ele><time>2026-04-24T11:23:09Z</time></trkpt>
<trkpt lat="43.2379200000" lon="-1.0876520000"><ele>148</ele><time>2026-04-24T11:23:10Z</time></trkpt>
<trkpt lat="43.2379420000" lon="-1.0876700000"><ele>148</ele><time>2026-04-24T11:23:12Z</time></trkpt>
<trkpt lat="43.2379550000" lon="-1.0876970000"><ele>148</ele><time>2026-04-24T11:23:14Z</time></trkpt>
<trkpt lat="43.2379620000" lon="-1.0877270000"><ele>148</ele><time>2026-04-24T11:23:16Z</time></trkpt>
<trkpt lat="43.2379700000" lon="-1.0877600000"><ele>148</ele><time>2026-04-24T11:23:18Z</time></trkpt>
<trkpt lat="43.2379800000" lon="-1.0877920000"><ele>148</ele><time>2026-04-24T11:23:20Z</time></trkpt>
<trkpt lat="43.2379920000" lon="-1.0878200000"><ele>148</ele><time>2026-04-24T11:23:22Z</time></trkpt>
<trkpt lat="43.2380070000" lon="-1.0878420000"><ele>148</ele><time>2026-04-24T11:23:24Z</time></trkpt>
<trkpt lat="43.2380270000" lon="-1.0878670000"><ele>148</ele><time>2026-04-24T11:23:26Z</time></trkpt>
<trkpt lat="43.2380420000" lon="-1.0878920000"><ele>148</ele><time>2026-04-24T11:23:28Z</time></trkpt>
<trkpt lat="43.2380550000" lon="-1.0879150000"><ele>148</ele><time>2026-04-24T11:23:30Z</time></trkpt>
<trkpt lat="43.2380670000" lon="-1.0879350000"><ele>148</ele><time>2026-04-24T11:23:32Z</time></trkpt>
<trkpt lat="43.2380770000" lon="-1.0879570000"><ele>148</ele><time>2026-04-24T11:23:35Z</time></trkpt>
<trkpt lat="43.2380850000" lon="-1.0879920000"><ele>148</ele><time>2026-04-24T11:24:06Z</time></trkpt>
<trkpt lat="43.2381070000" lon="-1.0880220000"><ele>148</ele><time>2026-04-24T11:24:08Z</time></trkpt>
<trkpt lat="43.2381220000" lon="-1.0880420000"><ele>148</ele><time>2026-04-24T11:24:11Z</time></trkpt>
<trkpt lat="43.2381420000" lon="-1.0880520000"><ele>148</ele><time>2026-04-24T11:24:23Z</time></trkpt>
<trkpt lat="43.2381670000" lon="-1.0880570000"><ele>148</ele><time>2026-04-24T11:24:25Z</time></trkpt>
<trkpt lat="43.2381820000" lon="-1.0880800000"><ele>148</ele><time>2026-04-24T11:24:41Z</time></trkpt>
<trkpt lat="43.2381670000" lon="-1.0881020000"><ele>148</ele><time>2026-04-24T11:24:44Z</time></trkpt>
<trkpt lat="43.2381650000" lon="-1.0881270000"><ele>147</ele><time>2026-04-24T11:24:58Z</time></trkpt>
<trkpt lat="43.2381820000" lon="-1.0881570000"><ele>148</ele><time>2026-04-24T11:25:00Z</time></trkpt>
<trkpt lat="43.2382020000" lon="-1.0882000000"><ele>147</ele><time>2026-04-24T11:25:02Z</time></trkpt>
<trkpt lat="43.2382170000" lon="-1.0882370000"><ele>148</ele><time>2026-04-24T11:25:04Z</time></trkpt>
<trkpt lat="43.2382350000" lon="-1.0882750000"><ele>148</ele><time>2026-04-24T11:25:06Z</time></trkpt>
<trkpt lat="43.2382470000" lon="-1.0883100000"><ele>148</ele><time>2026-04-24T11:25:08Z</time></trkpt>
<trkpt lat="43.2382550000" lon="-1.0883420000"><ele>148</ele><time>2026-04-24T11:25:10Z</time></trkpt>
<trkpt lat="43.2382670000" lon="-1.0883700000"><ele>147</ele><time>2026-04-24T11:25:12Z</time></trkpt>
<trkpt lat="43.2382820000" lon="-1.0883950000"><ele>147</ele><time>2026-04-24T11:25:14Z</time></trkpt>
<trkpt lat="43.2382970000" lon="-1.0884250000"><ele>147</ele><time>2026-04-24T11:25:16Z</time></trkpt>
<trkpt lat="43.2383100000" lon="-1.0884550000"><ele>148</ele><time>2026-04-24T11:25:18Z</time></trkpt>
<trkpt lat="43.2383220000" lon="-1.0884870000"><ele>148</ele><time>2026-04-24T11:25:20Z</time></trkpt>
<trkpt lat="43.2383320000" lon="-1.0885220000"><ele>148</ele><time>2026-04-24T11:25:22Z</time></trkpt>
<trkpt lat="43.2383420000" lon="-1.0885470000"><ele>148</ele><time>2026-04-24T11:25:24Z</time></trkpt>
<trkpt lat="43.2383600000" lon="-1.0885820000"><ele>148</ele><time>2026-04-24T11:25:26Z</time></trkpt>
<trkpt lat="43.2383750000" lon="-1.0886100000"><ele>148</ele><time>2026-04-24T11:25:28Z</time></trkpt>
<trkpt lat="43.2383900000" lon="-1.0886370000"><ele>148</ele><time>2026-04-24T11:25:30Z</time></trkpt>
<trkpt lat="43.2384070000" lon="-1.0886620000"><ele>148</ele><time>2026-04-24T11:25:32Z</time></trkpt>
<trkpt lat="43.2384250000" lon="-1.0886850000"><ele>148</ele><time>2026-04-24T11:25:34Z</time></trkpt>
<trkpt lat="43.2384370000" lon="-1.0887120000"><ele>148</ele><time>2026-04-24T11:25:36Z</time></trkpt>
<trkpt lat="43.2384500000" lon="-1.0887370000"><ele>148</ele><time>2026-04-24T11:25:38Z</time></trkpt>
<trkpt lat="43.2384670000" lon="-1.0887650000"><ele>148</ele><time>2026-04-24T11:25:40Z</time></trkpt>
<trkpt lat="43.2384720000" lon="-1.0887970000"><ele>148</ele><time>2026-04-24T11:25:42Z</time></trkpt>
<trkpt lat="43.2384820000" lon="-1.0888270000"><ele>148</ele><time>2026-04-24T11:25:44Z</time></trkpt>
<trkpt lat="43.2384970000" lon="-1.0888520000"><ele>148</ele><time>2026-04-24T11:25:46Z</time></trkpt>
<trkpt lat="43.2385070000" lon="-1.0888870000"><ele>148</ele><time>2026-04-24T11:25:48Z</time></trkpt>
<trkpt lat="43.2385170000" lon="-1.0889220000"><ele>148</ele><time>2026-04-24T11:25:50Z</time></trkpt>
<trkpt lat="43.2385270000" lon="-1.0889470000"><ele>148</ele><time>2026-04-24T11:25:52Z</time></trkpt>
<trkpt lat="43.2385370000" lon="-1.0889720000"><ele>148</ele><time>2026-04-24T11:25:54Z</time></trkpt>
<trkpt lat="43.2385550000" lon="-1.0890000000"><ele>148</ele><time>2026-04-24T11:25:56Z</time></trkpt>
<trkpt lat="43.2385700000" lon="-1.0890270000"><ele>148</ele><time>2026-04-24T11:25:58Z</time></trkpt>
<trkpt lat="43.2385870000" lon="-1.0890550000"><ele>148</ele><time>2026-04-24T11:26:00Z</time></trkpt>
<trkpt lat="43.2385970000" lon="-1.0890870000"><ele>148</ele><time>2026-04-24T11:26:02Z</time></trkpt>
<trkpt lat="43.2386120000" lon="-1.0891100000"><ele>148</ele><time>2026-04-24T11:26:04Z</time></trkpt>
<trkpt lat="43.2386300000" lon="-1.0891320000"><ele>148</ele><time>2026-04-24T11:26:06Z</time></trkpt>
<trkpt lat="43.2386470000" lon="-1.0891570000"><ele>148</ele><time>2026-04-24T11:26:08Z</time></trkpt>
<trkpt lat="43.2386600000" lon="-1.0891820000"><ele>149</ele><time>2026-04-24T11:26:12Z</time></trkpt>
<trkpt lat="43.2386450000" lon="-1.0891570000"><ele>149</ele><time>2026-04-24T11:27:11Z</time></trkpt>
<trkpt lat="43.2386520000" lon="-1.0891350000"><ele>150</ele><time>2026-04-24T11:29:51Z</time></trkpt>
<trkpt lat="43.2386630000" lon="-1.0891600000"><ele>150</ele><time>2026-04-24T11:32:05Z</time></trkpt>
<trkpt lat="43.2386800000" lon="-1.0891820000"><ele>150</ele><time>2026-04-24T11:32:07Z</time></trkpt>
<trkpt lat="43.2386870000" lon="-1.0892120000"><ele>150</ele><time>2026-04-24T11:32:09Z</time></trkpt>
<trkpt lat="43.2386670000" lon="-1.0892000000"><ele>150</ele><time>2026-04-24T11:32:17Z</time></trkpt>
<trkpt lat="43.2386850000" lon="-1.0892100000"><ele>150</ele><time>2026-04-24T11:33:22Z</time></trkpt>
<trkpt lat="43.2386900000" lon="-1.0892370000"><ele>150</ele><time>2026-04-24T11:33:26Z</time></trkpt>
<trkpt lat="43.2386770000" lon="-1.0892200000"><ele>150</ele><time>2026-04-24T11:33:30Z</time></trkpt>
<trkpt lat="43.2386920000" lon="-1.0891970000"><ele>150</ele><time>2026-04-24T11:34:57Z</time></trkpt>
<trkpt lat="43.2386750000" lon="-1.0892170000"><ele>150</ele><time>2026-04-24T11:37:23Z</time></trkpt>
<trkpt lat="43.2386700000" lon="-1.0892420000"><ele>150</ele><time>2026-04-24T11:38:43Z</time></trkpt>
<trkpt lat="43.2386920000" lon="-1.0892280000"><ele>150</ele><time>2026-04-24T11:40:07Z</time></trkpt>
<trkpt lat="43.2387150000" lon="-1.0892050000"><ele>150</ele><time>2026-04-24T11:40:09Z</time></trkpt>
<trkpt lat="43.2387330000" lon="-1.0891900000"><ele>151</ele><time>2026-04-24T11:40:11Z</time></trkpt>
<trkpt lat="43.2387270000" lon="-1.0892200000"><ele>151</ele><time>2026-04-24T11:41:04Z</time></trkpt>
<trkpt lat="43.2387050000" lon="-1.0892400000"><ele>151</ele><time>2026-04-24T11:41:06Z</time></trkpt>
<trkpt lat="43.2386920000" lon="-1.0892600000"><ele>151</ele><time>2026-04-24T11:41:08Z</time></trkpt>
<trkpt lat="43.2386770000" lon="-1.0892400000"><ele>151</ele><time>2026-04-24T11:42:18Z</time></trkpt>
<trkpt lat="43.2386450000" lon="-1.0892420000"><ele>151</ele><time>2026-04-24T11:42:20Z</time></trkpt>
<trkpt lat="43.2386150000" lon="-1.0892370000"><ele>151</ele><time>2026-04-24T11:42:22Z</time></trkpt>
<trkpt lat="43.2385970000" lon="-1.0892320000"><ele>151</ele><time>2026-04-24T11:42:24Z</time></trkpt>
<trkpt lat="43.2386170000" lon="-1.0892450000"><ele>151</ele><time>2026-04-24T11:43:32Z</time></trkpt>
<trkpt lat="43.2386000000" lon="-1.0892570000"><ele>151</ele><time>2026-04-24T11:43:37Z</time></trkpt>
<trkpt lat="43.2386050000" lon="-1.0892820000"><ele>151</ele><time>2026-04-24T11:43:41Z</time></trkpt>
<trkpt lat="43.2386220000" lon="-1.0892650000"><ele>150</ele><time>2026-04-24T11:44:17Z</time></trkpt>
<trkpt lat="43.2386470000" lon="-1.0892700000"><ele>150</ele><time>2026-04-24T11:44:54Z</time></trkpt>
<trkpt lat="43.2386670000" lon="-1.0892750000"><ele>150</ele><time>2026-04-24T11:44:56Z</time></trkpt>
<trkpt lat="43.2386870000" lon="-1.0892770000"><ele>150</ele><time>2026-04-24T11:44:59Z</time></trkpt>
<trkpt lat="43.2386620000" lon="-1.0892850000"><ele>151</ele><time>2026-04-24T11:47:15Z</time></trkpt>
<trkpt lat="43.2386420000" lon="-1.0892820000"><ele>151</ele><time>2026-04-24T11:47:18Z</time></trkpt>
<trkpt lat="43.2386630000" lon="-1.0892870000"><ele>150</ele><time>2026-04-24T11:47:22Z</time></trkpt>
<trkpt lat="43.2386850000" lon="-1.0892950000"><ele>150</ele><time>2026-04-24T11:48:24Z</time></trkpt>
<trkpt lat="43.2386870000" lon="-1.0892650000"><ele>150</ele><time>2026-04-24T11:48:37Z</time></trkpt>
<trkpt lat="43.2386950000" lon="-1.0892900000"><ele>150</ele><time>2026-04-24T11:49:40Z</time></trkpt>
<trkpt lat="43.2386950000" lon="-1.0893250000"><ele>150</ele><time>2026-04-24T11:49:42Z</time></trkpt>
<trkpt lat="43.2387100000" lon="-1.0893420000"><ele>150</ele><time>2026-04-24T11:50:23Z</time></trkpt>
<trkpt lat="43.2387270000" lon="-1.0893770000"><ele>150</ele><time>2026-04-24T11:50:25Z</time></trkpt>
<trkpt lat="43.2387330000" lon="-1.0894000000"><ele>150</ele><time>2026-04-24T11:50:26Z</time></trkpt>
<trkpt lat="43.2387470000" lon="-1.0894220000"><ele>150</ele><time>2026-04-24T11:50:27Z</time></trkpt>
<trkpt lat="43.2387650000" lon="-1.0894570000"><ele>150</ele><time>2026-04-24T11:50:29Z</time></trkpt>
<trkpt lat="43.2387750000" lon="-1.0894870000"><ele>151</ele><time>2026-04-24T11:50:31Z</time></trkpt>
<trkpt lat="43.2387870000" lon="-1.0895170000"><ele>151</ele><time>2026-04-24T11:50:33Z</time></trkpt>
<trkpt lat="43.2388020000" lon="-1.0895450000"><ele>151</ele><time>2026-04-24T11:50:35Z</time></trkpt>
<trkpt lat="43.2388250000" lon="-1.0895720000"><ele>151</ele><time>2026-04-24T11:50:37Z</time></trkpt>
<trkpt lat="43.2388370000" lon="-1.0896020000"><ele>151</ele><time>2026-04-24T11:50:39Z</time></trkpt>
<trkpt lat="43.2388520000" lon="-1.0896250000"><ele>151</ele><time>2026-04-24T11:50:41Z</time></trkpt>
<trkpt lat="43.2388720000" lon="-1.0896470000"><ele>151</ele><time>2026-04-24T11:50:43Z</time></trkpt>
<trkpt lat="43.2388970000" lon="-1.0896670000"><ele>152</ele><time>2026-04-24T11:50:45Z</time></trkpt>
<trkpt lat="43.2389200000" lon="-1.0896850000"><ele>152</ele><time>2026-04-24T11:50:47Z</time></trkpt>
<trkpt lat="43.2389420000" lon="-1.0896970000"><ele>152</ele><time>2026-04-24T11:50:49Z</time></trkpt>
<trkpt lat="43.2389670000" lon="-1.0897050000"><ele>152</ele><time>2026-04-24T11:50:51Z</time></trkpt>
<trkpt lat="43.2389900000" lon="-1.0897000000"><ele>152</ele><time>2026-04-24T11:50:53Z</time></trkpt>
<trkpt lat="43.2390220000" lon="-1.0896920000"><ele>152</ele><time>2026-04-24T11:50:55Z</time></trkpt>
<trkpt lat="43.2390470000" lon="-1.0896820000"><ele>152</ele><time>2026-04-24T11:50:57Z</time></trkpt>
<trkpt lat="43.2390700000" lon="-1.0896720000"><ele>152</ele><time>2026-04-24T11:50:59Z</time></trkpt>
<trkpt lat="43.2390900000" lon="-1.0896570000"><ele>152</ele><time>2026-04-24T11:51:01Z</time></trkpt>
<trkpt lat="43.2391120000" lon="-1.0896370000"><ele>152</ele><time>2026-04-24T11:51:04Z</time></trkpt>
<trkpt lat="43.2391320000" lon="-1.0896200000"><ele>152</ele><time>2026-04-24T11:51:06Z</time></trkpt>
<trkpt lat="43.2391520000" lon="-1.0896050000"><ele>152</ele><time>2026-04-24T11:51:08Z</time></trkpt>
<trkpt lat="43.2391750000" lon="-1.0895920000"><ele>152</ele><time>2026-04-24T11:51:10Z</time></trkpt>
<trkpt lat="43.2392070000" lon="-1.0895870000"><ele>152</ele><time>2026-04-24T11:51:12Z</time></trkpt>
<trkpt lat="43.2392350000" lon="-1.0895820000"><ele>152</ele><time>2026-04-24T11:51:14Z</time></trkpt>
<trkpt lat="43.2392620000" lon="-1.0895770000"><ele>152</ele><time>2026-04-24T11:51:16Z</time></trkpt>
<trkpt lat="43.2392870000" lon="-1.0895670000"><ele>152</ele><time>2026-04-24T11:51:18Z</time></trkpt>
<trkpt lat="43.2393150000" lon="-1.0895620000"><ele>152</ele><time>2026-04-24T11:51:20Z</time></trkpt>
<trkpt lat="43.2393420000" lon="-1.0895570000"><ele>152</ele><time>2026-04-24T11:51:22Z</time></trkpt>
<trkpt lat="43.2393670000" lon="-1.0895500000"><ele>152</ele><time>2026-04-24T11:51:24Z</time></trkpt>
<trkpt lat="43.2393920000" lon="-1.0895420000"><ele>151</ele><time>2026-04-24T11:51:26Z</time></trkpt>
<trkpt lat="43.2394170000" lon="-1.0895350000"><ele>151</ele><time>2026-04-24T11:51:28Z</time></trkpt>
<trkpt lat="43.2394420000" lon="-1.0895320000"><ele>151</ele><time>2026-04-24T11:51:30Z</time></trkpt>
<trkpt lat="43.2394620000" lon="-1.0895270000"><ele>151</ele><time>2026-04-24T11:51:32Z</time></trkpt>
<trkpt lat="43.2394850000" lon="-1.0895170000"><ele>151</ele><time>2026-04-24T11:51:34Z</time></trkpt>
<trkpt lat="43.2395070000" lon="-1.0895070000"><ele>151</ele><time>2026-04-24T11:51:36Z</time></trkpt>
<trkpt lat="43.2395300000" lon="-1.0895020000"><ele>151</ele><time>2026-04-24T11:51:38Z</time></trkpt>
<trkpt lat="43.2395520000" lon="-1.0894980000"><ele>151</ele><time>2026-04-24T11:51:40Z</time></trkpt>
<trkpt lat="43.2395820000" lon="-1.0894920000"><ele>151</ele><time>2026-04-24T11:51:42Z</time></trkpt>
<trkpt lat="43.2396070000" lon="-1.0894870000"><ele>151</ele><time>2026-04-24T11:51:44Z</time></trkpt>
<trkpt lat="43.2396400000" lon="-1.0894850000"><ele>151</ele><time>2026-04-24T11:51:46Z</time></trkpt>
<trkpt lat="43.2396670000" lon="-1.0894820000"><ele>150</ele><time>2026-04-24T11:51:48Z</time></trkpt>
<trkpt lat="43.2396970000" lon="-1.0894820000"><ele>150</ele><time>2026-04-24T11:51:50Z</time></trkpt>
<trkpt lat="43.2397270000" lon="-1.0894820000"><ele>150</ele><time>2026-04-24T11:51:52Z</time></trkpt>
<trkpt lat="43.2397570000" lon="-1.0894750000"><ele>150</ele><time>2026-04-24T11:51:54Z</time></trkpt>
<trkpt lat="43.2397820000" lon="-1.0894720000"><ele>150</ele><time>2026-04-24T11:51:56Z</time></trkpt>
<trkpt lat="43.2398070000" lon="-1.0894720000"><ele>150</ele><time>2026-04-24T11:51:58Z</time></trkpt>
<trkpt lat="43.2398300000" lon="-1.0894700000"><ele>150</ele><time>2026-04-24T11:52:00Z</time></trkpt>
<trkpt lat="43.2398520000" lon="-1.0894800000"><ele>150</ele><time>2026-04-24T11:52:02Z</time></trkpt>
<trkpt lat="43.2398720000" lon="-1.0894770000"><ele>150</ele><time>2026-04-24T11:52:06Z</time></trkpt>
<trkpt lat="43.2399000000" lon="-1.0894800000"><ele>150</ele><time>2026-04-24T11:52:08Z</time></trkpt>
<trkpt lat="43.2399300000" lon="-1.0894820000"><ele>149</ele><time>2026-04-24T11:52:10Z</time></trkpt>
<trkpt lat="43.2399620000" lon="-1.0894820000"><ele>149</ele><time>2026-04-24T11:52:12Z</time></trkpt>
<trkpt lat="43.2399920000" lon="-1.0894800000"><ele>149</ele><time>2026-04-24T11:52:14Z</time></trkpt>
<trkpt lat="43.2400200000" lon="-1.0894770000"><ele>149</ele><time>2026-04-24T11:52:17Z</time></trkpt>
<trkpt lat="43.2400420000" lon="-1.0894770000"><ele>149</ele><time>2026-04-24T11:52:19Z</time></trkpt>
<trkpt lat="43.2400720000" lon="-1.0894770000"><ele>149</ele><time>2026-04-24T11:52:21Z</time></trkpt>
<trkpt lat="43.2400980000" lon="-1.0894770000"><ele>149</ele><time>2026-04-24T11:52:23Z</time></trkpt>
<trkpt lat="43.2401170000" lon="-1.0894820000"><ele>149</ele><time>2026-04-24T11:52:24Z</time></trkpt>
<trkpt lat="43.2401370000" lon="-1.0894870000"><ele>149</ele><time>2026-04-24T11:52:25Z</time></trkpt>
<trkpt lat="43.2401670000" lon="-1.0894950000"><ele>149</ele><time>2026-04-24T11:52:27Z</time></trkpt>
<trkpt lat="43.2401950000" lon="-1.0895020000"><ele>149</ele><time>2026-04-24T11:52:29Z</time></trkpt>
<trkpt lat="43.2402220000" lon="-1.0895070000"><ele>149</ele><time>2026-04-24T11:52:31Z</time></trkpt>
<trkpt lat="43.2402470000" lon="-1.0895070000"><ele>149</ele><time>2026-04-24T11:52:33Z</time></trkpt>
<trkpt lat="43.2402700000" lon="-1.0895050000"><ele>148</ele><time>2026-04-24T11:52:35Z</time></trkpt>
<trkpt lat="43.2402970000" lon="-1.0895050000"><ele>148</ele><time>2026-04-24T11:52:37Z</time></trkpt>
<trkpt lat="43.2403220000" lon="-1.0895050000"><ele>148</ele><time>2026-04-24T11:52:39Z</time></trkpt>
<trkpt lat="43.2403500000" lon="-1.0895070000"><ele>148</ele><time>2026-04-24T11:52:41Z</time></trkpt>
<trkpt lat="43.2403770000" lon="-1.0895050000"><ele>148</ele><time>2026-04-24T11:52:43Z</time></trkpt>
<trkpt lat="43.2404020000" lon="-1.0895020000"><ele>148</ele><time>2026-04-24T11:52:45Z</time></trkpt>
<trkpt lat="43.2404250000" lon="-1.0894970000"><ele>148</ele><time>2026-04-24T11:52:47Z</time></trkpt>
<trkpt lat="43.2404470000" lon="-1.0894900000"><ele>148</ele><time>2026-04-24T11:52:49Z</time></trkpt>
<trkpt lat="43.2404720000" lon="-1.0894850000"><ele>148</ele><time>2026-04-24T11:52:51Z</time></trkpt>
<trkpt lat="43.2404950000" lon="-1.0894770000"><ele>148</ele><time>2026-04-24T11:52:53Z</time></trkpt>
<trkpt lat="43.2405200000" lon="-1.0894720000"><ele>148</ele><time>2026-04-24T11:52:55Z</time></trkpt>
<trkpt lat="43.2405500000" lon="-1.0894670000"><ele>148</ele><time>2026-04-24T11:52:57Z</time></trkpt>
<trkpt lat="43.2405720000" lon="-1.0894570000"><ele>148</ele><time>2026-04-24T11:52:59Z</time></trkpt>
<trkpt lat="43.2405970000" lon="-1.0894470000"><ele>148</ele><time>2026-04-24T11:53:01Z</time></trkpt>
<trkpt lat="43.2406250000" lon="-1.0894370000"><ele>147</ele><time>2026-04-24T11:53:03Z</time></trkpt>
<trkpt lat="43.2406520000" lon="-1.0894270000"><ele>147</ele><time>2026-04-24T11:53:05Z</time></trkpt>
<trkpt lat="43.2406770000" lon="-1.0894200000"><ele>147</ele><time>2026-04-24T11:53:07Z</time></trkpt>
<trkpt lat="43.2407020000" lon="-1.0894100000"><ele>147</ele><time>2026-04-24T11:53:09Z</time></trkpt>
<trkpt lat="43.2407270000" lon="-1.0894020000"><ele>147</ele><time>2026-04-24T11:53:11Z</time></trkpt>
<trkpt lat="43.2407520000" lon="-1.0893920000"><ele>147</ele><time>2026-04-24T11:53:13Z</time></trkpt>
<trkpt lat="43.2407750000" lon="-1.0893800000"><ele>147</ele><time>2026-04-24T11:53:15Z</time></trkpt>
<trkpt lat="43.2407970000" lon="-1.0893720000"><ele>147</ele><time>2026-04-24T11:53:17Z</time></trkpt>
<trkpt lat="43.2408170000" lon="-1.0893600000"><ele>147</ele><time>2026-04-24T11:53:19Z</time></trkpt>
<trkpt lat="43.2408320000" lon="-1.0893470000"><ele>147</ele><time>2026-04-24T11:53:21Z</time></trkpt>
<trkpt lat="43.2408570000" lon="-1.0893370000"><ele>147</ele><time>2026-04-24T11:53:23Z</time></trkpt>
<trkpt lat="43.2408770000" lon="-1.0893220000"><ele>147</ele><time>2026-04-24T11:53:25Z</time></trkpt>
<trkpt lat="43.2408970000" lon="-1.0893100000"><ele>147</ele><time>2026-04-24T11:53:27Z</time></trkpt>
<trkpt lat="43.2409150000" lon="-1.0892950000"><ele>147</ele><time>2026-04-24T11:53:29Z</time></trkpt>
<trkpt lat="43.2409350000" lon="-1.0892800000"><ele>147</ele><time>2026-04-24T11:53:31Z</time></trkpt>
<trkpt lat="43.2409570000" lon="-1.0892720000"><ele>147</ele><time>2026-04-24T11:53:33Z</time></trkpt>
<trkpt lat="43.2409820000" lon="-1.0892670000"><ele>147</ele><time>2026-04-24T11:53:35Z</time></trkpt>
<trkpt lat="43.2410100000" lon="-1.0892550000"><ele>147</ele><time>2026-04-24T11:53:37Z</time></trkpt>
<trkpt lat="43.2410270000" lon="-1.0892520000"><ele>147</ele><time>2026-04-24T11:53:38Z</time></trkpt>
<trkpt lat="43.2410470000" lon="-1.0892470000"><ele>147</ele><time>2026-04-24T11:53:39Z</time></trkpt>
<trkpt lat="43.2410770000" lon="-1.0892370000"><ele>147</ele><time>2026-04-24T11:53:41Z</time></trkpt>
<trkpt lat="43.2411000000" lon="-1.0892280000"><ele>147</ele><time>2026-04-24T11:53:43Z</time></trkpt>
<trkpt lat="43.2411200000" lon="-1.0892120000"><ele>147</ele><time>2026-04-24T11:53:45Z</time></trkpt>
<trkpt lat="43.2411420000" lon="-1.0892020000"><ele>147</ele><time>2026-04-24T11:53:47Z</time></trkpt>
<trkpt lat="43.2411600000" lon="-1.0891820000"><ele>147</ele><time>2026-04-24T11:53:49Z</time></trkpt>
<trkpt lat="43.2411820000" lon="-1.0891650000"><ele>147</ele><time>2026-04-24T11:53:51Z</time></trkpt>
<trkpt lat="43.2412050000" lon="-1.0891450000"><ele>147</ele><time>2026-04-24T11:53:53Z</time></trkpt>
<trkpt lat="43.2412220000" lon="-1.0891270000"><ele>147</ele><time>2026-04-24T11:53:55Z</time></trkpt>
<trkpt lat="43.2412420000" lon="-1.0891070000"><ele>147</ele><time>2026-04-24T11:53:57Z</time></trkpt>
<trkpt lat="43.2412650000" lon="-1.0890930000"><ele>147</ele><time>2026-04-24T11:53:59Z</time></trkpt>
<trkpt lat="43.2412850000" lon="-1.0890770000"><ele>147</ele><time>2026-04-24T11:54:01Z</time></trkpt>
<trkpt lat="43.2412670000" lon="-1.0891020000"><ele>147</ele><time>2026-04-24T11:54:06Z</time></trkpt>
<trkpt lat="43.2412820000" lon="-1.0890900000"><ele>148</ele><time>2026-04-24T11:54:20Z</time></trkpt>
<trkpt lat="43.2413050000" lon="-1.0890650000"><ele>147</ele><time>2026-04-24T11:54:22Z</time></trkpt>
<trkpt lat="43.2413270000" lon="-1.0890470000"><ele>147</ele><time>2026-04-24T11:54:24Z</time></trkpt>
<trkpt lat="43.2413500000" lon="-1.0890320000"><ele>147</ele><time>2026-04-24T11:54:26Z</time></trkpt>
<trkpt lat="43.2413720000" lon="-1.0890170000"><ele>147</ele><time>2026-04-24T11:54:28Z</time></trkpt>
<trkpt lat="43.2413920000" lon="-1.0890000000"><ele>147</ele><time>2026-04-24T11:54:30Z</time></trkpt>
<trkpt lat="43.2414150000" lon="-1.0889820000"><ele>147</ele><time>2026-04-24T11:54:32Z</time></trkpt>
<trkpt lat="43.2414370000" lon="-1.0889650000"><ele>147</ele><time>2026-04-24T11:54:34Z</time></trkpt>
<trkpt lat="43.2414570000" lon="-1.0889450000"><ele>147</ele><time>2026-04-24T11:54:36Z</time></trkpt>
<trkpt lat="43.2414720000" lon="-1.0889220000"><ele>147</ele><time>2026-04-24T11:54:38Z</time></trkpt>
<trkpt lat="43.2414920000" lon="-1.0889050000"><ele>147</ele><time>2026-04-24T11:54:40Z</time></trkpt>
<trkpt lat="43.2415120000" lon="-1.0888920000"><ele>147</ele><time>2026-04-24T11:54:42Z</time></trkpt>
<trkpt lat="43.2415320000" lon="-1.0888770000"><ele>147</ele><time>2026-04-24T11:54:44Z</time></trkpt>
<trkpt lat="43.2415550000" lon="-1.0888620000"><ele>147</ele><time>2026-04-24T11:54:46Z</time></trkpt>
<trkpt lat="43.2415770000" lon="-1.0888420000"><ele>146</ele><time>2026-04-24T11:54:48Z</time></trkpt>
<trkpt lat="43.2416020000" lon="-1.0888270000"><ele>146</ele><time>2026-04-24T11:54:50Z</time></trkpt>
<trkpt lat="43.2416300000" lon="-1.0888070000"><ele>146</ele><time>2026-04-24T11:54:52Z</time></trkpt>
<trkpt lat="43.2416520000" lon="-1.0887870000"><ele>146</ele><time>2026-04-24T11:54:54Z</time></trkpt>
<trkpt lat="43.2416720000" lon="-1.0887650000"><ele>146</ele><time>2026-04-24T11:54:56Z</time></trkpt>
<trkpt lat="43.2416920000" lon="-1.0887450000"><ele>146</ele><time>2026-04-24T11:54:58Z</time></trkpt>
<trkpt lat="43.2417120000" lon="-1.0887220000"><ele>146</ele><time>2026-04-24T11:55:00Z</time></trkpt>
<trkpt lat="43.2417420000" lon="-1.0887070000"><ele>146</ele><time>2026-04-24T11:55:02Z</time></trkpt>
<trkpt lat="43.2417700000" lon="-1.0886920000"><ele>146</ele><time>2026-04-24T11:55:04Z</time></trkpt>
<trkpt lat="43.2417970000" lon="-1.0886720000"><ele>146</ele><time>2026-04-24T11:55:06Z</time></trkpt>
<trkpt lat="43.2418220000" lon="-1.0886470000"><ele>146</ele><time>2026-04-24T11:55:08Z</time></trkpt>
<trkpt lat="43.2418400000" lon="-1.0886220000"><ele>146</ele><time>2026-04-24T11:55:10Z</time></trkpt>
<trkpt lat="43.2418570000" lon="-1.0886000000"><ele>146</ele><time>2026-04-24T11:55:12Z</time></trkpt>
<trkpt lat="43.2418720000" lon="-1.0885770000"><ele>145</ele><time>2026-04-24T11:55:14Z</time></trkpt>
<trkpt lat="43.2418900000" lon="-1.0885570000"><ele>145</ele><time>2026-04-24T11:55:16Z</time></trkpt>
<trkpt lat="43.2419070000" lon="-1.0885320000"><ele>145</ele><time>2026-04-24T11:55:18Z</time></trkpt>
<trkpt lat="43.2419220000" lon="-1.0885120000"><ele>145</ele><time>2026-04-24T11:55:20Z</time></trkpt>
<trkpt lat="43.2419370000" lon="-1.0884900000"><ele>145</ele><time>2026-04-24T11:55:22Z</time></trkpt>
<trkpt lat="43.2419520000" lon="-1.0884620000"><ele>145</ele><time>2026-04-24T11:55:24Z</time></trkpt>
<trkpt lat="43.2419720000" lon="-1.0884420000"><ele>145</ele><time>2026-04-24T11:55:26Z</time></trkpt>
<trkpt lat="43.2419970000" lon="-1.0884270000"><ele>145</ele><time>2026-04-24T11:55:28Z</time></trkpt>
<trkpt lat="43.2420200000" lon="-1.0884100000"><ele>145</ele><time>2026-04-24T11:55:30Z</time></trkpt>
<trkpt lat="43.2420420000" lon="-1.0883900000"><ele>145</ele><time>2026-04-24T11:55:32Z</time></trkpt>
<trkpt lat="43.2420670000" lon="-1.0883750000"><ele>145</ele><time>2026-04-24T11:55:34Z</time></trkpt>
<trkpt lat="43.2420870000" lon="-1.0883570000"><ele>145</ele><time>2026-04-24T11:55:36Z</time></trkpt>
<trkpt lat="43.2421100000" lon="-1.0883470000"><ele>145</ele><time>2026-04-24T11:55:38Z</time></trkpt>
<trkpt lat="43.2421320000" lon="-1.0883400000"><ele>144</ele><time>2026-04-24T11:55:40Z</time></trkpt>
<trkpt lat="43.2421570000" lon="-1.0883250000"><ele>144</ele><time>2026-04-24T11:55:43Z</time></trkpt>
<trkpt lat="43.2421870000" lon="-1.0883120000"><ele>144</ele><time>2026-04-24T11:55:45Z</time></trkpt>
<trkpt lat="43.2422120000" lon="-1.0883050000"><ele>144</ele><time>2026-04-24T11:55:47Z</time></trkpt>
<trkpt lat="43.2422370000" lon="-1.0882920000"><ele>144</ele><time>2026-04-24T11:55:49Z</time></trkpt>
<trkpt lat="43.2422600000" lon="-1.0882800000"><ele>144</ele><time>2026-04-24T11:55:51Z</time></trkpt>
<trkpt lat="43.2422770000" lon="-1.0882620000"><ele>144</ele><time>2026-04-24T11:55:53Z</time></trkpt>
<trkpt lat="43.2422970000" lon="-1.0882520000"><ele>144</ele><time>2026-04-24T11:55:55Z</time></trkpt>
<trkpt lat="43.2423220000" lon="-1.0882370000"><ele>144</ele><time>2026-04-24T11:55:57Z</time></trkpt>
<trkpt lat="43.2423470000" lon="-1.0882270000"><ele>144</ele><time>2026-04-24T11:55:59Z</time></trkpt>
<trkpt lat="43.2423720000" lon="-1.0882100000"><ele>144</ele><time>2026-04-24T11:56:01Z</time></trkpt>
<trkpt lat="43.2423970000" lon="-1.0881970000"><ele>144</ele><time>2026-04-24T11:56:03Z</time></trkpt>
<trkpt lat="43.2424150000" lon="-1.0881770000"><ele>144</ele><time>2026-04-24T11:56:05Z</time></trkpt>
<trkpt lat="43.2424370000" lon="-1.0881570000"><ele>144</ele><time>2026-04-24T11:56:08Z</time></trkpt>
<trkpt lat="43.2424570000" lon="-1.0881320000"><ele>144</ele><time>2026-04-24T11:56:11Z</time></trkpt>
<trkpt lat="43.2424770000" lon="-1.0881170000"><ele>144</ele><time>2026-04-24T11:56:13Z</time></trkpt>
<trkpt lat="43.2425070000" lon="-1.0881020000"><ele>144</ele><time>2026-04-24T11:56:15Z</time></trkpt>
<trkpt lat="43.2425250000" lon="-1.0880950000"><ele>144</ele><time>2026-04-24T11:56:16Z</time></trkpt>
<trkpt lat="43.2425550000" lon="-1.0880820000"><ele>144</ele><time>2026-04-24T11:56:18Z</time></trkpt>
<trkpt lat="43.2425820000" lon="-1.0880700000"><ele>144</ele><time>2026-04-24T11:56:20Z</time></trkpt>
<trkpt lat="43.2426070000" lon="-1.0880570000"><ele>144</ele><time>2026-04-24T11:56:22Z</time></trkpt>
<trkpt lat="43.2426320000" lon="-1.0880470000"><ele>144</ele><time>2026-04-24T11:56:24Z</time></trkpt>
<trkpt lat="43.2426550000" lon="-1.0880350000"><ele>144</ele><time>2026-04-24T11:56:26Z</time></trkpt>
<trkpt lat="43.2426800000" lon="-1.0880250000"><ele>144</ele><time>2026-04-24T11:56:28Z</time></trkpt>
<trkpt lat="43.2427020000" lon="-1.0880070000"><ele>144</ele><time>2026-04-24T11:56:30Z</time></trkpt>
<trkpt lat="43.2427270000" lon="-1.0879950000"><ele>144</ele><time>2026-04-24T11:56:32Z</time></trkpt>
<trkpt lat="43.2427500000" lon="-1.0879820000"><ele>144</ele><time>2026-04-24T11:56:34Z</time></trkpt>
<trkpt lat="43.2427720000" lon="-1.0879670000"><ele>144</ele><time>2026-04-24T11:56:36Z</time></trkpt>
<trkpt lat="43.2427920000" lon="-1.0879520000"><ele>144</ele><time>2026-04-24T11:56:38Z</time></trkpt>
<trkpt lat="43.2428120000" lon="-1.0879350000"><ele>144</ele><time>2026-04-24T11:56:40Z</time></trkpt>
<trkpt lat="43.2428320000" lon="-1.0879170000"><ele>144</ele><time>2026-04-24T11:56:42Z</time></trkpt>
<trkpt lat="43.2428550000" lon="-1.0878970000"><ele>144</ele><time>2026-04-24T11:56:44Z</time></trkpt>
<trkpt lat="43.2428720000" lon="-1.0878720000"><ele>144</ele><time>2026-04-24T11:56:46Z</time></trkpt>
<trkpt lat="43.2428920000" lon="-1.0878500000"><ele>145</ele><time>2026-04-24T11:56:48Z</time></trkpt>
<trkpt lat="43.2429100000" lon="-1.0878220000"><ele>144</ele><time>2026-04-24T11:56:50Z</time></trkpt>
<trkpt lat="43.2429270000" lon="-1.0877970000"><ele>144</ele><time>2026-04-24T11:56:52Z</time></trkpt>
<trkpt lat="43.2429450000" lon="-1.0877770000"><ele>144</ele><time>2026-04-24T11:56:54Z</time></trkpt>
<trkpt lat="43.2429620000" lon="-1.0877570000"><ele>144</ele><time>2026-04-24T11:56:56Z</time></trkpt>
<trkpt lat="43.2429800000" lon="-1.0877370000"><ele>145</ele><time>2026-04-24T11:56:58Z</time></trkpt>
<trkpt lat="43.2429970000" lon="-1.0877170000"><ele>145</ele><time>2026-04-24T11:57:00Z</time></trkpt>
<trkpt lat="43.2430170000" lon="-1.0876970000"><ele>144</ele><time>2026-04-24T11:57:02Z</time></trkpt>
<trkpt lat="43.2430400000" lon="-1.0876770000"><ele>144</ele><time>2026-04-24T11:57:04Z</time></trkpt>
<trkpt lat="43.2430620000" lon="-1.0876600000"><ele>144</ele><time>2026-04-24T11:57:06Z</time></trkpt>
<trkpt lat="43.2430820000" lon="-1.0876400000"><ele>144</ele><time>2026-04-24T11:57:08Z</time></trkpt>
<trkpt lat="43.2431020000" lon="-1.0876170000"><ele>144</ele><time>2026-04-24T11:57:10Z</time></trkpt>
<trkpt lat="43.2431220000" lon="-1.0875950000"><ele>144</ele><time>2026-04-24T11:57:12Z</time></trkpt>
<trkpt lat="43.2431380000" lon="-1.0875720000"><ele>144</ele><time>2026-04-24T11:57:14Z</time></trkpt>
<trkpt lat="43.2431570000" lon="-1.0875500000"><ele>144</ele><time>2026-04-24T11:57:16Z</time></trkpt>
<trkpt lat="43.2431770000" lon="-1.0875320000"><ele>144</ele><time>2026-04-24T11:57:18Z</time></trkpt>
<trkpt lat="43.2431900000" lon="-1.0875100000"><ele>144</ele><time>2026-04-24T11:57:20Z</time></trkpt>
<trkpt lat="43.2432050000" lon="-1.0874870000"><ele>144</ele><time>2026-04-24T11:57:22Z</time></trkpt>
<trkpt lat="43.2432200000" lon="-1.0874670000"><ele>144</ele><time>2026-04-24T11:57:24Z</time></trkpt>
<trkpt lat="43.2432370000" lon="-1.0874470000"><ele>144</ele><time>2026-04-24T11:57:26Z</time></trkpt>
<trkpt lat="43.2432650000" lon="-1.0874270000"><ele>144</ele><time>2026-04-24T11:57:28Z</time></trkpt>
<trkpt lat="43.2432900000" lon="-1.0874070000"><ele>144</ele><time>2026-04-24T11:57:30Z</time></trkpt>
<trkpt lat="43.2433120000" lon="-1.0873820000"><ele>144</ele><time>2026-04-24T11:57:32Z</time></trkpt>
<trkpt lat="43.2433320000" lon="-1.0873600000"><ele>144</ele><time>2026-04-24T11:57:34Z</time></trkpt>
<trkpt lat="43.2433520000" lon="-1.0873400000"><ele>144</ele><time>2026-04-24T11:57:36Z</time></trkpt>
<trkpt lat="43.2433750000" lon="-1.0873170000"><ele>144</ele><time>2026-04-24T11:57:38Z</time></trkpt>
<trkpt lat="43.2433950000" lon="-1.0872970000"><ele>144</ele><time>2026-04-24T11:57:40Z</time></trkpt>
<trkpt lat="43.2434120000" lon="-1.0872770000"><ele>144</ele><time>2026-04-24T11:57:42Z</time></trkpt>
<trkpt lat="43.2434330000" lon="-1.0872570000"><ele>144</ele><time>2026-04-24T11:57:44Z</time></trkpt>
<trkpt lat="43.2434520000" lon="-1.0872320000"><ele>144</ele><time>2026-04-24T11:57:46Z</time></trkpt>
<trkpt lat="43.2434700000" lon="-1.0872070000"><ele>144</ele><time>2026-04-24T11:57:48Z</time></trkpt>
<trkpt lat="43.2434870000" lon="-1.0871820000"><ele>144</ele><time>2026-04-24T11:57:50Z</time></trkpt>
<trkpt lat="43.2435070000" lon="-1.0871600000"><ele>144</ele><time>2026-04-24T11:57:52Z</time></trkpt>
<trkpt lat="43.2435220000" lon="-1.0871370000"><ele>144</ele><time>2026-04-24T11:57:54Z</time></trkpt>
<trkpt lat="43.2435420000" lon="-1.0871120000"><ele>144</ele><time>2026-04-24T11:57:56Z</time></trkpt>
<trkpt lat="43.2435620000" lon="-1.0870870000"><ele>144</ele><time>2026-04-24T11:57:58Z</time></trkpt>
<trkpt lat="43.2435870000" lon="-1.0870670000"><ele>144</ele><time>2026-04-24T11:58:00Z</time></trkpt>
<trkpt lat="43.2436050000" lon="-1.0870470000"><ele>144</ele><time>2026-04-24T11:58:02Z</time></trkpt>
<trkpt lat="43.2436220000" lon="-1.0870250000"><ele>144</ele><time>2026-04-24T11:58:04Z</time></trkpt>
<trkpt lat="43.2436420000" lon="-1.0870020000"><ele>144</ele><time>2026-04-24T11:58:06Z</time></trkpt>
<trkpt lat="43.2436620000" lon="-1.0869820000"><ele>144</ele><time>2026-04-24T11:58:08Z</time></trkpt>
<trkpt lat="43.2436770000" lon="-1.0869620000"><ele>144</ele><time>2026-04-24T11:58:10Z</time></trkpt>
<trkpt lat="43.2436870000" lon="-1.0869370000"><ele>144</ele><time>2026-04-24T11:58:12Z</time></trkpt>
<trkpt lat="43.2436850000" lon="-1.0869120000"><ele>143</ele><time>2026-04-24T12:00:07Z</time></trkpt>
<trkpt lat="43.2436770000" lon="-1.0868870000"><ele>143</ele><time>2026-04-24T12:00:09Z</time></trkpt>
<trkpt lat="43.2436950000" lon="-1.0868820000"><ele>143</ele><time>2026-04-24T12:02:59Z</time></trkpt>
<trkpt lat="43.2437200000" lon="-1.0868770000"><ele>144</ele><time>2026-04-24T12:03:01Z</time></trkpt>
<trkpt lat="43.2437420000" lon="-1.0868570000"><ele>144</ele><time>2026-04-24T12:03:03Z</time></trkpt>
<trkpt lat="43.2437570000" lon="-1.0868320000"><ele>144</ele><time>2026-04-24T12:03:05Z</time></trkpt>
<trkpt lat="43.2437700000" lon="-1.0868100000"><ele>144</ele><time>2026-04-24T12:03:07Z</time></trkpt>
<trkpt lat="43.2437820000" lon="-1.0867900000"><ele>144</ele><time>2026-04-24T12:03:09Z</time></trkpt>
<trkpt lat="43.2438000000" lon="-1.0867620000"><ele>144</ele><time>2026-04-24T12:03:12Z</time></trkpt>
<trkpt lat="43.2438130000" lon="-1.0867270000"><ele>145</ele><time>2026-04-24T12:03:19Z</time></trkpt>
<trkpt lat="43.2438320000" lon="-1.0867000000"><ele>145</ele><time>2026-04-24T12:03:21Z</time></trkpt>
<trkpt lat="43.2438520000" lon="-1.0866720000"><ele>145</ele><time>2026-04-24T12:03:23Z</time></trkpt>
<trkpt lat="43.2438670000" lon="-1.0866520000"><ele>145</ele><time>2026-04-24T12:03:25Z</time></trkpt>
<trkpt lat="43.2438870000" lon="-1.0866270000"><ele>145</ele><time>2026-04-24T12:03:27Z</time></trkpt>
<trkpt lat="43.2439050000" lon="-1.0865970000"><ele>145</ele><time>2026-04-24T12:03:29Z</time></trkpt>
<trkpt lat="43.2439200000" lon="-1.0865800000"><ele>146</ele><time>2026-04-24T12:03:31Z</time></trkpt>
<trkpt lat="43.2439370000" lon="-1.0865550000"><ele>146</ele><time>2026-04-24T12:03:33Z</time></trkpt>
<trkpt lat="43.2439520000" lon="-1.0865270000"><ele>146</ele><time>2026-04-24T12:03:35Z</time></trkpt>
<trkpt lat="43.2439650000" lon="-1.0865050000"><ele>146</ele><time>2026-04-24T12:03:37Z</time></trkpt>
<trkpt lat="43.2439770000" lon="-1.0864800000"><ele>146</ele><time>2026-04-24T12:03:39Z</time></trkpt>
<trkpt lat="43.2439920000" lon="-1.0864570000"><ele>146</ele><time>2026-04-24T12:03:41Z</time></trkpt>
<trkpt lat="43.2440100000" lon="-1.0864400000"><ele>146</ele><time>2026-04-24T12:03:43Z</time></trkpt>
<trkpt lat="43.2440350000" lon="-1.0864270000"><ele>147</ele><time>2026-04-24T12:03:51Z</time></trkpt>
<trkpt lat="43.2440520000" lon="-1.0864050000"><ele>147</ele><time>2026-04-24T12:03:53Z</time></trkpt>
<trkpt lat="43.2440700000" lon="-1.0863820000"><ele>146</ele><time>2026-04-24T12:03:55Z</time></trkpt>
<trkpt lat="43.2440800000" lon="-1.0863520000"><ele>146</ele><time>2026-04-24T12:03:57Z</time></trkpt>
<trkpt lat="43.2440900000" lon="-1.0863220000"><ele>147</ele><time>2026-04-24T12:03:59Z</time></trkpt>
<trkpt lat="43.2441020000" lon="-1.0863020000"><ele>147</ele><time>2026-04-24T12:04:05Z</time></trkpt>
<trkpt lat="43.2441150000" lon="-1.0862770000"><ele>147</ele><time>2026-04-24T12:04:07Z</time></trkpt>
<trkpt lat="43.2441270000" lon="-1.0862520000"><ele>147</ele><time>2026-04-24T12:04:09Z</time></trkpt>
<trkpt lat="43.2441450000" lon="-1.0862320000"><ele>147</ele><time>2026-04-24T12:04:11Z</time></trkpt>
<trkpt lat="43.2441620000" lon="-1.0862070000"><ele>147</ele><time>2026-04-24T12:04:13Z</time></trkpt>
<trkpt lat="43.2441770000" lon="-1.0861820000"><ele>148</ele><time>2026-04-24T12:04:15Z</time></trkpt>
<trkpt lat="43.2441930000" lon="-1.0861570000"><ele>148</ele><time>2026-04-24T12:04:17Z</time></trkpt>
<trkpt lat="43.2442150000" lon="-1.0861320000"><ele>148</ele><time>2026-04-24T12:04:19Z</time></trkpt>
<trkpt lat="43.2442300000" lon="-1.0861100000"><ele>148</ele><time>2026-04-24T12:04:21Z</time></trkpt>
<trkpt lat="43.2442470000" lon="-1.0860870000"><ele>148</ele><time>2026-04-24T12:04:23Z</time></trkpt>
<trkpt lat="43.2442620000" lon="-1.0860650000"><ele>148</ele><time>2026-04-24T12:04:25Z</time></trkpt>
<trkpt lat="43.2442800000" lon="-1.0860370000"><ele>148</ele><time>2026-04-24T12:04:27Z</time></trkpt>
<trkpt lat="43.2442950000" lon="-1.0860120000"><ele>149</ele><time>2026-04-24T12:04:29Z</time></trkpt>
<trkpt lat="43.2443070000" lon="-1.0859820000"><ele>149</ele><time>2026-04-24T12:04:31Z</time></trkpt>
<trkpt lat="43.2443200000" lon="-1.0859550000"><ele>149</ele><time>2026-04-24T12:04:33Z</time></trkpt>
<trkpt lat="43.2443370000" lon="-1.0859300000"><ele>149</ele><time>2026-04-24T12:04:35Z</time></trkpt>
<trkpt lat="43.2443570000" lon="-1.0859200000"><ele>149</ele><time>2026-04-24T12:04:38Z</time></trkpt>
<trkpt lat="43.2443700000" lon="-1.0858920000"><ele>150</ele><time>2026-04-24T12:04:52Z</time></trkpt>
<trkpt lat="43.2443850000" lon="-1.0858500000"><ele>150</ele><time>2026-04-24T12:04:54Z</time></trkpt>
<trkpt lat="43.2443970000" lon="-1.0858120000"><ele>150</ele><time>2026-04-24T12:04:56Z</time></trkpt>
<trkpt lat="43.2444150000" lon="-1.0857850000"><ele>150</ele><time>2026-04-24T12:04:58Z</time></trkpt>
<trkpt lat="43.2444320000" lon="-1.0857620000"><ele>150</ele><time>2026-04-24T12:05:00Z</time></trkpt>
<trkpt lat="43.2444520000" lon="-1.0857550000"><ele>150</ele><time>2026-04-24T12:05:02Z</time></trkpt>
<trkpt lat="43.2444800000" lon="-1.0857520000"><ele>150</ele><time>2026-04-24T12:05:04Z</time></trkpt>
<trkpt lat="43.2445030000" lon="-1.0857470000"><ele>150</ele><time>2026-04-24T12:05:06Z</time></trkpt>
<trkpt lat="43.2445250000" lon="-1.0857470000"><ele>150</ele><time>2026-04-24T12:05:08Z</time></trkpt>
<trkpt lat="43.2445450000" lon="-1.0857450000"><ele>150</ele><time>2026-04-24T12:05:10Z</time></trkpt>
<trkpt lat="43.2445670000" lon="-1.0857550000"><ele>150</ele><time>2026-04-24T12:05:12Z</time></trkpt>
<trkpt lat="43.2445870000" lon="-1.0857670000"><ele>150</ele><time>2026-04-24T12:05:14Z</time></trkpt>
<trkpt lat="43.2446070000" lon="-1.0857770000"><ele>150</ele><time>2026-04-24T12:05:17Z</time></trkpt>
<trkpt lat="43.2446270000" lon="-1.0857650000"><ele>151</ele><time>2026-04-24T12:05:26Z</time></trkpt>
<trkpt lat="43.2446370000" lon="-1.0857450000"><ele>150</ele><time>2026-04-24T12:05:33Z</time></trkpt>
<trkpt lat="43.2446570000" lon="-1.0857120000"><ele>150</ele><time>2026-04-24T12:05:35Z</time></trkpt>
<trkpt lat="43.2446720000" lon="-1.0856900000"><ele>150</ele><time>2026-04-24T12:05:36Z</time></trkpt>
<trkpt lat="43.2446870000" lon="-1.0856670000"><ele>150</ele><time>2026-04-24T12:05:37Z</time></trkpt>
<trkpt lat="43.2447020000" lon="-1.0856520000"><ele>150</ele><time>2026-04-24T12:05:38Z</time></trkpt>
<trkpt lat="43.2447220000" lon="-1.0856320000"><ele>150</ele><time>2026-04-24T12:05:40Z</time></trkpt>
<trkpt lat="43.2447420000" lon="-1.0856150000"><ele>150</ele><time>2026-04-24T12:05:42Z</time></trkpt>
<trkpt lat="43.2447600000" lon="-1.0855970000"><ele>150</ele><time>2026-04-24T12:05:45Z</time></trkpt>
<trkpt lat="43.2447770000" lon="-1.0855870000"><ele>150</ele><time>2026-04-24T12:05:47Z</time></trkpt>
<trkpt lat="43.2447920000" lon="-1.0855700000"><ele>149</ele><time>2026-04-24T12:05:49Z</time></trkpt>
<trkpt lat="43.2448220000" lon="-1.0855520000"><ele>149</ele><time>2026-04-24T12:05:51Z</time></trkpt>
<trkpt lat="43.2448400000" lon="-1.0855420000"><ele>149</ele><time>2026-04-24T12:05:53Z</time></trkpt>
<trkpt lat="43.2448600000" lon="-1.0855320000"><ele>149</ele><time>2026-04-24T12:05:55Z</time></trkpt>
<trkpt lat="43.2448800000" lon="-1.0855250000"><ele>149</ele><time>2026-04-24T12:05:57Z</time></trkpt>
<trkpt lat="43.2449000000" lon="-1.0855170000"><ele>148</ele><time>2026-04-24T12:05:59Z</time></trkpt>
<trkpt lat="43.2449300000" lon="-1.0855070000"><ele>148</ele><time>2026-04-24T12:06:01Z</time></trkpt>
<trkpt lat="43.2449530000" lon="-1.0854950000"><ele>148</ele><time>2026-04-24T12:06:03Z</time></trkpt>
<trkpt lat="43.2449670000" lon="-1.0854750000"><ele>148</ele><time>2026-04-24T12:06:05Z</time></trkpt>
<trkpt lat="43.2449820000" lon="-1.0854570000"><ele>148</ele><time>2026-04-24T12:06:07Z</time></trkpt>
<trkpt lat="43.2449950000" lon="-1.0854320000"><ele>147</ele><time>2026-04-24T12:06:09Z</time></trkpt>
<trkpt lat="43.2450070000" lon="-1.0854070000"><ele>147</ele><time>2026-04-24T12:06:11Z</time></trkpt>
<trkpt lat="43.2450220000" lon="-1.0853870000"><ele>147</ele><time>2026-04-24T12:06:13Z</time></trkpt>
<trkpt lat="43.2450370000" lon="-1.0853670000"><ele>147</ele><time>2026-04-24T12:06:15Z</time></trkpt>
<trkpt lat="43.2450600000" lon="-1.0853420000"><ele>147</ele><time>2026-04-24T12:06:17Z</time></trkpt>
<trkpt lat="43.2450750000" lon="-1.0853270000"><ele>146</ele><time>2026-04-24T12:06:19Z</time></trkpt>
<trkpt lat="43.2450950000" lon="-1.0853100000"><ele>146</ele><time>2026-04-24T12:06:21Z</time></trkpt>
<trkpt lat="43.2451200000" lon="-1.0852900000"><ele>146</ele><time>2026-04-24T12:06:23Z</time></trkpt>
<trkpt lat="43.2451420000" lon="-1.0852800000"><ele>146</ele><time>2026-04-24T12:06:25Z</time></trkpt>
<trkpt lat="43.2451670000" lon="-1.0852770000"><ele>146</ele><time>2026-04-24T12:06:27Z</time></trkpt>
<trkpt lat="43.2451920000" lon="-1.0852650000"><ele>146</ele><time>2026-04-24T12:06:30Z</time></trkpt>
<trkpt lat="43.2452120000" lon="-1.0852470000"><ele>145</ele><time>2026-04-24T12:06:32Z</time></trkpt>
<trkpt lat="43.2452320000" lon="-1.0852320000"><ele>145</ele><time>2026-04-24T12:06:35Z</time></trkpt>
<trkpt lat="43.2452570000" lon="-1.0852170000"><ele>145</ele><time>2026-04-24T12:06:39Z</time></trkpt>
<trkpt lat="43.2452820000" lon="-1.0852050000"><ele>145</ele><time>2026-04-24T12:06:41Z</time></trkpt>
<trkpt lat="43.2453020000" lon="-1.0851820000"><ele>144</ele><time>2026-04-24T12:06:43Z</time></trkpt>
<trkpt lat="43.2453270000" lon="-1.0851670000"><ele>144</ele><time>2026-04-24T12:06:45Z</time></trkpt>
<trkpt lat="43.2453620000" lon="-1.0851570000"><ele>144</ele><time>2026-04-24T12:06:47Z</time></trkpt>
<trkpt lat="43.2453820000" lon="-1.0851520000"><ele>144</ele><time>2026-04-24T12:06:49Z</time></trkpt>
<trkpt lat="43.2454020000" lon="-1.0851420000"><ele>144</ele><time>2026-04-24T12:06:51Z</time></trkpt>
<trkpt lat="43.2454270000" lon="-1.0851270000"><ele>144</ele><time>2026-04-24T12:06:54Z</time></trkpt>
<trkpt lat="43.2454420000" lon="-1.0851050000"><ele>144</ele><time>2026-04-24T12:06:55Z</time></trkpt>
<trkpt lat="43.2454620000" lon="-1.0850820000"><ele>144</ele><time>2026-04-24T12:06:57Z</time></trkpt>
<trkpt lat="43.2454850000" lon="-1.0850520000"><ele>144</ele><time>2026-04-24T12:06:59Z</time></trkpt>
<trkpt lat="43.2455020000" lon="-1.0850370000"><ele>144</ele><time>2026-04-24T12:07:01Z</time></trkpt>
<trkpt lat="43.2455270000" lon="-1.0850120000"><ele>144</ele><time>2026-04-24T12:07:03Z</time></trkpt>
<trkpt lat="43.2455420000" lon="-1.0849850000"><ele>144</ele><time>2026-04-24T12:07:05Z</time></trkpt>
<trkpt lat="43.2455620000" lon="-1.0849570000"><ele>144</ele><time>2026-04-24T12:07:07Z</time></trkpt>
<trkpt lat="43.2455800000" lon="-1.0849370000"><ele>144</ele><time>2026-04-24T12:07:09Z</time></trkpt>
<trkpt lat="43.2455920000" lon="-1.0849070000"><ele>144</ele><time>2026-04-24T12:07:11Z</time></trkpt>
<trkpt lat="43.2456100000" lon="-1.0848820000"><ele>144</ele><time>2026-04-24T12:07:13Z</time></trkpt>
<trkpt lat="43.2456320000" lon="-1.0848620000"><ele>144</ele><time>2026-04-24T12:07:15Z</time></trkpt>
<trkpt lat="43.2456470000" lon="-1.0848420000"><ele>144</ele><time>2026-04-24T12:07:17Z</time></trkpt>
<trkpt lat="43.2456670000" lon="-1.0848170000"><ele>144</ele><time>2026-04-24T12:07:19Z</time></trkpt>
<trkpt lat="43.2456820000" lon="-1.0847920000"><ele>144</ele><time>2026-04-24T12:07:21Z</time></trkpt>
<trkpt lat="43.2456970000" lon="-1.0847650000"><ele>144</ele><time>2026-04-24T12:07:23Z</time></trkpt>
<trkpt lat="43.2457100000" lon="-1.0847370000"><ele>144</ele><time>2026-04-24T12:07:25Z</time></trkpt>
<trkpt lat="43.2457130000" lon="-1.0847070000"><ele>144</ele><time>2026-04-24T12:07:27Z</time></trkpt>
<trkpt lat="43.2457270000" lon="-1.0846820000"><ele>144</ele><time>2026-04-24T12:07:29Z</time></trkpt>
<trkpt lat="43.2457500000" lon="-1.0846620000"><ele>144</ele><time>2026-04-24T12:07:31Z</time></trkpt>
<trkpt lat="43.2457650000" lon="-1.0846370000"><ele>144</ele><time>2026-04-24T12:07:33Z</time></trkpt>
<trkpt lat="43.2457770000" lon="-1.0846150000"><ele>144</ele><time>2026-04-24T12:07:35Z</time></trkpt>
<trkpt lat="43.2457820000" lon="-1.0845870000"><ele>144</ele><time>2026-04-24T12:07:37Z</time></trkpt>
<trkpt lat="43.2457920000" lon="-1.0845650000"><ele>144</ele><time>2026-04-24T12:07:39Z</time></trkpt>
<trkpt lat="43.2458050000" lon="-1.0845400000"><ele>145</ele><time>2026-04-24T12:07:41Z</time></trkpt>
<trkpt lat="43.2458270000" lon="-1.0845170000"><ele>145</ele><time>2026-04-24T12:07:43Z</time></trkpt>
<trkpt lat="43.2458450000" lon="-1.0844950000"><ele>145</ele><time>2026-04-24T12:07:45Z</time></trkpt>
<trkpt lat="43.2458600000" lon="-1.0844720000"><ele>144</ele><time>2026-04-24T12:07:47Z</time></trkpt>
<trkpt lat="43.2458770000" lon="-1.0844500000"><ele>144</ele><time>2026-04-24T12:07:49Z</time></trkpt>
<trkpt lat="43.2458970000" lon="-1.0844270000"><ele>145</ele><time>2026-04-24T12:07:51Z</time></trkpt>
<trkpt lat="43.2459100000" lon="-1.0843920000"><ele>145</ele><time>2026-04-24T12:07:54Z</time></trkpt>
<trkpt lat="43.2459220000" lon="-1.0843650000"><ele>145</ele><time>2026-04-24T12:07:56Z</time></trkpt>
<trkpt lat="43.2459350000" lon="-1.0843430000"><ele>145</ele><time>2026-04-24T12:07:58Z</time></trkpt>
<trkpt lat="43.2459520000" lon="-1.0843250000"><ele>145</ele><time>2026-04-24T12:08:00Z</time></trkpt>
<trkpt lat="43.2459650000" lon="-1.0843000000"><ele>145</ele><time>2026-04-24T12:08:02Z</time></trkpt>
<trkpt lat="43.2459820000" lon="-1.0842700000"><ele>145</ele><time>2026-04-24T12:08:04Z</time></trkpt>
<trkpt lat="43.2459900000" lon="-1.0842420000"><ele>145</ele><time>2026-04-24T12:08:06Z</time></trkpt>
<trkpt lat="43.2459970000" lon="-1.0842150000"><ele>145</ele><time>2026-04-24T12:08:08Z</time></trkpt>
<trkpt lat="43.2460080000" lon="-1.0841850000"><ele>145</ele><time>2026-04-24T12:08:10Z</time></trkpt>
<trkpt lat="43.2460170000" lon="-1.0841570000"><ele>145</ele><time>2026-04-24T12:08:12Z</time></trkpt>
<trkpt lat="43.2460250000" lon="-1.0841270000"><ele>145</ele><time>2026-04-24T12:08:14Z</time></trkpt>
<trkpt lat="43.2460320000" lon="-1.0840970000"><ele>146</ele><time>2026-04-24T12:08:16Z</time></trkpt>
<trkpt lat="43.2460370000" lon="-1.0840650000"><ele>146</ele><time>2026-04-24T12:08:18Z</time></trkpt>
<trkpt lat="43.2460470000" lon="-1.0840270000"><ele>146</ele><time>2026-04-24T12:08:20Z</time></trkpt>
<trkpt lat="43.2460500000" lon="-1.0839920000"><ele>146</ele><time>2026-04-24T12:08:22Z</time></trkpt>
<trkpt lat="43.2460520000" lon="-1.0839600000"><ele>146</ele><time>2026-04-24T12:08:24Z</time></trkpt>
<trkpt lat="43.2460620000" lon="-1.0839300000"><ele>146</ele><time>2026-04-24T12:08:26Z</time></trkpt>
<trkpt lat="43.2460650000" lon="-1.0838970000"><ele>146</ele><time>2026-04-24T12:08:28Z</time></trkpt>
<trkpt lat="43.2460620000" lon="-1.0838620000"><ele>146</ele><time>2026-04-24T12:08:30Z</time></trkpt>
<trkpt lat="43.2460620000" lon="-1.0838220000"><ele>146</ele><time>2026-04-24T12:08:32Z</time></trkpt>
<trkpt lat="43.2460620000" lon="-1.0837900000"><ele>147</ele><time>2026-04-24T12:08:34Z</time></trkpt>
<trkpt lat="43.2460670000" lon="-1.0837600000"><ele>147</ele><time>2026-04-24T12:08:36Z</time></trkpt>
<trkpt lat="43.2460670000" lon="-1.0837320000"><ele>147</ele><time>2026-04-24T12:08:38Z</time></trkpt>
<trkpt lat="43.2460720000" lon="-1.0837070000"><ele>147</ele><time>2026-04-24T12:08:54Z</time></trkpt>
<trkpt lat="43.2460820000" lon="-1.0836870000"><ele>147</ele><time>2026-04-24T12:09:40Z</time></trkpt>
<trkpt lat="43.2460870000" lon="-1.0836570000"><ele>147</ele><time>2026-04-24T12:09:42Z</time></trkpt>
<trkpt lat="43.2460900000" lon="-1.0836200000"><ele>148</ele><time>2026-04-24T12:09:44Z</time></trkpt>
<trkpt lat="43.2460970000" lon="-1.0835870000"><ele>148</ele><time>2026-04-24T12:09:46Z</time></trkpt>
<trkpt lat="43.2460970000" lon="-1.0835570000"><ele>148</ele><time>2026-04-24T12:09:48Z</time></trkpt>
<trkpt lat="43.2461070000" lon="-1.0835270000"><ele>148</ele><time>2026-04-24T12:09:50Z</time></trkpt>
<trkpt lat="43.2461120000" lon="-1.0835020000"><ele>148</ele><time>2026-04-24T12:09:52Z</time></trkpt>
<trkpt lat="43.2461150000" lon="-1.0834720000"><ele>148</ele><time>2026-04-24T12:09:54Z</time></trkpt>
<trkpt lat="43.2461120000" lon="-1.0834400000"><ele>149</ele><time>2026-04-24T12:09:57Z</time></trkpt>
<trkpt lat="43.2461100000" lon="-1.0833970000"><ele>149</ele><time>2026-04-24T12:10:00Z</time></trkpt>
<trkpt lat="43.2461120000" lon="-1.0833670000"><ele>149</ele><time>2026-04-24T12:10:02Z</time></trkpt>
<trkpt lat="43.2461220000" lon="-1.0833370000"><ele>150</ele><time>2026-04-24T12:10:04Z</time></trkpt>
<trkpt lat="43.2461320000" lon="-1.0833120000"><ele>150</ele><time>2026-04-24T12:10:06Z</time></trkpt>
<trkpt lat="43.2461350000" lon="-1.0832850000"><ele>150</ele><time>2026-04-24T12:10:08Z</time></trkpt>
<trkpt lat="43.2461450000" lon="-1.0832550000"><ele>151</ele><time>2026-04-24T12:10:10Z</time></trkpt>
<trkpt lat="43.2461600000" lon="-1.0832220000"><ele>151</ele><time>2026-04-24T12:10:12Z</time></trkpt>
<trkpt lat="43.2461720000" lon="-1.0832050000"><ele>151</ele><time>2026-04-24T12:10:14Z</time></trkpt>
<trkpt lat="43.2461870000" lon="-1.0831820000"><ele>151</ele><time>2026-04-24T12:10:16Z</time></trkpt>
<trkpt lat="43.2462000000" lon="-1.0831520000"><ele>151</ele><time>2026-04-24T12:10:18Z</time></trkpt>
<trkpt lat="43.2462070000" lon="-1.0831250000"><ele>151</ele><time>2026-04-24T12:10:20Z</time></trkpt>
<trkpt lat="43.2462070000" lon="-1.0830970000"><ele>152</ele><time>2026-04-24T12:10:22Z</time></trkpt>
<trkpt lat="43.2462220000" lon="-1.0830720000"><ele>152</ele><time>2026-04-24T12:10:24Z</time></trkpt>
<trkpt lat="43.2462420000" lon="-1.0830520000"><ele>152</ele><time>2026-04-24T12:10:26Z</time></trkpt>
<trkpt lat="43.2462450000" lon="-1.0830170000"><ele>152</ele><time>2026-04-24T12:10:28Z</time></trkpt>
<trkpt lat="43.2462450000" lon="-1.0829820000"><ele>153</ele><time>2026-04-24T12:10:30Z</time></trkpt>
<trkpt lat="43.2462520000" lon="-1.0829520000"><ele>153</ele><time>2026-04-24T12:10:32Z</time></trkpt>
<trkpt lat="43.2462620000" lon="-1.0829270000"><ele>153</ele><time>2026-04-24T12:10:34Z</time></trkpt>
<trkpt lat="43.2462700000" lon="-1.0828970000"><ele>153</ele><time>2026-04-24T12:10:37Z</time></trkpt>
<trkpt lat="43.2462770000" lon="-1.0828670000"><ele>153</ele><time>2026-04-24T12:10:39Z</time></trkpt>
<trkpt lat="43.2462920000" lon="-1.0828370000"><ele>153</ele><time>2026-04-24T12:10:41Z</time></trkpt>
<trkpt lat="43.2463050000" lon="-1.0828100000"><ele>154</ele><time>2026-04-24T12:10:43Z</time></trkpt>
<trkpt lat="43.2463100000" lon="-1.0827820000"><ele>154</ele><time>2026-04-24T12:10:45Z</time></trkpt>
<trkpt lat="43.2463170000" lon="-1.0827570000"><ele>154</ele><time>2026-04-24T12:10:47Z</time></trkpt>
<trkpt lat="43.2463320000" lon="-1.0827370000"><ele>154</ele><time>2026-04-24T12:10:50Z</time></trkpt>
<trkpt lat="43.2463470000" lon="-1.0827200000"><ele>154</ele><time>2026-04-24T12:10:52Z</time></trkpt>
<trkpt lat="43.2463500000" lon="-1.0826870000"><ele>155</ele><time>2026-04-24T12:10:54Z</time></trkpt>
<trkpt lat="43.2463500000" lon="-1.0826570000"><ele>155</ele><time>2026-04-24T12:10:56Z</time></trkpt>
<trkpt lat="43.2463520000" lon="-1.0826300000"><ele>155</ele><time>2026-04-24T12:10:58Z</time></trkpt>
<trkpt lat="43.2463650000" lon="-1.0826100000"><ele>155</ele><time>2026-04-24T12:11:00Z</time></trkpt>
<trkpt lat="43.2463750000" lon="-1.0825850000"><ele>156</ele><time>2026-04-24T12:11:02Z</time></trkpt>
<trkpt lat="43.2463770000" lon="-1.0825550000"><ele>156</ele><time>2026-04-24T12:11:05Z</time></trkpt>
<trkpt lat="43.2463870000" lon="-1.0825220000"><ele>157</ele><time>2026-04-24T12:11:08Z</time></trkpt>
<trkpt lat="43.2463970000" lon="-1.0824950000"><ele>157</ele><time>2026-04-24T12:11:10Z</time></trkpt>
<trkpt lat="43.2464070000" lon="-1.0824650000"><ele>157</ele><time>2026-04-24T12:11:12Z</time></trkpt>
<trkpt lat="43.2464200000" lon="-1.0824370000"><ele>158</ele><time>2026-04-24T12:11:14Z</time></trkpt>
<trkpt lat="43.2464170000" lon="-1.0824070000"><ele>158</ele><time>2026-04-24T12:11:16Z</time></trkpt>
<trkpt lat="43.2464170000" lon="-1.0823720000"><ele>158</ele><time>2026-04-24T12:11:19Z</time></trkpt>
<trkpt lat="43.2464170000" lon="-1.0823400000"><ele>158</ele><time>2026-04-24T12:11:21Z</time></trkpt>
<trkpt lat="43.2464170000" lon="-1.0823120000"><ele>159</ele><time>2026-04-24T12:11:23Z</time></trkpt>
<trkpt lat="43.2464270000" lon="-1.0822900000"><ele>159</ele><time>2026-04-24T12:11:25Z</time></trkpt>
<trkpt lat="43.2464320000" lon="-1.0822600000"><ele>159</ele><time>2026-04-24T12:11:27Z</time></trkpt>
<trkpt lat="43.2464370000" lon="-1.0822220000"><ele>159</ele><time>2026-04-24T12:11:29Z</time></trkpt>
<trkpt lat="43.2464370000" lon="-1.0821830000"><ele>159</ele><time>2026-04-24T12:11:31Z</time></trkpt>
<trkpt lat="43.2464350000" lon="-1.0821520000"><ele>160</ele><time>2026-04-24T12:11:33Z</time></trkpt>
<trkpt lat="43.2464400000" lon="-1.0821220000"><ele>160</ele><time>2026-04-24T12:11:35Z</time></trkpt>
<trkpt lat="43.2464520000" lon="-1.0821020000"><ele>160</ele><time>2026-04-24T12:11:40Z</time></trkpt>
<trkpt lat="43.2464520000" lon="-1.0820620000"><ele>160</ele><time>2026-04-24T12:11:43Z</time></trkpt>
<trkpt lat="43.2464420000" lon="-1.0820320000"><ele>160</ele><time>2026-04-24T12:11:45Z</time></trkpt>
<trkpt lat="43.2464420000" lon="-1.0820070000"><ele>160</ele><time>2026-04-24T12:11:47Z</time></trkpt>
<trkpt lat="43.2464470000" lon="-1.0819800000"><ele>160</ele><time>2026-04-24T12:11:49Z</time></trkpt>
<trkpt lat="43.2464470000" lon="-1.0819470000"><ele>160</ele><time>2026-04-24T12:11:51Z</time></trkpt>
<trkpt lat="43.2464470000" lon="-1.0819170000"><ele>160</ele><time>2026-04-24T12:11:53Z</time></trkpt>
<trkpt lat="43.2464450000" lon="-1.0818850000"><ele>160</ele><time>2026-04-24T12:11:58Z</time></trkpt>
<trkpt lat="43.2464520000" lon="-1.0818550000"><ele>160</ele><time>2026-04-24T12:12:00Z</time></trkpt>
<trkpt lat="43.2464570000" lon="-1.0818270000"><ele>160</ele><time>2026-04-24T12:12:02Z</time></trkpt>
<trkpt lat="43.2464620000" lon="-1.0818020000"><ele>160</ele><time>2026-04-24T12:12:04Z</time></trkpt>
<trkpt lat="43.2464620000" lon="-1.0817720000"><ele>160</ele><time>2026-04-24T12:12:06Z</time></trkpt>
<trkpt lat="43.2464670000" lon="-1.0817370000"><ele>160</ele><time>2026-04-24T12:12:08Z</time></trkpt>
<trkpt lat="43.2464700000" lon="-1.0817020000"><ele>160</ele><time>2026-04-24T12:12:10Z</time></trkpt>
<trkpt lat="43.2464720000" lon="-1.0816700000"><ele>160</ele><time>2026-04-24T12:12:12Z</time></trkpt>
<trkpt lat="43.2464770000" lon="-1.0816420000"><ele>160</ele><time>2026-04-24T12:12:14Z</time></trkpt>
<trkpt lat="43.2464850000" lon="-1.0816120000"><ele>161</ele><time>2026-04-24T12:12:16Z</time></trkpt>
<trkpt lat="43.2465000000" lon="-1.0815870000"><ele>161</ele><time>2026-04-24T12:12:18Z</time></trkpt>
<trkpt lat="43.2465120000" lon="-1.0815600000"><ele>161</ele><time>2026-04-24T12:12:20Z</time></trkpt>
<trkpt lat="43.2465270000" lon="-1.0815320000"><ele>161</ele><time>2026-04-24T12:12:22Z</time></trkpt>
<trkpt lat="43.2465370000" lon="-1.0815050000"><ele>161</ele><time>2026-04-24T12:12:24Z</time></trkpt>
<trkpt lat="43.2465500000" lon="-1.0814770000"><ele>161</ele><time>2026-04-24T12:12:26Z</time></trkpt>
<trkpt lat="43.2465570000" lon="-1.0814500000"><ele>161</ele><time>2026-04-24T12:12:28Z</time></trkpt>
<trkpt lat="43.2465670000" lon="-1.0814220000"><ele>161</ele><time>2026-04-24T12:12:30Z</time></trkpt>
<trkpt lat="43.2465770000" lon="-1.0814000000"><ele>161</ele><time>2026-04-24T12:12:32Z</time></trkpt>
<trkpt lat="43.2465850000" lon="-1.0813620000"><ele>161</ele><time>2026-04-24T12:12:35Z</time></trkpt>
<trkpt lat="43.2465870000" lon="-1.0813320000"><ele>162</ele><time>2026-04-24T12:12:37Z</time></trkpt>
<trkpt lat="43.2466000000" lon="-1.0813070000"><ele>162</ele><time>2026-04-24T12:12:40Z</time></trkpt>
<trkpt lat="43.2466220000" lon="-1.0812820000"><ele>162</ele><time>2026-04-24T12:12:42Z</time></trkpt>
<trkpt lat="43.2466370000" lon="-1.0812520000"><ele>162</ele><time>2026-04-24T12:12:44Z</time></trkpt>
<trkpt lat="43.2466570000" lon="-1.0812270000"><ele>162</ele><time>2026-04-24T12:12:46Z</time></trkpt>
<trkpt lat="43.2466850000" lon="-1.0812050000"><ele>162</ele><time>2026-04-24T12:12:48Z</time></trkpt>
<trkpt lat="43.2467070000" lon="-1.0811720000"><ele>162</ele><time>2026-04-24T12:12:50Z</time></trkpt>
<trkpt lat="43.2467170000" lon="-1.0811470000"><ele>162</ele><time>2026-04-24T12:12:52Z</time></trkpt>
<trkpt lat="43.2467270000" lon="-1.0811120000"><ele>163</ele><time>2026-04-24T12:12:55Z</time></trkpt>
<trkpt lat="43.2467300000" lon="-1.0810870000"><ele>163</ele><time>2026-04-24T12:12:57Z</time></trkpt>
<trkpt lat="43.2467370000" lon="-1.0810570000"><ele>162</ele><time>2026-04-24T12:12:59Z</time></trkpt>
<trkpt lat="43.2467520000" lon="-1.0810270000"><ele>162</ele><time>2026-04-24T12:13:01Z</time></trkpt>
<trkpt lat="43.2467670000" lon="-1.0810050000"><ele>162</ele><time>2026-04-24T12:13:03Z</time></trkpt>
<trkpt lat="43.2467870000" lon="-1.0809770000"><ele>162</ele><time>2026-04-24T12:13:05Z</time></trkpt>
<trkpt lat="43.2467970000" lon="-1.0809470000"><ele>162</ele><time>2026-04-24T12:13:07Z</time></trkpt>
<trkpt lat="43.2468100000" lon="-1.0809120000"><ele>163</ele><time>2026-04-24T12:13:09Z</time></trkpt>
<trkpt lat="43.2468270000" lon="-1.0808820000"><ele>162</ele><time>2026-04-24T12:13:11Z</time></trkpt>
<trkpt lat="43.2468350000" lon="-1.0808520000"><ele>162</ele><time>2026-04-24T12:13:14Z</time></trkpt>
<trkpt lat="43.2468470000" lon="-1.0808280000"><ele>162</ele><time>2026-04-24T12:13:16Z</time></trkpt>
<trkpt lat="43.2468650000" lon="-1.0808070000"><ele>162</ele><time>2026-04-24T12:13:18Z</time></trkpt>
<trkpt lat="43.2468770000" lon="-1.0807870000"><ele>162</ele><time>2026-04-24T12:13:20Z</time></trkpt>
<trkpt lat="43.2468950000" lon="-1.0807720000"><ele>162</ele><time>2026-04-24T12:13:23Z</time></trkpt>
<trkpt lat="43.2469070000" lon="-1.0807220000"><ele>162</ele><time>2026-04-24T12:13:25Z</time></trkpt>
<trkpt lat="43.2469270000" lon="-1.0807050000"><ele>162</ele><time>2026-04-24T12:13:27Z</time></trkpt>
<trkpt lat="43.2469470000" lon="-1.0806820000"><ele>162</ele><time>2026-04-24T12:13:29Z</time></trkpt>
<trkpt lat="43.2469720000" lon="-1.0806720000"><ele>162</ele><time>2026-04-24T12:13:31Z</time></trkpt>
<trkpt lat="43.2469870000" lon="-1.0806520000"><ele>162</ele><time>2026-04-24T12:13:33Z</time></trkpt>
<trkpt lat="43.2470020000" lon="-1.0806220000"><ele>162</ele><time>2026-04-24T12:13:36Z</time></trkpt>
<trkpt lat="43.2470200000" lon="-1.0805970000"><ele>162</ele><time>2026-04-24T12:13:39Z</time></trkpt>
<trkpt lat="43.2470400000" lon="-1.0805770000"><ele>162</ele><time>2026-04-24T12:13:41Z</time></trkpt>
<trkpt lat="43.2470550000" lon="-1.0805520000"><ele>162</ele><time>2026-04-24T12:13:43Z</time></trkpt>
<trkpt lat="43.2470770000" lon="-1.0805270000"><ele>162</ele><time>2026-04-24T12:13:45Z</time></trkpt>
<trkpt lat="43.2470970000" lon="-1.0805020000"><ele>162</ele><time>2026-04-24T12:13:47Z</time></trkpt>
<trkpt lat="43.2471100000" lon="-1.0804750000"><ele>162</ele><time>2026-04-24T12:13:49Z</time></trkpt>
<trkpt lat="43.2471220000" lon="-1.0804450000"><ele>162</ele><time>2026-04-24T12:13:51Z</time></trkpt>
<trkpt lat="43.2471370000" lon="-1.0804120000"><ele>162</ele><time>2026-04-24T12:13:53Z</time></trkpt>
<trkpt lat="43.2471550000" lon="-1.0803870000"><ele>162</ele><time>2026-04-24T12:13:55Z</time></trkpt>
<trkpt lat="43.2471800000" lon="-1.0803720000"><ele>162</ele><time>2026-04-24T12:13:57Z</time></trkpt>
<trkpt lat="43.2471950000" lon="-1.0803480000"><ele>162</ele><time>2026-04-24T12:13:59Z</time></trkpt>
<trkpt lat="43.2472120000" lon="-1.0803270000"><ele>162</ele><time>2026-04-24T12:14:01Z</time></trkpt>
<trkpt lat="43.2472320000" lon="-1.0803070000"><ele>162</ele><time>2026-04-24T12:14:03Z</time></trkpt>
<trkpt lat="43.2472470000" lon="-1.0802870000"><ele>162</ele><time>2026-04-24T12:14:05Z</time></trkpt>
<trkpt lat="43.2472650000" lon="-1.0802670000"><ele>162</ele><time>2026-04-24T12:14:07Z</time></trkpt>
<trkpt lat="43.2472800000" lon="-1.0802430000"><ele>162</ele><time>2026-04-24T12:14:10Z</time></trkpt>
<trkpt lat="43.2473020000" lon="-1.0802220000"><ele>162</ele><time>2026-04-24T12:14:12Z</time></trkpt>
<trkpt lat="43.2473170000" lon="-1.0802070000"><ele>162</ele><time>2026-04-24T12:14:13Z</time></trkpt>
<trkpt lat="43.2473420000" lon="-1.0801800000"><ele>162</ele><time>2026-04-24T12:14:15Z</time></trkpt>
<trkpt lat="43.2473650000" lon="-1.0801520000"><ele>162</ele><time>2026-04-24T12:14:17Z</time></trkpt>
<trkpt lat="43.2473800000" lon="-1.0801270000"><ele>162</ele><time>2026-04-24T12:14:19Z</time></trkpt>
<trkpt lat="43.2474020000" lon="-1.0801070000"><ele>162</ele><time>2026-04-24T12:14:21Z</time></trkpt>
<trkpt lat="43.2474200000" lon="-1.0800820000"><ele>162</ele><time>2026-04-24T12:14:23Z</time></trkpt>
<trkpt lat="43.2474370000" lon="-1.0800600000"><ele>162</ele><time>2026-04-24T12:14:25Z</time></trkpt>
<trkpt lat="43.2474550000" lon="-1.0800370000"><ele>162</ele><time>2026-04-24T12:14:27Z</time></trkpt>
<trkpt lat="43.2474770000" lon="-1.0800220000"><ele>162</ele><time>2026-04-24T12:14:29Z</time></trkpt>
<trkpt lat="43.2474970000" lon="-1.0800070000"><ele>162</ele><time>2026-04-24T12:14:31Z</time></trkpt>
<trkpt lat="43.2474870000" lon="-1.0799870000"><ele>162</ele><time>2026-04-24T12:14:33Z</time></trkpt>
<trkpt lat="43.2475070000" lon="-1.0799770000"><ele>162</ele><time>2026-04-24T12:14:39Z</time></trkpt>
<trkpt lat="43.2475220000" lon="-1.0799570000"><ele>162</ele><time>2026-04-24T12:14:42Z</time></trkpt>
<trkpt lat="43.2475400000" lon="-1.0799420000"><ele>162</ele><time>2026-04-24T12:14:44Z</time></trkpt>
<trkpt lat="43.2475550000" lon="-1.0799220000"><ele>162</ele><time>2026-04-24T12:14:46Z</time></trkpt>
<trkpt lat="43.2475770000" lon="-1.0799070000"><ele>162</ele><time>2026-04-24T12:14:50Z</time></trkpt>
<trkpt lat="43.2475870000" lon="-1.0798870000"><ele>162</ele><time>2026-04-24T12:14:52Z</time></trkpt>
<trkpt lat="43.2476120000" lon="-1.0798620000"><ele>162</ele><time>2026-04-24T12:14:54Z</time></trkpt>
<trkpt lat="43.2476320000" lon="-1.0798420000"><ele>162</ele><time>2026-04-24T12:14:56Z</time></trkpt>
<trkpt lat="43.2476570000" lon="-1.0798350000"><ele>162</ele><time>2026-04-24T12:14:58Z</time></trkpt>
<trkpt lat="43.2476800000" lon="-1.0798270000"><ele>162</ele><time>2026-04-24T12:15:00Z</time></trkpt>
<trkpt lat="43.2477070000" lon="-1.0798030000"><ele>162</ele><time>2026-04-24T12:15:02Z</time></trkpt>
<trkpt lat="43.2477250000" lon="-1.0797820000"><ele>162</ele><time>2026-04-24T12:15:04Z</time></trkpt>
<trkpt lat="43.2477370000" lon="-1.0797620000"><ele>162</ele><time>2026-04-24T12:15:07Z</time></trkpt>
<trkpt lat="43.2477530000" lon="-1.0797500000"><ele>162</ele><time>2026-04-24T12:15:09Z</time></trkpt>
<trkpt lat="43.2477800000" lon="-1.0797270000"><ele>162</ele><time>2026-04-24T12:15:11Z</time></trkpt>
<trkpt lat="43.2477950000" lon="-1.0797050000"><ele>162</ele><time>2026-04-24T12:15:13Z</time></trkpt>
<trkpt lat="43.2478100000" lon="-1.0796850000"><ele>163</ele><time>2026-04-24T12:15:15Z</time></trkpt>
<trkpt lat="43.2478320000" lon="-1.0796680000"><ele>163</ele><time>2026-04-24T12:15:17Z</time></trkpt>
<trkpt lat="43.2478600000" lon="-1.0796570000"><ele>163</ele><time>2026-04-24T12:15:19Z</time></trkpt>
<trkpt lat="43.2478770000" lon="-1.0796620000"><ele>163</ele><time>2026-04-24T12:15:20Z</time></trkpt>
<trkpt lat="43.2479080000" lon="-1.0796570000"><ele>163</ele><time>2026-04-24T12:15:22Z</time></trkpt>
<trkpt lat="43.2479350000" lon="-1.0796420000"><ele>163</ele><time>2026-04-24T12:15:24Z</time></trkpt>
<trkpt lat="43.2479120000" lon="-1.0796400000"><ele>163</ele><time>2026-04-24T12:15:26Z</time></trkpt>
<trkpt lat="43.2479300000" lon="-1.0796170000"><ele>163</ele><time>2026-04-24T12:15:30Z</time></trkpt>
<trkpt lat="43.2479470000" lon="-1.0795970000"><ele>163</ele><time>2026-04-24T12:15:32Z</time></trkpt>
<trkpt lat="43.2479720000" lon="-1.0795770000"><ele>163</ele><time>2026-04-24T12:15:34Z</time></trkpt>
<trkpt lat="43.2479950000" lon="-1.0795620000"><ele>163</ele><time>2026-04-24T12:15:36Z</time></trkpt>
<trkpt lat="43.2480150000" lon="-1.0795450000"><ele>163</ele><time>2026-04-24T12:15:38Z</time></trkpt>
<trkpt lat="43.2480320000" lon="-1.0795270000"><ele>163</ele><time>2026-04-24T12:15:40Z</time></trkpt>
<trkpt lat="43.2480500000" lon="-1.0795120000"><ele>163</ele><time>2026-04-24T12:15:42Z</time></trkpt>
<trkpt lat="43.2480670000" lon="-1.0794950000"><ele>163</ele><time>2026-04-24T12:15:44Z</time></trkpt>
<trkpt lat="43.2480870000" lon="-1.0794820000"><ele>163</ele><time>2026-04-24T12:15:46Z</time></trkpt>
<trkpt lat="43.2481070000" lon="-1.0794670000"><ele>163</ele><time>2026-04-24T12:15:49Z</time></trkpt>
<trkpt lat="43.2481270000" lon="-1.0794470000"><ele>163</ele><time>2026-04-24T12:16:09Z</time></trkpt>
<trkpt lat="43.2481400000" lon="-1.0794300000"><ele>163</ele><time>2026-04-24T12:16:11Z</time></trkpt>
<trkpt lat="43.2481570000" lon="-1.0794120000"><ele>163</ele><time>2026-04-24T12:16:28Z</time></trkpt>
<trkpt lat="43.2481870000" lon="-1.0793950000"><ele>163</ele><time>2026-04-24T12:16:30Z</time></trkpt>
<trkpt lat="43.2482200000" lon="-1.0793800000"><ele>163</ele><time>2026-04-24T12:16:32Z</time></trkpt>
<trkpt lat="43.2482470000" lon="-1.0793670000"><ele>162</ele><time>2026-04-24T12:16:34Z</time></trkpt>
<trkpt lat="43.2482700000" lon="-1.0793550000"><ele>162</ele><time>2026-04-24T12:16:36Z</time></trkpt>
<trkpt lat="43.2482850000" lon="-1.0793350000"><ele>162</ele><time>2026-04-24T12:16:47Z</time></trkpt>
<trkpt lat="43.2483170000" lon="-1.0793270000"><ele>162</ele><time>2026-04-24T12:16:50Z</time></trkpt>
<trkpt lat="43.2483450000" lon="-1.0793220000"><ele>162</ele><time>2026-04-24T12:16:52Z</time></trkpt>
<trkpt lat="43.2483750000" lon="-1.0793080000"><ele>162</ele><time>2026-04-24T12:16:54Z</time></trkpt>
<trkpt lat="43.2484000000" lon="-1.0793000000"><ele>162</ele><time>2026-04-24T12:16:56Z</time></trkpt>
<trkpt lat="43.2484270000" lon="-1.0792950000"><ele>162</ele><time>2026-04-24T12:16:58Z</time></trkpt>
<trkpt lat="43.2484500000" lon="-1.0792870000"><ele>162</ele><time>2026-04-24T12:17:00Z</time></trkpt>
<trkpt lat="43.2484750000" lon="-1.0792800000"><ele>162</ele><time>2026-04-24T12:17:02Z</time></trkpt>
<trkpt lat="43.2484970000" lon="-1.0792720000"><ele>162</ele><time>2026-04-24T12:17:04Z</time></trkpt>
<trkpt lat="43.2485220000" lon="-1.0792630000"><ele>162</ele><time>2026-04-24T12:17:06Z</time></trkpt>
<trkpt lat="43.2485420000" lon="-1.0792620000"><ele>161</ele><time>2026-04-24T12:17:08Z</time></trkpt>
<trkpt lat="43.2485720000" lon="-1.0792570000"><ele>161</ele><time>2026-04-24T12:17:10Z</time></trkpt>
<trkpt lat="43.2485920000" lon="-1.0792520000"><ele>161</ele><time>2026-04-24T12:17:12Z</time></trkpt>
<trkpt lat="43.2486120000" lon="-1.0792420000"><ele>161</ele><time>2026-04-24T12:17:14Z</time></trkpt>
<trkpt lat="43.2486370000" lon="-1.0792400000"><ele>161</ele><time>2026-04-24T12:17:16Z</time></trkpt>
<trkpt lat="43.2486620000" lon="-1.0792350000"><ele>161</ele><time>2026-04-24T12:17:18Z</time></trkpt>
<trkpt lat="43.2486820000" lon="-1.0792270000"><ele>161</ele><time>2026-04-24T12:17:20Z</time></trkpt>
<trkpt lat="43.2487050000" lon="-1.0792220000"><ele>161</ele><time>2026-04-24T12:17:22Z</time></trkpt>
<trkpt lat="43.2487300000" lon="-1.0792200000"><ele>161</ele><time>2026-04-24T12:17:24Z</time></trkpt>
<trkpt lat="43.2487520000" lon="-1.0792100000"><ele>160</ele><time>2026-04-24T12:17:26Z</time></trkpt>
<trkpt lat="43.2487720000" lon="-1.0792020000"><ele>160</ele><time>2026-04-24T12:17:28Z</time></trkpt>
<trkpt lat="43.2487970000" lon="-1.0791970000"><ele>160</ele><time>2026-04-24T12:17:30Z</time></trkpt>
<trkpt lat="43.2488170000" lon="-1.0791950000"><ele>160</ele><time>2026-04-24T12:17:32Z</time></trkpt>
<trkpt lat="43.2488370000" lon="-1.0791920000"><ele>160</ele><time>2026-04-24T12:17:34Z</time></trkpt>
<trkpt lat="43.2488570000" lon="-1.0791900000"><ele>159</ele><time>2026-04-24T12:17:36Z</time></trkpt>
<trkpt lat="43.2488750000" lon="-1.0791870000"><ele>159</ele><time>2026-04-24T12:17:38Z</time></trkpt>
<trkpt lat="43.2488970000" lon="-1.0791850000"><ele>159</ele><time>2026-04-24T12:17:40Z</time></trkpt>
<trkpt lat="43.2489170000" lon="-1.0791870000"><ele>159</ele><time>2026-04-24T12:17:42Z</time></trkpt>
<trkpt lat="43.2489420000" lon="-1.0791850000"><ele>159</ele><time>2026-04-24T12:17:44Z</time></trkpt>
<trkpt lat="43.2489630000" lon="-1.0791800000"><ele>158</ele><time>2026-04-24T12:17:46Z</time></trkpt>
<trkpt lat="43.2489850000" lon="-1.0791730000"><ele>158</ele><time>2026-04-24T12:17:48Z</time></trkpt>
<trkpt lat="43.2490120000" lon="-1.0791680000"><ele>158</ele><time>2026-04-24T12:17:51Z</time></trkpt>
<trkpt lat="43.2490300000" lon="-1.0791670000"><ele>156</ele><time>2026-04-24T12:18:54Z</time></trkpt>
<trkpt lat="43.2490370000" lon="-1.0791920000"><ele>156</ele><time>2026-04-24T12:18:58Z</time></trkpt>
<trkpt lat="43.2490620000" lon="-1.0791650000"><ele>156</ele><time>2026-04-24T12:19:29Z</time></trkpt>
<trkpt lat="43.2490920000" lon="-1.0791570000"><ele>156</ele><time>2026-04-24T12:19:31Z</time></trkpt>
<trkpt lat="43.2491120000" lon="-1.0791470000"><ele>155</ele><time>2026-04-24T12:19:34Z</time></trkpt>
<trkpt lat="43.2491350000" lon="-1.0791370000"><ele>155</ele><time>2026-04-24T12:19:37Z</time></trkpt>
<trkpt lat="43.2491550000" lon="-1.0791370000"><ele>155</ele><time>2026-04-24T12:19:39Z</time></trkpt>
<trkpt lat="43.2491750000" lon="-1.0791280000"><ele>155</ele><time>2026-04-24T12:19:41Z</time></trkpt>
<trkpt lat="43.2491920000" lon="-1.0791220000"><ele>154</ele><time>2026-04-24T12:19:43Z</time></trkpt>
<trkpt lat="43.2492170000" lon="-1.0791120000"><ele>154</ele><time>2026-04-24T12:19:45Z</time></trkpt>
<trkpt lat="43.2492350000" lon="-1.0791020000"><ele>154</ele><time>2026-04-24T12:19:47Z</time></trkpt>
<trkpt lat="43.2492520000" lon="-1.0790900000"><ele>153</ele><time>2026-04-24T12:19:49Z</time></trkpt>
<trkpt lat="43.2492700000" lon="-1.0790750000"><ele>151</ele><time>2026-04-24T12:20:15Z</time></trkpt>
<trkpt lat="43.2492870000" lon="-1.0790620000"><ele>151</ele><time>2026-04-24T12:20:17Z</time></trkpt>
<trkpt lat="43.2493000000" lon="-1.0790420000"><ele>151</ele><time>2026-04-24T12:20:20Z</time></trkpt>
<trkpt lat="43.2493200000" lon="-1.0790320000"><ele>151</ele><time>2026-04-24T12:20:22Z</time></trkpt>
<trkpt lat="43.2493430000" lon="-1.0790270000"><ele>151</ele><time>2026-04-24T12:20:24Z</time></trkpt>
<trkpt lat="43.2493650000" lon="-1.0790170000"><ele>151</ele><time>2026-04-24T12:20:26Z</time></trkpt>
<trkpt lat="43.2493870000" lon="-1.0790070000"><ele>150</ele><time>2026-04-24T12:20:28Z</time></trkpt>
<trkpt lat="43.2494100000" lon="-1.0789970000"><ele>150</ele><time>2026-04-24T12:20:30Z</time></trkpt>
<trkpt lat="43.2494320000" lon="-1.0789880000"><ele>150</ele><time>2026-04-24T12:20:32Z</time></trkpt>
<trkpt lat="43.2494550000" lon="-1.0789770000"><ele>149</ele><time>2026-04-24T12:20:34Z</time></trkpt>
<trkpt lat="43.2494750000" lon="-1.0789700000"><ele>149</ele><time>2026-04-24T12:20:36Z</time></trkpt>
<trkpt lat="43.2494950000" lon="-1.0789580000"><ele>149</ele><time>2026-04-24T12:20:38Z</time></trkpt>
<trkpt lat="43.2495120000" lon="-1.0789500000"><ele>149</ele><time>2026-04-24T12:20:40Z</time></trkpt>
<trkpt lat="43.2495320000" lon="-1.0789370000"><ele>148</ele><time>2026-04-24T12:20:42Z</time></trkpt>
<trkpt lat="43.2495470000" lon="-1.0789220000"><ele>148</ele><time>2026-04-24T12:20:44Z</time></trkpt>
<trkpt lat="43.2495650000" lon="-1.0789120000"><ele>148</ele><time>2026-04-24T12:20:46Z</time></trkpt>
<trkpt lat="43.2495850000" lon="-1.0788970000"><ele>147</ele><time>2026-04-24T12:20:48Z</time></trkpt>
<trkpt lat="43.2496100000" lon="-1.0788820000"><ele>147</ele><time>2026-04-24T12:20:50Z</time></trkpt>
<trkpt lat="43.2496320000" lon="-1.0788700000"><ele>147</ele><time>2026-04-24T12:20:52Z</time></trkpt>
<trkpt lat="43.2496520000" lon="-1.0788570000"><ele>147</ele><time>2026-04-24T12:20:54Z</time></trkpt>
<trkpt lat="43.2496720000" lon="-1.0788470000"><ele>147</ele><time>2026-04-24T12:20:56Z</time></trkpt>
<trkpt lat="43.2496900000" lon="-1.0788350000"><ele>146</ele><time>2026-04-24T12:20:58Z</time></trkpt>
<trkpt lat="43.2497070000" lon="-1.0788170000"><ele>146</ele><time>2026-04-24T12:21:00Z</time></trkpt>
<trkpt lat="43.2497270000" lon="-1.0788050000"><ele>146</ele><time>2026-04-24T12:21:02Z</time></trkpt>
<trkpt lat="43.2497450000" lon="-1.0787920000"><ele>146</ele><time>2026-04-24T12:21:04Z</time></trkpt>
<trkpt lat="43.2497620000" lon="-1.0787770000"><ele>145</ele><time>2026-04-24T12:21:06Z</time></trkpt>
<trkpt lat="43.2497850000" lon="-1.0787570000"><ele>145</ele><time>2026-04-24T12:21:08Z</time></trkpt>
<trkpt lat="43.2498020000" lon="-1.0787450000"><ele>145</ele><time>2026-04-24T12:21:10Z</time></trkpt>
<trkpt lat="43.2498270000" lon="-1.0787420000"><ele>145</ele><time>2026-04-24T12:21:12Z</time></trkpt>
<trkpt lat="43.2498500000" lon="-1.0787320000"><ele>145</ele><time>2026-04-24T12:21:14Z</time></trkpt>
<trkpt lat="43.2498750000" lon="-1.0787120000"><ele>145</ele><time>2026-04-24T12:21:16Z</time></trkpt>
<trkpt lat="43.2498970000" lon="-1.0786970000"><ele>144</ele><time>2026-04-24T12:21:18Z</time></trkpt>
<trkpt lat="43.2499220000" lon="-1.0786830000"><ele>144</ele><time>2026-04-24T12:21:20Z</time></trkpt>
<trkpt lat="43.2499470000" lon="-1.0786670000"><ele>144</ele><time>2026-04-24T12:21:22Z</time></trkpt>
<trkpt lat="43.2499670000" lon="-1.0786550000"><ele>144</ele><time>2026-04-24T12:21:24Z</time></trkpt>
<trkpt lat="43.2499820000" lon="-1.0786420000"><ele>144</ele><time>2026-04-24T12:21:26Z</time></trkpt>
<trkpt lat="43.2500020000" lon="-1.0786320000"><ele>143</ele><time>2026-04-24T12:21:28Z</time></trkpt>
<trkpt lat="43.2500220000" lon="-1.0786170000"><ele>143</ele><time>2026-04-24T12:21:30Z</time></trkpt>
<trkpt lat="43.2500500000" lon="-1.0786120000"><ele>143</ele><time>2026-04-24T12:21:32Z</time></trkpt>
<trkpt lat="43.2500750000" lon="-1.0786050000"><ele>143</ele><time>2026-04-24T12:21:34Z</time></trkpt>
<trkpt lat="43.2500970000" lon="-1.0786020000"><ele>143</ele><time>2026-04-24T12:21:36Z</time></trkpt>
<trkpt lat="43.2501270000" lon="-1.0785970000"><ele>143</ele><time>2026-04-24T12:21:38Z</time></trkpt>
<trkpt lat="43.2501520000" lon="-1.0785920000"><ele>143</ele><time>2026-04-24T12:21:40Z</time></trkpt>
<trkpt lat="43.2501800000" lon="-1.0785850000"><ele>143</ele><time>2026-04-24T12:21:42Z</time></trkpt>
<trkpt lat="43.2502050000" lon="-1.0785750000"><ele>142</ele><time>2026-04-24T12:21:44Z</time></trkpt>
<trkpt lat="43.2502220000" lon="-1.0785650000"><ele>142</ele><time>2026-04-24T12:21:46Z</time></trkpt>
<trkpt lat="43.2502500000" lon="-1.0785600000"><ele>142</ele><time>2026-04-24T12:21:48Z</time></trkpt>
<trkpt lat="43.2502720000" lon="-1.0785470000"><ele>142</ele><time>2026-04-24T12:21:50Z</time></trkpt>
<trkpt lat="43.2502970000" lon="-1.0785370000"><ele>142</ele><time>2026-04-24T12:21:53Z</time></trkpt>
<trkpt lat="43.2503220000" lon="-1.0785220000"><ele>142</ele><time>2026-04-24T12:21:55Z</time></trkpt>
<trkpt lat="43.2503500000" lon="-1.0785120000"><ele>142</ele><time>2026-04-24T12:21:57Z</time></trkpt>
<trkpt lat="43.2503720000" lon="-1.0785050000"><ele>142</ele><time>2026-04-24T12:21:59Z</time></trkpt>
<trkpt lat="43.2503950000" lon="-1.0784950000"><ele>141</ele><time>2026-04-24T12:22:01Z</time></trkpt>
<trkpt lat="43.2504170000" lon="-1.0784850000"><ele>141</ele><time>2026-04-24T12:22:03Z</time></trkpt>
<trkpt lat="43.2504420000" lon="-1.0784770000"><ele>141</ele><time>2026-04-24T12:22:05Z</time></trkpt>
<trkpt lat="43.2504670000" lon="-1.0784720000"><ele>141</ele><time>2026-04-24T12:22:07Z</time></trkpt>
<trkpt lat="43.2504920000" lon="-1.0784700000"><ele>141</ele><time>2026-04-24T12:22:09Z</time></trkpt>
<trkpt lat="43.2505170000" lon="-1.0784670000"><ele>141</ele><time>2026-04-24T12:22:11Z</time></trkpt>
<trkpt lat="43.2505370000" lon="-1.0784620000"><ele>141</ele><time>2026-04-24T12:22:13Z</time></trkpt>
<trkpt lat="43.2505570000" lon="-1.0784570000"><ele>141</ele><time>2026-04-24T12:22:15Z</time></trkpt>
<trkpt lat="43.2505820000" lon="-1.0784530000"><ele>141</ele><time>2026-04-24T12:22:17Z</time></trkpt>
<trkpt lat="43.2506070000" lon="-1.0784470000"><ele>141</ele><time>2026-04-24T12:22:19Z</time></trkpt>
<trkpt lat="43.2506320000" lon="-1.0784470000"><ele>141</ele><time>2026-04-24T12:22:21Z</time></trkpt>
<trkpt lat="43.2506620000" lon="-1.0784420000"><ele>141</ele><time>2026-04-24T12:22:23Z</time></trkpt>
<trkpt lat="43.2506870000" lon="-1.0784370000"><ele>141</ele><time>2026-04-24T12:22:25Z</time></trkpt>
<trkpt lat="43.2507120000" lon="-1.0784270000"><ele>140</ele><time>2026-04-24T12:22:28Z</time></trkpt>
<trkpt lat="43.2507350000" lon="-1.0784220000"><ele>140</ele><time>2026-04-24T12:22:30Z</time></trkpt>
<trkpt lat="43.2507600000" lon="-1.0784170000"><ele>140</ele><time>2026-04-24T12:22:32Z</time></trkpt>
<trkpt lat="43.2507820000" lon="-1.0784120000"><ele>140</ele><time>2026-04-24T12:22:34Z</time></trkpt>
<trkpt lat="43.2508070000" lon="-1.0784050000"><ele>140</ele><time>2026-04-24T12:22:36Z</time></trkpt>
<trkpt lat="43.2508250000" lon="-1.0783920000"><ele>140</ele><time>2026-04-24T12:22:38Z</time></trkpt>
<trkpt lat="43.2508470000" lon="-1.0783820000"><ele>140</ele><time>2026-04-24T12:22:40Z</time></trkpt>
<trkpt lat="43.2508670000" lon="-1.0783720000"><ele>140</ele><time>2026-04-24T12:22:42Z</time></trkpt>
<trkpt lat="43.2508950000" lon="-1.0783670000"><ele>140</ele><time>2026-04-24T12:22:44Z</time></trkpt>
<trkpt lat="43.2509250000" lon="-1.0783620000"><ele>139</ele><time>2026-04-24T12:22:46Z</time></trkpt>
<trkpt lat="43.2509520000" lon="-1.0783600000"><ele>139</ele><time>2026-04-24T12:22:48Z</time></trkpt>
<trkpt lat="43.2509800000" lon="-1.0783500000"><ele>139</ele><time>2026-04-24T12:22:50Z</time></trkpt>
<trkpt lat="43.2510000000" lon="-1.0783370000"><ele>139</ele><time>2026-04-24T12:22:52Z</time></trkpt>
<trkpt lat="43.2510180000" lon="-1.0783170000"><ele>139</ele><time>2026-04-24T12:22:54Z</time></trkpt>
<trkpt lat="43.2510420000" lon="-1.0782970000"><ele>139</ele><time>2026-04-24T12:22:56Z</time></trkpt>
<trkpt lat="43.2510570000" lon="-1.0782770000"><ele>139</ele><time>2026-04-24T12:22:58Z</time></trkpt>
<trkpt lat="43.2510750000" lon="-1.0782600000"><ele>139</ele><time>2026-04-24T12:23:00Z</time></trkpt>
<trkpt lat="43.2510920000" lon="-1.0782420000"><ele>139</ele><time>2026-04-24T12:23:02Z</time></trkpt>
<trkpt lat="43.2511070000" lon="-1.0782250000"><ele>139</ele><time>2026-04-24T12:23:04Z</time></trkpt>
<trkpt lat="43.2511270000" lon="-1.0782070000"><ele>138</ele><time>2026-04-24T12:23:06Z</time></trkpt>
<trkpt lat="43.2511470000" lon="-1.0781880000"><ele>138</ele><time>2026-04-24T12:23:08Z</time></trkpt>
<trkpt lat="43.2511770000" lon="-1.0781800000"><ele>138</ele><time>2026-04-24T12:23:10Z</time></trkpt>
<trkpt lat="43.2511970000" lon="-1.0781620000"><ele>138</ele><time>2026-04-24T12:23:12Z</time></trkpt>
<trkpt lat="43.2512120000" lon="-1.0781400000"><ele>138</ele><time>2026-04-24T12:23:14Z</time></trkpt>
<trkpt lat="43.2512320000" lon="-1.0781170000"><ele>138</ele><time>2026-04-24T12:23:16Z</time></trkpt>
<trkpt lat="43.2512520000" lon="-1.0780930000"><ele>137</ele><time>2026-04-24T12:23:18Z</time></trkpt>
<trkpt lat="43.2512750000" lon="-1.0780750000"><ele>137</ele><time>2026-04-24T12:23:20Z</time></trkpt>
<trkpt lat="43.2512970000" lon="-1.0780570000"><ele>137</ele><time>2026-04-24T12:23:22Z</time></trkpt>
<trkpt lat="43.2513130000" lon="-1.0780370000"><ele>137</ele><time>2026-04-24T12:23:24Z</time></trkpt>
<trkpt lat="43.2513350000" lon="-1.0780220000"><ele>137</ele><time>2026-04-24T12:23:26Z</time></trkpt>
<trkpt lat="43.2513500000" lon="-1.0780020000"><ele>137</ele><time>2026-04-24T12:23:28Z</time></trkpt>
<trkpt lat="43.2513670000" lon="-1.0779870000"><ele>137</ele><time>2026-04-24T12:23:30Z</time></trkpt>
<trkpt lat="43.2513820000" lon="-1.0779670000"><ele>137</ele><time>2026-04-24T12:23:32Z</time></trkpt>
<trkpt lat="43.2514020000" lon="-1.0779500000"><ele>137</ele><time>2026-04-24T12:23:34Z</time></trkpt>
<trkpt lat="43.2514200000" lon="-1.0779300000"><ele>137</ele><time>2026-04-24T12:23:36Z</time></trkpt>
<trkpt lat="43.2514370000" lon="-1.0779100000"><ele>137</ele><time>2026-04-24T12:23:38Z</time></trkpt>
<trkpt lat="43.2514550000" lon="-1.0778920000"><ele>137</ele><time>2026-04-24T12:23:40Z</time></trkpt>
<trkpt lat="43.2514750000" lon="-1.0778670000"><ele>137</ele><time>2026-04-24T12:23:42Z</time></trkpt>
<trkpt lat="43.2514920000" lon="-1.0778470000"><ele>137</ele><time>2026-04-24T12:23:44Z</time></trkpt>
<trkpt lat="43.2515120000" lon="-1.0778300000"><ele>136</ele><time>2026-04-24T12:23:46Z</time></trkpt>
<trkpt lat="43.2515270000" lon="-1.0778150000"><ele>136</ele><time>2026-04-24T12:23:48Z</time></trkpt>
<trkpt lat="43.2515420000" lon="-1.0777950000"><ele>136</ele><time>2026-04-24T12:23:50Z</time></trkpt>
<trkpt lat="43.2515570000" lon="-1.0777720000"><ele>136</ele><time>2026-04-24T12:23:52Z</time></trkpt>
<trkpt lat="43.2515720000" lon="-1.0777470000"><ele>136</ele><time>2026-04-24T12:23:54Z</time></trkpt>
<trkpt lat="43.2515920000" lon="-1.0777270000"><ele>136</ele><time>2026-04-24T12:23:56Z</time></trkpt>
<trkpt lat="43.2516170000" lon="-1.0777030000"><ele>136</ele><time>2026-04-24T12:23:58Z</time></trkpt>
<trkpt lat="43.2516470000" lon="-1.0776820000"><ele>136</ele><time>2026-04-24T12:24:00Z</time></trkpt>
<trkpt lat="43.2516750000" lon="-1.0776570000"><ele>136</ele><time>2026-04-24T12:24:02Z</time></trkpt>
<trkpt lat="43.2516870000" lon="-1.0776320000"><ele>136</ele><time>2026-04-24T12:24:04Z</time></trkpt>
<trkpt lat="43.2517000000" lon="-1.0776020000"><ele>136</ele><time>2026-04-24T12:24:06Z</time></trkpt>
<trkpt lat="43.2517100000" lon="-1.0775720000"><ele>136</ele><time>2026-04-24T12:24:08Z</time></trkpt>
<trkpt lat="43.2517250000" lon="-1.0775470000"><ele>136</ele><time>2026-04-24T12:24:10Z</time></trkpt>
<trkpt lat="43.2517420000" lon="-1.0775250000"><ele>136</ele><time>2026-04-24T12:24:12Z</time></trkpt>
<trkpt lat="43.2517600000" lon="-1.0775000000"><ele>136</ele><time>2026-04-24T12:24:14Z</time></trkpt>
<trkpt lat="43.2517720000" lon="-1.0774800000"><ele>136</ele><time>2026-04-24T12:24:16Z</time></trkpt>
<trkpt lat="43.2517900000" lon="-1.0774570000"><ele>136</ele><time>2026-04-24T12:24:18Z</time></trkpt>
<trkpt lat="43.2518070000" lon="-1.0774330000"><ele>136</ele><time>2026-04-24T12:24:20Z</time></trkpt>
<trkpt lat="43.2518200000" lon="-1.0774120000"><ele>136</ele><time>2026-04-24T12:24:22Z</time></trkpt>
<trkpt lat="43.2518320000" lon="-1.0773850000"><ele>136</ele><time>2026-04-24T12:24:24Z</time></trkpt>
<trkpt lat="43.2518450000" lon="-1.0773670000"><ele>136</ele><time>2026-04-24T12:24:26Z</time></trkpt>
<trkpt lat="43.2518620000" lon="-1.0773420000"><ele>136</ele><time>2026-04-24T12:24:28Z</time></trkpt>
<trkpt lat="43.2518870000" lon="-1.0773220000"><ele>136</ele><time>2026-04-24T12:24:30Z</time></trkpt>
<trkpt lat="43.2519050000" lon="-1.0772970000"><ele>136</ele><time>2026-04-24T12:24:32Z</time></trkpt>
<trkpt lat="43.2519170000" lon="-1.0772750000"><ele>135</ele><time>2026-04-24T12:24:34Z</time></trkpt>
<trkpt lat="43.2519350000" lon="-1.0772550000"><ele>135</ele><time>2026-04-24T12:24:36Z</time></trkpt>
<trkpt lat="43.2519550000" lon="-1.0772320000"><ele>135</ele><time>2026-04-24T12:24:38Z</time></trkpt>
<trkpt lat="43.2519720000" lon="-1.0772070000"><ele>135</ele><time>2026-04-24T12:24:40Z</time></trkpt>
<trkpt lat="43.2519920000" lon="-1.0771920000"><ele>136</ele><time>2026-04-24T12:24:42Z</time></trkpt>
<trkpt lat="43.2520120000" lon="-1.0771770000"><ele>136</ele><time>2026-04-24T12:24:44Z</time></trkpt>
<trkpt lat="43.2520270000" lon="-1.0771570000"><ele>136</ele><time>2026-04-24T12:24:46Z</time></trkpt>
<trkpt lat="43.2520470000" lon="-1.0771370000"><ele>136</ele><time>2026-04-24T12:24:48Z</time></trkpt>
<trkpt lat="43.2520620000" lon="-1.0771120000"><ele>136</ele><time>2026-04-24T12:24:50Z</time></trkpt>
<trkpt lat="43.2520730000" lon="-1.0770870000"><ele>136</ele><time>2026-04-24T12:24:52Z</time></trkpt>
<trkpt lat="43.2520920000" lon="-1.0770620000"><ele>136</ele><time>2026-04-24T12:24:54Z</time></trkpt>
<trkpt lat="43.2521120000" lon="-1.0770400000"><ele>136</ele><time>2026-04-24T12:24:56Z</time></trkpt>
<trkpt lat="43.2521320000" lon="-1.0770200000"><ele>136</ele><time>2026-04-24T12:24:58Z</time></trkpt>
<trkpt lat="43.2521500000" lon="-1.0770000000"><ele>136</ele><time>2026-04-24T12:25:00Z</time></trkpt>
<trkpt lat="43.2521670000" lon="-1.0769730000"><ele>136</ele><time>2026-04-24T12:25:02Z</time></trkpt>
<trkpt lat="43.2521820000" lon="-1.0769520000"><ele>136</ele><time>2026-04-24T12:25:04Z</time></trkpt>
<trkpt lat="43.2522050000" lon="-1.0769270000"><ele>136</ele><time>2026-04-24T12:25:06Z</time></trkpt>
<trkpt lat="43.2522270000" lon="-1.0769020000"><ele>136</ele><time>2026-04-24T12:25:08Z</time></trkpt>
<trkpt lat="43.2522470000" lon="-1.0768750000"><ele>136</ele><time>2026-04-24T12:25:10Z</time></trkpt>
<trkpt lat="43.2522670000" lon="-1.0768500000"><ele>137</ele><time>2026-04-24T12:25:12Z</time></trkpt>
<trkpt lat="43.2522850000" lon="-1.0768220000"><ele>137</ele><time>2026-04-24T12:25:14Z</time></trkpt>
<trkpt lat="43.2523020000" lon="-1.0767980000"><ele>137</ele><time>2026-04-24T12:25:16Z</time></trkpt>
<trkpt lat="43.2523150000" lon="-1.0767770000"><ele>137</ele><time>2026-04-24T12:25:18Z</time></trkpt>
<trkpt lat="43.2523370000" lon="-1.0767620000"><ele>137</ele><time>2026-04-24T12:25:20Z</time></trkpt>
<trkpt lat="43.2523600000" lon="-1.0767370000"><ele>137</ele><time>2026-04-24T12:25:22Z</time></trkpt>
<trkpt lat="43.2523830000" lon="-1.0767170000"><ele>137</ele><time>2026-04-24T12:25:24Z</time></trkpt>
<trkpt lat="43.2524070000" lon="-1.0766920000"><ele>138</ele><time>2026-04-24T12:25:26Z</time></trkpt>
<trkpt lat="43.2524300000" lon="-1.0766720000"><ele>138</ele><time>2026-04-24T12:25:28Z</time></trkpt>
<trkpt lat="43.2524470000" lon="-1.0766500000"><ele>138</ele><time>2026-04-24T12:25:30Z</time></trkpt>
<trkpt lat="43.2524650000" lon="-1.0766320000"><ele>138</ele><time>2026-04-24T12:25:32Z</time></trkpt>
<trkpt lat="43.2524820000" lon="-1.0766170000"><ele>139</ele><time>2026-04-24T12:25:34Z</time></trkpt>
<trkpt lat="43.2524970000" lon="-1.0765970000"><ele>139</ele><time>2026-04-24T12:25:36Z</time></trkpt>
<trkpt lat="43.2525120000" lon="-1.0765770000"><ele>139</ele><time>2026-04-24T12:25:38Z</time></trkpt>
<trkpt lat="43.2525270000" lon="-1.0765570000"><ele>139</ele><time>2026-04-24T12:25:40Z</time></trkpt>
<trkpt lat="43.2525420000" lon="-1.0765400000"><ele>140</ele><time>2026-04-24T12:25:42Z</time></trkpt>
<trkpt lat="43.2525570000" lon="-1.0765230000"><ele>140</ele><time>2026-04-24T12:25:44Z</time></trkpt>
<trkpt lat="43.2525770000" lon="-1.0765020000"><ele>140</ele><time>2026-04-24T12:25:47Z</time></trkpt>
<trkpt lat="43.2525950000" lon="-1.0764830000"><ele>140</ele><time>2026-04-24T12:25:49Z</time></trkpt>
<trkpt lat="43.2526070000" lon="-1.0764670000"><ele>141</ele><time>2026-04-24T12:25:51Z</time></trkpt>
<trkpt lat="43.2526250000" lon="-1.0764370000"><ele>141</ele><time>2026-04-24T12:25:54Z</time></trkpt>
<trkpt lat="43.2526420000" lon="-1.0764200000"><ele>141</ele><time>2026-04-24T12:25:56Z</time></trkpt>
<trkpt lat="43.2526570000" lon="-1.0763930000"><ele>142</ele><time>2026-04-24T12:25:59Z</time></trkpt>
<trkpt lat="43.2526720000" lon="-1.0763670000"><ele>142</ele><time>2026-04-24T12:26:02Z</time></trkpt>
<trkpt lat="43.2526970000" lon="-1.0763470000"><ele>142</ele><time>2026-04-24T12:26:05Z</time></trkpt>
<trkpt lat="43.2527100000" lon="-1.0763300000"><ele>143</ele><time>2026-04-24T12:26:07Z</time></trkpt>
<trkpt lat="43.2527300000" lon="-1.0763070000"><ele>143</ele><time>2026-04-24T12:26:10Z</time></trkpt>
<trkpt lat="43.2527470000" lon="-1.0762920000"><ele>143</ele><time>2026-04-24T12:26:12Z</time></trkpt>
<trkpt lat="43.2527620000" lon="-1.0762770000"><ele>143</ele><time>2026-04-24T12:26:14Z</time></trkpt>
<trkpt lat="43.2527770000" lon="-1.0762570000"><ele>144</ele><time>2026-04-24T12:26:16Z</time></trkpt>
<trkpt lat="43.2527970000" lon="-1.0762420000"><ele>144</ele><time>2026-04-24T12:26:18Z</time></trkpt>
<trkpt lat="43.2528150000" lon="-1.0762220000"><ele>144</ele><time>2026-04-24T12:26:20Z</time></trkpt>
<trkpt lat="43.2528370000" lon="-1.0762000000"><ele>144</ele><time>2026-04-24T12:26:23Z</time></trkpt>
<trkpt lat="43.2528500000" lon="-1.0761820000"><ele>144</ele><time>2026-04-24T12:26:25Z</time></trkpt>
<trkpt lat="43.2528620000" lon="-1.0761670000"><ele>145</ele><time>2026-04-24T12:26:27Z</time></trkpt>
<trkpt lat="43.2528820000" lon="-1.0761470000"><ele>145</ele><time>2026-04-24T12:26:30Z</time></trkpt>
<trkpt lat="43.2529030000" lon="-1.0761270000"><ele>145</ele><time>2026-04-24T12:26:33Z</time></trkpt>
<trkpt lat="43.2529300000" lon="-1.0761120000"><ele>145</ele><time>2026-04-24T12:26:35Z</time></trkpt>
<trkpt lat="43.2529550000" lon="-1.0761020000"><ele>145</ele><time>2026-04-24T12:26:37Z</time></trkpt>
<trkpt lat="43.2529820000" lon="-1.0760900000"><ele>145</ele><time>2026-04-24T12:26:39Z</time></trkpt>
<trkpt lat="43.2530020000" lon="-1.0760770000"><ele>146</ele><time>2026-04-24T12:26:41Z</time></trkpt>
<trkpt lat="43.2530250000" lon="-1.0760650000"><ele>146</ele><time>2026-04-24T12:26:43Z</time></trkpt>
<trkpt lat="43.2530420000" lon="-1.0760520000"><ele>146</ele><time>2026-04-24T12:26:45Z</time></trkpt>
<trkpt lat="43.2530620000" lon="-1.0760370000"><ele>146</ele><time>2026-04-24T12:26:47Z</time></trkpt>
<trkpt lat="43.2530820000" lon="-1.0760220000"><ele>146</ele><time>2026-04-24T12:26:49Z</time></trkpt>
<trkpt lat="43.2531020000" lon="-1.0760070000"><ele>146</ele><time>2026-04-24T12:26:51Z</time></trkpt>
<trkpt lat="43.2531220000" lon="-1.0759920000"><ele>146</ele><time>2026-04-24T12:26:53Z</time></trkpt>
<trkpt lat="43.2531420000" lon="-1.0759820000"><ele>147</ele><time>2026-04-24T12:26:55Z</time></trkpt>
<trkpt lat="43.2531620000" lon="-1.0759670000"><ele>147</ele><time>2026-04-24T12:26:57Z</time></trkpt>
<trkpt lat="43.2531850000" lon="-1.0759520000"><ele>147</ele><time>2026-04-24T12:26:59Z</time></trkpt>
<trkpt lat="43.2532020000" lon="-1.0759370000"><ele>147</ele><time>2026-04-24T12:27:01Z</time></trkpt>
<trkpt lat="43.2532170000" lon="-1.0759200000"><ele>147</ele><time>2026-04-24T12:27:03Z</time></trkpt>
<trkpt lat="43.2532400000" lon="-1.0759030000"><ele>147</ele><time>2026-04-24T12:27:05Z</time></trkpt>
<trkpt lat="43.2532620000" lon="-1.0758870000"><ele>148</ele><time>2026-04-24T12:27:07Z</time></trkpt>
<trkpt lat="43.2532820000" lon="-1.0758700000"><ele>148</ele><time>2026-04-24T12:27:09Z</time></trkpt>
<trkpt lat="43.2533000000" lon="-1.0758520000"><ele>148</ele><time>2026-04-24T12:27:11Z</time></trkpt>
<trkpt lat="43.2533170000" lon="-1.0758370000"><ele>148</ele><time>2026-04-24T12:27:13Z</time></trkpt>
<trkpt lat="43.2533350000" lon="-1.0758170000"><ele>148</ele><time>2026-04-24T12:27:15Z</time></trkpt>
<trkpt lat="43.2533520000" lon="-1.0758000000"><ele>148</ele><time>2026-04-24T12:27:17Z</time></trkpt>
<trkpt lat="43.2533670000" lon="-1.0757770000"><ele>148</ele><time>2026-04-24T12:27:19Z</time></trkpt>
<trkpt lat="43.2533820000" lon="-1.0757580000"><ele>149</ele><time>2026-04-24T12:27:21Z</time></trkpt>
<trkpt lat="43.2533970000" lon="-1.0757400000"><ele>149</ele><time>2026-04-24T12:27:23Z</time></trkpt>
<trkpt lat="43.2534120000" lon="-1.0757180000"><ele>149</ele><time>2026-04-24T12:27:25Z</time></trkpt>
<trkpt lat="43.2534270000" lon="-1.0756970000"><ele>149</ele><time>2026-04-24T12:27:27Z</time></trkpt>
<trkpt lat="43.2534380000" lon="-1.0756730000"><ele>149</ele><time>2026-04-24T12:27:29Z</time></trkpt>
<trkpt lat="43.2534520000" lon="-1.0756520000"><ele>149</ele><time>2026-04-24T12:27:31Z</time></trkpt>
<trkpt lat="43.2534670000" lon="-1.0756300000"><ele>149</ele><time>2026-04-24T12:27:33Z</time></trkpt>
<trkpt lat="43.2534820000" lon="-1.0756100000"><ele>149</ele><time>2026-04-24T12:27:35Z</time></trkpt>
<trkpt lat="43.2534970000" lon="-1.0755820000"><ele>149</ele><time>2026-04-24T12:27:38Z</time></trkpt>
<trkpt lat="43.2535050000" lon="-1.0755520000"><ele>149</ele><time>2026-04-24T12:27:41Z</time></trkpt>
<trkpt lat="43.2535220000" lon="-1.0755170000"><ele>149</ele><time>2026-04-24T12:27:44Z</time></trkpt>
<trkpt lat="43.2535470000" lon="-1.0754950000"><ele>149</ele><time>2026-04-24T12:27:46Z</time></trkpt>
<trkpt lat="43.2535770000" lon="-1.0754770000"><ele>150</ele><time>2026-04-24T12:27:48Z</time></trkpt>
<trkpt lat="43.2536050000" lon="-1.0754600000"><ele>150</ele><time>2026-04-24T12:27:50Z</time></trkpt>
<trkpt lat="43.2536320000" lon="-1.0754420000"><ele>150</ele><time>2026-04-24T12:27:52Z</time></trkpt>
<trkpt lat="43.2536570000" lon="-1.0754220000"><ele>150</ele><time>2026-04-24T12:27:54Z</time></trkpt>
<trkpt lat="43.2536800000" lon="-1.0754030000"><ele>150</ele><time>2026-04-24T12:27:56Z</time></trkpt>
<trkpt lat="43.2537020000" lon="-1.0753870000"><ele>150</ele><time>2026-04-24T12:27:58Z</time></trkpt>
<trkpt lat="43.2537170000" lon="-1.0753680000"><ele>150</ele><time>2026-04-24T12:28:00Z</time></trkpt>
<trkpt lat="43.2537350000" lon="-1.0753570000"><ele>150</ele><time>2026-04-24T12:28:02Z</time></trkpt>
<trkpt lat="43.2537570000" lon="-1.0753470000"><ele>150</ele><time>2026-04-24T12:28:04Z</time></trkpt>
<trkpt lat="43.2537770000" lon="-1.0753320000"><ele>151</ele><time>2026-04-24T12:28:06Z</time></trkpt>
<trkpt lat="43.2537920000" lon="-1.0753120000"><ele>151</ele><time>2026-04-24T12:28:08Z</time></trkpt>
<trkpt lat="43.2538070000" lon="-1.0752970000"><ele>151</ele><time>2026-04-24T12:28:10Z</time></trkpt>
<trkpt lat="43.2538270000" lon="-1.0752820000"><ele>151</ele><time>2026-04-24T12:28:12Z</time></trkpt>
<trkpt lat="43.2538420000" lon="-1.0752680000"><ele>151</ele><time>2026-04-24T12:28:16Z</time></trkpt>
<trkpt lat="43.2538220000" lon="-1.0752650000"><ele>151</ele><time>2026-04-24T12:28:24Z</time></trkpt>
<trkpt lat="43.2538300000" lon="-1.0752280000"><ele>150</ele><time>2026-04-24T12:28:37Z</time></trkpt>
<trkpt lat="43.2538400000" lon="-1.0752000000"><ele>150</ele><time>2026-04-24T12:28:39Z</time></trkpt>
<trkpt lat="43.2538550000" lon="-1.0751820000"><ele>150</ele><time>2026-04-24T12:28:42Z</time></trkpt>
<trkpt lat="43.2538700000" lon="-1.0751570000"><ele>150</ele><time>2026-04-24T12:28:46Z</time></trkpt>
<trkpt lat="43.2538700000" lon="-1.0751220000"><ele>150</ele><time>2026-04-24T12:28:48Z</time></trkpt>
<trkpt lat="43.2538720000" lon="-1.0750970000"><ele>150</ele><time>2026-04-24T12:28:50Z</time></trkpt>
<trkpt lat="43.2538800000" lon="-1.0750750000"><ele>150</ele><time>2026-04-24T12:28:52Z</time></trkpt>
<trkpt lat="43.2538920000" lon="-1.0750550000"><ele>150</ele><time>2026-04-24T12:28:54Z</time></trkpt>
<trkpt lat="43.2539070000" lon="-1.0750350000"><ele>150</ele><time>2026-04-24T12:28:56Z</time></trkpt>
<trkpt lat="43.2539250000" lon="-1.0750070000"><ele>150</ele><time>2026-04-24T12:28:58Z</time></trkpt>
<trkpt lat="43.2539470000" lon="-1.0749950000"><ele>150</ele><time>2026-04-24T12:29:00Z</time></trkpt>
<trkpt lat="43.2539730000" lon="-1.0749850000"><ele>150</ele><time>2026-04-24T12:29:02Z</time></trkpt>
<trkpt lat="43.2539970000" lon="-1.0749670000"><ele>150</ele><time>2026-04-24T12:29:04Z</time></trkpt>
<trkpt lat="43.2540070000" lon="-1.0749420000"><ele>150</ele><time>2026-04-24T12:29:06Z</time></trkpt>
<trkpt lat="43.2540220000" lon="-1.0749170000"><ele>150</ele><time>2026-04-24T12:29:09Z</time></trkpt>
<trkpt lat="43.2540350000" lon="-1.0748950000"><ele>150</ele><time>2026-04-24T12:29:11Z</time></trkpt>
<trkpt lat="43.2540500000" lon="-1.0748750000"><ele>150</ele><time>2026-04-24T12:29:13Z</time></trkpt>
<trkpt lat="43.2540670000" lon="-1.0748520000"><ele>150</ele><time>2026-04-24T12:29:15Z</time></trkpt>
<trkpt lat="43.2540850000" lon="-1.0748280000"><ele>150</ele><time>2026-04-24T12:29:17Z</time></trkpt>
<trkpt lat="43.2541000000" lon="-1.0748120000"><ele>150</ele><time>2026-04-24T12:29:19Z</time></trkpt>
<trkpt lat="43.2541150000" lon="-1.0747920000"><ele>150</ele><time>2026-04-24T12:29:21Z</time></trkpt>
<trkpt lat="43.2541320000" lon="-1.0747700000"><ele>150</ele><time>2026-04-24T12:29:23Z</time></trkpt>
<trkpt lat="43.2541170000" lon="-1.0747500000"><ele>150</ele><time>2026-04-24T12:29:33Z</time></trkpt>
<trkpt lat="43.2541000000" lon="-1.0747370000"><ele>150</ele><time>2026-04-24T12:29:35Z</time></trkpt>
<trkpt lat="43.2540820000" lon="-1.0747170000"><ele>150</ele><time>2026-04-24T12:29:37Z</time></trkpt>
<trkpt lat="43.2540620000" lon="-1.0746970000"><ele>150</ele><time>2026-04-24T12:29:39Z</time></trkpt>
<trkpt lat="43.2540520000" lon="-1.0746750000"><ele>150</ele><time>2026-04-24T12:29:41Z</time></trkpt>
<trkpt lat="43.2540420000" lon="-1.0746520000"><ele>150</ele><time>2026-04-24T12:29:43Z</time></trkpt>
<trkpt lat="43.2540270000" lon="-1.0746370000"><ele>150</ele><time>2026-04-24T12:29:45Z</time></trkpt>
<trkpt lat="43.2540070000" lon="-1.0746270000"><ele>150</ele><time>2026-04-24T12:29:48Z</time></trkpt>
<trkpt lat="43.2539870000" lon="-1.0746270000"><ele>150</ele><time>2026-04-24T12:29:50Z</time></trkpt>
<trkpt lat="43.2539650000" lon="-1.0746320000"><ele>150</ele><time>2026-04-24T12:29:52Z</time></trkpt>
<trkpt lat="43.2539870000" lon="-1.0746150000"><ele>150</ele><time>2026-04-24T12:30:06Z</time></trkpt>
<trkpt lat="43.2540070000" lon="-1.0746070000"><ele>150</ele><time>2026-04-24T12:30:30Z</time></trkpt>
<trkpt lat="43.2540250000" lon="-1.0746220000"><ele>150</ele><time>2026-04-24T12:30:32Z</time></trkpt>
<trkpt lat="43.2540430000" lon="-1.0746320000"><ele>149</ele><time>2026-04-24T12:30:34Z</time></trkpt>
<trkpt lat="43.2540550000" lon="-1.0746050000"><ele>150</ele><time>2026-04-24T12:30:39Z</time></trkpt>
<trkpt lat="43.2540320000" lon="-1.0746070000"><ele>149</ele><time>2026-04-24T12:31:32Z</time></trkpt>
<trkpt lat="43.2540020000" lon="-1.0745970000"><ele>149</ele><time>2026-04-24T12:31:34Z</time></trkpt>
<trkpt lat="43.2539730000" lon="-1.0745920000"><ele>149</ele><time>2026-04-24T12:31:36Z</time></trkpt>
<trkpt lat="43.2539570000" lon="-1.0745850000"><ele>150</ele><time>2026-04-24T12:31:38Z</time></trkpt>
<trkpt lat="43.2539520000" lon="-1.0746170000"><ele>150</ele><time>2026-04-24T12:31:40Z</time></trkpt>
<trkpt lat="43.2539730000" lon="-1.0746370000"><ele>150</ele><time>2026-04-24T12:31:43Z</time></trkpt>
<trkpt lat="43.2539920000" lon="-1.0746420000"><ele>150</ele><time>2026-04-24T12:32:56Z</time></trkpt>
<trkpt lat="43.2540070000" lon="-1.0746620000"><ele>150</ele><time>2026-04-24T12:32:58Z</time></trkpt>
<trkpt lat="43.2540170000" lon="-1.0746880000"><ele>150</ele><time>2026-04-24T12:33:01Z</time></trkpt>
<trkpt lat="43.2540020000" lon="-1.0746620000"><ele>150</ele><time>2026-04-24T12:34:00Z</time></trkpt>
<trkpt lat="43.2539870000" lon="-1.0746500000"><ele>150</ele><time>2026-04-24T12:34:01Z</time></trkpt>
<trkpt lat="43.2539570000" lon="-1.0746170000"><ele>150</ele><time>2026-04-24T12:34:03Z</time></trkpt>
<trkpt lat="43.2539770000" lon="-1.0746320000"><ele>150</ele><time>2026-04-24T12:34:09Z</time></trkpt>
<trkpt lat="43.2539920000" lon="-1.0746520000"><ele>150</ele><time>2026-04-24T12:34:19Z</time></trkpt>
<trkpt lat="43.2540070000" lon="-1.0746870000"><ele>150</ele><time>2026-04-24T12:34:21Z</time></trkpt>
<trkpt lat="43.2540300000" lon="-1.0747250000"><ele>150</ele><time>2026-04-24T12:34:23Z</time></trkpt>
<trkpt lat="43.2540420000" lon="-1.0747470000"><ele>150</ele><time>2026-04-24T12:34:24Z</time></trkpt>
<trkpt lat="43.2540620000" lon="-1.0747550000"><ele>150</ele><time>2026-04-24T12:34:30Z</time></trkpt>
<trkpt lat="43.2540800000" lon="-1.0747920000"><ele>150</ele><time>2026-04-24T12:34:34Z</time></trkpt>
<trkpt lat="43.2540920000" lon="-1.0748150000"><ele>150</ele><time>2026-04-24T12:34:35Z</time></trkpt>
<trkpt lat="43.2540720000" lon="-1.0748170000"><ele>150</ele><time>2026-04-24T12:34:38Z</time></trkpt>
<trkpt lat="43.2540870000" lon="-1.0747880000"><ele>150</ele><time>2026-04-24T12:34:42Z</time></trkpt>
<trkpt lat="43.2541020000" lon="-1.0747650000"><ele>150</ele><time>2026-04-24T12:34:45Z</time></trkpt>
<trkpt lat="43.2541220000" lon="-1.0747670000"><ele>150</ele><time>2026-04-24T12:34:47Z</time></trkpt>
<trkpt lat="43.2541470000" lon="-1.0747570000"><ele>151</ele><time>2026-04-24T12:34:49Z</time></trkpt>
<trkpt lat="43.2541700000" lon="-1.0747420000"><ele>151</ele><time>2026-04-24T12:34:51Z</time></trkpt>
<trkpt lat="43.2541870000" lon="-1.0747250000"><ele>151</ele><time>2026-04-24T12:34:53Z</time></trkpt>
<trkpt lat="43.2542020000" lon="-1.0747070000"><ele>151</ele><time>2026-04-24T12:34:55Z</time></trkpt>
<trkpt lat="43.2542220000" lon="-1.0746870000"><ele>151</ele><time>2026-04-24T12:34:57Z</time></trkpt>
<trkpt lat="43.2542420000" lon="-1.0746720000"><ele>151</ele><time>2026-04-24T12:34:59Z</time></trkpt>
<trkpt lat="43.2542620000" lon="-1.0746530000"><ele>151</ele><time>2026-04-24T12:35:01Z</time></trkpt>
<trkpt lat="43.2542770000" lon="-1.0746380000"><ele>151</ele><time>2026-04-24T12:35:03Z</time></trkpt>
<trkpt lat="43.2542950000" lon="-1.0746250000"><ele>151</ele><time>2026-04-24T12:35:05Z</time></trkpt>
<trkpt lat="43.2543150000" lon="-1.0746070000"><ele>151</ele><time>2026-04-24T12:35:07Z</time></trkpt>
<trkpt lat="43.2543320000" lon="-1.0745900000"><ele>151</ele><time>2026-04-24T12:35:09Z</time></trkpt>
<trkpt lat="43.2543530000" lon="-1.0745720000"><ele>151</ele><time>2026-04-24T12:35:11Z</time></trkpt>
<trkpt lat="43.2543820000" lon="-1.0745580000"><ele>151</ele><time>2026-04-24T12:35:13Z</time></trkpt>
<trkpt lat="43.2544050000" lon="-1.0745420000"><ele>151</ele><time>2026-04-24T12:35:15Z</time></trkpt>
<trkpt lat="43.2544270000" lon="-1.0745270000"><ele>150</ele><time>2026-04-24T12:35:17Z</time></trkpt>
<trkpt lat="43.2544470000" lon="-1.0745120000"><ele>150</ele><time>2026-04-24T12:35:19Z</time></trkpt>
<trkpt lat="43.2544620000" lon="-1.0744920000"><ele>151</ele><time>2026-04-24T12:35:21Z</time></trkpt>
<trkpt lat="43.2544770000" lon="-1.0744770000"><ele>151</ele><time>2026-04-24T12:35:23Z</time></trkpt>
<trkpt lat="43.2544950000" lon="-1.0744620000"><ele>151</ele><time>2026-04-24T12:35:25Z</time></trkpt>
<trkpt lat="43.2545150000" lon="-1.0744470000"><ele>150</ele><time>2026-04-24T12:35:27Z</time></trkpt>
<trkpt lat="43.2545420000" lon="-1.0744370000"><ele>150</ele><time>2026-04-24T12:35:29Z</time></trkpt>
<trkpt lat="43.2545670000" lon="-1.0744230000"><ele>150</ele><time>2026-04-24T12:35:31Z</time></trkpt>
<trkpt lat="43.2546000000" lon="-1.0744120000"><ele>151</ele><time>2026-04-24T12:35:33Z</time></trkpt>
<trkpt lat="43.2546250000" lon="-1.0744000000"><ele>151</ele><time>2026-04-24T12:35:35Z</time></trkpt>
<trkpt lat="43.2546470000" lon="-1.0743830000"><ele>150</ele><time>2026-04-24T12:35:37Z</time></trkpt>
<trkpt lat="43.2546700000" lon="-1.0743670000"><ele>151</ele><time>2026-04-24T12:35:39Z</time></trkpt>
<trkpt lat="43.2546920000" lon="-1.0743520000"><ele>151</ele><time>2026-04-24T12:35:41Z</time></trkpt>
<trkpt lat="43.2547070000" lon="-1.0743370000"><ele>150</ele><time>2026-04-24T12:35:43Z</time></trkpt>
<trkpt lat="43.2547270000" lon="-1.0743200000"><ele>150</ele><time>2026-04-24T12:35:45Z</time></trkpt>
<trkpt lat="43.2547450000" lon="-1.0743020000"><ele>150</ele><time>2026-04-24T12:35:47Z</time></trkpt>
<trkpt lat="43.2547620000" lon="-1.0742820000"><ele>150</ele><time>2026-04-24T12:35:49Z</time></trkpt>
<trkpt lat="43.2547820000" lon="-1.0742620000"><ele>150</ele><time>2026-04-24T12:35:51Z</time></trkpt>
<trkpt lat="43.2547950000" lon="-1.0742320000"><ele>151</ele><time>2026-04-24T12:35:53Z</time></trkpt>
<trkpt lat="43.2548070000" lon="-1.0742000000"><ele>151</ele><time>2026-04-24T12:35:55Z</time></trkpt>
<trkpt lat="43.2548220000" lon="-1.0741700000"><ele>151</ele><time>2026-04-24T12:35:57Z</time></trkpt>
<trkpt lat="43.2548320000" lon="-1.0741400000"><ele>151</ele><time>2026-04-24T12:35:59Z</time></trkpt>
<trkpt lat="43.2548370000" lon="-1.0741050000"><ele>151</ele><time>2026-04-24T12:36:01Z</time></trkpt>
<trkpt lat="43.2548400000" lon="-1.0740700000"><ele>150</ele><time>2026-04-24T12:36:04Z</time></trkpt>
<trkpt lat="43.2548470000" lon="-1.0740420000"><ele>150</ele><time>2026-04-24T12:36:06Z</time></trkpt>
<trkpt lat="43.2548550000" lon="-1.0740120000"><ele>150</ele><time>2026-04-24T12:36:08Z</time></trkpt>
<trkpt lat="43.2548620000" lon="-1.0739770000"><ele>150</ele><time>2026-04-24T12:36:10Z</time></trkpt>
<trkpt lat="43.2548650000" lon="-1.0739420000"><ele>150</ele><time>2026-04-24T12:36:12Z</time></trkpt>
<trkpt lat="43.2548650000" lon="-1.0739020000"><ele>149</ele><time>2026-04-24T12:36:14Z</time></trkpt>
<trkpt lat="43.2548670000" lon="-1.0738700000"><ele>149</ele><time>2026-04-24T12:36:16Z</time></trkpt>
<trkpt lat="43.2548670000" lon="-1.0738370000"><ele>149</ele><time>2026-04-24T12:36:18Z</time></trkpt>
<trkpt lat="43.2548700000" lon="-1.0738020000"><ele>149</ele><time>2026-04-24T12:36:20Z</time></trkpt>
<trkpt lat="43.2548720000" lon="-1.0737700000"><ele>149</ele><time>2026-04-24T12:36:22Z</time></trkpt>
<trkpt lat="43.2548720000" lon="-1.0737420000"><ele>149</ele><time>2026-04-24T12:36:25Z</time></trkpt>
<trkpt lat="43.2548720000" lon="-1.0737080000"><ele>149</ele><time>2026-04-24T12:36:29Z</time></trkpt>
<trkpt lat="43.2548730000" lon="-1.0736800000"><ele>149</ele><time>2026-04-24T12:36:31Z</time></trkpt>
<trkpt lat="43.2548770000" lon="-1.0736470000"><ele>149</ele><time>2026-04-24T12:36:33Z</time></trkpt>
<trkpt lat="43.2548800000" lon="-1.0736220000"><ele>149</ele><time>2026-04-24T12:36:35Z</time></trkpt>
<trkpt lat="43.2548850000" lon="-1.0735870000"><ele>149</ele><time>2026-04-24T12:36:37Z</time></trkpt>
<trkpt lat="43.2548820000" lon="-1.0735600000"><ele>149</ele><time>2026-04-24T12:36:39Z</time></trkpt>
<trkpt lat="43.2548770000" lon="-1.0735180000"><ele>149</ele><time>2026-04-24T12:36:41Z</time></trkpt>
<trkpt lat="43.2548820000" lon="-1.0734770000"><ele>149</ele><time>2026-04-24T12:36:43Z</time></trkpt>
<trkpt lat="43.2548870000" lon="-1.0734420000"><ele>149</ele><time>2026-04-24T12:36:45Z</time></trkpt>
<trkpt lat="43.2548970000" lon="-1.0734120000"><ele>149</ele><time>2026-04-24T12:36:47Z</time></trkpt>
<trkpt lat="43.2549070000" lon="-1.0733830000"><ele>149</ele><time>2026-04-24T12:36:49Z</time></trkpt>
<trkpt lat="43.2549170000" lon="-1.0733570000"><ele>149</ele><time>2026-04-24T12:36:51Z</time></trkpt>
<trkpt lat="43.2549120000" lon="-1.0733250000"><ele>149</ele><time>2026-04-24T12:37:08Z</time></trkpt>
<trkpt lat="43.2549150000" lon="-1.0732900000"><ele>149</ele><time>2026-04-24T12:37:10Z</time></trkpt>
<trkpt lat="43.2549170000" lon="-1.0732520000"><ele>150</ele><time>2026-04-24T12:37:12Z</time></trkpt>
<trkpt lat="43.2549250000" lon="-1.0732220000"><ele>150</ele><time>2026-04-24T12:37:14Z</time></trkpt>
<trkpt lat="43.2549300000" lon="-1.0731920000"><ele>150</ele><time>2026-04-24T12:37:16Z</time></trkpt>
<trkpt lat="43.2549320000" lon="-1.0731620000"><ele>150</ele><time>2026-04-24T12:37:18Z</time></trkpt>
<trkpt lat="43.2549420000" lon="-1.0731270000"><ele>150</ele><time>2026-04-24T12:37:20Z</time></trkpt>
<trkpt lat="43.2549520000" lon="-1.0730950000"><ele>150</ele><time>2026-04-24T12:37:22Z</time></trkpt>
<trkpt lat="43.2549570000" lon="-1.0730650000"><ele>150</ele><time>2026-04-24T12:37:24Z</time></trkpt>
<trkpt lat="43.2549580000" lon="-1.0730320000"><ele>150</ele><time>2026-04-24T12:37:26Z</time></trkpt>
<trkpt lat="43.2549650000" lon="-1.0730020000"><ele>150</ele><time>2026-04-24T12:37:28Z</time></trkpt>
<trkpt lat="43.2549620000" lon="-1.0729750000"><ele>150</ele><time>2026-04-24T12:37:30Z</time></trkpt>
<trkpt lat="43.2549700000" lon="-1.0729500000"><ele>150</ele><time>2026-04-24T12:37:34Z</time></trkpt>
<trkpt lat="43.2549800000" lon="-1.0729270000"><ele>150</ele><time>2026-04-24T12:38:03Z</time></trkpt>
<trkpt lat="43.2549920000" lon="-1.0728930000"><ele>150</ele><time>2026-04-24T12:38:05Z</time></trkpt>
<trkpt lat="43.2550070000" lon="-1.0728580000"><ele>150</ele><time>2026-04-24T12:38:07Z</time></trkpt>
<trkpt lat="43.2550170000" lon="-1.0728270000"><ele>150</ele><time>2026-04-24T12:38:09Z</time></trkpt>
<trkpt lat="43.2550350000" lon="-1.0727970000"><ele>150</ele><time>2026-04-24T12:38:11Z</time></trkpt>
<trkpt lat="43.2550520000" lon="-1.0727800000"><ele>150</ele><time>2026-04-24T12:38:13Z</time></trkpt>
<trkpt lat="43.2550750000" lon="-1.0727450000"><ele>150</ele><time>2026-04-24T12:38:15Z</time></trkpt>
<trkpt lat="43.2550920000" lon="-1.0727170000"><ele>150</ele><time>2026-04-24T12:38:17Z</time></trkpt>
<trkpt lat="43.2551070000" lon="-1.0726970000"><ele>151</ele><time>2026-04-24T12:38:19Z</time></trkpt>
<trkpt lat="43.2551270000" lon="-1.0726720000"><ele>151</ele><time>2026-04-24T12:38:22Z</time></trkpt>
<trkpt lat="43.2551420000" lon="-1.0726470000"><ele>151</ele><time>2026-04-24T12:38:24Z</time></trkpt>
<trkpt lat="43.2551550000" lon="-1.0726320000"><ele>151</ele><time>2026-04-24T12:38:27Z</time></trkpt>
<trkpt lat="43.2551720000" lon="-1.0726170000"><ele>151</ele><time>2026-04-24T12:38:29Z</time></trkpt>
<trkpt lat="43.2551900000" lon="-1.0725970000"><ele>151</ele><time>2026-04-24T12:38:31Z</time></trkpt>
<trkpt lat="43.2552100000" lon="-1.0725670000"><ele>151</ele><time>2026-04-24T12:38:33Z</time></trkpt>
<trkpt lat="43.2552270000" lon="-1.0725370000"><ele>151</ele><time>2026-04-24T12:38:35Z</time></trkpt>
<trkpt lat="43.2552320000" lon="-1.0725070000"><ele>151</ele><time>2026-04-24T12:38:38Z</time></trkpt>
<trkpt lat="43.2552520000" lon="-1.0725020000"><ele>151</ele><time>2026-04-24T12:38:42Z</time></trkpt>
<trkpt lat="43.2552700000" lon="-1.0724880000"><ele>151</ele><time>2026-04-24T12:38:44Z</time></trkpt>
<trkpt lat="43.2552850000" lon="-1.0724720000"><ele>151</ele><time>2026-04-24T12:38:46Z</time></trkpt>
<trkpt lat="43.2553070000" lon="-1.0724620000"><ele>151</ele><time>2026-04-24T12:38:48Z</time></trkpt>
<trkpt lat="43.2553300000" lon="-1.0724670000"><ele>151</ele><time>2026-04-24T12:38:57Z</time></trkpt>
<trkpt lat="43.2553570000" lon="-1.0724670000"><ele>151</ele><time>2026-04-24T12:38:59Z</time></trkpt>
<trkpt lat="43.2553850000" lon="-1.0724620000"><ele>151</ele><time>2026-04-24T12:39:01Z</time></trkpt>
<trkpt lat="43.2554050000" lon="-1.0724530000"><ele>151</ele><time>2026-04-24T12:39:03Z</time></trkpt>
<trkpt lat="43.2554320000" lon="-1.0724480000"><ele>152</ele><time>2026-04-24T12:39:05Z</time></trkpt>
<trkpt lat="43.2554520000" lon="-1.0724400000"><ele>152</ele><time>2026-04-24T12:39:07Z</time></trkpt>
<trkpt lat="43.2554770000" lon="-1.0724270000"><ele>152</ele><time>2026-04-24T12:39:09Z</time></trkpt>
<trkpt lat="43.2554970000" lon="-1.0724200000"><ele>152</ele><time>2026-04-24T12:39:11Z</time></trkpt>
<trkpt lat="43.2555000000" lon="-1.0723900000"><ele>153</ele><time>2026-04-24T12:39:16Z</time></trkpt>
<trkpt lat="43.2555170000" lon="-1.0723620000"><ele>153</ele><time>2026-04-24T12:39:18Z</time></trkpt>
<trkpt lat="43.2555320000" lon="-1.0723400000"><ele>153</ele><time>2026-04-24T12:39:20Z</time></trkpt>
<trkpt lat="43.2555520000" lon="-1.0723120000"><ele>153</ele><time>2026-04-24T12:39:22Z</time></trkpt>
<trkpt lat="43.2555670000" lon="-1.0722850000"><ele>153</ele><time>2026-04-24T12:39:24Z</time></trkpt>
<trkpt lat="43.2555820000" lon="-1.0722620000"><ele>153</ele><time>2026-04-24T12:39:26Z</time></trkpt>
<trkpt lat="43.2555920000" lon="-1.0722320000"><ele>153</ele><time>2026-04-24T12:39:28Z</time></trkpt>
<trkpt lat="43.2556000000" lon="-1.0722020000"><ele>153</ele><time>2026-04-24T12:39:30Z</time></trkpt>
<trkpt lat="43.2556020000" lon="-1.0721620000"><ele>153</ele><time>2026-04-24T12:39:32Z</time></trkpt>
<trkpt lat="43.2556070000" lon="-1.0721270000"><ele>153</ele><time>2026-04-24T12:39:34Z</time></trkpt>
<trkpt lat="43.2556020000" lon="-1.0720970000"><ele>153</ele><time>2026-04-24T12:39:36Z</time></trkpt>
<trkpt lat="43.2556020000" lon="-1.0720720000"><ele>154</ele><time>2026-04-24T12:39:38Z</time></trkpt>
<trkpt lat="43.2556100000" lon="-1.0720430000"><ele>154</ele><time>2026-04-24T12:39:40Z</time></trkpt>
<trkpt lat="43.2556100000" lon="-1.0720170000"><ele>154</ele><time>2026-04-24T12:39:48Z</time></trkpt>
<trkpt lat="43.2556200000" lon="-1.0719920000"><ele>154</ele><time>2026-04-24T12:39:53Z</time></trkpt>
<trkpt lat="43.2556120000" lon="-1.0719570000"><ele>154</ele><time>2026-04-24T12:39:56Z</time></trkpt>
<trkpt lat="43.2556150000" lon="-1.0719270000"><ele>154</ele><time>2026-04-24T12:39:58Z</time></trkpt>
<trkpt lat="43.2556200000" lon="-1.0719020000"><ele>154</ele><time>2026-04-24T12:40:00Z</time></trkpt>
<trkpt lat="43.2556220000" lon="-1.0718670000"><ele>154</ele><time>2026-04-24T12:40:02Z</time></trkpt>
<trkpt lat="43.2556300000" lon="-1.0718270000"><ele>154</ele><time>2026-04-24T12:40:04Z</time></trkpt>
<trkpt lat="43.2556300000" lon="-1.0717870000"><ele>155</ele><time>2026-04-24T12:40:06Z</time></trkpt>
<trkpt lat="43.2556270000" lon="-1.0717570000"><ele>155</ele><time>2026-04-24T12:40:08Z</time></trkpt>
<trkpt lat="43.2556450000" lon="-1.0717370000"><ele>155</ele><time>2026-04-24T12:40:11Z</time></trkpt>
<trkpt lat="43.2556600000" lon="-1.0717150000"><ele>155</ele><time>2026-04-24T12:40:16Z</time></trkpt>
<trkpt lat="43.2556570000" lon="-1.0716770000"><ele>155</ele><time>2026-04-24T12:40:20Z</time></trkpt>
<trkpt lat="43.2556420000" lon="-1.0716470000"><ele>156</ele><time>2026-04-24T12:40:22Z</time></trkpt>
<trkpt lat="43.2556330000" lon="-1.0716170000"><ele>156</ele><time>2026-04-24T12:40:24Z</time></trkpt>
<trkpt lat="43.2556330000" lon="-1.0715880000"><ele>156</ele><time>2026-04-24T12:40:26Z</time></trkpt>
<trkpt lat="43.2556320000" lon="-1.0715550000"><ele>156</ele><time>2026-04-24T12:40:29Z</time></trkpt>
<trkpt lat="43.2556150000" lon="-1.0715370000"><ele>156</ele><time>2026-04-24T12:40:33Z</time></trkpt>
<trkpt lat="43.2556120000" lon="-1.0715020000"><ele>156</ele><time>2026-04-24T12:40:53Z</time></trkpt>
<trkpt lat="43.2556070000" lon="-1.0714750000"><ele>156</ele><time>2026-04-24T12:40:55Z</time></trkpt>
<trkpt lat="43.2555820000" lon="-1.0714630000"><ele>156</ele><time>2026-04-24T12:41:10Z</time></trkpt>
<trkpt lat="43.2556100000" lon="-1.0714450000"><ele>157</ele><time>2026-04-24T12:41:16Z</time></trkpt>
<trkpt lat="43.2556320000" lon="-1.0714470000"><ele>157</ele><time>2026-04-24T12:41:19Z</time></trkpt>
<trkpt lat="43.2556470000" lon="-1.0714130000"><ele>157</ele><time>2026-04-24T12:41:30Z</time></trkpt>
<trkpt lat="43.2556670000" lon="-1.0713770000"><ele>157</ele><time>2026-04-24T12:41:32Z</time></trkpt>
<trkpt lat="43.2556870000" lon="-1.0713520000"><ele>157</ele><time>2026-04-24T12:41:34Z</time></trkpt>
<trkpt lat="43.2557100000" lon="-1.0713520000"><ele>157</ele><time>2026-04-24T12:41:37Z</time></trkpt>
<trkpt lat="43.2557270000" lon="-1.0713330000"><ele>157</ele><time>2026-04-24T12:41:40Z</time></trkpt>
<trkpt lat="43.2557470000" lon="-1.0713100000"><ele>158</ele><time>2026-04-24T12:41:44Z</time></trkpt>
<trkpt lat="43.2557650000" lon="-1.0712870000"><ele>158</ele><time>2026-04-24T12:41:46Z</time></trkpt>
<trkpt lat="43.2557820000" lon="-1.0712770000"><ele>158</ele><time>2026-04-24T12:41:48Z</time></trkpt>
<trkpt lat="43.2557970000" lon="-1.0712470000"><ele>158</ele><time>2026-04-24T12:41:51Z</time></trkpt>
<trkpt lat="43.2558120000" lon="-1.0712270000"><ele>158</ele><time>2026-04-24T12:41:53Z</time></trkpt>
<trkpt lat="43.2558270000" lon="-1.0712020000"><ele>158</ele><time>2026-04-24T12:41:55Z</time></trkpt>
<trkpt lat="43.2558400000" lon="-1.0711820000"><ele>158</ele><time>2026-04-24T12:41:57Z</time></trkpt>
<trkpt lat="43.2558580000" lon="-1.0711750000"><ele>158</ele><time>2026-04-24T12:41:59Z</time></trkpt>
<trkpt lat="43.2558770000" lon="-1.0711650000"><ele>158</ele><time>2026-04-24T12:42:01Z</time></trkpt>
<trkpt lat="43.2559020000" lon="-1.0711670000"><ele>158</ele><time>2026-04-24T12:42:03Z</time></trkpt>
<trkpt lat="43.2559300000" lon="-1.0711750000"><ele>158</ele><time>2026-04-24T12:42:05Z</time></trkpt>
<trkpt lat="43.2559520000" lon="-1.0711870000"><ele>158</ele><time>2026-04-24T12:42:07Z</time></trkpt>
<trkpt lat="43.2559770000" lon="-1.0712050000"><ele>158</ele><time>2026-04-24T12:42:09Z</time></trkpt>
<trkpt lat="43.2559950000" lon="-1.0712200000"><ele>158</ele><time>2026-04-24T12:42:11Z</time></trkpt>
<trkpt lat="43.2560100000" lon="-1.0712370000"><ele>158</ele><time>2026-04-24T12:42:13Z</time></trkpt>
<trkpt lat="43.2560220000" lon="-1.0712520000"><ele>159</ele><time>2026-04-24T12:42:15Z</time></trkpt>
<trkpt lat="43.2560350000" lon="-1.0712720000"><ele>159</ele><time>2026-04-24T12:42:17Z</time></trkpt>
<trkpt lat="43.2560400000" lon="-1.0712970000"><ele>159</ele><time>2026-04-24T12:42:19Z</time></trkpt>
<trkpt lat="43.2560400000" lon="-1.0713250000"><ele>159</ele><time>2026-04-24T12:42:21Z</time></trkpt>
<trkpt lat="43.2560420000" lon="-1.0713520000"><ele>159</ele><time>2026-04-24T12:42:23Z</time></trkpt>
<trkpt lat="43.2560420000" lon="-1.0713770000"><ele>159</ele><time>2026-04-24T12:42:25Z</time></trkpt>
<trkpt lat="43.2560420000" lon="-1.0714020000"><ele>159</ele><time>2026-04-24T12:42:27Z</time></trkpt>
<trkpt lat="43.2560420000" lon="-1.0714320000"><ele>160</ele><time>2026-04-24T12:42:29Z</time></trkpt>
<trkpt lat="43.2560550000" lon="-1.0714620000"><ele>160</ele><time>2026-04-24T12:42:31Z</time></trkpt>
<trkpt lat="43.2560620000" lon="-1.0714920000"><ele>160</ele><time>2026-04-24T12:42:33Z</time></trkpt>
<trkpt lat="43.2560770000" lon="-1.0715170000"><ele>160</ele><time>2026-04-24T12:42:35Z</time></trkpt>
<trkpt lat="43.2560900000" lon="-1.0715400000"><ele>161</ele><time>2026-04-24T12:42:37Z</time></trkpt>
<trkpt lat="43.2561050000" lon="-1.0715600000"><ele>161</ele><time>2026-04-24T12:42:39Z</time></trkpt>
<trkpt lat="43.2561220000" lon="-1.0715820000"><ele>161</ele><time>2026-04-24T12:42:41Z</time></trkpt>
<trkpt lat="43.2561370000" lon="-1.0716070000"><ele>161</ele><time>2026-04-24T12:42:43Z</time></trkpt>
<trkpt lat="43.2561520000" lon="-1.0716270000"><ele>161</ele><time>2026-04-24T12:42:45Z</time></trkpt>
<trkpt lat="43.2561680000" lon="-1.0716470000"><ele>161</ele><time>2026-04-24T12:42:48Z</time></trkpt>
<trkpt lat="43.2561820000" lon="-1.0716670000"><ele>161</ele><time>2026-04-24T12:42:50Z</time></trkpt>
<trkpt lat="43.2561970000" lon="-1.0716900000"><ele>162</ele><time>2026-04-24T12:42:52Z</time></trkpt>
<trkpt lat="43.2562120000" lon="-1.0717170000"><ele>162</ele><time>2026-04-24T12:42:54Z</time></trkpt>
<trkpt lat="43.2562270000" lon="-1.0717470000"><ele>162</ele><time>2026-04-24T12:42:56Z</time></trkpt>
<trkpt lat="43.2562370000" lon="-1.0717720000"><ele>162</ele><time>2026-04-24T12:42:58Z</time></trkpt>
<trkpt lat="43.2562570000" lon="-1.0717920000"><ele>162</ele><time>2026-04-24T12:43:00Z</time></trkpt>
<trkpt lat="43.2562670000" lon="-1.0718170000"><ele>162</ele><time>2026-04-24T12:43:02Z</time></trkpt>
<trkpt lat="43.2562750000" lon="-1.0718420000"><ele>162</ele><time>2026-04-24T12:43:04Z</time></trkpt>
<trkpt lat="43.2562870000" lon="-1.0718620000"><ele>162</ele><time>2026-04-24T12:43:06Z</time></trkpt>
<trkpt lat="43.2563070000" lon="-1.0718800000"><ele>162</ele><time>2026-04-24T12:43:08Z</time></trkpt>
<trkpt lat="43.2563370000" lon="-1.0718970000"><ele>162</ele><time>2026-04-24T12:43:10Z</time></trkpt>
<trkpt lat="43.2563570000" lon="-1.0719130000"><ele>162</ele><time>2026-04-24T12:43:12Z</time></trkpt>
<trkpt lat="43.2563800000" lon="-1.0719320000"><ele>163</ele><time>2026-04-24T12:43:14Z</time></trkpt>
<trkpt lat="43.2564050000" lon="-1.0719480000"><ele>163</ele><time>2026-04-24T12:43:16Z</time></trkpt>
<trkpt lat="43.2564220000" lon="-1.0719670000"><ele>163</ele><time>2026-04-24T12:43:18Z</time></trkpt>
<trkpt lat="43.2564420000" lon="-1.0719820000"><ele>163</ele><time>2026-04-24T12:43:20Z</time></trkpt>
<trkpt lat="43.2564550000" lon="-1.0720000000"><ele>163</ele><time>2026-04-24T12:43:22Z</time></trkpt>
<trkpt lat="43.2564670000" lon="-1.0720220000"><ele>163</ele><time>2026-04-24T12:43:26Z</time></trkpt>
</trkseg>
</trk>
</gpx>